<?xml version="1.0" encoding="UTF-8" standalone="no" ?><gpx xmlns="http://www.topografix.com/GPX/1/1" xmlns:gpxx="http://www.garmin.com/xmlschemas/GpxExtensions/v3" xmlns:wptx1="http://www.garmin.com/xmlschemas/WaypointExtension/v1" xmlns:gpxtpx="http://www.garmin.com/xmlschemas/TrackPointExtension/v1" creator="GuideVTT.com" version="1.1" xmlns:xsi="http://www.w3.org/2001/XMLSchema-instance" xsi:schemaLocation="http://www.topografix.com/GPX/1/1 http://www.topografix.com/GPX/1/1/gpx.xsd http://www.garmin.com/xmlschemas/GpxExtensions/v3 http://www8.garmin.com/xmlschemas/GpxExtensionsv3.xsd http://www.garmin.com/xmlschemas/WaypointExtension/v1 http://www8.garmin.com/xmlschemas/WaypointExtensionv1.xsd http://www.garmin.com/xmlschemas/TrackPointExtension/v1 http://www.garmin.com/xmlschemas/TrackPointExtensionv1.xsd">
<metadata><link href="http://www.garmin.com"><text>Garmin International</text></link><time>2013-06-22T15:13:50Z</time></metadata>
<trk><name>2013-11-03-01_trk.gpx</name><extensions><gpxx:TrackExtension><gpxx:DisplayColor>Cyan</gpxx:DisplayColor></gpxx:TrackExtension></extensions><trkseg>
<trkpt lat="48.496717" lon="2.634547"><ele></ele><time>2017-9-18T22:24:44Z</time></trkpt>
<trkpt lat="48.496657" lon="2.634555"><ele></ele><time>2017-9-18T22:24:47Z</time></trkpt>
<trkpt lat="48.496582" lon="2.634572"><ele></ele><time>2017-9-18T22:24:50Z</time></trkpt>
<trkpt lat="48.496435" lon="2.634587"><ele></ele><time>2017-9-18T22:24:53Z</time></trkpt>
<trkpt lat="48.496348" lon="2.634595"><ele></ele><time>2017-9-18T22:24:56Z</time></trkpt>
<trkpt lat="48.496302" lon="2.634597"><ele></ele><time>2017-9-18T22:24:59Z</time></trkpt>
<trkpt lat="48.496255" lon="2.6346"><ele></ele><time>2017-9-18T22:25:2Z</time></trkpt>
<trkpt lat="48.496167" lon="2.6346"><ele></ele><time>2017-9-18T22:25:5Z</time></trkpt>
<trkpt lat="48.49612" lon="2.634603"><ele></ele><time>2017-9-18T22:25:8Z</time></trkpt>
<trkpt lat="48.496073" lon="2.634605"><ele></ele><time>2017-9-18T22:25:11Z</time></trkpt>
<trkpt lat="48.496023" lon="2.634615"><ele></ele><time>2017-9-18T22:25:14Z</time></trkpt>
<trkpt lat="48.495972" lon="2.634625"><ele></ele><time>2017-9-18T22:25:17Z</time></trkpt>
<trkpt lat="48.495923" lon="2.634618"><ele></ele><time>2017-9-18T22:25:20Z</time></trkpt>
<trkpt lat="48.49582" lon="2.634628"><ele></ele><time>2017-9-18T22:25:23Z</time></trkpt>
<trkpt lat="48.495768" lon="2.634635"><ele></ele><time>2017-9-18T22:25:26Z</time></trkpt>
<trkpt lat="48.495713" lon="2.634647"><ele></ele><time>2017-9-18T22:25:29Z</time></trkpt>
<trkpt lat="48.495663" lon="2.634655"><ele></ele><time>2017-9-18T22:25:32Z</time></trkpt>
<trkpt lat="48.495612" lon="2.634662"><ele></ele><time>2017-9-18T22:25:35Z</time></trkpt>
<trkpt lat="48.495562" lon="2.634667"><ele></ele><time>2017-9-18T22:25:38Z</time></trkpt>
<trkpt lat="48.495473" lon="2.63467"><ele></ele><time>2017-9-18T22:25:41Z</time></trkpt>
<trkpt lat="48.495333" lon="2.634688"><ele></ele><time>2017-9-18T22:25:44Z</time></trkpt>
<trkpt lat="48.495287" lon="2.634692"><ele></ele><time>2017-9-18T22:25:47Z</time></trkpt>
<trkpt lat="48.495238" lon="2.6347"><ele></ele><time>2017-9-18T22:25:50Z</time></trkpt>
<trkpt lat="48.495193" lon="2.634708"><ele></ele><time>2017-9-18T22:25:53Z</time></trkpt>
<trkpt lat="48.495145" lon="2.634715"><ele></ele><time>2017-9-18T22:25:56Z</time></trkpt>
<trkpt lat="48.495098" lon="2.634722"><ele></ele><time>2017-9-18T22:25:59Z</time></trkpt>
<trkpt lat="48.495052" lon="2.634725"><ele></ele><time>2017-9-18T22:26:2Z</time></trkpt>
<trkpt lat="48.495005" lon="2.63473"><ele></ele><time>2017-9-18T22:26:5Z</time></trkpt>
<trkpt lat="48.494918" lon="2.634742"><ele></ele><time>2017-9-18T22:26:8Z</time></trkpt>
<trkpt lat="48.494835" lon="2.634755"><ele></ele><time>2017-9-18T22:26:11Z</time></trkpt>
<trkpt lat="48.49475" lon="2.634762"><ele></ele><time>2017-9-18T22:26:14Z</time></trkpt>
<trkpt lat="48.494708" lon="2.634763"><ele></ele><time>2017-9-18T22:26:17Z</time></trkpt>
<trkpt lat="48.494572" lon="2.634787"><ele></ele><time>2017-9-18T22:26:20Z</time></trkpt>
<trkpt lat="48.494485" lon="2.6348"><ele></ele><time>2017-9-18T22:26:23Z</time></trkpt>
<trkpt lat="48.494405" lon="2.634815"><ele></ele><time>2017-9-18T22:26:26Z</time></trkpt>
<trkpt lat="48.494338" lon="2.63481"><ele></ele><time>2017-9-18T22:26:29Z</time></trkpt>
<trkpt lat="48.494262" lon="2.634803"><ele></ele><time>2017-9-18T22:26:32Z</time></trkpt>
<trkpt lat="48.494178" lon="2.634808"><ele></ele><time>2017-9-18T22:26:35Z</time></trkpt>
<trkpt lat="48.49409" lon="2.634808"><ele></ele><time>2017-9-18T22:26:38Z</time></trkpt>
<trkpt lat="48.494043" lon="2.634812"><ele></ele><time>2017-9-18T22:26:41Z</time></trkpt>
<trkpt lat="48.493992" lon="2.634822"><ele></ele><time>2017-9-18T22:26:44Z</time></trkpt>
<trkpt lat="48.493945" lon="2.634833"><ele></ele><time>2017-9-18T22:26:47Z</time></trkpt>
<trkpt lat="48.493858" lon="2.634858"><ele></ele><time>2017-9-18T22:26:50Z</time></trkpt>
<trkpt lat="48.493815" lon="2.634863"><ele></ele><time>2017-9-18T22:26:53Z</time></trkpt>
<trkpt lat="48.493763" lon="2.634873"><ele></ele><time>2017-9-18T22:26:56Z</time></trkpt>
<trkpt lat="48.493713" lon="2.63488"><ele></ele><time>2017-9-18T22:26:59Z</time></trkpt>
<trkpt lat="48.493662" lon="2.634883"><ele></ele><time>2017-9-18T22:27:2Z</time></trkpt>
<trkpt lat="48.49361" lon="2.634893"><ele></ele><time>2017-9-18T22:27:5Z</time></trkpt>
<trkpt lat="48.493558" lon="2.634897"><ele></ele><time>2017-9-18T22:27:8Z</time></trkpt>
<trkpt lat="48.493507" lon="2.634905"><ele></ele><time>2017-9-18T22:27:11Z</time></trkpt>
<trkpt lat="48.493463" lon="2.63491"><ele></ele><time>2017-9-18T22:27:14Z</time></trkpt>
<trkpt lat="48.493378" lon="2.634912"><ele></ele><time>2017-9-18T22:27:17Z</time></trkpt>
<trkpt lat="48.493332" lon="2.634917"><ele></ele><time>2017-9-18T22:27:20Z</time></trkpt>
<trkpt lat="48.493283" lon="2.634925"><ele></ele><time>2017-9-18T22:27:23Z</time></trkpt>
<trkpt lat="48.493197" lon="2.634937"><ele></ele><time>2017-9-18T22:27:26Z</time></trkpt>
<trkpt lat="48.493152" lon="2.634945"><ele></ele><time>2017-9-18T22:27:29Z</time></trkpt>
<trkpt lat="48.493103" lon="2.634953"><ele></ele><time>2017-9-18T22:27:32Z</time></trkpt>
<trkpt lat="48.493057" lon="2.63496"><ele></ele><time>2017-9-18T22:27:35Z</time></trkpt>
<trkpt lat="48.492968" lon="2.634965"><ele></ele><time>2017-9-18T22:27:38Z</time></trkpt>
<trkpt lat="48.492922" lon="2.63497"><ele></ele><time>2017-9-18T22:27:41Z</time></trkpt>
<trkpt lat="48.492873" lon="2.634978"><ele></ele><time>2017-9-18T22:27:44Z</time></trkpt>
<trkpt lat="48.492827" lon="2.634983"><ele></ele><time>2017-9-18T22:27:47Z</time></trkpt>
<trkpt lat="48.492778" lon="2.634987"><ele></ele><time>2017-9-18T22:27:50Z</time></trkpt>
<trkpt lat="48.492693" lon="2.63499"><ele></ele><time>2017-9-18T22:27:53Z</time></trkpt>
<trkpt lat="48.492647" lon="2.634997"><ele></ele><time>2017-9-18T22:27:56Z</time></trkpt>
<trkpt lat="48.492597" lon="2.635005"><ele></ele><time>2017-9-18T22:27:59Z</time></trkpt>
<trkpt lat="48.492552" lon="2.63502"><ele></ele><time>2017-9-18T22:28:2Z</time></trkpt>
<trkpt lat="48.492507" lon="2.635032"><ele></ele><time>2017-9-18T22:28:5Z</time></trkpt>
<trkpt lat="48.49246" lon="2.635035"><ele></ele><time>2017-9-18T22:28:8Z</time></trkpt>
<trkpt lat="48.492412" lon="2.635037"><ele></ele><time>2017-9-18T22:28:11Z</time></trkpt>
<trkpt lat="48.492362" lon="2.63504"><ele></ele><time>2017-9-18T22:28:14Z</time></trkpt>
<trkpt lat="48.492312" lon="2.635042"><ele></ele><time>2017-9-18T22:28:17Z</time></trkpt>
<trkpt lat="48.492267" lon="2.635045"><ele></ele><time>2017-9-18T22:28:20Z</time></trkpt>
<trkpt lat="48.492217" lon="2.63505"><ele></ele><time>2017-9-18T22:28:23Z</time></trkpt>
<trkpt lat="48.492122" lon="2.635058"><ele></ele><time>2017-9-18T22:28:26Z</time></trkpt>
<trkpt lat="48.492045" lon="2.635058"><ele></ele><time>2017-9-18T22:28:29Z</time></trkpt>
<trkpt lat="48.492" lon="2.635065"><ele></ele><time>2017-9-18T22:28:32Z</time></trkpt>
<trkpt lat="48.491955" lon="2.63507"><ele></ele><time>2017-9-18T22:28:35Z</time></trkpt>
<trkpt lat="48.49191" lon="2.635078"><ele></ele><time>2017-9-18T22:28:38Z</time></trkpt>
<trkpt lat="48.491863" lon="2.635088"><ele></ele><time>2017-9-18T22:28:41Z</time></trkpt>
<trkpt lat="48.491777" lon="2.635118"><ele></ele><time>2017-9-18T22:28:44Z</time></trkpt>
<trkpt lat="48.491703" lon="2.635187"><ele></ele><time>2017-9-18T22:28:47Z</time></trkpt>
<trkpt lat="48.491645" lon="2.635287"><ele></ele><time>2017-9-18T22:28:50Z</time></trkpt>
<trkpt lat="48.491605" lon="2.635403"><ele></ele><time>2017-9-18T22:28:53Z</time></trkpt>
<trkpt lat="48.49156" lon="2.635512"><ele></ele><time>2017-9-18T22:28:56Z</time></trkpt>
<trkpt lat="48.491535" lon="2.63558"><ele></ele><time>2017-9-18T22:28:59Z</time></trkpt>
<trkpt lat="48.491512" lon="2.63565"><ele></ele><time>2017-9-18T22:29:2Z</time></trkpt>
<trkpt lat="48.491497" lon="2.635715"><ele></ele><time>2017-9-18T22:29:5Z</time></trkpt>
<trkpt lat="48.49148" lon="2.63578"><ele></ele><time>2017-9-18T22:29:8Z</time></trkpt>
<trkpt lat="48.49146" lon="2.635843"><ele></ele><time>2017-9-18T22:29:11Z</time></trkpt>
<trkpt lat="48.49144" lon="2.635905"><ele></ele><time>2017-9-18T22:29:14Z</time></trkpt>
<trkpt lat="48.4914" lon="2.636025"><ele></ele><time>2017-9-18T22:29:17Z</time></trkpt>
<trkpt lat="48.491383" lon="2.636082"><ele></ele><time>2017-9-18T22:29:20Z</time></trkpt>
<trkpt lat="48.491343" lon="2.636198"><ele></ele><time>2017-9-18T22:29:23Z</time></trkpt>
<trkpt lat="48.491297" lon="2.636315"><ele></ele><time>2017-9-18T22:29:26Z</time></trkpt>
<trkpt lat="48.491248" lon="2.636432"><ele></ele><time>2017-9-18T22:29:29Z</time></trkpt>
<trkpt lat="48.491213" lon="2.63657"><ele></ele><time>2017-9-18T22:29:32Z</time></trkpt>
<trkpt lat="48.491218" lon="2.636693"><ele></ele><time>2017-9-18T22:29:35Z</time></trkpt>
<trkpt lat="48.491208" lon="2.63676"><ele></ele><time>2017-9-18T22:29:38Z</time></trkpt>
<trkpt lat="48.491192" lon="2.636827"><ele></ele><time>2017-9-18T22:29:41Z</time></trkpt>
<trkpt lat="48.491167" lon="2.636952"><ele></ele><time>2017-9-18T22:29:44Z</time></trkpt>
<trkpt lat="48.491145" lon="2.63708"><ele></ele><time>2017-9-18T22:29:47Z</time></trkpt>
<trkpt lat="48.491125" lon="2.637147"><ele></ele><time>2017-9-18T22:29:50Z</time></trkpt>
<trkpt lat="48.491107" lon="2.637215"><ele></ele><time>2017-9-18T22:29:53Z</time></trkpt>
<trkpt lat="48.491095" lon="2.637285"><ele></ele><time>2017-9-18T22:29:56Z</time></trkpt>
<trkpt lat="48.491082" lon="2.637357"><ele></ele><time>2017-9-18T22:29:59Z</time></trkpt>
<trkpt lat="48.491063" lon="2.637425"><ele></ele><time>2017-9-18T22:30:2Z</time></trkpt>
<trkpt lat="48.491047" lon="2.637485"><ele></ele><time>2017-9-18T22:30:5Z</time></trkpt>
<trkpt lat="48.49103" lon="2.637552"><ele></ele><time>2017-9-18T22:30:8Z</time></trkpt>
<trkpt lat="48.491" lon="2.637678"><ele></ele><time>2017-9-18T22:30:11Z</time></trkpt>
<trkpt lat="48.490985" lon="2.63774"><ele></ele><time>2017-9-18T22:30:14Z</time></trkpt>
<trkpt lat="48.49097" lon="2.637807"><ele></ele><time>2017-9-18T22:30:17Z</time></trkpt>
<trkpt lat="48.490957" lon="2.637877"><ele></ele><time>2017-9-18T22:30:20Z</time></trkpt>
<trkpt lat="48.490945" lon="2.637943"><ele></ele><time>2017-9-18T22:30:23Z</time></trkpt>
<trkpt lat="48.490937" lon="2.638013"><ele></ele><time>2017-9-18T22:30:26Z</time></trkpt>
<trkpt lat="48.490903" lon="2.638138"><ele></ele><time>2017-9-18T22:30:29Z</time></trkpt>
<trkpt lat="48.490883" lon="2.638202"><ele></ele><time>2017-9-18T22:30:32Z</time></trkpt>
<trkpt lat="48.490862" lon="2.638267"><ele></ele><time>2017-9-18T22:30:35Z</time></trkpt>
<trkpt lat="48.49084" lon="2.638333"><ele></ele><time>2017-9-18T22:30:38Z</time></trkpt>
<trkpt lat="48.490822" lon="2.6384"><ele></ele><time>2017-9-18T22:30:41Z</time></trkpt>
<trkpt lat="48.490803" lon="2.638467"><ele></ele><time>2017-9-18T22:30:44Z</time></trkpt>
<trkpt lat="48.490783" lon="2.638532"><ele></ele><time>2017-9-18T22:30:47Z</time></trkpt>
<trkpt lat="48.490767" lon="2.638595"><ele></ele><time>2017-9-18T22:30:50Z</time></trkpt>
<trkpt lat="48.490747" lon="2.638658"><ele></ele><time>2017-9-18T22:30:53Z</time></trkpt>
<trkpt lat="48.490727" lon="2.638718"><ele></ele><time>2017-9-18T22:30:56Z</time></trkpt>
<trkpt lat="48.490707" lon="2.638787"><ele></ele><time>2017-9-18T22:30:59Z</time></trkpt>
<trkpt lat="48.490692" lon="2.638853"><ele></ele><time>2017-9-18T22:31:2Z</time></trkpt>
<trkpt lat="48.490675" lon="2.63892"><ele></ele><time>2017-9-18T22:31:5Z</time></trkpt>
<trkpt lat="48.49065" lon="2.639058"><ele></ele><time>2017-9-18T22:31:8Z</time></trkpt>
<trkpt lat="48.490638" lon="2.639128"><ele></ele><time>2017-9-18T22:31:11Z</time></trkpt>
<trkpt lat="48.490625" lon="2.639198"><ele></ele><time>2017-9-18T22:31:14Z</time></trkpt>
<trkpt lat="48.490612" lon="2.63927"><ele></ele><time>2017-9-18T22:31:17Z</time></trkpt>
<trkpt lat="48.490597" lon="2.639337"><ele></ele><time>2017-9-18T22:31:20Z</time></trkpt>
<trkpt lat="48.49058" lon="2.639398"><ele></ele><time>2017-9-18T22:31:23Z</time></trkpt>
<trkpt lat="48.490527" lon="2.639583"><ele></ele><time>2017-9-18T22:31:26Z</time></trkpt>
<trkpt lat="48.490507" lon="2.639643"><ele></ele><time>2017-9-18T22:31:29Z</time></trkpt>
<trkpt lat="48.490475" lon="2.639765"><ele></ele><time>2017-9-18T22:31:32Z</time></trkpt>
<trkpt lat="48.490445" lon="2.639865"><ele></ele><time>2017-9-18T22:31:35Z</time></trkpt>
<trkpt lat="48.490417" lon="2.639977"><ele></ele><time>2017-9-18T22:31:38Z</time></trkpt>
<trkpt lat="48.4904" lon="2.64004"><ele></ele><time>2017-9-18T22:31:41Z</time></trkpt>
<trkpt lat="48.49039" lon="2.640112"><ele></ele><time>2017-9-18T22:31:44Z</time></trkpt>
<trkpt lat="48.490377" lon="2.640175"><ele></ele><time>2017-9-18T22:31:47Z</time></trkpt>
<trkpt lat="48.490365" lon="2.640243"><ele></ele><time>2017-9-18T22:31:50Z</time></trkpt>
<trkpt lat="48.490353" lon="2.640307"><ele></ele><time>2017-9-18T22:31:53Z</time></trkpt>
<trkpt lat="48.490332" lon="2.640375"><ele></ele><time>2017-9-18T22:31:56Z</time></trkpt>
<trkpt lat="48.490288" lon="2.64049"><ele></ele><time>2017-9-18T22:31:59Z</time></trkpt>
<trkpt lat="48.490268" lon="2.640545"><ele></ele><time>2017-9-18T22:32:2Z</time></trkpt>
<trkpt lat="48.490248" lon="2.640613"><ele></ele><time>2017-9-18T22:32:5Z</time></trkpt>
<trkpt lat="48.490225" lon="2.640677"><ele></ele><time>2017-9-18T22:32:8Z</time></trkpt>
<trkpt lat="48.490202" lon="2.640743"><ele></ele><time>2017-9-18T22:32:11Z</time></trkpt>
<trkpt lat="48.490178" lon="2.64081"><ele></ele><time>2017-9-18T22:32:14Z</time></trkpt>
<trkpt lat="48.49016" lon="2.64088"><ele></ele><time>2017-9-18T22:32:17Z</time></trkpt>
<trkpt lat="48.49014" lon="2.640952"><ele></ele><time>2017-9-18T22:32:20Z</time></trkpt>
<trkpt lat="48.490107" lon="2.641077"><ele></ele><time>2017-9-18T22:32:23Z</time></trkpt>
<trkpt lat="48.49009" lon="2.641142"><ele></ele><time>2017-9-18T22:32:26Z</time></trkpt>
<trkpt lat="48.490058" lon="2.641263"><ele></ele><time>2017-9-18T22:32:29Z</time></trkpt>
<trkpt lat="48.49003" lon="2.64138"><ele></ele><time>2017-9-18T22:32:32Z</time></trkpt>
<trkpt lat="48.490018" lon="2.641448"><ele></ele><time>2017-9-18T22:32:35Z</time></trkpt>
<trkpt lat="48.490003" lon="2.641515"><ele></ele><time>2017-9-18T22:32:38Z</time></trkpt>
<trkpt lat="48.489987" lon="2.641592"><ele></ele><time>2017-9-18T22:32:41Z</time></trkpt>
<trkpt lat="48.48997" lon="2.641663"><ele></ele><time>2017-9-18T22:32:44Z</time></trkpt>
<trkpt lat="48.48995" lon="2.641733"><ele></ele><time>2017-9-18T22:32:47Z</time></trkpt>
<trkpt lat="48.489933" lon="2.641808"><ele></ele><time>2017-9-18T22:32:50Z</time></trkpt>
<trkpt lat="48.489922" lon="2.641877"><ele></ele><time>2017-9-18T22:32:53Z</time></trkpt>
<trkpt lat="48.489902" lon="2.641945"><ele></ele><time>2017-9-18T22:32:56Z</time></trkpt>
<trkpt lat="48.489882" lon="2.642008"><ele></ele><time>2017-9-18T22:32:59Z</time></trkpt>
<trkpt lat="48.48986" lon="2.642077"><ele></ele><time>2017-9-18T22:33:2Z</time></trkpt>
<trkpt lat="48.489842" lon="2.64215"><ele></ele><time>2017-9-18T22:33:5Z</time></trkpt>
<trkpt lat="48.489828" lon="2.642228"><ele></ele><time>2017-9-18T22:33:8Z</time></trkpt>
<trkpt lat="48.489822" lon="2.642303"><ele></ele><time>2017-9-18T22:33:11Z</time></trkpt>
<trkpt lat="48.489812" lon="2.642378"><ele></ele><time>2017-9-18T22:33:14Z</time></trkpt>
<trkpt lat="48.489785" lon="2.642507"><ele></ele><time>2017-9-18T22:33:17Z</time></trkpt>
<trkpt lat="48.489745" lon="2.642622"><ele></ele><time>2017-9-18T22:33:20Z</time></trkpt>
<trkpt lat="48.489723" lon="2.642683"><ele></ele><time>2017-9-18T22:33:23Z</time></trkpt>
<trkpt lat="48.489712" lon="2.642825"><ele></ele><time>2017-9-18T22:33:26Z</time></trkpt>
<trkpt lat="48.489703" lon="2.64297"><ele></ele><time>2017-9-18T22:33:29Z</time></trkpt>
<trkpt lat="48.48968" lon="2.643113"><ele></ele><time>2017-9-18T22:33:32Z</time></trkpt>
<trkpt lat="48.489653" lon="2.643255"><ele></ele><time>2017-9-18T22:33:35Z</time></trkpt>
<trkpt lat="48.489615" lon="2.643423"><ele></ele><time>2017-9-18T22:33:38Z</time></trkpt>
<trkpt lat="48.4896" lon="2.643495"><ele></ele><time>2017-9-18T22:33:41Z</time></trkpt>
<trkpt lat="48.489578" lon="2.643577"><ele></ele><time>2017-9-18T22:33:44Z</time></trkpt>
<trkpt lat="48.489557" lon="2.643655"><ele></ele><time>2017-9-18T22:33:47Z</time></trkpt>
<trkpt lat="48.489537" lon="2.643728"><ele></ele><time>2017-9-18T22:33:50Z</time></trkpt>
<trkpt lat="48.489517" lon="2.643797"><ele></ele><time>2017-9-18T22:33:53Z</time></trkpt>
<trkpt lat="48.489492" lon="2.643867"><ele></ele><time>2017-9-18T22:33:56Z</time></trkpt>
<trkpt lat="48.489473" lon="2.643933"><ele></ele><time>2017-9-18T22:33:59Z</time></trkpt>
<trkpt lat="48.48946" lon="2.644003"><ele></ele><time>2017-9-18T22:34:2Z</time></trkpt>
<trkpt lat="48.489445" lon="2.644067"><ele></ele><time>2017-9-18T22:34:5Z</time></trkpt>
<trkpt lat="48.489427" lon="2.64413"><ele></ele><time>2017-9-18T22:34:8Z</time></trkpt>
<trkpt lat="48.489407" lon="2.644197"><ele></ele><time>2017-9-18T22:34:11Z</time></trkpt>
<trkpt lat="48.489385" lon="2.644265"><ele></ele><time>2017-9-18T22:34:14Z</time></trkpt>
<trkpt lat="48.489358" lon="2.644333"><ele></ele><time>2017-9-18T22:34:17Z</time></trkpt>
<trkpt lat="48.489337" lon="2.644402"><ele></ele><time>2017-9-18T22:34:20Z</time></trkpt>
<trkpt lat="48.489328" lon="2.644473"><ele></ele><time>2017-9-18T22:34:23Z</time></trkpt>
<trkpt lat="48.489318" lon="2.644545"><ele></ele><time>2017-9-18T22:34:26Z</time></trkpt>
<trkpt lat="48.4893" lon="2.644612"><ele></ele><time>2017-9-18T22:34:29Z</time></trkpt>
<trkpt lat="48.489278" lon="2.644682"><ele></ele><time>2017-9-18T22:34:32Z</time></trkpt>
<trkpt lat="48.48926" lon="2.644753"><ele></ele><time>2017-9-18T22:34:35Z</time></trkpt>
<trkpt lat="48.489243" lon="2.644822"><ele></ele><time>2017-9-18T22:34:38Z</time></trkpt>
<trkpt lat="48.489225" lon="2.644893"><ele></ele><time>2017-9-18T22:34:41Z</time></trkpt>
<trkpt lat="48.489203" lon="2.644957"><ele></ele><time>2017-9-18T22:34:44Z</time></trkpt>
<trkpt lat="48.489183" lon="2.645025"><ele></ele><time>2017-9-18T22:34:47Z</time></trkpt>
<trkpt lat="48.489167" lon="2.645095"><ele></ele><time>2017-9-18T22:34:50Z</time></trkpt>
<trkpt lat="48.489145" lon="2.645162"><ele></ele><time>2017-9-18T22:34:53Z</time></trkpt>
<trkpt lat="48.489112" lon="2.645287"><ele></ele><time>2017-9-18T22:34:56Z</time></trkpt>
<trkpt lat="48.4891" lon="2.645353"><ele></ele><time>2017-9-18T22:34:59Z</time></trkpt>
<trkpt lat="48.489082" lon="2.645423"><ele></ele><time>2017-9-18T22:35:2Z</time></trkpt>
<trkpt lat="48.489068" lon="2.645493"><ele></ele><time>2017-9-18T22:35:5Z</time></trkpt>
<trkpt lat="48.489053" lon="2.645562"><ele></ele><time>2017-9-18T22:35:8Z</time></trkpt>
<trkpt lat="48.489042" lon="2.645632"><ele></ele><time>2017-9-18T22:35:11Z</time></trkpt>
<trkpt lat="48.489028" lon="2.645703"><ele></ele><time>2017-9-18T22:35:14Z</time></trkpt>
<trkpt lat="48.489012" lon="2.645777"><ele></ele><time>2017-9-18T22:35:17Z</time></trkpt>
<trkpt lat="48.488998" lon="2.645848"><ele></ele><time>2017-9-18T22:35:20Z</time></trkpt>
<trkpt lat="48.488985" lon="2.64592"><ele></ele><time>2017-9-18T22:35:23Z</time></trkpt>
<trkpt lat="48.488968" lon="2.645987"><ele></ele><time>2017-9-18T22:35:26Z</time></trkpt>
<trkpt lat="48.488953" lon="2.646057"><ele></ele><time>2017-9-18T22:35:29Z</time></trkpt>
<trkpt lat="48.48894" lon="2.64613"><ele></ele><time>2017-9-18T22:35:32Z</time></trkpt>
<trkpt lat="48.488923" lon="2.6462"><ele></ele><time>2017-9-18T22:35:35Z</time></trkpt>
<trkpt lat="48.488898" lon="2.646263"><ele></ele><time>2017-9-18T22:35:38Z</time></trkpt>
<trkpt lat="48.488873" lon="2.646327"><ele></ele><time>2017-9-18T22:35:41Z</time></trkpt>
<trkpt lat="48.48885" lon="2.64639"><ele></ele><time>2017-9-18T22:35:44Z</time></trkpt>
<trkpt lat="48.488813" lon="2.646518"><ele></ele><time>2017-9-18T22:35:47Z</time></trkpt>
<trkpt lat="48.488762" lon="2.646657"><ele></ele><time>2017-9-18T22:35:50Z</time></trkpt>
<trkpt lat="48.488703" lon="2.646788"><ele></ele><time>2017-9-18T22:35:53Z</time></trkpt>
<trkpt lat="48.488653" lon="2.646908"><ele></ele><time>2017-9-18T22:35:56Z</time></trkpt>
<trkpt lat="48.488627" lon="2.646963"><ele></ele><time>2017-9-18T22:35:59Z</time></trkpt>
<trkpt lat="48.4886" lon="2.64702"><ele></ele><time>2017-9-18T22:36:2Z</time></trkpt>
<trkpt lat="48.488542" lon="2.64713"><ele></ele><time>2017-9-18T22:36:5Z</time></trkpt>
<trkpt lat="48.488517" lon="2.64719"><ele></ele><time>2017-9-18T22:36:8Z</time></trkpt>
<trkpt lat="48.488488" lon="2.647248"><ele></ele><time>2017-9-18T22:36:11Z</time></trkpt>
<trkpt lat="48.488462" lon="2.647307"><ele></ele><time>2017-9-18T22:36:14Z</time></trkpt>
<trkpt lat="48.48843" lon="2.647367"><ele></ele><time>2017-9-18T22:36:17Z</time></trkpt>
<trkpt lat="48.488402" lon="2.647425"><ele></ele><time>2017-9-18T22:36:20Z</time></trkpt>
<trkpt lat="48.488372" lon="2.647485"><ele></ele><time>2017-9-18T22:36:23Z</time></trkpt>
<trkpt lat="48.488345" lon="2.647547"><ele></ele><time>2017-9-18T22:36:26Z</time></trkpt>
<trkpt lat="48.488317" lon="2.647607"><ele></ele><time>2017-9-18T22:36:29Z</time></trkpt>
<trkpt lat="48.488288" lon="2.647663"><ele></ele><time>2017-9-18T22:36:32Z</time></trkpt>
<trkpt lat="48.488258" lon="2.647722"><ele></ele><time>2017-9-18T22:36:35Z</time></trkpt>
<trkpt lat="48.488232" lon="2.64778"><ele></ele><time>2017-9-18T22:36:38Z</time></trkpt>
<trkpt lat="48.488205" lon="2.647842"><ele></ele><time>2017-9-18T22:36:41Z</time></trkpt>
<trkpt lat="48.488173" lon="2.647902"><ele></ele><time>2017-9-18T22:36:44Z</time></trkpt>
<trkpt lat="48.488143" lon="2.647972"><ele></ele><time>2017-9-18T22:36:47Z</time></trkpt>
<trkpt lat="48.488112" lon="2.648037"><ele></ele><time>2017-9-18T22:36:50Z</time></trkpt>
<trkpt lat="48.488077" lon="2.648098"><ele></ele><time>2017-9-18T22:36:53Z</time></trkpt>
<trkpt lat="48.488045" lon="2.648165"><ele></ele><time>2017-9-18T22:36:56Z</time></trkpt>
<trkpt lat="48.488013" lon="2.648223"><ele></ele><time>2017-9-18T22:36:59Z</time></trkpt>
<trkpt lat="48.48798" lon="2.648285"><ele></ele><time>2017-9-18T22:37:2Z</time></trkpt>
<trkpt lat="48.487945" lon="2.648338"><ele></ele><time>2017-9-18T22:37:5Z</time></trkpt>
<trkpt lat="48.487908" lon="2.648393"><ele></ele><time>2017-9-18T22:37:8Z</time></trkpt>
<trkpt lat="48.487878" lon="2.648455"><ele></ele><time>2017-9-18T22:37:11Z</time></trkpt>
<trkpt lat="48.487853" lon="2.648518"><ele></ele><time>2017-9-18T22:37:14Z</time></trkpt>
<trkpt lat="48.487828" lon="2.64858"><ele></ele><time>2017-9-18T22:37:17Z</time></trkpt>
<trkpt lat="48.487802" lon="2.648638"><ele></ele><time>2017-9-18T22:37:20Z</time></trkpt>
<trkpt lat="48.487772" lon="2.648688"><ele></ele><time>2017-9-18T22:37:23Z</time></trkpt>
<trkpt lat="48.487742" lon="2.648743"><ele></ele><time>2017-9-18T22:37:26Z</time></trkpt>
<trkpt lat="48.487712" lon="2.648798"><ele></ele><time>2017-9-18T22:37:29Z</time></trkpt>
<trkpt lat="48.48768" lon="2.648855"><ele></ele><time>2017-9-18T22:37:32Z</time></trkpt>
<trkpt lat="48.487645" lon="2.648912"><ele></ele><time>2017-9-18T22:37:35Z</time></trkpt>
<trkpt lat="48.487615" lon="2.648967"><ele></ele><time>2017-9-18T22:37:38Z</time></trkpt>
<trkpt lat="48.48759" lon="2.649022"><ele></ele><time>2017-9-18T22:37:41Z</time></trkpt>
<trkpt lat="48.487562" lon="2.649085"><ele></ele><time>2017-9-18T22:37:44Z</time></trkpt>
<trkpt lat="48.487535" lon="2.649147"><ele></ele><time>2017-9-18T22:37:47Z</time></trkpt>
<trkpt lat="48.487508" lon="2.649208"><ele></ele><time>2017-9-18T22:37:50Z</time></trkpt>
<trkpt lat="48.487478" lon="2.649268"><ele></ele><time>2017-9-18T22:37:53Z</time></trkpt>
<trkpt lat="48.487447" lon="2.649328"><ele></ele><time>2017-9-18T22:37:56Z</time></trkpt>
<trkpt lat="48.487415" lon="2.649385"><ele></ele><time>2017-9-18T22:37:59Z</time></trkpt>
<trkpt lat="48.487387" lon="2.649442"><ele></ele><time>2017-9-18T22:38:2Z</time></trkpt>
<trkpt lat="48.487357" lon="2.649497"><ele></ele><time>2017-9-18T22:38:5Z</time></trkpt>
<trkpt lat="48.48733" lon="2.649553"><ele></ele><time>2017-9-18T22:38:8Z</time></trkpt>
<trkpt lat="48.487297" lon="2.649605"><ele></ele><time>2017-9-18T22:38:11Z</time></trkpt>
<trkpt lat="48.487267" lon="2.649655"><ele></ele><time>2017-9-18T22:38:14Z</time></trkpt>
<trkpt lat="48.487235" lon="2.649707"><ele></ele><time>2017-9-18T22:38:17Z</time></trkpt>
<trkpt lat="48.48718" lon="2.649813"><ele></ele><time>2017-9-18T22:38:20Z</time></trkpt>
<trkpt lat="48.487155" lon="2.649868"><ele></ele><time>2017-9-18T22:38:23Z</time></trkpt>
<trkpt lat="48.487108" lon="2.649993"><ele></ele><time>2017-9-18T22:38:26Z</time></trkpt>
<trkpt lat="48.487062" lon="2.650115"><ele></ele><time>2017-9-18T22:38:29Z</time></trkpt>
<trkpt lat="48.487023" lon="2.650228"><ele></ele><time>2017-9-18T22:38:32Z</time></trkpt>
<trkpt lat="48.486977" lon="2.650335"><ele></ele><time>2017-9-18T22:38:35Z</time></trkpt>
<trkpt lat="48.48693" lon="2.65043"><ele></ele><time>2017-9-18T22:38:38Z</time></trkpt>
<trkpt lat="48.486908" lon="2.65048"><ele></ele><time>2017-9-18T22:38:41Z</time></trkpt>
<trkpt lat="48.486842" lon="2.650613"><ele></ele><time>2017-9-18T22:38:44Z</time></trkpt>
<trkpt lat="48.486797" lon="2.650705"><ele></ele><time>2017-9-18T22:38:47Z</time></trkpt>
<trkpt lat="48.486752" lon="2.650792"><ele></ele><time>2017-9-18T22:38:50Z</time></trkpt>
<trkpt lat="48.48671" lon="2.650883"><ele></ele><time>2017-9-18T22:38:53Z</time></trkpt>
<trkpt lat="48.486662" lon="2.65097"><ele></ele><time>2017-9-18T22:38:56Z</time></trkpt>
<trkpt lat="48.486605" lon="2.651057"><ele></ele><time>2017-9-18T22:38:59Z</time></trkpt>
<trkpt lat="48.48656" lon="2.651157"><ele></ele><time>2017-9-18T22:39:2Z</time></trkpt>
<trkpt lat="48.486522" lon="2.651265"><ele></ele><time>2017-9-18T22:39:5Z</time></trkpt>
<trkpt lat="48.486472" lon="2.651357"><ele></ele><time>2017-9-18T22:39:8Z</time></trkpt>
<trkpt lat="48.486423" lon="2.651448"><ele></ele><time>2017-9-18T22:39:11Z</time></trkpt>
<trkpt lat="48.48637" lon="2.65154"><ele></ele><time>2017-9-18T22:39:14Z</time></trkpt>
<trkpt lat="48.48632" lon="2.651642"><ele></ele><time>2017-9-18T22:39:17Z</time></trkpt>
<trkpt lat="48.48628" lon="2.651752"><ele></ele><time>2017-9-18T22:39:20Z</time></trkpt>
<trkpt lat="48.48623" lon="2.651855"><ele></ele><time>2017-9-18T22:39:23Z</time></trkpt>
<trkpt lat="48.486185" lon="2.651958"><ele></ele><time>2017-9-18T22:39:26Z</time></trkpt>
<trkpt lat="48.486133" lon="2.652068"><ele></ele><time>2017-9-18T22:39:29Z</time></trkpt>
<trkpt lat="48.48608" lon="2.652177"><ele></ele><time>2017-9-18T22:39:32Z</time></trkpt>
<trkpt lat="48.486027" lon="2.65228"><ele></ele><time>2017-9-18T22:39:35Z</time></trkpt>
<trkpt lat="48.485967" lon="2.652378"><ele></ele><time>2017-9-18T22:39:38Z</time></trkpt>
<trkpt lat="48.485914" lon="2.652482"><ele></ele><time>2017-9-18T22:39:41Z</time></trkpt>
<trkpt lat="48.485865" lon="2.652593"><ele></ele><time>2017-9-18T22:39:44Z</time></trkpt>
<trkpt lat="48.485813" lon="2.652703"><ele></ele><time>2017-9-18T22:39:47Z</time></trkpt>
<trkpt lat="48.485785" lon="2.652757"><ele></ele><time>2017-9-18T22:39:50Z</time></trkpt>
<trkpt lat="48.485757" lon="2.65281"><ele></ele><time>2017-9-18T22:39:53Z</time></trkpt>
<trkpt lat="48.485725" lon="2.652867"><ele></ele><time>2017-9-18T22:39:56Z</time></trkpt>
<trkpt lat="48.485697" lon="2.652927"><ele></ele><time>2017-9-18T22:39:59Z</time></trkpt>
<trkpt lat="48.48567" lon="2.652985"><ele></ele><time>2017-9-18T22:40:2Z</time></trkpt>
<trkpt lat="48.485615" lon="2.653098"><ele></ele><time>2017-9-18T22:40:5Z</time></trkpt>
<trkpt lat="48.485562" lon="2.653208"><ele></ele><time>2017-9-18T22:40:8Z</time></trkpt>
<trkpt lat="48.48551" lon="2.653318"><ele></ele><time>2017-9-18T22:40:11Z</time></trkpt>
<trkpt lat="48.485467" lon="2.653427"><ele></ele><time>2017-9-18T22:40:14Z</time></trkpt>
<trkpt lat="48.485438" lon="2.653543"><ele></ele><time>2017-9-18T22:40:17Z</time></trkpt>
<trkpt lat="48.48542" lon="2.65367"><ele></ele><time>2017-9-18T22:40:20Z</time></trkpt>
<trkpt lat="48.4854" lon="2.6538"><ele></ele><time>2017-9-18T22:40:23Z</time></trkpt>
<trkpt lat="48.485383" lon="2.65386"><ele></ele><time>2017-9-18T22:40:26Z</time></trkpt>
<trkpt lat="48.485373" lon="2.653933"><ele></ele><time>2017-9-18T22:40:29Z</time></trkpt>
<trkpt lat="48.485368" lon="2.654"><ele></ele><time>2017-9-18T22:40:32Z</time></trkpt>
<trkpt lat="48.485362" lon="2.654068"><ele></ele><time>2017-9-18T22:40:35Z</time></trkpt>
<trkpt lat="48.485357" lon="2.654142"><ele></ele><time>2017-9-18T22:40:38Z</time></trkpt>
<trkpt lat="48.485345" lon="2.654213"><ele></ele><time>2017-9-18T22:40:41Z</time></trkpt>
<trkpt lat="48.485332" lon="2.654293"><ele></ele><time>2017-9-18T22:40:44Z</time></trkpt>
<trkpt lat="48.485323" lon="2.654365"><ele></ele><time>2017-9-18T22:40:47Z</time></trkpt>
<trkpt lat="48.485312" lon="2.654435"><ele></ele><time>2017-9-18T22:40:50Z</time></trkpt>
<trkpt lat="48.4853" lon="2.65451"><ele></ele><time>2017-9-18T22:40:53Z</time></trkpt>
<trkpt lat="48.485288" lon="2.654583"><ele></ele><time>2017-9-18T22:40:56Z</time></trkpt>
<trkpt lat="48.485278" lon="2.654652"><ele></ele><time>2017-9-18T22:40:59Z</time></trkpt>
<trkpt lat="48.485268" lon="2.65472"><ele></ele><time>2017-9-18T22:41:2Z</time></trkpt>
<trkpt lat="48.485252" lon="2.654852"><ele></ele><time>2017-9-18T22:41:5Z</time></trkpt>
<trkpt lat="48.485237" lon="2.654918"><ele></ele><time>2017-9-18T22:41:8Z</time></trkpt>
<trkpt lat="48.485222" lon="2.655"><ele></ele><time>2017-9-18T22:41:11Z</time></trkpt>
<trkpt lat="48.485212" lon="2.65507"><ele></ele><time>2017-9-18T22:41:14Z</time></trkpt>
<trkpt lat="48.4852" lon="2.655138"><ele></ele><time>2017-9-18T22:41:17Z</time></trkpt>
<trkpt lat="48.48519" lon="2.655212"><ele></ele><time>2017-9-18T22:41:20Z</time></trkpt>
<trkpt lat="48.485177" lon="2.655288"><ele></ele><time>2017-9-18T22:41:23Z</time></trkpt>
<trkpt lat="48.485168" lon="2.655368"><ele></ele><time>2017-9-18T22:41:26Z</time></trkpt>
<trkpt lat="48.48516" lon="2.655442"><ele></ele><time>2017-9-18T22:41:29Z</time></trkpt>
<trkpt lat="48.485148" lon="2.655515"><ele></ele><time>2017-9-18T22:41:32Z</time></trkpt>
<trkpt lat="48.485138" lon="2.655585"><ele></ele><time>2017-9-18T22:41:35Z</time></trkpt>
<trkpt lat="48.485128" lon="2.655653"><ele></ele><time>2017-9-18T22:41:38Z</time></trkpt>
<trkpt lat="48.485123" lon="2.655728"><ele></ele><time>2017-9-18T22:41:41Z</time></trkpt>
<trkpt lat="48.485115" lon="2.655798"><ele></ele><time>2017-9-18T22:41:44Z</time></trkpt>
<trkpt lat="48.485105" lon="2.655867"><ele></ele><time>2017-9-18T22:41:47Z</time></trkpt>
<trkpt lat="48.485097" lon="2.65594"><ele></ele><time>2017-9-18T22:41:50Z</time></trkpt>
<trkpt lat="48.485092" lon="2.656012"><ele></ele><time>2017-9-18T22:41:53Z</time></trkpt>
<trkpt lat="48.485085" lon="2.656083"><ele></ele><time>2017-9-18T22:41:56Z</time></trkpt>
<trkpt lat="48.485075" lon="2.656157"><ele></ele><time>2017-9-18T22:41:59Z</time></trkpt>
<trkpt lat="48.485058" lon="2.656295"><ele></ele><time>2017-9-18T22:42:2Z</time></trkpt>
<trkpt lat="48.485038" lon="2.656427"><ele></ele><time>2017-9-18T22:42:5Z</time></trkpt>
<trkpt lat="48.485007" lon="2.65658"><ele></ele><time>2017-9-18T22:42:8Z</time></trkpt>
<trkpt lat="48.484983" lon="2.656718"><ele></ele><time>2017-9-18T22:42:11Z</time></trkpt>
<trkpt lat="48.484907" lon="2.657377"><ele></ele><time>2017-9-18T22:42:14Z</time></trkpt>
<trkpt lat="48.484887" lon="2.657595"><ele></ele><time>2017-9-18T22:42:17Z</time></trkpt>
<trkpt lat="48.484865" lon="2.657728"><ele></ele><time>2017-9-18T22:42:20Z</time></trkpt>
<trkpt lat="48.484858" lon="2.657797"><ele></ele><time>2017-9-18T22:42:23Z</time></trkpt>
<trkpt lat="48.48485" lon="2.657872"><ele></ele><time>2017-9-18T22:42:26Z</time></trkpt>
<trkpt lat="48.484842" lon="2.657943"><ele></ele><time>2017-9-18T22:42:29Z</time></trkpt>
<trkpt lat="48.484828" lon="2.658013"><ele></ele><time>2017-9-18T22:42:32Z</time></trkpt>
<trkpt lat="48.484815" lon="2.658078"><ele></ele><time>2017-9-18T22:42:35Z</time></trkpt>
<trkpt lat="48.484797" lon="2.658145"><ele></ele><time>2017-9-18T22:42:38Z</time></trkpt>
<trkpt lat="48.48478" lon="2.658208"><ele></ele><time>2017-9-18T22:42:41Z</time></trkpt>
<trkpt lat="48.484767" lon="2.658275"><ele></ele><time>2017-9-18T22:42:44Z</time></trkpt>
<trkpt lat="48.484753" lon="2.658345"><ele></ele><time>2017-9-18T22:42:47Z</time></trkpt>
<trkpt lat="48.484747" lon="2.658422"><ele></ele><time>2017-9-18T22:42:50Z</time></trkpt>
<trkpt lat="48.484737" lon="2.6585"><ele></ele><time>2017-9-18T22:42:53Z</time></trkpt>
<trkpt lat="48.484728" lon="2.658575"><ele></ele><time>2017-9-18T22:42:56Z</time></trkpt>
<trkpt lat="48.484718" lon="2.658653"><ele></ele><time>2017-9-18T22:42:59Z</time></trkpt>
<trkpt lat="48.484708" lon="2.65873"><ele></ele><time>2017-9-18T22:43:2Z</time></trkpt>
<trkpt lat="48.484698" lon="2.658808"><ele></ele><time>2017-9-18T22:43:5Z</time></trkpt>
<trkpt lat="48.484688" lon="2.658883"><ele></ele><time>2017-9-18T22:43:8Z</time></trkpt>
<trkpt lat="48.484678" lon="2.658962"><ele></ele><time>2017-9-18T22:43:11Z</time></trkpt>
<trkpt lat="48.48467" lon="2.659037"><ele></ele><time>2017-9-18T22:43:14Z</time></trkpt>
<trkpt lat="48.484658" lon="2.659112"><ele></ele><time>2017-9-18T22:43:17Z</time></trkpt>
<trkpt lat="48.48465" lon="2.65919"><ele></ele><time>2017-9-18T22:43:20Z</time></trkpt>
<trkpt lat="48.484637" lon="2.65926"><ele></ele><time>2017-9-18T22:43:23Z</time></trkpt>
<trkpt lat="48.484613" lon="2.659402"><ele></ele><time>2017-9-18T22:43:26Z</time></trkpt>
<trkpt lat="48.484588" lon="2.659543"><ele></ele><time>2017-9-18T22:43:29Z</time></trkpt>
<trkpt lat="48.484577" lon="2.65968"><ele></ele><time>2017-9-18T22:43:32Z</time></trkpt>
<trkpt lat="48.484573" lon="2.65982"><ele></ele><time>2017-9-18T22:43:35Z</time></trkpt>
<trkpt lat="48.484563" lon="2.659887"><ele></ele><time>2017-9-18T22:43:38Z</time></trkpt>
<trkpt lat="48.484545" lon="2.659957"><ele></ele><time>2017-9-18T22:43:41Z</time></trkpt>
<trkpt lat="48.484497" lon="2.660102"><ele></ele><time>2017-9-18T22:43:44Z</time></trkpt>
<trkpt lat="48.48448" lon="2.66018"><ele></ele><time>2017-9-18T22:43:47Z</time></trkpt>
<trkpt lat="48.48447" lon="2.66026"><ele></ele><time>2017-9-18T22:43:50Z</time></trkpt>
<trkpt lat="48.484457" lon="2.660337"><ele></ele><time>2017-9-18T22:43:53Z</time></trkpt>
<trkpt lat="48.484442" lon="2.660403"><ele></ele><time>2017-9-18T22:43:56Z</time></trkpt>
<trkpt lat="48.48442" lon="2.66048"><ele></ele><time>2017-9-18T22:43:59Z</time></trkpt>
<trkpt lat="48.484403" lon="2.660562"><ele></ele><time>2017-9-18T22:44:2Z</time></trkpt>
<trkpt lat="48.484382" lon="2.660642"><ele></ele><time>2017-9-18T22:44:5Z</time></trkpt>
<trkpt lat="48.484357" lon="2.660715"><ele></ele><time>2017-9-18T22:44:8Z</time></trkpt>
<trkpt lat="48.484337" lon="2.660788"><ele></ele><time>2017-9-18T22:44:11Z</time></trkpt>
<trkpt lat="48.48432" lon="2.660862"><ele></ele><time>2017-9-18T22:44:14Z</time></trkpt>
<trkpt lat="48.484287" lon="2.66098"><ele></ele><time>2017-9-18T22:44:17Z</time></trkpt>
<trkpt lat="48.484263" lon="2.661108"><ele></ele><time>2017-9-18T22:44:20Z</time></trkpt>
<trkpt lat="48.48425" lon="2.661178"><ele></ele><time>2017-9-18T22:44:23Z</time></trkpt>
<trkpt lat="48.484227" lon="2.661307"><ele></ele><time>2017-9-18T22:44:26Z</time></trkpt>
<trkpt lat="48.484202" lon="2.661413"><ele></ele><time>2017-9-18T22:44:29Z</time></trkpt>
<trkpt lat="48.484163" lon="2.661517"><ele></ele><time>2017-9-18T22:44:32Z</time></trkpt>
<trkpt lat="48.484133" lon="2.66162"><ele></ele><time>2017-9-18T22:44:35Z</time></trkpt>
<trkpt lat="48.484102" lon="2.661712"><ele></ele><time>2017-9-18T22:44:38Z</time></trkpt>
<trkpt lat="48.484068" lon="2.661802"><ele></ele><time>2017-9-18T22:44:41Z</time></trkpt>
<trkpt lat="48.484032" lon="2.661913"><ele></ele><time>2017-9-18T22:44:44Z</time></trkpt>
<trkpt lat="48.484005" lon="2.662037"><ele></ele><time>2017-9-18T22:44:47Z</time></trkpt>
<trkpt lat="48.48399" lon="2.662068"><ele></ele><time>2017-9-18T22:44:50Z</time></trkpt>
<trkpt lat="48.483943" lon="2.662223"><ele></ele><time>2017-9-18T22:44:53Z</time></trkpt>
<trkpt lat="48.483898" lon="2.66234"><ele></ele><time>2017-9-18T22:44:56Z</time></trkpt>
<trkpt lat="48.483873" lon="2.662452"><ele></ele><time>2017-9-18T22:44:59Z</time></trkpt>
<trkpt lat="48.483852" lon="2.662555"><ele></ele><time>2017-9-18T22:45:2Z</time></trkpt>
<trkpt lat="48.483855" lon="2.662675"><ele></ele><time>2017-9-18T22:45:5Z</time></trkpt>
<trkpt lat="48.48387" lon="2.6628"><ele></ele><time>2017-9-18T22:45:8Z</time></trkpt>
<trkpt lat="48.483855" lon="2.66293"><ele></ele><time>2017-9-18T22:45:11Z</time></trkpt>
<trkpt lat="48.483825" lon="2.663023"><ele></ele><time>2017-9-18T22:45:14Z</time></trkpt>
<trkpt lat="48.4838" lon="2.663145"><ele></ele><time>2017-9-18T22:45:17Z</time></trkpt>
<trkpt lat="48.48379" lon="2.663262"><ele></ele><time>2017-9-18T22:45:20Z</time></trkpt>
<trkpt lat="48.48378" lon="2.663358"><ele></ele><time>2017-9-18T22:45:23Z</time></trkpt>
<trkpt lat="48.483755" lon="2.663483"><ele></ele><time>2017-9-18T22:45:26Z</time></trkpt>
<trkpt lat="48.483738" lon="2.663538"><ele></ele><time>2017-9-18T22:45:29Z</time></trkpt>
<trkpt lat="48.483707" lon="2.663642"><ele></ele><time>2017-9-18T22:45:32Z</time></trkpt>
<trkpt lat="48.48367" lon="2.663755"><ele></ele><time>2017-9-18T22:45:35Z</time></trkpt>
<trkpt lat="48.483643" lon="2.66387"><ele></ele><time>2017-9-18T22:45:38Z</time></trkpt>
<trkpt lat="48.483618" lon="2.663982"><ele></ele><time>2017-9-18T22:45:41Z</time></trkpt>
<trkpt lat="48.483587" lon="2.664092"><ele></ele><time>2017-9-18T22:45:44Z</time></trkpt>
<trkpt lat="48.483562" lon="2.664215"><ele></ele><time>2017-9-18T22:45:47Z</time></trkpt>
<trkpt lat="48.48354" lon="2.664323"><ele></ele><time>2017-9-18T22:45:50Z</time></trkpt>
<trkpt lat="48.48351" lon="2.664428"><ele></ele><time>2017-9-18T22:45:53Z</time></trkpt>
<trkpt lat="48.48347" lon="2.664543"><ele></ele><time>2017-9-18T22:45:56Z</time></trkpt>
<trkpt lat="48.483448" lon="2.664658"><ele></ele><time>2017-9-18T22:45:59Z</time></trkpt>
<trkpt lat="48.483423" lon="2.664778"><ele></ele><time>2017-9-18T22:46:2Z</time></trkpt>
<trkpt lat="48.483405" lon="2.66489"><ele></ele><time>2017-9-18T22:46:5Z</time></trkpt>
<trkpt lat="48.483357" lon="2.664973"><ele></ele><time>2017-9-18T22:46:8Z</time></trkpt>
<trkpt lat="48.483293" lon="2.664998"><ele></ele><time>2017-9-18T22:46:11Z</time></trkpt>
<trkpt lat="48.483217" lon="2.66501"><ele></ele><time>2017-9-18T22:46:14Z</time></trkpt>
<trkpt lat="48.483128" lon="2.665025"><ele></ele><time>2017-9-18T22:46:17Z</time></trkpt>
<trkpt lat="48.483043" lon="2.665022"><ele></ele><time>2017-9-18T22:46:20Z</time></trkpt>
<trkpt lat="48.48298" lon="2.664993"><ele></ele><time>2017-9-18T22:46:23Z</time></trkpt>
<trkpt lat="48.482915" lon="2.664903"><ele></ele><time>2017-9-18T22:46:26Z</time></trkpt>
<trkpt lat="48.482882" lon="2.66485"><ele></ele><time>2017-9-18T22:46:29Z</time></trkpt>
<trkpt lat="48.482857" lon="2.664782"><ele></ele><time>2017-9-18T22:46:32Z</time></trkpt>
<trkpt lat="48.482847" lon="2.664693"><ele></ele><time>2017-9-18T22:46:35Z</time></trkpt>
<trkpt lat="48.482847" lon="2.664603"><ele></ele><time>2017-9-18T22:46:38Z</time></trkpt>
<trkpt lat="48.482837" lon="2.66451"><ele></ele><time>2017-9-18T22:46:41Z</time></trkpt>
<trkpt lat="48.48282" lon="2.664417"><ele></ele><time>2017-9-18T22:46:44Z</time></trkpt>
<trkpt lat="48.482788" lon="2.664313"><ele></ele><time>2017-9-18T22:46:47Z</time></trkpt>
<trkpt lat="48.48276" lon="2.66421"><ele></ele><time>2017-9-18T22:46:50Z</time></trkpt>
<trkpt lat="48.482735" lon="2.664093"><ele></ele><time>2017-9-18T22:46:53Z</time></trkpt>
<trkpt lat="48.482718" lon="2.664027"><ele></ele><time>2017-9-18T22:46:56Z</time></trkpt>
<trkpt lat="48.482698" lon="2.663952"><ele></ele><time>2017-9-18T22:46:59Z</time></trkpt>
<trkpt lat="48.482673" lon="2.663865"><ele></ele><time>2017-9-18T22:47:2Z</time></trkpt>
<trkpt lat="48.48265" lon="2.66378"><ele></ele><time>2017-9-18T22:47:5Z</time></trkpt>
<trkpt lat="48.482627" lon="2.663693"><ele></ele><time>2017-9-18T22:47:8Z</time></trkpt>
<trkpt lat="48.482603" lon="2.663605"><ele></ele><time>2017-9-18T22:47:11Z</time></trkpt>
<trkpt lat="48.482567" lon="2.663508"><ele></ele><time>2017-9-18T22:47:14Z</time></trkpt>
<trkpt lat="48.482523" lon="2.663398"><ele></ele><time>2017-9-18T22:47:17Z</time></trkpt>
<trkpt lat="48.482498" lon="2.663295"><ele></ele><time>2017-9-18T22:47:20Z</time></trkpt>
<trkpt lat="48.482468" lon="2.663188"><ele></ele><time>2017-9-18T22:47:23Z</time></trkpt>
<trkpt lat="48.482437" lon="2.663085"><ele></ele><time>2017-9-18T22:47:26Z</time></trkpt>
<trkpt lat="48.48241" lon="2.662988"><ele></ele><time>2017-9-18T22:47:29Z</time></trkpt>
<trkpt lat="48.482368" lon="2.662877"><ele></ele><time>2017-9-18T22:47:32Z</time></trkpt>
<trkpt lat="48.482337" lon="2.662772"><ele></ele><time>2017-9-18T22:47:35Z</time></trkpt>
<trkpt lat="48.482308" lon="2.662668"><ele></ele><time>2017-9-18T22:47:38Z</time></trkpt>
<trkpt lat="48.482295" lon="2.66258"><ele></ele><time>2017-9-18T22:47:41Z</time></trkpt>
<trkpt lat="48.48227" lon="2.66249"><ele></ele><time>2017-9-18T22:47:44Z</time></trkpt>
<trkpt lat="48.482245" lon="2.662397"><ele></ele><time>2017-9-18T22:47:47Z</time></trkpt>
<trkpt lat="48.48222" lon="2.662297"><ele></ele><time>2017-9-18T22:47:50Z</time></trkpt>
<trkpt lat="48.482193" lon="2.662198"><ele></ele><time>2017-9-18T22:47:53Z</time></trkpt>
<trkpt lat="48.482167" lon="2.662097"><ele></ele><time>2017-9-18T22:47:56Z</time></trkpt>
<trkpt lat="48.482145" lon="2.662005"><ele></ele><time>2017-9-18T22:47:59Z</time></trkpt>
<trkpt lat="48.482115" lon="2.661923"><ele></ele><time>2017-9-18T22:48:2Z</time></trkpt>
<trkpt lat="48.482087" lon="2.661843"><ele></ele><time>2017-9-18T22:48:5Z</time></trkpt>
<trkpt lat="48.482055" lon="2.66175"><ele></ele><time>2017-9-18T22:48:8Z</time></trkpt>
<trkpt lat="48.482022" lon="2.661657"><ele></ele><time>2017-9-18T22:48:11Z</time></trkpt>
<trkpt lat="48.481987" lon="2.661558"><ele></ele><time>2017-9-18T22:48:14Z</time></trkpt>
<trkpt lat="48.481953" lon="2.661457"><ele></ele><time>2017-9-18T22:48:17Z</time></trkpt>
<trkpt lat="48.481917" lon="2.661353"><ele></ele><time>2017-9-18T22:48:20Z</time></trkpt>
<trkpt lat="48.481888" lon="2.661255"><ele></ele><time>2017-9-18T22:48:23Z</time></trkpt>
<trkpt lat="48.481863" lon="2.661157"><ele></ele><time>2017-9-18T22:48:26Z</time></trkpt>
<trkpt lat="48.481837" lon="2.661057"><ele></ele><time>2017-9-18T22:48:29Z</time></trkpt>
<trkpt lat="48.481815" lon="2.66096"><ele></ele><time>2017-9-18T22:48:32Z</time></trkpt>
<trkpt lat="48.48177" lon="2.660772"><ele></ele><time>2017-9-18T22:48:35Z</time></trkpt>
<trkpt lat="48.48171" lon="2.660577"><ele></ele><time>2017-9-18T22:48:38Z</time></trkpt>
<trkpt lat="48.481682" lon="2.660478"><ele></ele><time>2017-9-18T22:48:41Z</time></trkpt>
<trkpt lat="48.481672" lon="2.660393"><ele></ele><time>2017-9-18T22:48:44Z</time></trkpt>
<trkpt lat="48.481625" lon="2.660217"><ele></ele><time>2017-9-18T22:48:47Z</time></trkpt>
<trkpt lat="48.481565" lon="2.660037"><ele></ele><time>2017-9-18T22:48:50Z</time></trkpt>
<trkpt lat="48.481515" lon="2.659873"><ele></ele><time>2017-9-18T22:48:53Z</time></trkpt>
<trkpt lat="48.481483" lon="2.659787"><ele></ele><time>2017-9-18T22:48:56Z</time></trkpt>
<trkpt lat="48.481468" lon="2.659713"><ele></ele><time>2017-9-18T22:48:59Z</time></trkpt>
<trkpt lat="48.481457" lon="2.659643"><ele></ele><time>2017-9-18T22:49:2Z</time></trkpt>
<trkpt lat="48.481432" lon="2.659568"><ele></ele><time>2017-9-18T22:49:5Z</time></trkpt>
<trkpt lat="48.481393" lon="2.659435"><ele></ele><time>2017-9-18T22:49:8Z</time></trkpt>
<trkpt lat="48.481343" lon="2.659347"><ele></ele><time>2017-9-18T22:49:11Z</time></trkpt>
<trkpt lat="48.48126" lon="2.65924"><ele></ele><time>2017-9-18T22:49:14Z</time></trkpt>
<trkpt lat="48.481228" lon="2.659113"><ele></ele><time>2017-9-18T22:49:17Z</time></trkpt>
<trkpt lat="48.4812" lon="2.658985"><ele></ele><time>2017-9-18T22:49:20Z</time></trkpt>
<trkpt lat="48.481162" lon="2.658872"><ele></ele><time>2017-9-18T22:49:23Z</time></trkpt>
<trkpt lat="48.48114" lon="2.65881"><ele></ele><time>2017-9-18T22:49:26Z</time></trkpt>
<trkpt lat="48.48111" lon="2.658698"><ele></ele><time>2017-9-18T22:49:29Z</time></trkpt>
<trkpt lat="48.481088" lon="2.658633"><ele></ele><time>2017-9-18T22:49:32Z</time></trkpt>
<trkpt lat="48.48106" lon="2.658562"><ele></ele><time>2017-9-18T22:49:35Z</time></trkpt>
<trkpt lat="48.481033" lon="2.65849"><ele></ele><time>2017-9-18T22:49:38Z</time></trkpt>
<trkpt lat="48.481013" lon="2.658415"><ele></ele><time>2017-9-18T22:49:41Z</time></trkpt>
<trkpt lat="48.480983" lon="2.658288"><ele></ele><time>2017-9-18T22:49:44Z</time></trkpt>
<trkpt lat="48.480952" lon="2.65817"><ele></ele><time>2017-9-18T22:49:47Z</time></trkpt>
<trkpt lat="48.48093" lon="2.658102"><ele></ele><time>2017-9-18T22:49:50Z</time></trkpt>
<trkpt lat="48.48091" lon="2.658032"><ele></ele><time>2017-9-18T22:49:53Z</time></trkpt>
<trkpt lat="48.480883" lon="2.657967"><ele></ele><time>2017-9-18T22:49:56Z</time></trkpt>
<trkpt lat="48.48086" lon="2.657898"><ele></ele><time>2017-9-18T22:49:59Z</time></trkpt>
<trkpt lat="48.480835" lon="2.657823"><ele></ele><time>2017-9-18T22:50:2Z</time></trkpt>
<trkpt lat="48.48082" lon="2.657758"><ele></ele><time>2017-9-18T22:50:5Z</time></trkpt>
<trkpt lat="48.480802" lon="2.65769"><ele></ele><time>2017-9-18T22:50:8Z</time></trkpt>
<trkpt lat="48.480775" lon="2.657622"><ele></ele><time>2017-9-18T22:50:11Z</time></trkpt>
<trkpt lat="48.480747" lon="2.65755"><ele></ele><time>2017-9-18T22:50:14Z</time></trkpt>
<trkpt lat="48.480727" lon="2.657483"><ele></ele><time>2017-9-18T22:50:17Z</time></trkpt>
<trkpt lat="48.48071" lon="2.657415"><ele></ele><time>2017-9-18T22:50:20Z</time></trkpt>
<trkpt lat="48.480688" lon="2.657338"><ele></ele><time>2017-9-18T22:50:23Z</time></trkpt>
<trkpt lat="48.480677" lon="2.657223"><ele></ele><time>2017-9-18T22:50:26Z</time></trkpt>
<trkpt lat="48.480662" lon="2.65716"><ele></ele><time>2017-9-18T22:50:29Z</time></trkpt>
<trkpt lat="48.48063" lon="2.657087"><ele></ele><time>2017-9-18T22:50:32Z</time></trkpt>
<trkpt lat="48.480608" lon="2.65702"><ele></ele><time>2017-9-18T22:50:35Z</time></trkpt>
<trkpt lat="48.480585" lon="2.656898"><ele></ele><time>2017-9-18T22:50:38Z</time></trkpt>
<trkpt lat="48.480557" lon="2.65683"><ele></ele><time>2017-9-18T22:50:41Z</time></trkpt>
<trkpt lat="48.480525" lon="2.656757"><ele></ele><time>2017-9-18T22:50:44Z</time></trkpt>
<trkpt lat="48.480437" lon="2.656653"><ele></ele><time>2017-9-18T22:50:47Z</time></trkpt>
<trkpt lat="48.480408" lon="2.656545"><ele></ele><time>2017-9-18T22:50:50Z</time></trkpt>
<trkpt lat="48.480378" lon="2.656428"><ele></ele><time>2017-9-18T22:50:53Z</time></trkpt>
<trkpt lat="48.480338" lon="2.656305"><ele></ele><time>2017-9-18T22:50:56Z</time></trkpt>
<trkpt lat="48.480298" lon="2.656178"><ele></ele><time>2017-9-18T22:50:59Z</time></trkpt>
<trkpt lat="48.480268" lon="2.656052"><ele></ele><time>2017-9-18T22:51:2Z</time></trkpt>
<trkpt lat="48.48024" lon="2.655927"><ele></ele><time>2017-9-18T22:51:5Z</time></trkpt>
<trkpt lat="48.480163" lon="2.6558"><ele></ele><time>2017-9-18T22:51:8Z</time></trkpt>
<trkpt lat="48.480113" lon="2.655678"><ele></ele><time>2017-9-18T22:51:11Z</time></trkpt>
<trkpt lat="48.48009" lon="2.655607"><ele></ele><time>2017-9-18T22:51:14Z</time></trkpt>
<trkpt lat="48.480075" lon="2.655535"><ele></ele><time>2017-9-18T22:51:17Z</time></trkpt>
<trkpt lat="48.480043" lon="2.655412"><ele></ele><time>2017-9-18T22:51:20Z</time></trkpt>
<trkpt lat="48.480015" lon="2.655317"><ele></ele><time>2017-9-18T22:51:23Z</time></trkpt>
<trkpt lat="48.479978" lon="2.6552"><ele></ele><time>2017-9-18T22:51:26Z</time></trkpt>
<trkpt lat="48.479953" lon="2.655103"><ele></ele><time>2017-9-18T22:51:29Z</time></trkpt>
<trkpt lat="48.479925" lon="2.654987"><ele></ele><time>2017-9-18T22:51:32Z</time></trkpt>
<trkpt lat="48.479888" lon="2.654868"><ele></ele><time>2017-9-18T22:51:35Z</time></trkpt>
<trkpt lat="48.479863" lon="2.654777"><ele></ele><time>2017-9-18T22:51:38Z</time></trkpt>
<trkpt lat="48.479818" lon="2.654682"><ele></ele><time>2017-9-18T22:51:41Z</time></trkpt>
<trkpt lat="48.479787" lon="2.654585"><ele></ele><time>2017-9-18T22:51:44Z</time></trkpt>
<trkpt lat="48.479765" lon="2.654493"><ele></ele><time>2017-9-18T22:51:47Z</time></trkpt>
<trkpt lat="48.479742" lon="2.654397"><ele></ele><time>2017-9-18T22:51:50Z</time></trkpt>
<trkpt lat="48.479703" lon="2.654287"><ele></ele><time>2017-9-18T22:51:53Z</time></trkpt>
<trkpt lat="48.479668" lon="2.654178"><ele></ele><time>2017-9-18T22:51:56Z</time></trkpt>
<trkpt lat="48.479648" lon="2.654122"><ele></ele><time>2017-9-18T22:51:59Z</time></trkpt>
<trkpt lat="48.47961" lon="2.653983"><ele></ele><time>2017-9-18T22:52:2Z</time></trkpt>
<trkpt lat="48.479572" lon="2.653868"><ele></ele><time>2017-9-18T22:52:5Z</time></trkpt>
<trkpt lat="48.479557" lon="2.653758"><ele></ele><time>2017-9-18T22:52:8Z</time></trkpt>
<trkpt lat="48.47954" lon="2.653693"><ele></ele><time>2017-9-18T22:52:11Z</time></trkpt>
<trkpt lat="48.479508" lon="2.653622"><ele></ele><time>2017-9-18T22:52:14Z</time></trkpt>
<trkpt lat="48.479457" lon="2.653515"><ele></ele><time>2017-9-18T22:52:17Z</time></trkpt>
<trkpt lat="48.47943" lon="2.653463"><ele></ele><time>2017-9-18T22:52:20Z</time></trkpt>
<trkpt lat="48.479382" lon="2.653353"><ele></ele><time>2017-9-18T22:52:23Z</time></trkpt>
<trkpt lat="48.479343" lon="2.65325"><ele></ele><time>2017-9-18T22:52:26Z</time></trkpt>
<trkpt lat="48.479318" lon="2.653163"><ele></ele><time>2017-9-18T22:52:29Z</time></trkpt>
<trkpt lat="48.479303" lon="2.653072"><ele></ele><time>2017-9-18T22:52:32Z</time></trkpt>
<trkpt lat="48.479287" lon="2.652957"><ele></ele><time>2017-9-18T22:52:35Z</time></trkpt>
<trkpt lat="48.479268" lon="2.652853"><ele></ele><time>2017-9-18T22:52:38Z</time></trkpt>
<trkpt lat="48.47921" lon="2.652797"><ele></ele><time>2017-9-18T22:52:41Z</time></trkpt>
<trkpt lat="48.479143" lon="2.652765"><ele></ele><time>2017-9-18T22:52:44Z</time></trkpt>
<trkpt lat="48.479102" lon="2.65273"><ele></ele><time>2017-9-18T22:52:47Z</time></trkpt>
<trkpt lat="48.479013" lon="2.652653"><ele></ele><time>2017-9-18T22:52:50Z</time></trkpt>
<trkpt lat="48.478957" lon="2.652573"><ele></ele><time>2017-9-18T22:52:53Z</time></trkpt>
<trkpt lat="48.478915" lon="2.652498"><ele></ele><time>2017-9-18T22:52:56Z</time></trkpt>
<trkpt lat="48.478857" lon="2.652417"><ele></ele><time>2017-9-18T22:52:59Z</time></trkpt>
<trkpt lat="48.478775" lon="2.652363"><ele></ele><time>2017-9-18T22:53:2Z</time></trkpt>
<trkpt lat="48.478703" lon="2.652428"><ele></ele><time>2017-9-18T22:53:5Z</time></trkpt>
<trkpt lat="48.478658" lon="2.652483"><ele></ele><time>2017-9-18T22:53:8Z</time></trkpt>
<trkpt lat="48.4786" lon="2.652558"><ele></ele><time>2017-9-18T22:53:11Z</time></trkpt>
<trkpt lat="48.47854" lon="2.652622"><ele></ele><time>2017-9-18T22:53:14Z</time></trkpt>
<trkpt lat="48.47847" lon="2.652672"><ele></ele><time>2017-9-18T22:53:17Z</time></trkpt>
<trkpt lat="48.478397" lon="2.652733"><ele></ele><time>2017-9-18T22:53:20Z</time></trkpt>
<trkpt lat="48.478337" lon="2.652805"><ele></ele><time>2017-9-18T22:53:23Z</time></trkpt>
<trkpt lat="48.478258" lon="2.652865"><ele></ele><time>2017-9-18T22:53:26Z</time></trkpt>
<trkpt lat="48.47822" lon="2.652892"><ele></ele><time>2017-9-18T22:53:29Z</time></trkpt>
<trkpt lat="48.478113" lon="2.652967"><ele></ele><time>2017-9-18T22:53:32Z</time></trkpt>
<trkpt lat="48.478033" lon="2.653018"><ele></ele><time>2017-9-18T22:53:35Z</time></trkpt>
<trkpt lat="48.477955" lon="2.653075"><ele></ele><time>2017-9-18T22:53:38Z</time></trkpt>
<trkpt lat="48.477917" lon="2.653107"><ele></ele><time>2017-9-18T22:53:41Z</time></trkpt>
<trkpt lat="48.477877" lon="2.653143"><ele></ele><time>2017-9-18T22:53:44Z</time></trkpt>
<trkpt lat="48.477835" lon="2.653175"><ele></ele><time>2017-9-18T22:53:47Z</time></trkpt>
<trkpt lat="48.477785" lon="2.653205"><ele></ele><time>2017-9-18T22:53:50Z</time></trkpt>
<trkpt lat="48.477737" lon="2.65323"><ele></ele><time>2017-9-18T22:53:53Z</time></trkpt>
<trkpt lat="48.477667" lon="2.653295"><ele></ele><time>2017-9-18T22:53:56Z</time></trkpt>
<trkpt lat="48.477598" lon="2.65335"><ele></ele><time>2017-9-18T22:53:59Z</time></trkpt>
<trkpt lat="48.477525" lon="2.653393"><ele></ele><time>2017-9-18T22:54:2Z</time></trkpt>
<trkpt lat="48.477443" lon="2.65345"><ele></ele><time>2017-9-18T22:54:5Z</time></trkpt>
<trkpt lat="48.477363" lon="2.653497"><ele></ele><time>2017-9-18T22:54:8Z</time></trkpt>
<trkpt lat="48.477283" lon="2.653553"><ele></ele><time>2017-9-18T22:54:11Z</time></trkpt>
<trkpt lat="48.477227" lon="2.653615"><ele></ele><time>2017-9-18T22:54:14Z</time></trkpt>
<trkpt lat="48.47716" lon="2.653682"><ele></ele><time>2017-9-18T22:54:17Z</time></trkpt>
<trkpt lat="48.47707" lon="2.653722"><ele></ele><time>2017-9-18T22:54:20Z</time></trkpt>
<trkpt lat="48.476983" lon="2.653778"><ele></ele><time>2017-9-18T22:54:23Z</time></trkpt>
<trkpt lat="48.476902" lon="2.653835"><ele></ele><time>2017-9-18T22:54:26Z</time></trkpt>
<trkpt lat="48.47683" lon="2.65388"><ele></ele><time>2017-9-18T22:54:29Z</time></trkpt>
<trkpt lat="48.47676" lon="2.653947"><ele></ele><time>2017-9-18T22:54:32Z</time></trkpt>
<trkpt lat="48.476685" lon="2.654015"><ele></ele><time>2017-9-18T22:54:35Z</time></trkpt>
<trkpt lat="48.476613" lon="2.654077"><ele></ele><time>2017-9-18T22:54:38Z</time></trkpt>
<trkpt lat="48.476542" lon="2.654147"><ele></ele><time>2017-9-18T22:54:41Z</time></trkpt>
<trkpt lat="48.476493" lon="2.654205"><ele></ele><time>2017-9-18T22:54:44Z</time></trkpt>
<trkpt lat="48.476432" lon="2.654258"><ele></ele><time>2017-9-18T22:54:47Z</time></trkpt>
<trkpt lat="48.476363" lon="2.654313"><ele></ele><time>2017-9-18T22:54:50Z</time></trkpt>
<trkpt lat="48.476305" lon="2.654383"><ele></ele><time>2017-9-18T22:54:53Z</time></trkpt>
<trkpt lat="48.47624" lon="2.654448"><ele></ele><time>2017-9-18T22:54:56Z</time></trkpt>
<trkpt lat="48.476173" lon="2.654502"><ele></ele><time>2017-9-18T22:54:59Z</time></trkpt>
<trkpt lat="48.47611" lon="2.654563"><ele></ele><time>2017-9-18T22:55:2Z</time></trkpt>
<trkpt lat="48.47604" lon="2.654607"><ele></ele><time>2017-9-18T22:55:5Z</time></trkpt>
<trkpt lat="48.476002" lon="2.654633"><ele></ele><time>2017-9-18T22:55:8Z</time></trkpt>
<trkpt lat="48.47592" lon="2.6547"><ele></ele><time>2017-9-18T22:55:11Z</time></trkpt>
<trkpt lat="48.475882" lon="2.654732"><ele></ele><time>2017-9-18T22:55:14Z</time></trkpt>
<trkpt lat="48.475805" lon="2.654787"><ele></ele><time>2017-9-18T22:55:17Z</time></trkpt>
<trkpt lat="48.475737" lon="2.654842"><ele></ele><time>2017-9-18T22:55:20Z</time></trkpt>
<trkpt lat="48.475665" lon="2.654898"><ele></ele><time>2017-9-18T22:55:23Z</time></trkpt>
<trkpt lat="48.475597" lon="2.654955"><ele></ele><time>2017-9-18T22:55:26Z</time></trkpt>
<trkpt lat="48.475562" lon="2.654988"><ele></ele><time>2017-9-18T22:55:29Z</time></trkpt>
<trkpt lat="48.475513" lon="2.655035"><ele></ele><time>2017-9-18T22:55:32Z</time></trkpt>
<trkpt lat="48.475452" lon="2.655088"><ele></ele><time>2017-9-18T22:55:35Z</time></trkpt>
<trkpt lat="48.475408" lon="2.655118"><ele></ele><time>2017-9-18T22:55:38Z</time></trkpt>
<trkpt lat="48.475362" lon="2.655147"><ele></ele><time>2017-9-18T22:55:41Z</time></trkpt>
<trkpt lat="48.475283" lon="2.655222"><ele></ele><time>2017-9-18T22:55:44Z</time></trkpt>
<trkpt lat="48.475213" lon="2.655283"><ele></ele><time>2017-9-18T22:55:47Z</time></trkpt>
<trkpt lat="48.475143" lon="2.655353"><ele></ele><time>2017-9-18T22:55:50Z</time></trkpt>
<trkpt lat="48.475068" lon="2.655425"><ele></ele><time>2017-9-18T22:55:53Z</time></trkpt>
<trkpt lat="48.475005" lon="2.655497"><ele></ele><time>2017-9-18T22:55:56Z</time></trkpt>
<trkpt lat="48.47493" lon="2.65555"><ele></ele><time>2017-9-18T22:55:59Z</time></trkpt>
<trkpt lat="48.47486" lon="2.655608"><ele></ele><time>2017-9-18T22:56:2Z</time></trkpt>
<trkpt lat="48.474797" lon="2.655663"><ele></ele><time>2017-9-18T22:56:5Z</time></trkpt>
<trkpt lat="48.47473" lon="2.655728"><ele></ele><time>2017-9-18T22:56:8Z</time></trkpt>
<trkpt lat="48.474665" lon="2.655792"><ele></ele><time>2017-9-18T22:56:11Z</time></trkpt>
<trkpt lat="48.4746" lon="2.655857"><ele></ele><time>2017-9-18T22:56:14Z</time></trkpt>
<trkpt lat="48.474535" lon="2.655928"><ele></ele><time>2017-9-18T22:56:17Z</time></trkpt>
<trkpt lat="48.474457" lon="2.655987"><ele></ele><time>2017-9-18T22:56:20Z</time></trkpt>
<trkpt lat="48.474378" lon="2.656045"><ele></ele><time>2017-9-18T22:56:23Z</time></trkpt>
<trkpt lat="48.474317" lon="2.65609"><ele></ele><time>2017-9-18T22:56:26Z</time></trkpt>
<trkpt lat="48.47424" lon="2.656158"><ele></ele><time>2017-9-18T22:56:29Z</time></trkpt>
<trkpt lat="48.474202" lon="2.656195"><ele></ele><time>2017-9-18T22:56:32Z</time></trkpt>
<trkpt lat="48.474122" lon="2.656252"><ele></ele><time>2017-9-18T22:56:35Z</time></trkpt>
<trkpt lat="48.474053" lon="2.656317"><ele></ele><time>2017-9-18T22:56:38Z</time></trkpt>
<trkpt lat="48.47398" lon="2.656385"><ele></ele><time>2017-9-18T22:56:41Z</time></trkpt>
<trkpt lat="48.473908" lon="2.656453"><ele></ele><time>2017-9-18T22:56:44Z</time></trkpt>
<trkpt lat="48.473833" lon="2.656522"><ele></ele><time>2017-9-18T22:56:47Z</time></trkpt>
<trkpt lat="48.473802" lon="2.656557"><ele></ele><time>2017-9-18T22:56:50Z</time></trkpt>
<trkpt lat="48.473695" lon="2.656652"><ele></ele><time>2017-9-18T22:56:53Z</time></trkpt>
<trkpt lat="48.473622" lon="2.656707"><ele></ele><time>2017-9-18T22:56:56Z</time></trkpt>
<trkpt lat="48.473552" lon="2.656763"><ele></ele><time>2017-9-18T22:56:59Z</time></trkpt>
<trkpt lat="48.473485" lon="2.656818"><ele></ele><time>2017-9-18T22:57:2Z</time></trkpt>
<trkpt lat="48.47343" lon="2.656875"><ele></ele><time>2017-9-18T22:57:5Z</time></trkpt>
<trkpt lat="48.473362" lon="2.656937"><ele></ele><time>2017-9-18T22:57:8Z</time></trkpt>
<trkpt lat="48.4733" lon="2.657003"><ele></ele><time>2017-9-18T22:57:11Z</time></trkpt>
<trkpt lat="48.473237" lon="2.657063"><ele></ele><time>2017-9-18T22:57:14Z</time></trkpt>
<trkpt lat="48.473163" lon="2.65712"><ele></ele><time>2017-9-18T22:57:17Z</time></trkpt>
<trkpt lat="48.473123" lon="2.657152"><ele></ele><time>2017-9-18T22:57:20Z</time></trkpt>
<trkpt lat="48.473083" lon="2.657183"><ele></ele><time>2017-9-18T22:57:23Z</time></trkpt>
<trkpt lat="48.47304" lon="2.65722"><ele></ele><time>2017-9-18T22:57:26Z</time></trkpt>
<trkpt lat="48.472993" lon="2.65726"><ele></ele><time>2017-9-18T22:57:29Z</time></trkpt>
<trkpt lat="48.472957" lon="2.657295"><ele></ele><time>2017-9-18T22:57:32Z</time></trkpt>
<trkpt lat="48.472908" lon="2.657335"><ele></ele><time>2017-9-18T22:57:35Z</time></trkpt>
<trkpt lat="48.472857" lon="2.65737"><ele></ele><time>2017-9-18T22:57:38Z</time></trkpt>
<trkpt lat="48.47281" lon="2.657402"><ele></ele><time>2017-9-18T22:57:41Z</time></trkpt>
<trkpt lat="48.472762" lon="2.657432"><ele></ele><time>2017-9-18T22:57:44Z</time></trkpt>
<trkpt lat="48.47272" lon="2.657468"><ele></ele><time>2017-9-18T22:57:47Z</time></trkpt>
<trkpt lat="48.472675" lon="2.657507"><ele></ele><time>2017-9-18T22:57:50Z</time></trkpt>
<trkpt lat="48.47263" lon="2.657547"><ele></ele><time>2017-9-18T22:57:53Z</time></trkpt>
<trkpt lat="48.472592" lon="2.657587"><ele></ele><time>2017-9-18T22:57:56Z</time></trkpt>
<trkpt lat="48.47255" lon="2.657627"><ele></ele><time>2017-9-18T22:57:59Z</time></trkpt>
<trkpt lat="48.472513" lon="2.657668"><ele></ele><time>2017-9-18T22:58:2Z</time></trkpt>
<trkpt lat="48.472472" lon="2.657703"><ele></ele><time>2017-9-18T22:58:5Z</time></trkpt>
<trkpt lat="48.47243" lon="2.657742"><ele></ele><time>2017-9-18T22:58:8Z</time></trkpt>
<trkpt lat="48.472385" lon="2.65778"><ele></ele><time>2017-9-18T22:58:11Z</time></trkpt>
<trkpt lat="48.472342" lon="2.657822"><ele></ele><time>2017-9-18T22:58:14Z</time></trkpt>
<trkpt lat="48.472302" lon="2.65786"><ele></ele><time>2017-9-18T22:58:17Z</time></trkpt>
<trkpt lat="48.472263" lon="2.657893"><ele></ele><time>2017-9-18T22:58:20Z</time></trkpt>
<trkpt lat="48.472223" lon="2.657932"><ele></ele><time>2017-9-18T22:58:23Z</time></trkpt>
<trkpt lat="48.472187" lon="2.657973"><ele></ele><time>2017-9-18T22:58:26Z</time></trkpt>
<trkpt lat="48.472148" lon="2.65801"><ele></ele><time>2017-9-18T22:58:29Z</time></trkpt>
<trkpt lat="48.472103" lon="2.658037"><ele></ele><time>2017-9-18T22:58:32Z</time></trkpt>
<trkpt lat="48.47206" lon="2.658067"><ele></ele><time>2017-9-18T22:58:35Z</time></trkpt>
<trkpt lat="48.472015" lon="2.658097"><ele></ele><time>2017-9-18T22:58:38Z</time></trkpt>
<trkpt lat="48.471975" lon="2.65813"><ele></ele><time>2017-9-18T22:58:41Z</time></trkpt>
<trkpt lat="48.471933" lon="2.658165"><ele></ele><time>2017-9-18T22:58:44Z</time></trkpt>
<trkpt lat="48.471855" lon="2.65823"><ele></ele><time>2017-9-18T22:58:47Z</time></trkpt>
<trkpt lat="48.471787" lon="2.658305"><ele></ele><time>2017-9-18T22:58:50Z</time></trkpt>
<trkpt lat="48.471743" lon="2.658337"><ele></ele><time>2017-9-18T22:58:53Z</time></trkpt>
<trkpt lat="48.471665" lon="2.658395"><ele></ele><time>2017-9-18T22:58:56Z</time></trkpt>
<trkpt lat="48.471625" lon="2.65843"><ele></ele><time>2017-9-18T22:58:59Z</time></trkpt>
<trkpt lat="48.471547" lon="2.658495"><ele></ele><time>2017-9-18T22:59:2Z</time></trkpt>
<trkpt lat="48.471465" lon="2.658548"><ele></ele><time>2017-9-18T22:59:5Z</time></trkpt>
<trkpt lat="48.47139" lon="2.65861"><ele></ele><time>2017-9-18T22:59:8Z</time></trkpt>
<trkpt lat="48.471315" lon="2.658672"><ele></ele><time>2017-9-18T22:59:11Z</time></trkpt>
<trkpt lat="48.471245" lon="2.658722"><ele></ele><time>2017-9-18T22:59:14Z</time></trkpt>
<trkpt lat="48.471182" lon="2.658762"><ele></ele><time>2017-9-18T22:59:17Z</time></trkpt>
<trkpt lat="48.471108" lon="2.65881"><ele></ele><time>2017-9-18T22:59:20Z</time></trkpt>
<trkpt lat="48.471045" lon="2.658833"><ele></ele><time>2017-9-18T22:59:23Z</time></trkpt>
<trkpt lat="48.470957" lon="2.658838"><ele></ele><time>2017-9-18T22:59:26Z</time></trkpt>
<trkpt lat="48.47089" lon="2.658828"><ele></ele><time>2017-9-18T22:59:29Z</time></trkpt>
<trkpt lat="48.470815" lon="2.658827"><ele></ele><time>2017-9-18T22:59:32Z</time></trkpt>
<trkpt lat="48.470743" lon="2.658822"><ele></ele><time>2017-9-18T22:59:35Z</time></trkpt>
<trkpt lat="48.470665" lon="2.658812"><ele></ele><time>2017-9-18T22:59:38Z</time></trkpt>
<trkpt lat="48.470618" lon="2.658805"><ele></ele><time>2017-9-18T22:59:41Z</time></trkpt>
<trkpt lat="48.470563" lon="2.658792"><ele></ele><time>2017-9-18T22:59:44Z</time></trkpt>
<trkpt lat="48.470513" lon="2.65878"><ele></ele><time>2017-9-18T22:59:47Z</time></trkpt>
<trkpt lat="48.470462" lon="2.658775"><ele></ele><time>2017-9-18T22:59:50Z</time></trkpt>
<trkpt lat="48.470377" lon="2.658765"><ele></ele><time>2017-9-18T22:59:53Z</time></trkpt>
<trkpt lat="48.470292" lon="2.658752"><ele></ele><time>2017-9-18T22:59:56Z</time></trkpt>
<trkpt lat="48.470207" lon="2.658748"><ele></ele><time>2017-9-18T22:59:59Z</time></trkpt>
<trkpt lat="48.470157" lon="2.658742"><ele></ele><time>2017-9-18T23:0:2Z</time></trkpt>
<trkpt lat="48.470105" lon="2.65874"><ele></ele><time>2017-9-18T23:0:5Z</time></trkpt>
<trkpt lat="48.47006" lon="2.658737"><ele></ele><time>2017-9-18T23:0:8Z</time></trkpt>
<trkpt lat="48.469972" lon="2.65873"><ele></ele><time>2017-9-18T23:0:11Z</time></trkpt>
<trkpt lat="48.469888" lon="2.658727"><ele></ele><time>2017-9-18T23:0:14Z</time></trkpt>
<trkpt lat="48.469803" lon="2.658722"><ele></ele><time>2017-9-18T23:0:17Z</time></trkpt>
<trkpt lat="48.469753" lon="2.65871"><ele></ele><time>2017-9-18T23:0:20Z</time></trkpt>
<trkpt lat="48.469705" lon="2.6587"><ele></ele><time>2017-9-18T23:0:23Z</time></trkpt>
<trkpt lat="48.469655" lon="2.658695"><ele></ele><time>2017-9-18T23:0:26Z</time></trkpt>
<trkpt lat="48.469605" lon="2.65869"><ele></ele><time>2017-9-18T23:0:29Z</time></trkpt>
<trkpt lat="48.46956" lon="2.658687"><ele></ele><time>2017-9-18T23:0:32Z</time></trkpt>
<trkpt lat="48.469515" lon="2.658687"><ele></ele><time>2017-9-18T23:0:35Z</time></trkpt>
<trkpt lat="48.46947" lon="2.658693"><ele></ele><time>2017-9-18T23:0:38Z</time></trkpt>
<trkpt lat="48.469425" lon="2.658702"><ele></ele><time>2017-9-18T23:0:41Z</time></trkpt>
<trkpt lat="48.469333" lon="2.658702"><ele></ele><time>2017-9-18T23:0:44Z</time></trkpt>
<trkpt lat="48.469247" lon="2.658697"><ele></ele><time>2017-9-18T23:0:47Z</time></trkpt>
<trkpt lat="48.469175" lon="2.658697"><ele></ele><time>2017-9-18T23:0:50Z</time></trkpt>
<trkpt lat="48.46911" lon="2.658685"><ele></ele><time>2017-9-18T23:0:53Z</time></trkpt>
<trkpt lat="48.469042" lon="2.65868"><ele></ele><time>2017-9-18T23:0:56Z</time></trkpt>
<trkpt lat="48.46897" lon="2.658675"><ele></ele><time>2017-9-18T23:0:59Z</time></trkpt>
<trkpt lat="48.468935" lon="2.658677"><ele></ele><time>2017-9-18T23:1:2Z</time></trkpt>
<trkpt lat="48.468822" lon="2.658672"><ele></ele><time>2017-9-18T23:1:5Z</time></trkpt>
<trkpt lat="48.46875" lon="2.65867"><ele></ele><time>2017-9-18T23:1:8Z</time></trkpt>
<trkpt lat="48.468677" lon="2.658678"><ele></ele><time>2017-9-18T23:1:11Z</time></trkpt>
<trkpt lat="48.468615" lon="2.658683"><ele></ele><time>2017-9-18T23:1:14Z</time></trkpt>
<trkpt lat="48.468538" lon="2.65867"><ele></ele><time>2017-9-18T23:1:17Z</time></trkpt>
<trkpt lat="48.4685" lon="2.658665"><ele></ele><time>2017-9-18T23:1:20Z</time></trkpt>
<trkpt lat="48.468412" lon="2.65865"><ele></ele><time>2017-9-18T23:1:23Z</time></trkpt>
<trkpt lat="48.46834" lon="2.658632"><ele></ele><time>2017-9-18T23:1:26Z</time></trkpt>
<trkpt lat="48.468258" lon="2.658613"><ele></ele><time>2017-9-18T23:1:29Z</time></trkpt>
<trkpt lat="48.468212" lon="2.658612"><ele></ele><time>2017-9-18T23:1:32Z</time></trkpt>
<trkpt lat="48.468152" lon="2.658608"><ele></ele><time>2017-9-18T23:1:35Z</time></trkpt>
<trkpt lat="48.468105" lon="2.658612"><ele></ele><time>2017-9-18T23:1:38Z</time></trkpt>
<trkpt lat="48.468053" lon="2.658613"><ele></ele><time>2017-9-18T23:1:41Z</time></trkpt>
<trkpt lat="48.467973" lon="2.658607"><ele></ele><time>2017-9-18T23:1:44Z</time></trkpt>
<trkpt lat="48.467908" lon="2.658592"><ele></ele><time>2017-9-18T23:1:47Z</time></trkpt>
<trkpt lat="48.467843" lon="2.65859"><ele></ele><time>2017-9-18T23:1:50Z</time></trkpt>
<trkpt lat="48.467767" lon="2.658582"><ele></ele><time>2017-9-18T23:1:53Z</time></trkpt>
<trkpt lat="48.467678" lon="2.658573"><ele></ele><time>2017-9-18T23:1:56Z</time></trkpt>
<trkpt lat="48.467602" lon="2.658573"><ele></ele><time>2017-9-18T23:1:59Z</time></trkpt>
<trkpt lat="48.467538" lon="2.65856"><ele></ele><time>2017-9-18T23:2:2Z</time></trkpt>
<trkpt lat="48.46747" lon="2.658553"><ele></ele><time>2017-9-18T23:2:5Z</time></trkpt>
<trkpt lat="48.467398" lon="2.658538"><ele></ele><time>2017-9-18T23:2:8Z</time></trkpt>
<trkpt lat="48.467353" lon="2.658538"><ele></ele><time>2017-9-18T23:2:11Z</time></trkpt>
<trkpt lat="48.467303" lon="2.658533"><ele></ele><time>2017-9-18T23:2:14Z</time></trkpt>
<trkpt lat="48.46723" lon="2.658515"><ele></ele><time>2017-9-18T23:2:17Z</time></trkpt>
<trkpt lat="48.467155" lon="2.658498"><ele></ele><time>2017-9-18T23:2:20Z</time></trkpt>
<trkpt lat="48.467078" lon="2.658502"><ele></ele><time>2017-9-18T23:2:23Z</time></trkpt>
<trkpt lat="48.467" lon="2.65849"><ele></ele><time>2017-9-18T23:2:26Z</time></trkpt>
<trkpt lat="48.46692" lon="2.658467"><ele></ele><time>2017-9-18T23:2:29Z</time></trkpt>
<trkpt lat="48.466838" lon="2.658455"><ele></ele><time>2017-9-18T23:2:32Z</time></trkpt>
<trkpt lat="48.466792" lon="2.65845"><ele></ele><time>2017-9-18T23:2:35Z</time></trkpt>
<trkpt lat="48.466743" lon="2.658442"><ele></ele><time>2017-9-18T23:2:38Z</time></trkpt>
<trkpt lat="48.466697" lon="2.658435"><ele></ele><time>2017-9-18T23:2:41Z</time></trkpt>
<trkpt lat="48.466553" lon="2.658383"><ele></ele><time>2017-9-18T23:2:44Z</time></trkpt>
<trkpt lat="48.466513" lon="2.65838"><ele></ele><time>2017-9-18T23:2:47Z</time></trkpt>
<trkpt lat="48.46639" lon="2.658365"><ele></ele><time>2017-9-18T23:2:50Z</time></trkpt>
<trkpt lat="48.466303" lon="2.65836"><ele></ele><time>2017-9-18T23:2:53Z</time></trkpt>
<trkpt lat="48.466232" lon="2.65838"><ele></ele><time>2017-9-18T23:2:56Z</time></trkpt>
<trkpt lat="48.466173" lon="2.658405"><ele></ele><time>2017-9-18T23:2:59Z</time></trkpt>
<trkpt lat="48.466107" lon="2.658398"><ele></ele><time>2017-9-18T23:3:2Z</time></trkpt>
<trkpt lat="48.466038" lon="2.658398"><ele></ele><time>2017-9-18T23:3:5Z</time></trkpt>
<trkpt lat="48.465952" lon="2.658415"><ele></ele><time>2017-9-18T23:3:8Z</time></trkpt>
<trkpt lat="48.465877" lon="2.658453"><ele></ele><time>2017-9-18T23:3:11Z</time></trkpt>
<trkpt lat="48.465795" lon="2.658497"><ele></ele><time>2017-9-18T23:3:14Z</time></trkpt>
<trkpt lat="48.465717" lon="2.658518"><ele></ele><time>2017-9-18T23:3:17Z</time></trkpt>
<trkpt lat="48.465665" lon="2.658483"><ele></ele><time>2017-9-18T23:3:20Z</time></trkpt>
<trkpt lat="48.46561" lon="2.658442"><ele></ele><time>2017-9-18T23:3:23Z</time></trkpt>
<trkpt lat="48.465528" lon="2.658405"><ele></ele><time>2017-9-18T23:3:26Z</time></trkpt>
<trkpt lat="48.465468" lon="2.658412"><ele></ele><time>2017-9-18T23:3:29Z</time></trkpt>
<trkpt lat="48.46538" lon="2.658427"><ele></ele><time>2017-9-18T23:3:32Z</time></trkpt>
<trkpt lat="48.465307" lon="2.65844"><ele></ele><time>2017-9-18T23:3:35Z</time></trkpt>
<trkpt lat="48.465247" lon="2.658448"><ele></ele><time>2017-9-18T23:3:38Z</time></trkpt>
<trkpt lat="48.465165" lon="2.65846"><ele></ele><time>2017-9-18T23:3:41Z</time></trkpt>
<trkpt lat="48.465115" lon="2.658468"><ele></ele><time>2017-9-18T23:3:44Z</time></trkpt>
<trkpt lat="48.465043" lon="2.658465"><ele></ele><time>2017-9-18T23:3:47Z</time></trkpt>
<trkpt lat="48.464997" lon="2.658475"><ele></ele><time>2017-9-18T23:3:50Z</time></trkpt>
<trkpt lat="48.464923" lon="2.658488"><ele></ele><time>2017-9-18T23:3:53Z</time></trkpt>
<trkpt lat="48.464858" lon="2.658495"><ele></ele><time>2017-9-18T23:3:56Z</time></trkpt>
<trkpt lat="48.464808" lon="2.658477"><ele></ele><time>2017-9-18T23:3:59Z</time></trkpt>
<trkpt lat="48.464733" lon="2.658472"><ele></ele><time>2017-9-18T23:4:2Z</time></trkpt>
<trkpt lat="48.464663" lon="2.65848"><ele></ele><time>2017-9-18T23:4:5Z</time></trkpt>
<trkpt lat="48.46458" lon="2.658493"><ele></ele><time>2017-9-18T23:4:8Z</time></trkpt>
<trkpt lat="48.464515" lon="2.658518"><ele></ele><time>2017-9-18T23:4:11Z</time></trkpt>
<trkpt lat="48.464457" lon="2.658575"><ele></ele><time>2017-9-18T23:4:14Z</time></trkpt>
<trkpt lat="48.464378" lon="2.658627"><ele></ele><time>2017-9-18T23:4:17Z</time></trkpt>
<trkpt lat="48.464298" lon="2.658658"><ele></ele><time>2017-9-18T23:4:20Z</time></trkpt>
<trkpt lat="48.464263" lon="2.658678"><ele></ele><time>2017-9-18T23:4:23Z</time></trkpt>
<trkpt lat="48.464158" lon="2.658752"><ele></ele><time>2017-9-18T23:4:26Z</time></trkpt>
<trkpt lat="48.464105" lon="2.658822"><ele></ele><time>2017-9-18T23:4:29Z</time></trkpt>
<trkpt lat="48.464045" lon="2.658868"><ele></ele><time>2017-9-18T23:4:32Z</time></trkpt>
<trkpt lat="48.463985" lon="2.658917"><ele></ele><time>2017-9-18T23:4:35Z</time></trkpt>
<trkpt lat="48.463918" lon="2.658968"><ele></ele><time>2017-9-18T23:4:38Z</time></trkpt>
<trkpt lat="48.46385" lon="2.65902"><ele></ele><time>2017-9-18T23:4:41Z</time></trkpt>
<trkpt lat="48.463778" lon="2.659063"><ele></ele><time>2017-9-18T23:4:44Z</time></trkpt>
<trkpt lat="48.463695" lon="2.659095"><ele></ele><time>2017-9-18T23:4:47Z</time></trkpt>
<trkpt lat="48.463618" lon="2.659135"><ele></ele><time>2017-9-18T23:4:50Z</time></trkpt>
<trkpt lat="48.46355" lon="2.65917"><ele></ele><time>2017-9-18T23:4:53Z</time></trkpt>
<trkpt lat="48.46348" lon="2.659218"><ele></ele><time>2017-9-18T23:4:56Z</time></trkpt>
<trkpt lat="48.463407" lon="2.659282"><ele></ele><time>2017-9-18T23:4:59Z</time></trkpt>
<trkpt lat="48.463343" lon="2.659338"><ele></ele><time>2017-9-18T23:5:2Z</time></trkpt>
<trkpt lat="48.463278" lon="2.659397"><ele></ele><time>2017-9-18T23:5:5Z</time></trkpt>
<trkpt lat="48.463218" lon="2.659452"><ele></ele><time>2017-9-18T23:5:8Z</time></trkpt>
<trkpt lat="48.463167" lon="2.6595"><ele></ele><time>2017-9-18T23:5:11Z</time></trkpt>
<trkpt lat="48.463097" lon="2.659553"><ele></ele><time>2017-9-18T23:5:14Z</time></trkpt>
<trkpt lat="48.463017" lon="2.65961"><ele></ele><time>2017-9-18T23:5:17Z</time></trkpt>
<trkpt lat="48.46295" lon="2.65966"><ele></ele><time>2017-9-18T23:5:20Z</time></trkpt>
<trkpt lat="48.46289" lon="2.659717"><ele></ele><time>2017-9-18T23:5:23Z</time></trkpt>
<trkpt lat="48.462838" lon="2.659768"><ele></ele><time>2017-9-18T23:5:26Z</time></trkpt>
<trkpt lat="48.462787" lon="2.659828"><ele></ele><time>2017-9-18T23:5:29Z</time></trkpt>
<trkpt lat="48.462723" lon="2.659887"><ele></ele><time>2017-9-18T23:5:32Z</time></trkpt>
<trkpt lat="48.46267" lon="2.659942"><ele></ele><time>2017-9-18T23:5:35Z</time></trkpt>
<trkpt lat="48.462595" lon="2.659987"><ele></ele><time>2017-9-18T23:5:38Z</time></trkpt>
<trkpt lat="48.462525" lon="2.66004"><ele></ele><time>2017-9-18T23:5:41Z</time></trkpt>
<trkpt lat="48.462453" lon="2.660113"><ele></ele><time>2017-9-18T23:5:44Z</time></trkpt>
<trkpt lat="48.462388" lon="2.660158"><ele></ele><time>2017-9-18T23:5:47Z</time></trkpt>
<trkpt lat="48.46233" lon="2.660218"><ele></ele><time>2017-9-18T23:5:50Z</time></trkpt>
<trkpt lat="48.462277" lon="2.660257"><ele></ele><time>2017-9-18T23:5:53Z</time></trkpt>
<trkpt lat="48.462203" lon="2.660323"><ele></ele><time>2017-9-18T23:5:56Z</time></trkpt>
<trkpt lat="48.462158" lon="2.660342"><ele></ele><time>2017-9-18T23:5:59Z</time></trkpt>
<trkpt lat="48.462078" lon="2.660365"><ele></ele><time>2017-9-18T23:6:2Z</time></trkpt>
<trkpt lat="48.462005" lon="2.660393"><ele></ele><time>2017-9-18T23:6:5Z</time></trkpt>
<trkpt lat="48.46192" lon="2.660425"><ele></ele><time>2017-9-18T23:6:8Z</time></trkpt>
<trkpt lat="48.461833" lon="2.66045"><ele></ele><time>2017-9-18T23:6:11Z</time></trkpt>
<trkpt lat="48.461755" lon="2.66048"><ele></ele><time>2017-9-18T23:6:14Z</time></trkpt>
<trkpt lat="48.46167" lon="2.660518"><ele></ele><time>2017-9-18T23:6:17Z</time></trkpt>
<trkpt lat="48.461587" lon="2.660507"><ele></ele><time>2017-9-18T23:6:20Z</time></trkpt>
<trkpt lat="48.461525" lon="2.660468"><ele></ele><time>2017-9-18T23:6:23Z</time></trkpt>
<trkpt lat="48.461457" lon="2.660422"><ele></ele><time>2017-9-18T23:6:26Z</time></trkpt>
<trkpt lat="48.461385" lon="2.660405"><ele></ele><time>2017-9-18T23:6:29Z</time></trkpt>
<trkpt lat="48.461335" lon="2.660405"><ele></ele><time>2017-9-18T23:6:32Z</time></trkpt>
<trkpt lat="48.461247" lon="2.660417"><ele></ele><time>2017-9-18T23:6:35Z</time></trkpt>
<trkpt lat="48.461162" lon="2.660442"><ele></ele><time>2017-9-18T23:6:38Z</time></trkpt>
<trkpt lat="48.461085" lon="2.660463"><ele></ele><time>2017-9-18T23:6:41Z</time></trkpt>
<trkpt lat="48.461068" lon="2.660473"><ele></ele><time>2017-9-18T23:6:44Z</time></trkpt>
<trkpt lat="48.460943" lon="2.660515"><ele></ele><time>2017-9-18T23:6:47Z</time></trkpt>
<trkpt lat="48.46088" lon="2.660538"><ele></ele><time>2017-9-18T23:6:50Z</time></trkpt>
<trkpt lat="48.460842" lon="2.660562"><ele></ele><time>2017-9-18T23:6:53Z</time></trkpt>
<trkpt lat="48.460762" lon="2.660622"><ele></ele><time>2017-9-18T23:6:56Z</time></trkpt>
<trkpt lat="48.460692" lon="2.660692"><ele></ele><time>2017-9-18T23:6:59Z</time></trkpt>
<trkpt lat="48.460655" lon="2.660733"><ele></ele><time>2017-9-18T23:7:2Z</time></trkpt>
<trkpt lat="48.460618" lon="2.66078"><ele></ele><time>2017-9-18T23:7:5Z</time></trkpt>
<trkpt lat="48.460583" lon="2.660827"><ele></ele><time>2017-9-18T23:7:8Z</time></trkpt>
<trkpt lat="48.460545" lon="2.660872"><ele></ele><time>2017-9-18T23:7:11Z</time></trkpt>
<trkpt lat="48.460475" lon="2.660948"><ele></ele><time>2017-9-18T23:7:14Z</time></trkpt>
<trkpt lat="48.460438" lon="2.660987"><ele></ele><time>2017-9-18T23:7:17Z</time></trkpt>
<trkpt lat="48.460375" lon="2.661082"><ele></ele><time>2017-9-18T23:7:20Z</time></trkpt>
<trkpt lat="48.460318" lon="2.661147"><ele></ele><time>2017-9-18T23:7:23Z</time></trkpt>
<trkpt lat="48.460248" lon="2.661172"><ele></ele><time>2017-9-18T23:7:26Z</time></trkpt>
<trkpt lat="48.460162" lon="2.661205"><ele></ele><time>2017-9-18T23:7:29Z</time></trkpt>
<trkpt lat="48.460097" lon="2.661245"><ele></ele><time>2017-9-18T23:7:32Z</time></trkpt>
<trkpt lat="48.460022" lon="2.661307"><ele></ele><time>2017-9-18T23:7:35Z</time></trkpt>
<trkpt lat="48.459962" lon="2.661348"><ele></ele><time>2017-9-18T23:7:38Z</time></trkpt>
<trkpt lat="48.459882" lon="2.661387"><ele></ele><time>2017-9-18T23:7:41Z</time></trkpt>
<trkpt lat="48.459853" lon="2.661383"><ele></ele><time>2017-9-18T23:7:44Z</time></trkpt>
<trkpt lat="48.459787" lon="2.66137"><ele></ele><time>2017-9-18T23:7:47Z</time></trkpt>
<trkpt lat="48.459718" lon="2.661348"><ele></ele><time>2017-9-18T23:7:50Z</time></trkpt>
<trkpt lat="48.459655" lon="2.66132"><ele></ele><time>2017-9-18T23:7:53Z</time></trkpt>
<trkpt lat="48.45961" lon="2.661287"><ele></ele><time>2017-9-18T23:7:56Z</time></trkpt>
<trkpt lat="48.459535" lon="2.661227"><ele></ele><time>2017-9-18T23:7:59Z</time></trkpt>
<trkpt lat="48.459458" lon="2.66118"><ele></ele><time>2017-9-18T23:8:2Z</time></trkpt>
<trkpt lat="48.459393" lon="2.66113"><ele></ele><time>2017-9-18T23:8:5Z</time></trkpt>
<trkpt lat="48.459328" lon="2.661078"><ele></ele><time>2017-9-18T23:8:8Z</time></trkpt>
<trkpt lat="48.45931" lon="2.661063"><ele></ele><time>2017-9-18T23:8:11Z</time></trkpt>
<trkpt lat="48.459175" lon="2.66097"><ele></ele><time>2017-9-18T23:8:14Z</time></trkpt>
<trkpt lat="48.459112" lon="2.660925"><ele></ele><time>2017-9-18T23:8:17Z</time></trkpt>
<trkpt lat="48.459067" lon="2.660903"><ele></ele><time>2017-9-18T23:8:20Z</time></trkpt>
<trkpt lat="48.45899" lon="2.660853"><ele></ele><time>2017-9-18T23:8:23Z</time></trkpt>
<trkpt lat="48.458913" lon="2.660797"><ele></ele><time>2017-9-18T23:8:26Z</time></trkpt>
<trkpt lat="48.458847" lon="2.660757"><ele></ele><time>2017-9-18T23:8:29Z</time></trkpt>
<trkpt lat="48.458777" lon="2.660702"><ele></ele><time>2017-9-18T23:8:32Z</time></trkpt>
<trkpt lat="48.45873" lon="2.66061"><ele></ele><time>2017-9-18T23:8:35Z</time></trkpt>
<trkpt lat="48.458705" lon="2.660488"><ele></ele><time>2017-9-18T23:8:38Z</time></trkpt>
<trkpt lat="48.458682" lon="2.660373"><ele></ele><time>2017-9-18T23:8:41Z</time></trkpt>
<trkpt lat="48.458617" lon="2.660283"><ele></ele><time>2017-9-18T23:8:44Z</time></trkpt>
<trkpt lat="48.458643" lon="2.660162"><ele></ele><time>2017-9-18T23:8:47Z</time></trkpt>
<trkpt lat="48.458635" lon="2.660047"><ele></ele><time>2017-9-18T23:8:50Z</time></trkpt>
<trkpt lat="48.458627" lon="2.659913"><ele></ele><time>2017-9-18T23:8:53Z</time></trkpt>
<trkpt lat="48.458643" lon="2.659892"><ele></ele><time>2017-9-18T23:8:56Z</time></trkpt>
<trkpt lat="48.458615" lon="2.659718"><ele></ele><time>2017-9-18T23:8:59Z</time></trkpt>
<trkpt lat="48.458612" lon="2.659585"><ele></ele><time>2017-9-18T23:9:2Z</time></trkpt>
<trkpt lat="48.45863" lon="2.659465"><ele></ele><time>2017-9-18T23:9:5Z</time></trkpt>
<trkpt lat="48.45865" lon="2.659355"><ele></ele><time>2017-9-18T23:9:8Z</time></trkpt>
<trkpt lat="48.458617" lon="2.659262"><ele></ele><time>2017-9-18T23:9:11Z</time></trkpt>
<trkpt lat="48.458565" lon="2.659157"><ele></ele><time>2017-9-18T23:9:14Z</time></trkpt>
<trkpt lat="48.458515" lon="2.659085"><ele></ele><time>2017-9-18T23:9:17Z</time></trkpt>
<trkpt lat="48.458453" lon="2.65904"><ele></ele><time>2017-9-18T23:9:20Z</time></trkpt>
<trkpt lat="48.458388" lon="2.658985"><ele></ele><time>2017-9-18T23:9:23Z</time></trkpt>
<trkpt lat="48.458315" lon="2.658918"><ele></ele><time>2017-9-18T23:9:26Z</time></trkpt>
<trkpt lat="48.458252" lon="2.658857"><ele></ele><time>2017-9-18T23:9:29Z</time></trkpt>
<trkpt lat="48.458198" lon="2.658748"><ele></ele><time>2017-9-18T23:9:32Z</time></trkpt>
<trkpt lat="48.458197" lon="2.658733"><ele></ele><time>2017-9-18T23:9:35Z</time></trkpt>
<trkpt lat="48.45814" lon="2.658528"><ele></ele><time>2017-9-18T23:9:38Z</time></trkpt>
<trkpt lat="48.458098" lon="2.65841"><ele></ele><time>2017-9-18T23:9:41Z</time></trkpt>
<trkpt lat="48.458068" lon="2.658298"><ele></ele><time>2017-9-18T23:9:44Z</time></trkpt>
<trkpt lat="48.458005" lon="2.658217"><ele></ele><time>2017-9-18T23:9:47Z</time></trkpt>
<trkpt lat="48.457942" lon="2.658162"><ele></ele><time>2017-9-18T23:9:50Z</time></trkpt>
<trkpt lat="48.457855" lon="2.658137"><ele></ele><time>2017-9-18T23:9:53Z</time></trkpt>
<trkpt lat="48.45777" lon="2.658132"><ele></ele><time>2017-9-18T23:9:56Z</time></trkpt>
<trkpt lat="48.4577" lon="2.658085"><ele></ele><time>2017-9-18T23:9:59Z</time></trkpt>
<trkpt lat="48.45768" lon="2.65806"><ele></ele><time>2017-9-18T23:10:2Z</time></trkpt>
<trkpt lat="48.457633" lon="2.657852"><ele></ele><time>2017-9-18T23:10:5Z</time></trkpt>
<trkpt lat="48.457635" lon="2.657723"><ele></ele><time>2017-9-18T23:10:8Z</time></trkpt>
<trkpt lat="48.457617" lon="2.657595"><ele></ele><time>2017-9-18T23:10:11Z</time></trkpt>
<trkpt lat="48.457667" lon="2.65752"><ele></ele><time>2017-9-18T23:10:14Z</time></trkpt>
<trkpt lat="48.457753" lon="2.657498"><ele></ele><time>2017-9-18T23:10:17Z</time></trkpt>
<trkpt lat="48.457828" lon="2.657473"><ele></ele><time>2017-9-18T23:10:20Z</time></trkpt>
<trkpt lat="48.457912" lon="2.657455"><ele></ele><time>2017-9-18T23:10:23Z</time></trkpt>
<trkpt lat="48.457992" lon="2.657417"><ele></ele><time>2017-9-18T23:10:26Z</time></trkpt>
<trkpt lat="48.458018" lon="2.657407"><ele></ele><time>2017-9-18T23:10:29Z</time></trkpt>
<trkpt lat="48.458143" lon="2.657305"><ele></ele><time>2017-9-18T23:10:32Z</time></trkpt>
<trkpt lat="48.45815" lon="2.657183"><ele></ele><time>2017-9-18T23:10:35Z</time></trkpt>
<trkpt lat="48.458167" lon="2.657075"><ele></ele><time>2017-9-18T23:10:38Z</time></trkpt>
<trkpt lat="48.458152" lon="2.656952"><ele></ele><time>2017-9-18T23:10:41Z</time></trkpt>
<trkpt lat="48.458142" lon="2.656837"><ele></ele><time>2017-9-18T23:10:44Z</time></trkpt>
<trkpt lat="48.458163" lon="2.656722"><ele></ele><time>2017-9-18T23:10:47Z</time></trkpt>
<trkpt lat="48.458192" lon="2.656618"><ele></ele><time>2017-9-18T23:10:50Z</time></trkpt>
<trkpt lat="48.458205" lon="2.656497"><ele></ele><time>2017-9-18T23:10:53Z</time></trkpt>
<trkpt lat="48.458228" lon="2.656403"><ele></ele><time>2017-9-18T23:10:56Z</time></trkpt>
<trkpt lat="48.458243" lon="2.656332"><ele></ele><time>2017-9-18T23:10:59Z</time></trkpt>
<trkpt lat="48.458267" lon="2.656267"><ele></ele><time>2017-9-18T23:11:2Z</time></trkpt>
<trkpt lat="48.458287" lon="2.656203"><ele></ele><time>2017-9-18T23:11:5Z</time></trkpt>
<trkpt lat="48.458313" lon="2.656128"><ele></ele><time>2017-9-18T23:11:8Z</time></trkpt>
<trkpt lat="48.45833" lon="2.655998"><ele></ele><time>2017-9-18T23:11:11Z</time></trkpt>
<trkpt lat="48.458387" lon="2.655897"><ele></ele><time>2017-9-18T23:11:14Z</time></trkpt>
<trkpt lat="48.458418" lon="2.655775"><ele></ele><time>2017-9-18T23:11:17Z</time></trkpt>
<trkpt lat="48.45845" lon="2.655693"><ele></ele><time>2017-9-18T23:11:20Z</time></trkpt>
<trkpt lat="48.458485" lon="2.65561"><ele></ele><time>2017-9-18T23:11:23Z</time></trkpt>
<trkpt lat="48.4585" lon="2.655478"><ele></ele><time>2017-9-18T23:11:26Z</time></trkpt>
<trkpt lat="48.458518" lon="2.655397"><ele></ele><time>2017-9-18T23:11:29Z</time></trkpt>
<trkpt lat="48.458542" lon="2.655302"><ele></ele><time>2017-9-18T23:11:32Z</time></trkpt>
<trkpt lat="48.45856" lon="2.655207"><ele></ele><time>2017-9-18T23:11:35Z</time></trkpt>
<trkpt lat="48.458567" lon="2.6551"><ele></ele><time>2017-9-18T23:11:38Z</time></trkpt>
<trkpt lat="48.458578" lon="2.654997"><ele></ele><time>2017-9-18T23:11:41Z</time></trkpt>
<trkpt lat="48.4586" lon="2.654895"><ele></ele><time>2017-9-18T23:11:44Z</time></trkpt>
<trkpt lat="48.458623" lon="2.654803"><ele></ele><time>2017-9-18T23:11:47Z</time></trkpt>
<trkpt lat="48.458625" lon="2.65471"><ele></ele><time>2017-9-18T23:11:50Z</time></trkpt>
<trkpt lat="48.458618" lon="2.654612"><ele></ele><time>2017-9-18T23:11:53Z</time></trkpt>
<trkpt lat="48.458613" lon="2.654512"><ele></ele><time>2017-9-18T23:11:56Z</time></trkpt>
<trkpt lat="48.458605" lon="2.654405"><ele></ele><time>2017-9-18T23:11:59Z</time></trkpt>
<trkpt lat="48.45861" lon="2.6543"><ele></ele><time>2017-9-18T23:12:2Z</time></trkpt>
<trkpt lat="48.45863" lon="2.654195"><ele></ele><time>2017-9-18T23:12:5Z</time></trkpt>
<trkpt lat="48.45863" lon="2.654098"><ele></ele><time>2017-9-18T23:12:8Z</time></trkpt>
<trkpt lat="48.458705" lon="2.654053"><ele></ele><time>2017-9-18T23:12:11Z</time></trkpt>
<trkpt lat="48.458708" lon="2.654003"><ele></ele><time>2017-9-18T23:12:14Z</time></trkpt>
<trkpt lat="48.45878" lon="2.653962"><ele></ele><time>2017-9-18T23:12:17Z</time></trkpt>
<trkpt lat="48.4588" lon="2.653872"><ele></ele><time>2017-9-18T23:12:20Z</time></trkpt>
<trkpt lat="48.458798" lon="2.653742"><ele></ele><time>2017-9-18T23:12:23Z</time></trkpt>
<trkpt lat="48.458792" lon="2.653632"><ele></ele><time>2017-9-18T23:12:26Z</time></trkpt>
<trkpt lat="48.458752" lon="2.653548"><ele></ele><time>2017-9-18T23:12:29Z</time></trkpt>
<trkpt lat="48.458732" lon="2.653455"><ele></ele><time>2017-9-18T23:12:32Z</time></trkpt>
<trkpt lat="48.458808" lon="2.653373"><ele></ele><time>2017-9-18T23:12:35Z</time></trkpt>
<trkpt lat="48.458932" lon="2.653347"><ele></ele><time>2017-9-18T23:12:38Z</time></trkpt>
<trkpt lat="48.458848" lon="2.65331"><ele></ele><time>2017-9-18T23:12:41Z</time></trkpt>
<trkpt lat="48.458773" lon="2.653323"><ele></ele><time>2017-9-18T23:12:44Z</time></trkpt>
<trkpt lat="48.45871" lon="2.653338"><ele></ele><time>2017-9-18T23:12:47Z</time></trkpt>
<trkpt lat="48.458643" lon="2.653353"><ele></ele><time>2017-9-18T23:12:50Z</time></trkpt>
<trkpt lat="48.458567" lon="2.653365"><ele></ele><time>2017-9-18T23:12:53Z</time></trkpt>
<trkpt lat="48.458503" lon="2.653385"><ele></ele><time>2017-9-18T23:12:56Z</time></trkpt>
<trkpt lat="48.45843" lon="2.653403"><ele></ele><time>2017-9-18T23:12:59Z</time></trkpt>
<trkpt lat="48.458343" lon="2.653413"><ele></ele><time>2017-9-18T23:13:2Z</time></trkpt>
<trkpt lat="48.458293" lon="2.653413"><ele></ele><time>2017-9-18T23:13:5Z</time></trkpt>
<trkpt lat="48.458248" lon="2.653413"><ele></ele><time>2017-9-18T23:13:8Z</time></trkpt>
<trkpt lat="48.458192" lon="2.653403"><ele></ele><time>2017-9-18T23:13:11Z</time></trkpt>
<trkpt lat="48.45814" lon="2.65339"><ele></ele><time>2017-9-18T23:13:14Z</time></trkpt>
<trkpt lat="48.45809" lon="2.65337"><ele></ele><time>2017-9-18T23:13:17Z</time></trkpt>
<trkpt lat="48.458047" lon="2.653345"><ele></ele><time>2017-9-18T23:13:20Z</time></trkpt>
<trkpt lat="48.458003" lon="2.653322"><ele></ele><time>2017-9-18T23:13:23Z</time></trkpt>
<trkpt lat="48.457928" lon="2.653262"><ele></ele><time>2017-9-18T23:13:26Z</time></trkpt>
<trkpt lat="48.457863" lon="2.653183"><ele></ele><time>2017-9-18T23:13:29Z</time></trkpt>
<trkpt lat="48.457812" lon="2.6531"><ele></ele><time>2017-9-18T23:13:32Z</time></trkpt>
<trkpt lat="48.457775" lon="2.653013"><ele></ele><time>2017-9-18T23:13:35Z</time></trkpt>
<trkpt lat="48.457735" lon="2.652928"><ele></ele><time>2017-9-18T23:13:38Z</time></trkpt>
<trkpt lat="48.457685" lon="2.652842"><ele></ele><time>2017-9-18T23:13:41Z</time></trkpt>
<trkpt lat="48.457673" lon="2.652785"><ele></ele><time>2017-9-18T23:13:44Z</time></trkpt>
<trkpt lat="48.457633" lon="2.652693"><ele></ele><time>2017-9-18T23:13:47Z</time></trkpt>
<trkpt lat="48.457637" lon="2.652593"><ele></ele><time>2017-9-18T23:13:50Z</time></trkpt>
<trkpt lat="48.457657" lon="2.652485"><ele></ele><time>2017-9-18T23:13:53Z</time></trkpt>
<trkpt lat="48.457667" lon="2.652363"><ele></ele><time>2017-9-18T23:13:56Z</time></trkpt>
<trkpt lat="48.457658" lon="2.652287"><ele></ele><time>2017-9-18T23:13:59Z</time></trkpt>
<trkpt lat="48.457668" lon="2.652207"><ele></ele><time>2017-9-18T23:14:2Z</time></trkpt>
<trkpt lat="48.45769" lon="2.652132"><ele></ele><time>2017-9-18T23:14:5Z</time></trkpt>
<trkpt lat="48.457695" lon="2.652048"><ele></ele><time>2017-9-18T23:14:8Z</time></trkpt>
<trkpt lat="48.45773" lon="2.651978"><ele></ele><time>2017-9-18T23:14:11Z</time></trkpt>
<trkpt lat="48.457742" lon="2.651857"><ele></ele><time>2017-9-18T23:14:14Z</time></trkpt>
<trkpt lat="48.457748" lon="2.651723"><ele></ele><time>2017-9-18T23:14:17Z</time></trkpt>
<trkpt lat="48.457742" lon="2.651652"><ele></ele><time>2017-9-18T23:14:20Z</time></trkpt>
<trkpt lat="48.457807" lon="2.651517"><ele></ele><time>2017-9-18T23:14:23Z</time></trkpt>
<trkpt lat="48.457883" lon="2.651465"><ele></ele><time>2017-9-18T23:14:26Z</time></trkpt>
<trkpt lat="48.457948" lon="2.65139"><ele></ele><time>2017-9-18T23:14:29Z</time></trkpt>
<trkpt lat="48.457992" lon="2.6513"><ele></ele><time>2017-9-18T23:14:32Z</time></trkpt>
<trkpt lat="48.458023" lon="2.651183"><ele></ele><time>2017-9-18T23:14:35Z</time></trkpt>
<trkpt lat="48.458048" lon="2.651075"><ele></ele><time>2017-9-18T23:14:38Z</time></trkpt>
<trkpt lat="48.458072" lon="2.65095"><ele></ele><time>2017-9-18T23:14:41Z</time></trkpt>
<trkpt lat="48.458063" lon="2.650875"><ele></ele><time>2017-9-18T23:14:44Z</time></trkpt>
<trkpt lat="48.458068" lon="2.650808"><ele></ele><time>2017-9-18T23:14:47Z</time></trkpt>
<trkpt lat="48.458052" lon="2.650735"><ele></ele><time>2017-9-18T23:14:50Z</time></trkpt>
<trkpt lat="48.458042" lon="2.650668"><ele></ele><time>2017-9-18T23:14:53Z</time></trkpt>
<trkpt lat="48.458023" lon="2.650543"><ele></ele><time>2017-9-18T23:14:56Z</time></trkpt>
<trkpt lat="48.457995" lon="2.650423"><ele></ele><time>2017-9-18T23:14:59Z</time></trkpt>
<trkpt lat="48.457977" lon="2.650313"><ele></ele><time>2017-9-18T23:15:2Z</time></trkpt>
<trkpt lat="48.457947" lon="2.65024"><ele></ele><time>2017-9-18T23:15:5Z</time></trkpt>
<trkpt lat="48.457862" lon="2.65012"><ele></ele><time>2017-9-18T23:15:8Z</time></trkpt>
<trkpt lat="48.457812" lon="2.650028"><ele></ele><time>2017-9-18T23:15:11Z</time></trkpt>
<trkpt lat="48.457782" lon="2.649928"><ele></ele><time>2017-9-18T23:15:14Z</time></trkpt>
<trkpt lat="48.457778" lon="2.649843"><ele></ele><time>2017-9-18T23:15:17Z</time></trkpt>
<trkpt lat="48.457743" lon="2.649743"><ele></ele><time>2017-9-18T23:15:20Z</time></trkpt>
<trkpt lat="48.45772" lon="2.64965"><ele></ele><time>2017-9-18T23:15:23Z</time></trkpt>
<trkpt lat="48.457705" lon="2.649535"><ele></ele><time>2017-9-18T23:15:26Z</time></trkpt>
<trkpt lat="48.457708" lon="2.649428"><ele></ele><time>2017-9-18T23:15:29Z</time></trkpt>
<trkpt lat="48.457728" lon="2.649323"><ele></ele><time>2017-9-18T23:15:32Z</time></trkpt>
<trkpt lat="48.457777" lon="2.649273"><ele></ele><time>2017-9-18T23:15:35Z</time></trkpt>
<trkpt lat="48.457792" lon="2.649167"><ele></ele><time>2017-9-18T23:15:38Z</time></trkpt>
<trkpt lat="48.457847" lon="2.649112"><ele></ele><time>2017-9-18T23:15:41Z</time></trkpt>
<trkpt lat="48.457885" lon="2.648992"><ele></ele><time>2017-9-18T23:15:44Z</time></trkpt>
<trkpt lat="48.457895" lon="2.648865"><ele></ele><time>2017-9-18T23:15:47Z</time></trkpt>
<trkpt lat="48.457928" lon="2.64874"><ele></ele><time>2017-9-18T23:15:50Z</time></trkpt>
<trkpt lat="48.457945" lon="2.648675"><ele></ele><time>2017-9-18T23:15:53Z</time></trkpt>
<trkpt lat="48.457972" lon="2.648502"><ele></ele><time>2017-9-18T23:15:56Z</time></trkpt>
<trkpt lat="48.458027" lon="2.64841"><ele></ele><time>2017-9-18T23:15:59Z</time></trkpt>
<trkpt lat="48.45807" lon="2.648295"><ele></ele><time>2017-9-18T23:16:2Z</time></trkpt>
<trkpt lat="48.458128" lon="2.648205"><ele></ele><time>2017-9-18T23:16:5Z</time></trkpt>
<trkpt lat="48.458162" lon="2.648135"><ele></ele><time>2017-9-18T23:16:8Z</time></trkpt>
<trkpt lat="48.458213" lon="2.64807"><ele></ele><time>2017-9-18T23:16:11Z</time></trkpt>
<trkpt lat="48.458272" lon="2.647992"><ele></ele><time>2017-9-18T23:16:14Z</time></trkpt>
<trkpt lat="48.45829" lon="2.64791"><ele></ele><time>2017-9-18T23:16:17Z</time></trkpt>
<trkpt lat="48.458315" lon="2.647818"><ele></ele><time>2017-9-18T23:16:20Z</time></trkpt>
<trkpt lat="48.458343" lon="2.647728"><ele></ele><time>2017-9-18T23:16:23Z</time></trkpt>
<trkpt lat="48.458362" lon="2.647638"><ele></ele><time>2017-9-18T23:16:26Z</time></trkpt>
<trkpt lat="48.458385" lon="2.647525"><ele></ele><time>2017-9-18T23:16:29Z</time></trkpt>
<trkpt lat="48.458365" lon="2.647402"><ele></ele><time>2017-9-18T23:16:32Z</time></trkpt>
<trkpt lat="48.458397" lon="2.647282"><ele></ele><time>2017-9-18T23:16:35Z</time></trkpt>
<trkpt lat="48.458823" lon="2.6469"><ele></ele><time>2017-9-18T23:16:38Z</time></trkpt>
<trkpt lat="48.45884" lon="2.646695"><ele></ele><time>2017-9-18T23:16:41Z</time></trkpt>
<trkpt lat="48.458868" lon="2.64656"><ele></ele><time>2017-9-18T23:16:44Z</time></trkpt>
<trkpt lat="48.458878" lon="2.646493"><ele></ele><time>2017-9-18T23:16:47Z</time></trkpt>
<trkpt lat="48.45888" lon="2.64636"><ele></ele><time>2017-9-18T23:16:50Z</time></trkpt>
<trkpt lat="48.458882" lon="2.646293"><ele></ele><time>2017-9-18T23:16:53Z</time></trkpt>
<trkpt lat="48.458863" lon="2.646217"><ele></ele><time>2017-9-18T23:16:56Z</time></trkpt>
<trkpt lat="48.458862" lon="2.64615"><ele></ele><time>2017-9-18T23:16:59Z</time></trkpt>
<trkpt lat="48.458847" lon="2.646078"><ele></ele><time>2017-9-18T23:17:2Z</time></trkpt>
<trkpt lat="48.458838" lon="2.645952"><ele></ele><time>2017-9-18T23:17:5Z</time></trkpt>
<trkpt lat="48.45884" lon="2.645893"><ele></ele><time>2017-9-18T23:17:8Z</time></trkpt>
<trkpt lat="48.45881" lon="2.645725"><ele></ele><time>2017-9-18T23:17:11Z</time></trkpt>
<trkpt lat="48.458792" lon="2.645598"><ele></ele><time>2017-9-18T23:17:14Z</time></trkpt>
<trkpt lat="48.458782" lon="2.645503"><ele></ele><time>2017-9-18T23:17:17Z</time></trkpt>
<trkpt lat="48.45876" lon="2.645378"><ele></ele><time>2017-9-18T23:17:20Z</time></trkpt>
<trkpt lat="48.458747" lon="2.64527"><ele></ele><time>2017-9-18T23:17:23Z</time></trkpt>
<trkpt lat="48.45875" lon="2.645202"><ele></ele><time>2017-9-18T23:17:26Z</time></trkpt>
<trkpt lat="48.458752" lon="2.645065"><ele></ele><time>2017-9-18T23:17:29Z</time></trkpt>
<trkpt lat="48.458813" lon="2.64491"><ele></ele><time>2017-9-18T23:17:32Z</time></trkpt>
<trkpt lat="48.458848" lon="2.644838"><ele></ele><time>2017-9-18T23:17:35Z</time></trkpt>
<trkpt lat="48.458887" lon="2.644765"><ele></ele><time>2017-9-18T23:17:38Z</time></trkpt>
<trkpt lat="48.458932" lon="2.644632"><ele></ele><time>2017-9-18T23:17:41Z</time></trkpt>
<trkpt lat="48.458965" lon="2.644515"><ele></ele><time>2017-9-18T23:17:44Z</time></trkpt>
<trkpt lat="48.458978" lon="2.644383"><ele></ele><time>2017-9-18T23:17:47Z</time></trkpt>
<trkpt lat="48.458982" lon="2.644317"><ele></ele><time>2017-9-18T23:17:50Z</time></trkpt>
<trkpt lat="48.458988" lon="2.644247"><ele></ele><time>2017-9-18T23:17:53Z</time></trkpt>
<trkpt lat="48.458985" lon="2.644173"><ele></ele><time>2017-9-18T23:17:56Z</time></trkpt>
<trkpt lat="48.458985" lon="2.644102"><ele></ele><time>2017-9-18T23:17:59Z</time></trkpt>
<trkpt lat="48.45898" lon="2.64403"><ele></ele><time>2017-9-18T23:18:2Z</time></trkpt>
<trkpt lat="48.458972" lon="2.643958"><ele></ele><time>2017-9-18T23:18:5Z</time></trkpt>
<trkpt lat="48.458977" lon="2.643827"><ele></ele><time>2017-9-18T23:18:8Z</time></trkpt>
<trkpt lat="48.458988" lon="2.643702"><ele></ele><time>2017-9-18T23:18:11Z</time></trkpt>
<trkpt lat="48.458978" lon="2.643625"><ele></ele><time>2017-9-18T23:18:14Z</time></trkpt>
<trkpt lat="48.459" lon="2.643498"><ele></ele><time>2017-9-18T23:18:17Z</time></trkpt>
<trkpt lat="48.459035" lon="2.643373"><ele></ele><time>2017-9-18T23:18:20Z</time></trkpt>
<trkpt lat="48.459048" lon="2.643295"><ele></ele><time>2017-9-18T23:18:23Z</time></trkpt>
<trkpt lat="48.459075" lon="2.643168"><ele></ele><time>2017-9-18T23:18:26Z</time></trkpt>
<trkpt lat="48.459103" lon="2.643055"><ele></ele><time>2017-9-18T23:18:29Z</time></trkpt>
<trkpt lat="48.459133" lon="2.642942"><ele></ele><time>2017-9-18T23:18:32Z</time></trkpt>
<trkpt lat="48.459175" lon="2.642908"><ele></ele><time>2017-9-18T23:18:35Z</time></trkpt>
<trkpt lat="48.45922" lon="2.642882"><ele></ele><time>2017-9-18T23:18:38Z</time></trkpt>
<trkpt lat="48.459252" lon="2.64283"><ele></ele><time>2017-9-18T23:18:41Z</time></trkpt>
<trkpt lat="48.45926" lon="2.64276"><ele></ele><time>2017-9-18T23:18:44Z</time></trkpt>
<trkpt lat="48.459263" lon="2.642682"><ele></ele><time>2017-9-18T23:18:47Z</time></trkpt>
<trkpt lat="48.459282" lon="2.642575"><ele></ele><time>2017-9-18T23:18:50Z</time></trkpt>
<trkpt lat="48.459333" lon="2.642497"><ele></ele><time>2017-9-18T23:18:53Z</time></trkpt>
<trkpt lat="48.45938" lon="2.642425"><ele></ele><time>2017-9-18T23:18:56Z</time></trkpt>
<trkpt lat="48.459373" lon="2.642322"><ele></ele><time>2017-9-18T23:18:59Z</time></trkpt>
<trkpt lat="48.459385" lon="2.642285"><ele></ele><time>2017-9-18T23:19:2Z</time></trkpt>
<trkpt lat="48.459375" lon="2.642132"><ele></ele><time>2017-9-18T23:19:5Z</time></trkpt>
<trkpt lat="48.45938" lon="2.64201"><ele></ele><time>2017-9-18T23:19:8Z</time></trkpt>
<trkpt lat="48.459398" lon="2.64188"><ele></ele><time>2017-9-18T23:19:11Z</time></trkpt>
<trkpt lat="48.459463" lon="2.64177"><ele></ele><time>2017-9-18T23:19:14Z</time></trkpt>
<trkpt lat="48.459487" lon="2.641652"><ele></ele><time>2017-9-18T23:19:17Z</time></trkpt>
<trkpt lat="48.459497" lon="2.641537"><ele></ele><time>2017-9-18T23:19:20Z</time></trkpt>
<trkpt lat="48.459482" lon="2.641428"><ele></ele><time>2017-9-18T23:19:23Z</time></trkpt>
<trkpt lat="48.459467" lon="2.641342"><ele></ele><time>2017-9-18T23:19:26Z</time></trkpt>
<trkpt lat="48.45943" lon="2.641283"><ele></ele><time>2017-9-18T23:19:29Z</time></trkpt>
<trkpt lat="48.459352" lon="2.641235"><ele></ele><time>2017-9-18T23:19:32Z</time></trkpt>
<trkpt lat="48.459265" lon="2.641218"><ele></ele><time>2017-9-18T23:19:35Z</time></trkpt>
<trkpt lat="48.459178" lon="2.6412"><ele></ele><time>2017-9-18T23:19:38Z</time></trkpt>
<trkpt lat="48.459102" lon="2.641182"><ele></ele><time>2017-9-18T23:19:41Z</time></trkpt>
<trkpt lat="48.459023" lon="2.641177"><ele></ele><time>2017-9-18T23:19:44Z</time></trkpt>
<trkpt lat="48.458945" lon="2.641168"><ele></ele><time>2017-9-18T23:19:47Z</time></trkpt>
<trkpt lat="48.458872" lon="2.641162"><ele></ele><time>2017-9-18T23:19:50Z</time></trkpt>
<trkpt lat="48.458815" lon="2.641152"><ele></ele><time>2017-9-18T23:19:53Z</time></trkpt>
<trkpt lat="48.45873" lon="2.641135"><ele></ele><time>2017-9-18T23:19:56Z</time></trkpt>
<trkpt lat="48.45867" lon="2.641128"><ele></ele><time>2017-9-18T23:19:59Z</time></trkpt>
<trkpt lat="48.458607" lon="2.64113"><ele></ele><time>2017-9-18T23:20:2Z</time></trkpt>
<trkpt lat="48.458545" lon="2.641128"><ele></ele><time>2017-9-18T23:20:5Z</time></trkpt>
<trkpt lat="48.458485" lon="2.64113"><ele></ele><time>2017-9-18T23:20:8Z</time></trkpt>
<trkpt lat="48.458423" lon="2.641133"><ele></ele><time>2017-9-18T23:20:11Z</time></trkpt>
<trkpt lat="48.458358" lon="2.641142"><ele></ele><time>2017-9-18T23:20:14Z</time></trkpt>
<trkpt lat="48.458303" lon="2.641143"><ele></ele><time>2017-9-18T23:20:17Z</time></trkpt>
<trkpt lat="48.458235" lon="2.641135"><ele></ele><time>2017-9-18T23:20:20Z</time></trkpt>
<trkpt lat="48.458167" lon="2.641123"><ele></ele><time>2017-9-18T23:20:23Z</time></trkpt>
<trkpt lat="48.458108" lon="2.641107"><ele></ele><time>2017-9-18T23:20:26Z</time></trkpt>
<trkpt lat="48.458042" lon="2.641058"><ele></ele><time>2017-9-18T23:20:29Z</time></trkpt>
<trkpt lat="48.45798" lon="2.640988"><ele></ele><time>2017-9-18T23:20:32Z</time></trkpt>
<trkpt lat="48.457952" lon="2.640937"><ele></ele><time>2017-9-18T23:20:35Z</time></trkpt>
<trkpt lat="48.457895" lon="2.640833"><ele></ele><time>2017-9-18T23:20:38Z</time></trkpt>
<trkpt lat="48.457855" lon="2.64073"><ele></ele><time>2017-9-18T23:20:41Z</time></trkpt>
<trkpt lat="48.457827" lon="2.640658"><ele></ele><time>2017-9-18T23:20:44Z</time></trkpt>
<trkpt lat="48.457775" lon="2.640575"><ele></ele><time>2017-9-18T23:20:47Z</time></trkpt>
<trkpt lat="48.45775" lon="2.640478"><ele></ele><time>2017-9-18T23:20:50Z</time></trkpt>
<trkpt lat="48.45771" lon="2.640383"><ele></ele><time>2017-9-18T23:20:53Z</time></trkpt>
<trkpt lat="48.457663" lon="2.640273"><ele></ele><time>2017-9-18T23:20:56Z</time></trkpt>
<trkpt lat="48.45765" lon="2.640185"><ele></ele><time>2017-9-18T23:20:59Z</time></trkpt>
<trkpt lat="48.457615" lon="2.640085"><ele></ele><time>2017-9-18T23:21:2Z</time></trkpt>
<trkpt lat="48.457613" lon="2.639982"><ele></ele><time>2017-9-18T23:21:5Z</time></trkpt>
<trkpt lat="48.457617" lon="2.639878"><ele></ele><time>2017-9-18T23:21:8Z</time></trkpt>
<trkpt lat="48.457608" lon="2.63977"><ele></ele><time>2017-9-18T23:21:11Z</time></trkpt>
<trkpt lat="48.457605" lon="2.639653"><ele></ele><time>2017-9-18T23:21:14Z</time></trkpt>
<trkpt lat="48.457607" lon="2.639537"><ele></ele><time>2017-9-18T23:21:17Z</time></trkpt>
<trkpt lat="48.457607" lon="2.639423"><ele></ele><time>2017-9-18T23:21:20Z</time></trkpt>
<trkpt lat="48.457592" lon="2.63931"><ele></ele><time>2017-9-18T23:21:23Z</time></trkpt>
<trkpt lat="48.45761" lon="2.639197"><ele></ele><time>2017-9-18T23:21:26Z</time></trkpt>
<trkpt lat="48.457615" lon="2.639082"><ele></ele><time>2017-9-18T23:21:29Z</time></trkpt>
<trkpt lat="48.457623" lon="2.638962"><ele></ele><time>2017-9-18T23:21:32Z</time></trkpt>
<trkpt lat="48.457685" lon="2.638837"><ele></ele><time>2017-9-18T23:21:35Z</time></trkpt>
<trkpt lat="48.457743" lon="2.638708"><ele></ele><time>2017-9-18T23:21:38Z</time></trkpt>
<trkpt lat="48.457745" lon="2.638593"><ele></ele><time>2017-9-18T23:21:41Z</time></trkpt>
<trkpt lat="48.457715" lon="2.638478"><ele></ele><time>2017-9-18T23:21:44Z</time></trkpt>
<trkpt lat="48.45767" lon="2.638378"><ele></ele><time>2017-9-18T23:21:47Z</time></trkpt>
<trkpt lat="48.45764" lon="2.638333"><ele></ele><time>2017-9-18T23:21:50Z</time></trkpt>
<trkpt lat="48.457597" lon="2.638297"><ele></ele><time>2017-9-18T23:21:53Z</time></trkpt>
<trkpt lat="48.457547" lon="2.638275"><ele></ele><time>2017-9-18T23:21:56Z</time></trkpt>
<trkpt lat="48.457502" lon="2.63827"><ele></ele><time>2017-9-18T23:21:59Z</time></trkpt>
<trkpt lat="48.457457" lon="2.638285"><ele></ele><time>2017-9-18T23:22:2Z</time></trkpt>
<trkpt lat="48.457417" lon="2.638315"><ele></ele><time>2017-9-18T23:22:5Z</time></trkpt>
<trkpt lat="48.457378" lon="2.638357"><ele></ele><time>2017-9-18T23:22:8Z</time></trkpt>
<trkpt lat="48.457347" lon="2.638407"><ele></ele><time>2017-9-18T23:22:11Z</time></trkpt>
<trkpt lat="48.457292" lon="2.638513"><ele></ele><time>2017-9-18T23:22:14Z</time></trkpt>
<trkpt lat="48.457258" lon="2.638613"><ele></ele><time>2017-9-18T23:22:17Z</time></trkpt>
<trkpt lat="48.457225" lon="2.638707"><ele></ele><time>2017-9-18T23:22:20Z</time></trkpt>
<trkpt lat="48.45718" lon="2.638807"><ele></ele><time>2017-9-18T23:22:23Z</time></trkpt>
<trkpt lat="48.457145" lon="2.63891"><ele></ele><time>2017-9-18T23:22:26Z</time></trkpt>
<trkpt lat="48.457098" lon="2.639005"><ele></ele><time>2017-9-18T23:22:29Z</time></trkpt>
<trkpt lat="48.457047" lon="2.63908"><ele></ele><time>2017-9-18T23:22:32Z</time></trkpt>
<trkpt lat="48.456975" lon="2.639162"><ele></ele><time>2017-9-18T23:22:35Z</time></trkpt>
<trkpt lat="48.45692" lon="2.639205"><ele></ele><time>2017-9-18T23:22:38Z</time></trkpt>
<trkpt lat="48.456838" lon="2.63924"><ele></ele><time>2017-9-18T23:22:41Z</time></trkpt>
<trkpt lat="48.456763" lon="2.639263"><ele></ele><time>2017-9-18T23:22:44Z</time></trkpt>
<trkpt lat="48.456685" lon="2.63929"><ele></ele><time>2017-9-18T23:22:47Z</time></trkpt>
<trkpt lat="48.456605" lon="2.6393"><ele></ele><time>2017-9-18T23:22:50Z</time></trkpt>
<trkpt lat="48.456525" lon="2.639287"><ele></ele><time>2017-9-18T23:22:53Z</time></trkpt>
<trkpt lat="48.456488" lon="2.639277"><ele></ele><time>2017-9-18T23:22:56Z</time></trkpt>
<trkpt lat="48.456418" lon="2.639248"><ele></ele><time>2017-9-18T23:22:59Z</time></trkpt>
<trkpt lat="48.456348" lon="2.639192"><ele></ele><time>2017-9-18T23:23:2Z</time></trkpt>
<trkpt lat="48.456285" lon="2.639102"><ele></ele><time>2017-9-18T23:23:5Z</time></trkpt>
<trkpt lat="48.456233" lon="2.638987"><ele></ele><time>2017-9-18T23:23:8Z</time></trkpt>
<trkpt lat="48.456185" lon="2.638862"><ele></ele><time>2017-9-18T23:23:11Z</time></trkpt>
<trkpt lat="48.456158" lon="2.638805"><ele></ele><time>2017-9-18T23:23:14Z</time></trkpt>
<trkpt lat="48.456123" lon="2.638755"><ele></ele><time>2017-9-18T23:23:17Z</time></trkpt>
<trkpt lat="48.456083" lon="2.638715"><ele></ele><time>2017-9-18T23:23:20Z</time></trkpt>
<trkpt lat="48.456032" lon="2.638687"><ele></ele><time>2017-9-18T23:23:23Z</time></trkpt>
<trkpt lat="48.455983" lon="2.638683"><ele></ele><time>2017-9-18T23:23:26Z</time></trkpt>
<trkpt lat="48.45593" lon="2.638695"><ele></ele><time>2017-9-18T23:23:29Z</time></trkpt>
<trkpt lat="48.455882" lon="2.638713"><ele></ele><time>2017-9-18T23:23:32Z</time></trkpt>
<trkpt lat="48.455833" lon="2.638732"><ele></ele><time>2017-9-18T23:23:35Z</time></trkpt>
<trkpt lat="48.455745" lon="2.638752"><ele></ele><time>2017-9-18T23:23:38Z</time></trkpt>
<trkpt lat="48.455658" lon="2.638738"><ele></ele><time>2017-9-18T23:23:41Z</time></trkpt>
<trkpt lat="48.455577" lon="2.638692"><ele></ele><time>2017-9-18T23:23:44Z</time></trkpt>
<trkpt lat="48.455515" lon="2.638633"><ele></ele><time>2017-9-18T23:23:47Z</time></trkpt>
<trkpt lat="48.455457" lon="2.638563"><ele></ele><time>2017-9-18T23:23:50Z</time></trkpt>
<trkpt lat="48.455393" lon="2.638505"><ele></ele><time>2017-9-18T23:23:53Z</time></trkpt>
<trkpt lat="48.455312" lon="2.638477"><ele></ele><time>2017-9-18T23:23:56Z</time></trkpt>
<trkpt lat="48.455228" lon="2.638467"><ele></ele><time>2017-9-18T23:23:59Z</time></trkpt>
<trkpt lat="48.455178" lon="2.638463"><ele></ele><time>2017-9-18T23:24:2Z</time></trkpt>
<trkpt lat="48.455097" lon="2.638462"><ele></ele><time>2017-9-18T23:24:5Z</time></trkpt>
<trkpt lat="48.455013" lon="2.63847"><ele></ele><time>2017-9-18T23:24:8Z</time></trkpt>
<trkpt lat="48.454937" lon="2.638458"><ele></ele><time>2017-9-18T23:24:11Z</time></trkpt>
<trkpt lat="48.454865" lon="2.63842"><ele></ele><time>2017-9-18T23:24:14Z</time></trkpt>
<trkpt lat="48.454802" lon="2.638348"><ele></ele><time>2017-9-18T23:24:17Z</time></trkpt>
<trkpt lat="48.454742" lon="2.638258"><ele></ele><time>2017-9-18T23:24:20Z</time></trkpt>
<trkpt lat="48.454678" lon="2.638168"><ele></ele><time>2017-9-18T23:24:23Z</time></trkpt>
<trkpt lat="48.45463" lon="2.638082"><ele></ele><time>2017-9-18T23:24:26Z</time></trkpt>
<trkpt lat="48.45458" lon="2.637988"><ele></ele><time>2017-9-18T23:24:29Z</time></trkpt>
<trkpt lat="48.454533" lon="2.6379"><ele></ele><time>2017-9-18T23:24:32Z</time></trkpt>
<trkpt lat="48.45449" lon="2.637812"><ele></ele><time>2017-9-18T23:24:35Z</time></trkpt>
<trkpt lat="48.45443" lon="2.637712"><ele></ele><time>2017-9-18T23:24:38Z</time></trkpt>
<trkpt lat="48.454403" lon="2.637605"><ele></ele><time>2017-9-18T23:24:41Z</time></trkpt>
<trkpt lat="48.454393" lon="2.637548"><ele></ele><time>2017-9-18T23:24:44Z</time></trkpt>
<trkpt lat="48.454362" lon="2.637478"><ele></ele><time>2017-9-18T23:24:47Z</time></trkpt>
<trkpt lat="48.454352" lon="2.637415"><ele></ele><time>2017-9-18T23:24:50Z</time></trkpt>
<trkpt lat="48.45434" lon="2.637343"><ele></ele><time>2017-9-18T23:24:53Z</time></trkpt>
<trkpt lat="48.45431" lon="2.637263"><ele></ele><time>2017-9-18T23:24:56Z</time></trkpt>
<trkpt lat="48.454302" lon="2.637188"><ele></ele><time>2017-9-18T23:24:59Z</time></trkpt>
<trkpt lat="48.454283" lon="2.63711"><ele></ele><time>2017-9-18T23:25:2Z</time></trkpt>
<trkpt lat="48.454273" lon="2.637037"><ele></ele><time>2017-9-18T23:25:5Z</time></trkpt>
<trkpt lat="48.454255" lon="2.636963"><ele></ele><time>2017-9-18T23:25:8Z</time></trkpt>
<trkpt lat="48.454257" lon="2.636898"><ele></ele><time>2017-9-18T23:25:11Z</time></trkpt>
<trkpt lat="48.454238" lon="2.636715"><ele></ele><time>2017-9-18T23:25:14Z</time></trkpt>
<trkpt lat="48.454197" lon="2.636603"><ele></ele><time>2017-9-18T23:25:17Z</time></trkpt>
<trkpt lat="48.454138" lon="2.636505"><ele></ele><time>2017-9-18T23:25:20Z</time></trkpt>
<trkpt lat="48.454068" lon="2.636427"><ele></ele><time>2017-9-18T23:25:23Z</time></trkpt>
<trkpt lat="48.454027" lon="2.636388"><ele></ele><time>2017-9-18T23:25:26Z</time></trkpt>
<trkpt lat="48.453983" lon="2.636355"><ele></ele><time>2017-9-18T23:25:29Z</time></trkpt>
<trkpt lat="48.453933" lon="2.636325"><ele></ele><time>2017-9-18T23:25:32Z</time></trkpt>
<trkpt lat="48.453882" lon="2.636307"><ele></ele><time>2017-9-18T23:25:35Z</time></trkpt>
<trkpt lat="48.453828" lon="2.636297"><ele></ele><time>2017-9-18T23:25:38Z</time></trkpt>
<trkpt lat="48.453777" lon="2.636297"><ele></ele><time>2017-9-18T23:25:41Z</time></trkpt>
<trkpt lat="48.453725" lon="2.636307"><ele></ele><time>2017-9-18T23:25:44Z</time></trkpt>
<trkpt lat="48.453675" lon="2.636322"><ele></ele><time>2017-9-18T23:25:47Z</time></trkpt>
<trkpt lat="48.453623" lon="2.636338"><ele></ele><time>2017-9-18T23:25:50Z</time></trkpt>
<trkpt lat="48.45358" lon="2.636357"><ele></ele><time>2017-9-18T23:25:53Z</time></trkpt>
<trkpt lat="48.453537" lon="2.636377"><ele></ele><time>2017-9-18T23:25:56Z</time></trkpt>
<trkpt lat="48.453492" lon="2.636397"><ele></ele><time>2017-9-18T23:25:59Z</time></trkpt>
<trkpt lat="48.453407" lon="2.636437"><ele></ele><time>2017-9-18T23:26:2Z</time></trkpt>
<trkpt lat="48.453322" lon="2.636475"><ele></ele><time>2017-9-18T23:26:5Z</time></trkpt>
<trkpt lat="48.453238" lon="2.636515"><ele></ele><time>2017-9-18T23:26:8Z</time></trkpt>
<trkpt lat="48.453155" lon="2.636558"><ele></ele><time>2017-9-18T23:26:11Z</time></trkpt>
<trkpt lat="48.453072" lon="2.63659"><ele></ele><time>2017-9-18T23:26:14Z</time></trkpt>
<trkpt lat="48.452997" lon="2.63659"><ele></ele><time>2017-9-18T23:26:17Z</time></trkpt>
<trkpt lat="48.452922" lon="2.636548"><ele></ele><time>2017-9-18T23:26:20Z</time></trkpt>
<trkpt lat="48.452885" lon="2.636515"><ele></ele><time>2017-9-18T23:26:23Z</time></trkpt>
<trkpt lat="48.452848" lon="2.636468"><ele></ele><time>2017-9-18T23:26:26Z</time></trkpt>
<trkpt lat="48.452777" lon="2.636367"><ele></ele><time>2017-9-18T23:26:29Z</time></trkpt>
<trkpt lat="48.452713" lon="2.636258"><ele></ele><time>2017-9-18T23:26:32Z</time></trkpt>
<trkpt lat="48.452652" lon="2.636152"><ele></ele><time>2017-9-18T23:26:35Z</time></trkpt>
<trkpt lat="48.452595" lon="2.636055"><ele></ele><time>2017-9-18T23:26:38Z</time></trkpt>
<trkpt lat="48.452533" lon="2.635993"><ele></ele><time>2017-9-18T23:26:41Z</time></trkpt>
<trkpt lat="48.452453" lon="2.635982"><ele></ele><time>2017-9-18T23:26:44Z</time></trkpt>
<trkpt lat="48.452373" lon="2.635993"><ele></ele><time>2017-9-18T23:26:47Z</time></trkpt>
<trkpt lat="48.452285" lon="2.636012"><ele></ele><time>2017-9-18T23:26:50Z</time></trkpt>
<trkpt lat="48.452237" lon="2.636022"><ele></ele><time>2017-9-18T23:26:53Z</time></trkpt>
<trkpt lat="48.45219" lon="2.63603"><ele></ele><time>2017-9-18T23:26:56Z</time></trkpt>
<trkpt lat="48.452142" lon="2.636028"><ele></ele><time>2017-9-18T23:26:59Z</time></trkpt>
<trkpt lat="48.45206" lon="2.635988"><ele></ele><time>2017-9-18T23:27:2Z</time></trkpt>
<trkpt lat="48.451998" lon="2.6359"><ele></ele><time>2017-9-18T23:27:5Z</time></trkpt>
<trkpt lat="48.451973" lon="2.635848"><ele></ele><time>2017-9-18T23:27:8Z</time></trkpt>
<trkpt lat="48.451945" lon="2.635668"><ele></ele><time>2017-9-18T23:27:11Z</time></trkpt>
<trkpt lat="48.451953" lon="2.635537"><ele></ele><time>2017-9-18T23:27:14Z</time></trkpt>
<trkpt lat="48.451957" lon="2.635465"><ele></ele><time>2017-9-18T23:27:17Z</time></trkpt>
<trkpt lat="48.451957" lon="2.635395"><ele></ele><time>2017-9-18T23:27:20Z</time></trkpt>
<trkpt lat="48.451955" lon="2.635327"><ele></ele><time>2017-9-18T23:27:23Z</time></trkpt>
<trkpt lat="48.451963" lon="2.635258"><ele></ele><time>2017-9-18T23:27:26Z</time></trkpt>
<trkpt lat="48.451963" lon="2.635185"><ele></ele><time>2017-9-18T23:27:29Z</time></trkpt>
<trkpt lat="48.45197" lon="2.635057"><ele></ele><time>2017-9-18T23:27:32Z</time></trkpt>
<trkpt lat="48.451985" lon="2.634927"><ele></ele><time>2017-9-18T23:27:35Z</time></trkpt>
<trkpt lat="48.452" lon="2.634802"><ele></ele><time>2017-9-18T23:27:38Z</time></trkpt>
<trkpt lat="48.452003" lon="2.634678"><ele></ele><time>2017-9-18T23:27:41Z</time></trkpt>
<trkpt lat="48.452003" lon="2.634558"><ele></ele><time>2017-9-18T23:27:44Z</time></trkpt>
<trkpt lat="48.452027" lon="2.634442"><ele></ele><time>2017-9-18T23:27:47Z</time></trkpt>
<trkpt lat="48.452042" lon="2.634388"><ele></ele><time>2017-9-18T23:27:50Z</time></trkpt>
<trkpt lat="48.452068" lon="2.634277"><ele></ele><time>2017-9-18T23:27:53Z</time></trkpt>
<trkpt lat="48.45209" lon="2.634162"><ele></ele><time>2017-9-18T23:27:56Z</time></trkpt>
<trkpt lat="48.452092" lon="2.63405"><ele></ele><time>2017-9-18T23:27:59Z</time></trkpt>
<trkpt lat="48.452087" lon="2.633942"><ele></ele><time>2017-9-18T23:28:2Z</time></trkpt>
<trkpt lat="48.45209" lon="2.633842"><ele></ele><time>2017-9-18T23:28:5Z</time></trkpt>
<trkpt lat="48.452117" lon="2.633753"><ele></ele><time>2017-9-18T23:28:8Z</time></trkpt>
<trkpt lat="48.45211" lon="2.633623"><ele></ele><time>2017-9-18T23:28:11Z</time></trkpt>
<trkpt lat="48.452088" lon="2.633743"><ele></ele><time>2017-9-18T23:28:14Z</time></trkpt>
<trkpt lat="48.452077" lon="2.633768"><ele></ele><time>2017-9-18T23:28:17Z</time></trkpt>
<trkpt lat="48.452032" lon="2.633957"><ele></ele><time>2017-9-18T23:28:20Z</time></trkpt>
<trkpt lat="48.45203" lon="2.634057"><ele></ele><time>2017-9-18T23:28:23Z</time></trkpt>
<trkpt lat="48.452033" lon="2.634162"><ele></ele><time>2017-9-18T23:28:26Z</time></trkpt>
<trkpt lat="48.452027" lon="2.634278"><ele></ele><time>2017-9-18T23:28:29Z</time></trkpt>
<trkpt lat="48.452025" lon="2.634393"><ele></ele><time>2017-9-18T23:28:32Z</time></trkpt>
<trkpt lat="48.452023" lon="2.63445"><ele></ele><time>2017-9-18T23:28:35Z</time></trkpt>
<trkpt lat="48.452017" lon="2.634565"><ele></ele><time>2017-9-18T23:28:38Z</time></trkpt>
<trkpt lat="48.452005" lon="2.634675"><ele></ele><time>2017-9-18T23:28:41Z</time></trkpt>
<trkpt lat="48.451993" lon="2.63478"><ele></ele><time>2017-9-18T23:28:44Z</time></trkpt>
<trkpt lat="48.451978" lon="2.634882"><ele></ele><time>2017-9-18T23:28:47Z</time></trkpt>
<trkpt lat="48.451962" lon="2.634993"><ele></ele><time>2017-9-18T23:28:50Z</time></trkpt>
<trkpt lat="48.45194" lon="2.635112"><ele></ele><time>2017-9-18T23:28:53Z</time></trkpt>
<trkpt lat="48.451902" lon="2.635217"><ele></ele><time>2017-9-18T23:28:56Z</time></trkpt>
<trkpt lat="48.451858" lon="2.635307"><ele></ele><time>2017-9-18T23:28:59Z</time></trkpt>
<trkpt lat="48.451812" lon="2.635397"><ele></ele><time>2017-9-18T23:29:2Z</time></trkpt>
<trkpt lat="48.451775" lon="2.63549"><ele></ele><time>2017-9-18T23:29:5Z</time></trkpt>
<trkpt lat="48.45175" lon="2.635583"><ele></ele><time>2017-9-18T23:29:8Z</time></trkpt>
<trkpt lat="48.451747" lon="2.635628"><ele></ele><time>2017-9-18T23:29:11Z</time></trkpt>
<trkpt lat="48.45175" lon="2.635723"><ele></ele><time>2017-9-18T23:29:14Z</time></trkpt>
<trkpt lat="48.45176" lon="2.635817"><ele></ele><time>2017-9-18T23:29:17Z</time></trkpt>
<trkpt lat="48.451777" lon="2.635912"><ele></ele><time>2017-9-18T23:29:20Z</time></trkpt>
<trkpt lat="48.451802" lon="2.636005"><ele></ele><time>2017-9-18T23:29:23Z</time></trkpt>
<trkpt lat="48.451813" lon="2.636103"><ele></ele><time>2017-9-18T23:29:26Z</time></trkpt>
<trkpt lat="48.451772" lon="2.636222"><ele></ele><time>2017-9-18T23:29:29Z</time></trkpt>
<trkpt lat="48.451713" lon="2.636278"><ele></ele><time>2017-9-18T23:29:32Z</time></trkpt>
<trkpt lat="48.451645" lon="2.636317"><ele></ele><time>2017-9-18T23:29:35Z</time></trkpt>
<trkpt lat="48.451573" lon="2.636362"><ele></ele><time>2017-9-18T23:29:38Z</time></trkpt>
<trkpt lat="48.451505" lon="2.636408"><ele></ele><time>2017-9-18T23:29:41Z</time></trkpt>
<trkpt lat="48.451435" lon="2.63646"><ele></ele><time>2017-9-18T23:29:44Z</time></trkpt>
<trkpt lat="48.45138" lon="2.636513"><ele></ele><time>2017-9-18T23:29:47Z</time></trkpt>
<trkpt lat="48.451317" lon="2.636578"><ele></ele><time>2017-9-18T23:29:50Z</time></trkpt>
<trkpt lat="48.451273" lon="2.636673"><ele></ele><time>2017-9-18T23:29:53Z</time></trkpt>
<trkpt lat="48.451243" lon="2.636778"><ele></ele><time>2017-9-18T23:29:56Z</time></trkpt>
<trkpt lat="48.451213" lon="2.636893"><ele></ele><time>2017-9-18T23:29:59Z</time></trkpt>
<trkpt lat="48.451167" lon="2.636983"><ele></ele><time>2017-9-18T23:30:2Z</time></trkpt>
<trkpt lat="48.451108" lon="2.637062"><ele></ele><time>2017-9-18T23:30:5Z</time></trkpt>
<trkpt lat="48.45105" lon="2.637147"><ele></ele><time>2017-9-18T23:30:8Z</time></trkpt>
<trkpt lat="48.450993" lon="2.63723"><ele></ele><time>2017-9-18T23:30:11Z</time></trkpt>
<trkpt lat="48.450933" lon="2.637312"><ele></ele><time>2017-9-18T23:30:14Z</time></trkpt>
<trkpt lat="48.450912" lon="2.63737"><ele></ele><time>2017-9-18T23:30:17Z</time></trkpt>
<trkpt lat="48.450887" lon="2.637488"><ele></ele><time>2017-9-18T23:30:20Z</time></trkpt>
<trkpt lat="48.45086" lon="2.637615"><ele></ele><time>2017-9-18T23:30:23Z</time></trkpt>
<trkpt lat="48.450835" lon="2.63774"><ele></ele><time>2017-9-18T23:30:26Z</time></trkpt>
<trkpt lat="48.450822" lon="2.637863"><ele></ele><time>2017-9-18T23:30:29Z</time></trkpt>
<trkpt lat="48.450815" lon="2.637975"><ele></ele><time>2017-9-18T23:30:32Z</time></trkpt>
<trkpt lat="48.450803" lon="2.638095"><ele></ele><time>2017-9-18T23:30:35Z</time></trkpt>
<trkpt lat="48.450803" lon="2.638212"><ele></ele><time>2017-9-18T23:30:38Z</time></trkpt>
<trkpt lat="48.450807" lon="2.638327"><ele></ele><time>2017-9-18T23:30:41Z</time></trkpt>
<trkpt lat="48.450813" lon="2.638438"><ele></ele><time>2017-9-18T23:30:44Z</time></trkpt>
<trkpt lat="48.450815" lon="2.638548"><ele></ele><time>2017-9-18T23:30:47Z</time></trkpt>
<trkpt lat="48.450817" lon="2.638665"><ele></ele><time>2017-9-18T23:30:50Z</time></trkpt>
<trkpt lat="48.450825" lon="2.638775"><ele></ele><time>2017-9-18T23:30:53Z</time></trkpt>
<trkpt lat="48.450835" lon="2.638887"><ele></ele><time>2017-9-18T23:30:56Z</time></trkpt>
<trkpt lat="48.45085" lon="2.639008"><ele></ele><time>2017-9-18T23:30:59Z</time></trkpt>
<trkpt lat="48.450862" lon="2.63914"><ele></ele><time>2017-9-18T23:31:2Z</time></trkpt>
<trkpt lat="48.450878" lon="2.639268"><ele></ele><time>2017-9-18T23:31:5Z</time></trkpt>
<trkpt lat="48.450892" lon="2.639397"><ele></ele><time>2017-9-18T23:31:8Z</time></trkpt>
<trkpt lat="48.450915" lon="2.639515"><ele></ele><time>2017-9-18T23:31:11Z</time></trkpt>
<trkpt lat="48.450952" lon="2.639618"><ele></ele><time>2017-9-18T23:31:14Z</time></trkpt>
<trkpt lat="48.450998" lon="2.639715"><ele></ele><time>2017-9-18T23:31:17Z</time></trkpt>
<trkpt lat="48.451012" lon="2.639772"><ele></ele><time>2017-9-18T23:31:20Z</time></trkpt>
<trkpt lat="48.451055" lon="2.63995"><ele></ele><time>2017-9-18T23:31:23Z</time></trkpt>
<trkpt lat="48.451068" lon="2.640017"><ele></ele><time>2017-9-18T23:31:26Z</time></trkpt>
<trkpt lat="48.451075" lon="2.640092"><ele></ele><time>2017-9-18T23:31:29Z</time></trkpt>
<trkpt lat="48.451062" lon="2.640177"><ele></ele><time>2017-9-18T23:31:32Z</time></trkpt>
<trkpt lat="48.451042" lon="2.640265"><ele></ele><time>2017-9-18T23:31:35Z</time></trkpt>
<trkpt lat="48.45101" lon="2.640357"><ele></ele><time>2017-9-18T23:31:38Z</time></trkpt>
<trkpt lat="48.450947" lon="2.640533"><ele></ele><time>2017-9-18T23:31:41Z</time></trkpt>
<trkpt lat="48.450903" lon="2.640692"><ele></ele><time>2017-9-18T23:31:44Z</time></trkpt>
<trkpt lat="48.45087" lon="2.640807"><ele></ele><time>2017-9-18T23:31:47Z</time></trkpt>
<trkpt lat="48.45084" lon="2.640905"><ele></ele><time>2017-9-18T23:31:50Z</time></trkpt>
<trkpt lat="48.450798" lon="2.640992"><ele></ele><time>2017-9-18T23:31:53Z</time></trkpt>
<trkpt lat="48.450755" lon="2.641077"><ele></ele><time>2017-9-18T23:31:56Z</time></trkpt>
<trkpt lat="48.4507" lon="2.641157"><ele></ele><time>2017-9-18T23:31:59Z</time></trkpt>
<trkpt lat="48.450643" lon="2.641238"><ele></ele><time>2017-9-18T23:32:2Z</time></trkpt>
<trkpt lat="48.450608" lon="2.64128"><ele></ele><time>2017-9-18T23:32:5Z</time></trkpt>
<trkpt lat="48.45057" lon="2.64132"><ele></ele><time>2017-9-18T23:32:8Z</time></trkpt>
<trkpt lat="48.450533" lon="2.641362"><ele></ele><time>2017-9-18T23:32:11Z</time></trkpt>
<trkpt lat="48.450497" lon="2.641403"><ele></ele><time>2017-9-18T23:32:14Z</time></trkpt>
<trkpt lat="48.45046" lon="2.641443"><ele></ele><time>2017-9-18T23:32:17Z</time></trkpt>
<trkpt lat="48.450418" lon="2.641487"><ele></ele><time>2017-9-18T23:32:20Z</time></trkpt>
<trkpt lat="48.450352" lon="2.641558"><ele></ele><time>2017-9-18T23:32:23Z</time></trkpt>
<trkpt lat="48.450293" lon="2.641633"><ele></ele><time>2017-9-18T23:32:26Z</time></trkpt>
<trkpt lat="48.450248" lon="2.641707"><ele></ele><time>2017-9-18T23:32:29Z</time></trkpt>
<trkpt lat="48.450207" lon="2.64177"><ele></ele><time>2017-9-18T23:32:32Z</time></trkpt>
<trkpt lat="48.45017" lon="2.641847"><ele></ele><time>2017-9-18T23:32:35Z</time></trkpt>
<trkpt lat="48.450125" lon="2.641907"><ele></ele><time>2017-9-18T23:32:38Z</time></trkpt>
<trkpt lat="48.450068" lon="2.641978"><ele></ele><time>2017-9-18T23:32:41Z</time></trkpt>
<trkpt lat="48.450017" lon="2.642053"><ele></ele><time>2017-9-18T23:32:44Z</time></trkpt>
<trkpt lat="48.44997" lon="2.642123"><ele></ele><time>2017-9-18T23:32:47Z</time></trkpt>
<trkpt lat="48.449922" lon="2.642195"><ele></ele><time>2017-9-18T23:32:50Z</time></trkpt>
<trkpt lat="48.449873" lon="2.64227"><ele></ele><time>2017-9-18T23:32:53Z</time></trkpt>
<trkpt lat="48.449828" lon="2.642338"><ele></ele><time>2017-9-18T23:32:56Z</time></trkpt>
<trkpt lat="48.449777" lon="2.642408"><ele></ele><time>2017-9-18T23:32:59Z</time></trkpt>
<trkpt lat="48.449728" lon="2.642478"><ele></ele><time>2017-9-18T23:33:2Z</time></trkpt>
<trkpt lat="48.44968" lon="2.642552"><ele></ele><time>2017-9-18T23:33:5Z</time></trkpt>
<trkpt lat="48.449653" lon="2.64259"><ele></ele><time>2017-9-18T23:33:8Z</time></trkpt>
<trkpt lat="48.449603" lon="2.642672"><ele></ele><time>2017-9-18T23:33:11Z</time></trkpt>
<trkpt lat="48.449553" lon="2.642755"><ele></ele><time>2017-9-18T23:33:14Z</time></trkpt>
<trkpt lat="48.44949" lon="2.64284"><ele></ele><time>2017-9-18T23:33:17Z</time></trkpt>
<trkpt lat="48.449428" lon="2.642927"><ele></ele><time>2017-9-18T23:33:20Z</time></trkpt>
<trkpt lat="48.449397" lon="2.642977"><ele></ele><time>2017-9-18T23:33:23Z</time></trkpt>
<trkpt lat="48.449368" lon="2.643028"><ele></ele><time>2017-9-18T23:33:26Z</time></trkpt>
<trkpt lat="48.449328" lon="2.64314"><ele></ele><time>2017-9-18T23:33:29Z</time></trkpt>
<trkpt lat="48.449307" lon="2.643253"><ele></ele><time>2017-9-18T23:33:32Z</time></trkpt>
<trkpt lat="48.449308" lon="2.643372"><ele></ele><time>2017-9-18T23:33:35Z</time></trkpt>
<trkpt lat="48.44934" lon="2.643485"><ele></ele><time>2017-9-18T23:33:38Z</time></trkpt>
<trkpt lat="48.449387" lon="2.643592"><ele></ele><time>2017-9-18T23:33:41Z</time></trkpt>
<trkpt lat="48.449433" lon="2.643698"><ele></ele><time>2017-9-18T23:33:44Z</time></trkpt>
<trkpt lat="48.449458" lon="2.643753"><ele></ele><time>2017-9-18T23:33:47Z</time></trkpt>
<trkpt lat="48.449485" lon="2.64381"><ele></ele><time>2017-9-18T23:33:50Z</time></trkpt>
<trkpt lat="48.449512" lon="2.643865"><ele></ele><time>2017-9-18T23:33:53Z</time></trkpt>
<trkpt lat="48.449542" lon="2.64392"><ele></ele><time>2017-9-18T23:33:56Z</time></trkpt>
<trkpt lat="48.449585" lon="2.644038"><ele></ele><time>2017-9-18T23:33:59Z</time></trkpt>
<trkpt lat="48.449595" lon="2.644167"><ele></ele><time>2017-9-18T23:34:2Z</time></trkpt>
<trkpt lat="48.449583" lon="2.644298"><ele></ele><time>2017-9-18T23:34:5Z</time></trkpt>
<trkpt lat="48.449568" lon="2.644428"><ele></ele><time>2017-9-18T23:34:8Z</time></trkpt>
<trkpt lat="48.449555" lon="2.644557"><ele></ele><time>2017-9-18T23:34:11Z</time></trkpt>
<trkpt lat="48.449548" lon="2.644623"><ele></ele><time>2017-9-18T23:34:14Z</time></trkpt>
<trkpt lat="48.449545" lon="2.644695"><ele></ele><time>2017-9-18T23:34:17Z</time></trkpt>
<trkpt lat="48.449547" lon="2.644763"><ele></ele><time>2017-9-18T23:34:20Z</time></trkpt>
<trkpt lat="48.44955" lon="2.644832"><ele></ele><time>2017-9-18T23:34:23Z</time></trkpt>
<trkpt lat="48.449557" lon="2.6449"><ele></ele><time>2017-9-18T23:34:26Z</time></trkpt>
<trkpt lat="48.449565" lon="2.645035"><ele></ele><time>2017-9-18T23:34:29Z</time></trkpt>
<trkpt lat="48.44958" lon="2.645163"><ele></ele><time>2017-9-18T23:34:32Z</time></trkpt>
<trkpt lat="48.449598" lon="2.64529"><ele></ele><time>2017-9-18T23:34:35Z</time></trkpt>
<trkpt lat="48.449612" lon="2.645418"><ele></ele><time>2017-9-18T23:34:38Z</time></trkpt>
<trkpt lat="48.449627" lon="2.645552"><ele></ele><time>2017-9-18T23:34:41Z</time></trkpt>
<trkpt lat="48.449637" lon="2.64562"><ele></ele><time>2017-9-18T23:34:44Z</time></trkpt>
<trkpt lat="48.449645" lon="2.64569"><ele></ele><time>2017-9-18T23:34:47Z</time></trkpt>
<trkpt lat="48.44965" lon="2.64576"><ele></ele><time>2017-9-18T23:34:50Z</time></trkpt>
<trkpt lat="48.44965" lon="2.64583"><ele></ele><time>2017-9-18T23:34:53Z</time></trkpt>
<trkpt lat="48.449647" lon="2.645965"><ele></ele><time>2017-9-18T23:34:56Z</time></trkpt>
<trkpt lat="48.449638" lon="2.646102"><ele></ele><time>2017-9-18T23:34:59Z</time></trkpt>
<trkpt lat="48.449633" lon="2.646237"><ele></ele><time>2017-9-18T23:35:2Z</time></trkpt>
<trkpt lat="48.449632" lon="2.646372"><ele></ele><time>2017-9-18T23:35:5Z</time></trkpt>
<trkpt lat="48.449628" lon="2.6465"><ele></ele><time>2017-9-18T23:35:8Z</time></trkpt>
<trkpt lat="48.44963" lon="2.646623"><ele></ele><time>2017-9-18T23:35:11Z</time></trkpt>
<trkpt lat="48.449633" lon="2.646743"><ele></ele><time>2017-9-18T23:35:14Z</time></trkpt>
<trkpt lat="48.449637" lon="2.646853"><ele></ele><time>2017-9-18T23:35:17Z</time></trkpt>
<trkpt lat="48.449617" lon="2.646948"><ele></ele><time>2017-9-18T23:35:20Z</time></trkpt>
<trkpt lat="48.449595" lon="2.647072"><ele></ele><time>2017-9-18T23:35:23Z</time></trkpt>
<trkpt lat="48.44951" lon="2.647105"><ele></ele><time>2017-9-18T23:35:26Z</time></trkpt>
<trkpt lat="48.449438" lon="2.647102"><ele></ele><time>2017-9-18T23:35:29Z</time></trkpt>
<trkpt lat="48.449358" lon="2.647105"><ele></ele><time>2017-9-18T23:35:32Z</time></trkpt>
<trkpt lat="48.449277" lon="2.647123"><ele></ele><time>2017-9-18T23:35:35Z</time></trkpt>
<trkpt lat="48.4492" lon="2.64716"><ele></ele><time>2017-9-18T23:35:38Z</time></trkpt>
<trkpt lat="48.449138" lon="2.64721"><ele></ele><time>2017-9-18T23:35:41Z</time></trkpt>
<trkpt lat="48.449088" lon="2.647278"><ele></ele><time>2017-9-18T23:35:44Z</time></trkpt>
<trkpt lat="48.449048" lon="2.647362"><ele></ele><time>2017-9-18T23:35:47Z</time></trkpt>
<trkpt lat="48.449032" lon="2.647408"><ele></ele><time>2017-9-18T23:35:50Z</time></trkpt>
<trkpt lat="48.448997" lon="2.647507"><ele></ele><time>2017-9-18T23:35:53Z</time></trkpt>
<trkpt lat="48.448967" lon="2.647617"><ele></ele><time>2017-9-18T23:35:56Z</time></trkpt>
<trkpt lat="48.44894" lon="2.647727"><ele></ele><time>2017-9-18T23:35:59Z</time></trkpt>
<trkpt lat="48.448902" lon="2.647835"><ele></ele><time>2017-9-18T23:36:2Z</time></trkpt>
<trkpt lat="48.448865" lon="2.64794"><ele></ele><time>2017-9-18T23:36:5Z</time></trkpt>
<trkpt lat="48.448825" lon="2.648038"><ele></ele><time>2017-9-18T23:36:8Z</time></trkpt>
<trkpt lat="48.448785" lon="2.648142"><ele></ele><time>2017-9-18T23:36:11Z</time></trkpt>
<trkpt lat="48.448752" lon="2.648245"><ele></ele><time>2017-9-18T23:36:14Z</time></trkpt>
<trkpt lat="48.448713" lon="2.648355"><ele></ele><time>2017-9-18T23:36:17Z</time></trkpt>
<trkpt lat="48.448678" lon="2.648468"><ele></ele><time>2017-9-18T23:36:20Z</time></trkpt>
<trkpt lat="48.44864" lon="2.64858"><ele></ele><time>2017-9-18T23:36:23Z</time></trkpt>
<trkpt lat="48.448598" lon="2.648695"><ele></ele><time>2017-9-18T23:36:26Z</time></trkpt>
<trkpt lat="48.448557" lon="2.648812"><ele></ele><time>2017-9-18T23:36:29Z</time></trkpt>
<trkpt lat="48.44853" lon="2.648872"><ele></ele><time>2017-9-18T23:36:32Z</time></trkpt>
<trkpt lat="48.448512" lon="2.648933"><ele></ele><time>2017-9-18T23:36:35Z</time></trkpt>
<trkpt lat="48.448473" lon="2.649053"><ele></ele><time>2017-9-18T23:36:38Z</time></trkpt>
<trkpt lat="48.448455" lon="2.649117"><ele></ele><time>2017-9-18T23:36:41Z</time></trkpt>
<trkpt lat="48.448417" lon="2.649232"><ele></ele><time>2017-9-18T23:36:44Z</time></trkpt>
<trkpt lat="48.44839" lon="2.64929"><ele></ele><time>2017-9-18T23:36:47Z</time></trkpt>
<trkpt lat="48.448347" lon="2.649408"><ele></ele><time>2017-9-18T23:36:50Z</time></trkpt>
<trkpt lat="48.448322" lon="2.649462"><ele></ele><time>2017-9-18T23:36:53Z</time></trkpt>
<trkpt lat="48.448295" lon="2.649522"><ele></ele><time>2017-9-18T23:36:56Z</time></trkpt>
<trkpt lat="48.448272" lon="2.649582"><ele></ele><time>2017-9-18T23:36:59Z</time></trkpt>
<trkpt lat="48.44825" lon="2.649642"><ele></ele><time>2017-9-18T23:37:2Z</time></trkpt>
<trkpt lat="48.448227" lon="2.6497"><ele></ele><time>2017-9-18T23:37:5Z</time></trkpt>
<trkpt lat="48.448203" lon="2.649758"><ele></ele><time>2017-9-18T23:37:8Z</time></trkpt>
<trkpt lat="48.448182" lon="2.649818"><ele></ele><time>2017-9-18T23:37:11Z</time></trkpt>
<trkpt lat="48.44816" lon="2.64988"><ele></ele><time>2017-9-18T23:37:14Z</time></trkpt>
<trkpt lat="48.448138" lon="2.649943"><ele></ele><time>2017-9-18T23:37:17Z</time></trkpt>
<trkpt lat="48.448117" lon="2.650005"><ele></ele><time>2017-9-18T23:37:20Z</time></trkpt>
<trkpt lat="48.448095" lon="2.650067"><ele></ele><time>2017-9-18T23:37:23Z</time></trkpt>
<trkpt lat="48.448073" lon="2.650127"><ele></ele><time>2017-9-18T23:37:26Z</time></trkpt>
<trkpt lat="48.44805" lon="2.650187"><ele></ele><time>2017-9-18T23:37:29Z</time></trkpt>
<trkpt lat="48.448012" lon="2.65031"><ele></ele><time>2017-9-18T23:37:32Z</time></trkpt>
<trkpt lat="48.447992" lon="2.650373"><ele></ele><time>2017-9-18T23:37:35Z</time></trkpt>
<trkpt lat="48.447972" lon="2.650435"><ele></ele><time>2017-9-18T23:37:38Z</time></trkpt>
<trkpt lat="48.447928" lon="2.650553"><ele></ele><time>2017-9-18T23:37:41Z</time></trkpt>
<trkpt lat="48.447888" lon="2.650673"><ele></ele><time>2017-9-18T23:37:44Z</time></trkpt>
<trkpt lat="48.44786" lon="2.650803"><ele></ele><time>2017-9-18T23:37:47Z</time></trkpt>
<trkpt lat="48.44784" lon="2.650932"><ele></ele><time>2017-9-18T23:37:50Z</time></trkpt>
<trkpt lat="48.447852" lon="2.651063"><ele></ele><time>2017-9-18T23:37:53Z</time></trkpt>
<trkpt lat="48.447875" lon="2.651193"><ele></ele><time>2017-9-18T23:37:56Z</time></trkpt>
<trkpt lat="48.447907" lon="2.651317"><ele></ele><time>2017-9-18T23:37:59Z</time></trkpt>
<trkpt lat="48.447928" lon="2.651377"><ele></ele><time>2017-9-18T23:38:2Z</time></trkpt>
<trkpt lat="48.44795" lon="2.651437"><ele></ele><time>2017-9-18T23:38:5Z</time></trkpt>
<trkpt lat="48.447975" lon="2.651497"><ele></ele><time>2017-9-18T23:38:8Z</time></trkpt>
<trkpt lat="48.44802" lon="2.651612"><ele></ele><time>2017-9-18T23:38:11Z</time></trkpt>
<trkpt lat="48.448045" lon="2.651673"><ele></ele><time>2017-9-18T23:38:14Z</time></trkpt>
<trkpt lat="48.448067" lon="2.651735"><ele></ele><time>2017-9-18T23:38:17Z</time></trkpt>
<trkpt lat="48.44809" lon="2.6518"><ele></ele><time>2017-9-18T23:38:20Z</time></trkpt>
<trkpt lat="48.448115" lon="2.651862"><ele></ele><time>2017-9-18T23:38:23Z</time></trkpt>
<trkpt lat="48.448135" lon="2.651923"><ele></ele><time>2017-9-18T23:38:26Z</time></trkpt>
<trkpt lat="48.448177" lon="2.65204"><ele></ele><time>2017-9-18T23:38:29Z</time></trkpt>
<trkpt lat="48.4482" lon="2.652098"><ele></ele><time>2017-9-18T23:38:32Z</time></trkpt>
<trkpt lat="48.448222" lon="2.652162"><ele></ele><time>2017-9-18T23:38:35Z</time></trkpt>
<trkpt lat="48.448243" lon="2.652225"><ele></ele><time>2017-9-18T23:38:38Z</time></trkpt>
<trkpt lat="48.448265" lon="2.652288"><ele></ele><time>2017-9-18T23:38:41Z</time></trkpt>
<trkpt lat="48.448287" lon="2.652352"><ele></ele><time>2017-9-18T23:38:44Z</time></trkpt>
<trkpt lat="48.44831" lon="2.652413"><ele></ele><time>2017-9-18T23:38:47Z</time></trkpt>
<trkpt lat="48.448333" lon="2.652473"><ele></ele><time>2017-9-18T23:38:50Z</time></trkpt>
<trkpt lat="48.448378" lon="2.65259"><ele></ele><time>2017-9-18T23:38:53Z</time></trkpt>
<trkpt lat="48.448403" lon="2.652643"><ele></ele><time>2017-9-18T23:38:56Z</time></trkpt>
<trkpt lat="48.448462" lon="2.652747"><ele></ele><time>2017-9-18T23:38:59Z</time></trkpt>
<trkpt lat="48.448493" lon="2.652795"><ele></ele><time>2017-9-18T23:39:2Z</time></trkpt>
<trkpt lat="48.448528" lon="2.65284"><ele></ele><time>2017-9-18T23:39:5Z</time></trkpt>
<trkpt lat="48.448562" lon="2.652885"><ele></ele><time>2017-9-18T23:39:8Z</time></trkpt>
<trkpt lat="48.448627" lon="2.652977"><ele></ele><time>2017-9-18T23:39:11Z</time></trkpt>
<trkpt lat="48.448687" lon="2.65307"><ele></ele><time>2017-9-18T23:39:14Z</time></trkpt>
<trkpt lat="48.448745" lon="2.65316"><ele></ele><time>2017-9-18T23:39:17Z</time></trkpt>
<trkpt lat="48.4488" lon="2.653245"><ele></ele><time>2017-9-18T23:39:20Z</time></trkpt>
<trkpt lat="48.448848" lon="2.653325"><ele></ele><time>2017-9-18T23:39:23Z</time></trkpt>
<trkpt lat="48.448895" lon="2.653413"><ele></ele><time>2017-9-18T23:39:26Z</time></trkpt>
<trkpt lat="48.448933" lon="2.653512"><ele></ele><time>2017-9-18T23:39:29Z</time></trkpt>
<trkpt lat="48.448968" lon="2.653617"><ele></ele><time>2017-9-18T23:39:32Z</time></trkpt>
<trkpt lat="48.449" lon="2.653733"><ele></ele><time>2017-9-18T23:39:35Z</time></trkpt>
<trkpt lat="48.449025" lon="2.65386"><ele></ele><time>2017-9-18T23:39:38Z</time></trkpt>
<trkpt lat="48.449045" lon="2.653985"><ele></ele><time>2017-9-18T23:39:41Z</time></trkpt>
<trkpt lat="48.449045" lon="2.654113"><ele></ele><time>2017-9-18T23:39:44Z</time></trkpt>
<trkpt lat="48.449037" lon="2.65418"><ele></ele><time>2017-9-18T23:39:47Z</time></trkpt>
<trkpt lat="48.449027" lon="2.654247"><ele></ele><time>2017-9-18T23:39:50Z</time></trkpt>
<trkpt lat="48.449013" lon="2.654312"><ele></ele><time>2017-9-18T23:39:53Z</time></trkpt>
<trkpt lat="48.449002" lon="2.65438"><ele></ele><time>2017-9-18T23:39:56Z</time></trkpt>
<trkpt lat="48.448993" lon="2.654448"><ele></ele><time>2017-9-18T23:39:59Z</time></trkpt>
<trkpt lat="48.448983" lon="2.654517"><ele></ele><time>2017-9-18T23:40:2Z</time></trkpt>
<trkpt lat="48.448973" lon="2.654583"><ele></ele><time>2017-9-18T23:40:5Z</time></trkpt>
<trkpt lat="48.448947" lon="2.654712"><ele></ele><time>2017-9-18T23:40:8Z</time></trkpt>
<trkpt lat="48.448917" lon="2.654832"><ele></ele><time>2017-9-18T23:40:11Z</time></trkpt>
<trkpt lat="48.448898" lon="2.654895"><ele></ele><time>2017-9-18T23:40:14Z</time></trkpt>
<trkpt lat="48.448882" lon="2.65496"><ele></ele><time>2017-9-18T23:40:17Z</time></trkpt>
<trkpt lat="48.448867" lon="2.655028"><ele></ele><time>2017-9-18T23:40:20Z</time></trkpt>
<trkpt lat="48.44884" lon="2.655157"><ele></ele><time>2017-9-18T23:40:23Z</time></trkpt>
<trkpt lat="48.448815" lon="2.65528"><ele></ele><time>2017-9-18T23:40:26Z</time></trkpt>
<trkpt lat="48.448785" lon="2.655402"><ele></ele><time>2017-9-18T23:40:29Z</time></trkpt>
<trkpt lat="48.44877" lon="2.655467"><ele></ele><time>2017-9-18T23:40:32Z</time></trkpt>
<trkpt lat="48.44874" lon="2.655592"><ele></ele><time>2017-9-18T23:40:35Z</time></trkpt>
<trkpt lat="48.448702" lon="2.655708"><ele></ele><time>2017-9-18T23:40:38Z</time></trkpt>
<trkpt lat="48.448685" lon="2.655773"><ele></ele><time>2017-9-18T23:40:41Z</time></trkpt>
<trkpt lat="48.448667" lon="2.655837"><ele></ele><time>2017-9-18T23:40:44Z</time></trkpt>
<trkpt lat="48.448632" lon="2.655958"><ele></ele><time>2017-9-18T23:40:47Z</time></trkpt>
<trkpt lat="48.448602" lon="2.656083"><ele></ele><time>2017-9-18T23:40:50Z</time></trkpt>
<trkpt lat="48.44857" lon="2.656208"><ele></ele><time>2017-9-18T23:40:53Z</time></trkpt>
<trkpt lat="48.448537" lon="2.656328"><ele></ele><time>2017-9-18T23:40:56Z</time></trkpt>
<trkpt lat="48.448503" lon="2.656452"><ele></ele><time>2017-9-18T23:40:59Z</time></trkpt>
<trkpt lat="48.44846" lon="2.656573"><ele></ele><time>2017-9-18T23:41:2Z</time></trkpt>
<trkpt lat="48.448427" lon="2.656685"><ele></ele><time>2017-9-18T23:41:5Z</time></trkpt>
<trkpt lat="48.448392" lon="2.656797"><ele></ele><time>2017-9-18T23:41:8Z</time></trkpt>
<trkpt lat="48.448368" lon="2.656922"><ele></ele><time>2017-9-18T23:41:11Z</time></trkpt>
<trkpt lat="48.448342" lon="2.65704"><ele></ele><time>2017-9-18T23:41:14Z</time></trkpt>
<trkpt lat="48.448312" lon="2.657155"><ele></ele><time>2017-9-18T23:41:17Z</time></trkpt>
<trkpt lat="48.448275" lon="2.657267"><ele></ele><time>2017-9-18T23:41:20Z</time></trkpt>
<trkpt lat="48.448237" lon="2.657378"><ele></ele><time>2017-9-18T23:41:23Z</time></trkpt>
<trkpt lat="48.448212" lon="2.657495"><ele></ele><time>2017-9-18T23:41:26Z</time></trkpt>
<trkpt lat="48.44818" lon="2.657617"><ele></ele><time>2017-9-18T23:41:29Z</time></trkpt>
<trkpt lat="48.44814" lon="2.65773"><ele></ele><time>2017-9-18T23:41:32Z</time></trkpt>
<trkpt lat="48.448102" lon="2.65785"><ele></ele><time>2017-9-18T23:41:35Z</time></trkpt>
<trkpt lat="48.448068" lon="2.657975"><ele></ele><time>2017-9-18T23:41:38Z</time></trkpt>
<trkpt lat="48.448038" lon="2.658098"><ele></ele><time>2017-9-18T23:41:41Z</time></trkpt>
<trkpt lat="48.448018" lon="2.658158"><ele></ele><time>2017-9-18T23:41:44Z</time></trkpt>
<trkpt lat="48.447987" lon="2.658273"><ele></ele><time>2017-9-18T23:41:47Z</time></trkpt>
<trkpt lat="48.447952" lon="2.658392"><ele></ele><time>2017-9-18T23:41:50Z</time></trkpt>
<trkpt lat="48.447915" lon="2.658512"><ele></ele><time>2017-9-18T23:41:53Z</time></trkpt>
<trkpt lat="48.447888" lon="2.658573"><ele></ele><time>2017-9-18T23:41:56Z</time></trkpt>
<trkpt lat="48.447868" lon="2.658635"><ele></ele><time>2017-9-18T23:41:59Z</time></trkpt>
<trkpt lat="48.447828" lon="2.658743"><ele></ele><time>2017-9-18T23:42:2Z</time></trkpt>
<trkpt lat="48.4478" lon="2.65886"><ele></ele><time>2017-9-18T23:42:5Z</time></trkpt>
<trkpt lat="48.447763" lon="2.658983"><ele></ele><time>2017-9-18T23:42:8Z</time></trkpt>
<trkpt lat="48.447747" lon="2.65905"><ele></ele><time>2017-9-18T23:42:11Z</time></trkpt>
<trkpt lat="48.44773" lon="2.659115"><ele></ele><time>2017-9-18T23:42:14Z</time></trkpt>
<trkpt lat="48.447697" lon="2.65924"><ele></ele><time>2017-9-18T23:42:17Z</time></trkpt>
<trkpt lat="48.447655" lon="2.659352"><ele></ele><time>2017-9-18T23:42:20Z</time></trkpt>
<trkpt lat="48.447622" lon="2.659477"><ele></ele><time>2017-9-18T23:42:23Z</time></trkpt>
<trkpt lat="48.447585" lon="2.6596"><ele></ele><time>2017-9-18T23:42:26Z</time></trkpt>
<trkpt lat="48.447553" lon="2.659718"><ele></ele><time>2017-9-18T23:42:29Z</time></trkpt>
<trkpt lat="48.447527" lon="2.65983"><ele></ele><time>2017-9-18T23:42:32Z</time></trkpt>
<trkpt lat="48.447512" lon="2.65988"><ele></ele><time>2017-9-18T23:42:35Z</time></trkpt>
<trkpt lat="48.447465" lon="2.660025"><ele></ele><time>2017-9-18T23:42:38Z</time></trkpt>
<trkpt lat="48.447435" lon="2.660128"><ele></ele><time>2017-9-18T23:42:41Z</time></trkpt>
<trkpt lat="48.447403" lon="2.660237"><ele></ele><time>2017-9-18T23:42:44Z</time></trkpt>
<trkpt lat="48.44736" lon="2.660353"><ele></ele><time>2017-9-18T23:42:47Z</time></trkpt>
<trkpt lat="48.447293" lon="2.660443"><ele></ele><time>2017-9-18T23:42:50Z</time></trkpt>
<trkpt lat="48.447232" lon="2.66048"><ele></ele><time>2017-9-18T23:42:53Z</time></trkpt>
<trkpt lat="48.44716" lon="2.660508"><ele></ele><time>2017-9-18T23:42:56Z</time></trkpt>
<trkpt lat="48.447093" lon="2.660545"><ele></ele><time>2017-9-18T23:42:59Z</time></trkpt>
<trkpt lat="48.447027" lon="2.660588"><ele></ele><time>2017-9-18T23:43:2Z</time></trkpt>
<trkpt lat="48.44696" lon="2.66063"><ele></ele><time>2017-9-18T23:43:5Z</time></trkpt>
<trkpt lat="48.446892" lon="2.660673"><ele></ele><time>2017-9-18T23:43:8Z</time></trkpt>
<trkpt lat="48.446823" lon="2.660707"><ele></ele><time>2017-9-18T23:43:11Z</time></trkpt>
<trkpt lat="48.446755" lon="2.66074"><ele></ele><time>2017-9-18T23:43:14Z</time></trkpt>
<trkpt lat="48.446687" lon="2.660787"><ele></ele><time>2017-9-18T23:43:17Z</time></trkpt>
<trkpt lat="48.44662" lon="2.66084"><ele></ele><time>2017-9-18T23:43:20Z</time></trkpt>
<trkpt lat="48.446543" lon="2.660878"><ele></ele><time>2017-9-18T23:43:23Z</time></trkpt>
<trkpt lat="48.446468" lon="2.660912"><ele></ele><time>2017-9-18T23:43:26Z</time></trkpt>
<trkpt lat="48.446402" lon="2.660948"><ele></ele><time>2017-9-18T23:43:29Z</time></trkpt>
<trkpt lat="48.446333" lon="2.660978"><ele></ele><time>2017-9-18T23:43:32Z</time></trkpt>
<trkpt lat="48.44627" lon="2.661013"><ele></ele><time>2017-9-18T23:43:35Z</time></trkpt>
<trkpt lat="48.446213" lon="2.661047"><ele></ele><time>2017-9-18T23:43:38Z</time></trkpt>
<trkpt lat="48.446152" lon="2.661077"><ele></ele><time>2017-9-18T23:43:41Z</time></trkpt>
<trkpt lat="48.446083" lon="2.661115"><ele></ele><time>2017-9-18T23:43:44Z</time></trkpt>
<trkpt lat="48.446012" lon="2.661167"><ele></ele><time>2017-9-18T23:43:47Z</time></trkpt>
<trkpt lat="48.445932" lon="2.661217"><ele></ele><time>2017-9-18T23:43:50Z</time></trkpt>
<trkpt lat="48.445848" lon="2.661262"><ele></ele><time>2017-9-18T23:43:53Z</time></trkpt>
<trkpt lat="48.44577" lon="2.661305"><ele></ele><time>2017-9-18T23:43:56Z</time></trkpt>
<trkpt lat="48.445732" lon="2.661325"><ele></ele><time>2017-9-18T23:43:59Z</time></trkpt>
<trkpt lat="48.445625" lon="2.661377"><ele></ele><time>2017-9-18T23:44:2Z</time></trkpt>
<trkpt lat="48.44559" lon="2.661402"><ele></ele><time>2017-9-18T23:44:5Z</time></trkpt>
<trkpt lat="48.445518" lon="2.661438"><ele></ele><time>2017-9-18T23:44:8Z</time></trkpt>
<trkpt lat="48.445443" lon="2.661478"><ele></ele><time>2017-9-18T23:44:11Z</time></trkpt>
<trkpt lat="48.445372" lon="2.661522"><ele></ele><time>2017-9-18T23:44:14Z</time></trkpt>
<trkpt lat="48.445302" lon="2.661562"><ele></ele><time>2017-9-18T23:44:17Z</time></trkpt>
<trkpt lat="48.445243" lon="2.661617"><ele></ele><time>2017-9-18T23:44:20Z</time></trkpt>
<trkpt lat="48.44518" lon="2.661663"><ele></ele><time>2017-9-18T23:44:23Z</time></trkpt>
<trkpt lat="48.445117" lon="2.661703"><ele></ele><time>2017-9-18T23:44:26Z</time></trkpt>
<trkpt lat="48.445043" lon="2.661742"><ele></ele><time>2017-9-18T23:44:29Z</time></trkpt>
<trkpt lat="48.444967" lon="2.661777"><ele></ele><time>2017-9-18T23:44:32Z</time></trkpt>
<trkpt lat="48.444892" lon="2.661818"><ele></ele><time>2017-9-18T23:44:35Z</time></trkpt>
<trkpt lat="48.444817" lon="2.661873"><ele></ele><time>2017-9-18T23:44:38Z</time></trkpt>
<trkpt lat="48.444747" lon="2.661942"><ele></ele><time>2017-9-18T23:44:41Z</time></trkpt>
<trkpt lat="48.444683" lon="2.66201"><ele></ele><time>2017-9-18T23:44:44Z</time></trkpt>
<trkpt lat="48.444628" lon="2.662072"><ele></ele><time>2017-9-18T23:44:47Z</time></trkpt>
<trkpt lat="48.444587" lon="2.662145"><ele></ele><time>2017-9-18T23:44:50Z</time></trkpt>
<trkpt lat="48.444555" lon="2.662233"><ele></ele><time>2017-9-18T23:44:53Z</time></trkpt>
<trkpt lat="48.44452" lon="2.662328"><ele></ele><time>2017-9-18T23:44:56Z</time></trkpt>
<trkpt lat="48.444478" lon="2.662422"><ele></ele><time>2017-9-18T23:44:59Z</time></trkpt>
<trkpt lat="48.444435" lon="2.66251"><ele></ele><time>2017-9-18T23:45:2Z</time></trkpt>
<trkpt lat="48.444387" lon="2.6626"><ele></ele><time>2017-9-18T23:45:5Z</time></trkpt>
<trkpt lat="48.444328" lon="2.66269"><ele></ele><time>2017-9-18T23:45:8Z</time></trkpt>
<trkpt lat="48.444275" lon="2.662778"><ele></ele><time>2017-9-18T23:45:11Z</time></trkpt>
<trkpt lat="48.444227" lon="2.662872"><ele></ele><time>2017-9-18T23:45:14Z</time></trkpt>
<trkpt lat="48.44418" lon="2.662973"><ele></ele><time>2017-9-18T23:45:17Z</time></trkpt>
<trkpt lat="48.444135" lon="2.663077"><ele></ele><time>2017-9-18T23:45:20Z</time></trkpt>
<trkpt lat="48.444113" lon="2.663127"><ele></ele><time>2017-9-18T23:45:23Z</time></trkpt>
<trkpt lat="48.444072" lon="2.663228"><ele></ele><time>2017-9-18T23:45:26Z</time></trkpt>
<trkpt lat="48.444043" lon="2.663325"><ele></ele><time>2017-9-18T23:45:29Z</time></trkpt>
<trkpt lat="48.444018" lon="2.663417"><ele></ele><time>2017-9-18T23:45:32Z</time></trkpt>
<trkpt lat="48.444005" lon="2.6635"><ele></ele><time>2017-9-18T23:45:35Z</time></trkpt>
<trkpt lat="48.444002" lon="2.663582"><ele></ele><time>2017-9-18T23:45:38Z</time></trkpt>
<trkpt lat="48.443992" lon="2.663688"><ele></ele><time>2017-9-18T23:45:41Z</time></trkpt>
<trkpt lat="48.443983" lon="2.663793"><ele></ele><time>2017-9-18T23:45:44Z</time></trkpt>
<trkpt lat="48.443993" lon="2.6639"><ele></ele><time>2017-9-18T23:45:47Z</time></trkpt>
<trkpt lat="48.444002" lon="2.664008"><ele></ele><time>2017-9-18T23:45:50Z</time></trkpt>
<trkpt lat="48.443998" lon="2.664127"><ele></ele><time>2017-9-18T23:45:53Z</time></trkpt>
<trkpt lat="48.443993" lon="2.664225"><ele></ele><time>2017-9-18T23:45:56Z</time></trkpt>
<trkpt lat="48.443975" lon="2.664327"><ele></ele><time>2017-9-18T23:45:59Z</time></trkpt>
<trkpt lat="48.443967" lon="2.66442"><ele></ele><time>2017-9-18T23:46:2Z</time></trkpt>
<trkpt lat="48.443965" lon="2.66451"><ele></ele><time>2017-9-18T23:46:5Z</time></trkpt>
<trkpt lat="48.443952" lon="2.664607"><ele></ele><time>2017-9-18T23:46:8Z</time></trkpt>
<trkpt lat="48.443948" lon="2.664708"><ele></ele><time>2017-9-18T23:46:11Z</time></trkpt>
<trkpt lat="48.44394" lon="2.664808"><ele></ele><time>2017-9-18T23:46:14Z</time></trkpt>
<trkpt lat="48.44393" lon="2.66491"><ele></ele><time>2017-9-18T23:46:17Z</time></trkpt>
<trkpt lat="48.44393" lon="2.665013"><ele></ele><time>2017-9-18T23:46:20Z</time></trkpt>
<trkpt lat="48.443928" lon="2.665068"><ele></ele><time>2017-9-18T23:46:23Z</time></trkpt>
<trkpt lat="48.443925" lon="2.665177"><ele></ele><time>2017-9-18T23:46:26Z</time></trkpt>
<trkpt lat="48.443917" lon="2.665287"><ele></ele><time>2017-9-18T23:46:29Z</time></trkpt>
<trkpt lat="48.443912" lon="2.665398"><ele></ele><time>2017-9-18T23:46:32Z</time></trkpt>
<trkpt lat="48.443905" lon="2.665512"><ele></ele><time>2017-9-18T23:46:35Z</time></trkpt>
<trkpt lat="48.443893" lon="2.665618"><ele></ele><time>2017-9-18T23:46:38Z</time></trkpt>
<trkpt lat="48.443887" lon="2.665727"><ele></ele><time>2017-9-18T23:46:41Z</time></trkpt>
<trkpt lat="48.443867" lon="2.665837"><ele></ele><time>2017-9-18T23:46:44Z</time></trkpt>
<trkpt lat="48.443865" lon="2.665947"><ele></ele><time>2017-9-18T23:46:47Z</time></trkpt>
<trkpt lat="48.443827" lon="2.666068"><ele></ele><time>2017-9-18T23:46:50Z</time></trkpt>
<trkpt lat="48.443812" lon="2.66616"><ele></ele><time>2017-9-18T23:46:53Z</time></trkpt>
<trkpt lat="48.443803" lon="2.666205"><ele></ele><time>2017-9-18T23:46:56Z</time></trkpt>
<trkpt lat="48.443753" lon="2.666347"><ele></ele><time>2017-9-18T23:46:59Z</time></trkpt>
<trkpt lat="48.443733" lon="2.666447"><ele></ele><time>2017-9-18T23:47:2Z</time></trkpt>
<trkpt lat="48.443698" lon="2.666557"><ele></ele><time>2017-9-18T23:47:5Z</time></trkpt>
<trkpt lat="48.443668" lon="2.666652"><ele></ele><time>2017-9-18T23:47:8Z</time></trkpt>
<trkpt lat="48.443635" lon="2.66675"><ele></ele><time>2017-9-18T23:47:11Z</time></trkpt>
<trkpt lat="48.443605" lon="2.666847"><ele></ele><time>2017-9-18T23:47:14Z</time></trkpt>
<trkpt lat="48.443583" lon="2.666947"><ele></ele><time>2017-9-18T23:47:17Z</time></trkpt>
<trkpt lat="48.44356" lon="2.667043"><ele></ele><time>2017-9-18T23:47:20Z</time></trkpt>
<trkpt lat="48.443537" lon="2.667148"><ele></ele><time>2017-9-18T23:47:23Z</time></trkpt>
<trkpt lat="48.443508" lon="2.667272"><ele></ele><time>2017-9-18T23:47:26Z</time></trkpt>
<trkpt lat="48.443475" lon="2.66735"><ele></ele><time>2017-9-18T23:47:29Z</time></trkpt>
<trkpt lat="48.443418" lon="2.66745"><ele></ele><time>2017-9-18T23:47:32Z</time></trkpt>
<trkpt lat="48.443375" lon="2.667527"><ele></ele><time>2017-9-18T23:47:35Z</time></trkpt>
<trkpt lat="48.443332" lon="2.667598"><ele></ele><time>2017-9-18T23:47:38Z</time></trkpt>
<trkpt lat="48.443298" lon="2.667665"><ele></ele><time>2017-9-18T23:47:41Z</time></trkpt>
<trkpt lat="48.443263" lon="2.667735"><ele></ele><time>2017-9-18T23:47:44Z</time></trkpt>
<trkpt lat="48.44323" lon="2.667817"><ele></ele><time>2017-9-18T23:47:47Z</time></trkpt>
<trkpt lat="48.443202" lon="2.667888"><ele></ele><time>2017-9-18T23:47:50Z</time></trkpt>
<trkpt lat="48.44318" lon="2.667987"><ele></ele><time>2017-9-18T23:47:53Z</time></trkpt>
<trkpt lat="48.443173" lon="2.668072"><ele></ele><time>2017-9-18T23:47:56Z</time></trkpt>
<trkpt lat="48.443185" lon="2.668165"><ele></ele><time>2017-9-18T23:47:59Z</time></trkpt>
<trkpt lat="48.443205" lon="2.668253"><ele></ele><time>2017-9-18T23:48:2Z</time></trkpt>
<trkpt lat="48.443223" lon="2.668348"><ele></ele><time>2017-9-18T23:48:5Z</time></trkpt>
<trkpt lat="48.443238" lon="2.66845"><ele></ele><time>2017-9-18T23:48:8Z</time></trkpt>
<trkpt lat="48.44326" lon="2.66854"><ele></ele><time>2017-9-18T23:48:11Z</time></trkpt>
<trkpt lat="48.443298" lon="2.668615"><ele></ele><time>2017-9-18T23:48:14Z</time></trkpt>
<trkpt lat="48.443365" lon="2.668693"><ele></ele><time>2017-9-18T23:48:17Z</time></trkpt>
<trkpt lat="48.443442" lon="2.668752"><ele></ele><time>2017-9-18T23:48:20Z</time></trkpt>
<trkpt lat="48.443462" lon="2.66878"><ele></ele><time>2017-9-18T23:48:23Z</time></trkpt>
<trkpt lat="48.443575" lon="2.66886"><ele></ele><time>2017-9-18T23:48:26Z</time></trkpt>
<trkpt lat="48.443645" lon="2.668835"><ele></ele><time>2017-9-18T23:48:29Z</time></trkpt>
<trkpt lat="48.44371" lon="2.668865"><ele></ele><time>2017-9-18T23:48:32Z</time></trkpt>
<trkpt lat="48.443772" lon="2.668913"><ele></ele><time>2017-9-18T23:48:35Z</time></trkpt>
<trkpt lat="48.443792" lon="2.66902"><ele></ele><time>2017-9-18T23:48:38Z</time></trkpt>
<trkpt lat="48.443802" lon="2.669145"><ele></ele><time>2017-9-18T23:48:41Z</time></trkpt>
<trkpt lat="48.44377" lon="2.669265"><ele></ele><time>2017-9-18T23:48:44Z</time></trkpt>
<trkpt lat="48.44375" lon="2.669395"><ele></ele><time>2017-9-18T23:48:47Z</time></trkpt>
<trkpt lat="48.443745" lon="2.669498"><ele></ele><time>2017-9-18T23:48:50Z</time></trkpt>
<trkpt lat="48.44376" lon="2.669613"><ele></ele><time>2017-9-18T23:48:53Z</time></trkpt>
<trkpt lat="48.443752" lon="2.669735"><ele></ele><time>2017-9-18T23:48:56Z</time></trkpt>
<trkpt lat="48.443678" lon="2.669763"><ele></ele><time>2017-9-18T23:48:59Z</time></trkpt>
<trkpt lat="48.443622" lon="2.66966"><ele></ele><time>2017-9-18T23:49:2Z</time></trkpt>
<trkpt lat="48.44356" lon="2.669577"><ele></ele><time>2017-9-18T23:49:5Z</time></trkpt>
<trkpt lat="48.443485" lon="2.669568"><ele></ele><time>2017-9-18T23:49:8Z</time></trkpt>
<trkpt lat="48.44343" lon="2.669555"><ele></ele><time>2017-9-18T23:49:11Z</time></trkpt>
<trkpt lat="48.443395" lon="2.669548"><ele></ele><time>2017-9-18T23:49:14Z</time></trkpt>
<trkpt lat="48.443293" lon="2.669518"><ele></ele><time>2017-9-18T23:49:17Z</time></trkpt>
<trkpt lat="48.443222" lon="2.6695"><ele></ele><time>2017-9-18T23:49:20Z</time></trkpt>
<trkpt lat="48.443155" lon="2.669463"><ele></ele><time>2017-9-18T23:49:23Z</time></trkpt>
<trkpt lat="48.443098" lon="2.669393"><ele></ele><time>2017-9-18T23:49:26Z</time></trkpt>
<trkpt lat="48.443025" lon="2.669362"><ele></ele><time>2017-9-18T23:49:29Z</time></trkpt>
<trkpt lat="48.442973" lon="2.669328"><ele></ele><time>2017-9-18T23:49:32Z</time></trkpt>
<trkpt lat="48.442913" lon="2.669335"><ele></ele><time>2017-9-18T23:49:35Z</time></trkpt>
<trkpt lat="48.442855" lon="2.669362"><ele></ele><time>2017-9-18T23:49:38Z</time></trkpt>
<trkpt lat="48.442788" lon="2.669385"><ele></ele><time>2017-9-18T23:49:41Z</time></trkpt>
<trkpt lat="48.44271" lon="2.6694"><ele></ele><time>2017-9-18T23:49:44Z</time></trkpt>
<trkpt lat="48.442628" lon="2.669395"><ele></ele><time>2017-9-18T23:49:47Z</time></trkpt>
<trkpt lat="48.442557" lon="2.6694"><ele></ele><time>2017-9-18T23:49:50Z</time></trkpt>
<trkpt lat="48.442478" lon="2.669395"><ele></ele><time>2017-9-18T23:49:53Z</time></trkpt>
<trkpt lat="48.442397" lon="2.669368"><ele></ele><time>2017-9-18T23:49:56Z</time></trkpt>
<trkpt lat="48.442312" lon="2.669325"><ele></ele><time>2017-9-18T23:49:59Z</time></trkpt>
<trkpt lat="48.442235" lon="2.669273"><ele></ele><time>2017-9-18T23:50:2Z</time></trkpt>
<trkpt lat="48.442162" lon="2.669282"><ele></ele><time>2017-9-18T23:50:5Z</time></trkpt>
<trkpt lat="48.442085" lon="2.669253"><ele></ele><time>2017-9-18T23:50:8Z</time></trkpt>
<trkpt lat="48.442003" lon="2.669218"><ele></ele><time>2017-9-18T23:50:11Z</time></trkpt>
<trkpt lat="48.441947" lon="2.669155"><ele></ele><time>2017-9-18T23:50:14Z</time></trkpt>
<trkpt lat="48.44189" lon="2.669092"><ele></ele><time>2017-9-18T23:50:17Z</time></trkpt>
<trkpt lat="48.44187" lon="2.669082"><ele></ele><time>2017-9-18T23:50:20Z</time></trkpt>
<trkpt lat="48.441762" lon="2.66901"><ele></ele><time>2017-9-18T23:50:23Z</time></trkpt>
<trkpt lat="48.441695" lon="2.668973"><ele></ele><time>2017-9-18T23:50:26Z</time></trkpt>
<trkpt lat="48.44163" lon="2.668935"><ele></ele><time>2017-9-18T23:50:29Z</time></trkpt>
<trkpt lat="48.44157" lon="2.668905"><ele></ele><time>2017-9-18T23:50:32Z</time></trkpt>
<trkpt lat="48.441513" lon="2.66887"><ele></ele><time>2017-9-18T23:50:35Z</time></trkpt>
<trkpt lat="48.441465" lon="2.668828"><ele></ele><time>2017-9-18T23:50:38Z</time></trkpt>
<trkpt lat="48.441423" lon="2.668768"><ele></ele><time>2017-9-18T23:50:41Z</time></trkpt>
<trkpt lat="48.441408" lon="2.668638"><ele></ele><time>2017-9-18T23:50:44Z</time></trkpt>
<trkpt lat="48.441472" lon="2.66858"><ele></ele><time>2017-9-18T23:50:47Z</time></trkpt>
<trkpt lat="48.44154" lon="2.66856"><ele></ele><time>2017-9-18T23:50:50Z</time></trkpt>
<trkpt lat="48.441573" lon="2.668438"><ele></ele><time>2017-9-18T23:50:53Z</time></trkpt>
<trkpt lat="48.441582" lon="2.668317"><ele></ele><time>2017-9-18T23:50:56Z</time></trkpt>
<trkpt lat="48.441563" lon="2.6682"><ele></ele><time>2017-9-18T23:50:59Z</time></trkpt>
<trkpt lat="48.44156" lon="2.66811"><ele></ele><time>2017-9-18T23:51:2Z</time></trkpt>
<trkpt lat="48.44155" lon="2.668018"><ele></ele><time>2017-9-18T23:51:5Z</time></trkpt>
<trkpt lat="48.441548" lon="2.66793"><ele></ele><time>2017-9-18T23:51:8Z</time></trkpt>
<trkpt lat="48.44155" lon="2.667835"><ele></ele><time>2017-9-18T23:51:11Z</time></trkpt>
<trkpt lat="48.441552" lon="2.667737"><ele></ele><time>2017-9-18T23:51:14Z</time></trkpt>
<trkpt lat="48.441548" lon="2.667643"><ele></ele><time>2017-9-18T23:51:17Z</time></trkpt>
<trkpt lat="48.441542" lon="2.667508"><ele></ele><time>2017-9-18T23:51:20Z</time></trkpt>
<trkpt lat="48.441538" lon="2.66746"><ele></ele><time>2017-9-18T23:51:23Z</time></trkpt>
<trkpt lat="48.44153" lon="2.667317"><ele></ele><time>2017-9-18T23:51:26Z</time></trkpt>
<trkpt lat="48.441528" lon="2.667185"><ele></ele><time>2017-9-18T23:51:29Z</time></trkpt>
<trkpt lat="48.44152" lon="2.667072"><ele></ele><time>2017-9-18T23:51:32Z</time></trkpt>
<trkpt lat="48.441517" lon="2.66694"><ele></ele><time>2017-9-18T23:51:35Z</time></trkpt>
<trkpt lat="48.441512" lon="2.666852"><ele></ele><time>2017-9-18T23:51:38Z</time></trkpt>
<trkpt lat="48.441512" lon="2.666803"><ele></ele><time>2017-9-18T23:51:41Z</time></trkpt>
<trkpt lat="48.44151" lon="2.666703"><ele></ele><time>2017-9-18T23:51:44Z</time></trkpt>
<trkpt lat="48.441512" lon="2.66659"><ele></ele><time>2017-9-18T23:51:47Z</time></trkpt>
<trkpt lat="48.44151" lon="2.666465"><ele></ele><time>2017-9-18T23:51:50Z</time></trkpt>
<trkpt lat="48.441508" lon="2.666393"><ele></ele><time>2017-9-18T23:51:53Z</time></trkpt>
<trkpt lat="48.441505" lon="2.666318"><ele></ele><time>2017-9-18T23:51:56Z</time></trkpt>
<trkpt lat="48.441502" lon="2.666242"><ele></ele><time>2017-9-18T23:51:59Z</time></trkpt>
<trkpt lat="48.441505" lon="2.666153"><ele></ele><time>2017-9-18T23:52:2Z</time></trkpt>
<trkpt lat="48.441498" lon="2.666065"><ele></ele><time>2017-9-18T23:52:5Z</time></trkpt>
<trkpt lat="48.4415" lon="2.665972"><ele></ele><time>2017-9-18T23:52:8Z</time></trkpt>
<trkpt lat="48.4415" lon="2.665877"><ele></ele><time>2017-9-18T23:52:11Z</time></trkpt>
<trkpt lat="48.4415" lon="2.665783"><ele></ele><time>2017-9-18T23:52:14Z</time></trkpt>
<trkpt lat="48.441498" lon="2.665687"><ele></ele><time>2017-9-18T23:52:17Z</time></trkpt>
<trkpt lat="48.441498" lon="2.66559"><ele></ele><time>2017-9-18T23:52:20Z</time></trkpt>
<trkpt lat="48.441497" lon="2.665505"><ele></ele><time>2017-9-18T23:52:23Z</time></trkpt>
<trkpt lat="48.441497" lon="2.665428"><ele></ele><time>2017-9-18T23:52:26Z</time></trkpt>
<trkpt lat="48.4415" lon="2.665353"><ele></ele><time>2017-9-18T23:52:29Z</time></trkpt>
<trkpt lat="48.441503" lon="2.66529"><ele></ele><time>2017-9-18T23:52:32Z</time></trkpt>
<trkpt lat="48.441505" lon="2.665215"><ele></ele><time>2017-9-18T23:52:35Z</time></trkpt>
<trkpt lat="48.44151" lon="2.665142"><ele></ele><time>2017-9-18T23:52:38Z</time></trkpt>
<trkpt lat="48.441515" lon="2.66507"><ele></ele><time>2017-9-18T23:52:41Z</time></trkpt>
<trkpt lat="48.441523" lon="2.664933"><ele></ele><time>2017-9-18T23:52:44Z</time></trkpt>
<trkpt lat="48.441532" lon="2.664867"><ele></ele><time>2017-9-18T23:52:47Z</time></trkpt>
<trkpt lat="48.441538" lon="2.664788"><ele></ele><time>2017-9-18T23:52:50Z</time></trkpt>
<trkpt lat="48.441543" lon="2.664708"><ele></ele><time>2017-9-18T23:52:53Z</time></trkpt>
<trkpt lat="48.441553" lon="2.664637"><ele></ele><time>2017-9-18T23:52:56Z</time></trkpt>
<trkpt lat="48.441558" lon="2.66456"><ele></ele><time>2017-9-18T23:52:59Z</time></trkpt>
<trkpt lat="48.441565" lon="2.664483"><ele></ele><time>2017-9-18T23:53:2Z</time></trkpt>
<trkpt lat="48.441565" lon="2.66439"><ele></ele><time>2017-9-18T23:53:5Z</time></trkpt>
<trkpt lat="48.44157" lon="2.664297"><ele></ele><time>2017-9-18T23:53:8Z</time></trkpt>
<trkpt lat="48.44158" lon="2.664205"><ele></ele><time>2017-9-18T23:53:11Z</time></trkpt>
<trkpt lat="48.441595" lon="2.664123"><ele></ele><time>2017-9-18T23:53:14Z</time></trkpt>
<trkpt lat="48.44161" lon="2.664038"><ele></ele><time>2017-9-18T23:53:17Z</time></trkpt>
<trkpt lat="48.441615" lon="2.663937"><ele></ele><time>2017-9-18T23:53:20Z</time></trkpt>
<trkpt lat="48.441627" lon="2.663852"><ele></ele><time>2017-9-18T23:53:23Z</time></trkpt>
<trkpt lat="48.441657" lon="2.663765"><ele></ele><time>2017-9-18T23:53:26Z</time></trkpt>
<trkpt lat="48.44167" lon="2.663685"><ele></ele><time>2017-9-18T23:53:29Z</time></trkpt>
<trkpt lat="48.441687" lon="2.663617"><ele></ele><time>2017-9-18T23:53:32Z</time></trkpt>
<trkpt lat="48.4417" lon="2.663505"><ele></ele><time>2017-9-18T23:53:35Z</time></trkpt>
<trkpt lat="48.441718" lon="2.663308"><ele></ele><time>2017-9-18T23:53:38Z</time></trkpt>
<trkpt lat="48.441728" lon="2.663217"><ele></ele><time>2017-9-18T23:53:41Z</time></trkpt>
<trkpt lat="48.441732" lon="2.663117"><ele></ele><time>2017-9-18T23:53:44Z</time></trkpt>
<trkpt lat="48.441738" lon="2.663027"><ele></ele><time>2017-9-18T23:53:47Z</time></trkpt>
<trkpt lat="48.441747" lon="2.662928"><ele></ele><time>2017-9-18T23:53:50Z</time></trkpt>
<trkpt lat="48.441757" lon="2.662825"><ele></ele><time>2017-9-18T23:53:53Z</time></trkpt>
<trkpt lat="48.441765" lon="2.662725"><ele></ele><time>2017-9-18T23:53:56Z</time></trkpt>
<trkpt lat="48.441778" lon="2.662628"><ele></ele><time>2017-9-18T23:53:59Z</time></trkpt>
<trkpt lat="48.441793" lon="2.662533"><ele></ele><time>2017-9-18T23:54:2Z</time></trkpt>
<trkpt lat="48.441803" lon="2.662437"><ele></ele><time>2017-9-18T23:54:5Z</time></trkpt>
<trkpt lat="48.441817" lon="2.662342"><ele></ele><time>2017-9-18T23:54:8Z</time></trkpt>
<trkpt lat="48.44183" lon="2.662243"><ele></ele><time>2017-9-18T23:54:11Z</time></trkpt>
<trkpt lat="48.441843" lon="2.662152"><ele></ele><time>2017-9-18T23:54:14Z</time></trkpt>
<trkpt lat="48.441845" lon="2.662052"><ele></ele><time>2017-9-18T23:54:17Z</time></trkpt>
<trkpt lat="48.441848" lon="2.661952"><ele></ele><time>2017-9-18T23:54:20Z</time></trkpt>
<trkpt lat="48.441862" lon="2.661855"><ele></ele><time>2017-9-18T23:54:23Z</time></trkpt>
<trkpt lat="48.441865" lon="2.661752"><ele></ele><time>2017-9-18T23:54:26Z</time></trkpt>
<trkpt lat="48.44187" lon="2.661647"><ele></ele><time>2017-9-18T23:54:29Z</time></trkpt>
<trkpt lat="48.441888" lon="2.661453"><ele></ele><time>2017-9-18T23:54:32Z</time></trkpt>
<trkpt lat="48.441898" lon="2.661358"><ele></ele><time>2017-9-18T23:54:35Z</time></trkpt>
<trkpt lat="48.441905" lon="2.661263"><ele></ele><time>2017-9-18T23:54:38Z</time></trkpt>
<trkpt lat="48.441913" lon="2.66117"><ele></ele><time>2017-9-18T23:54:41Z</time></trkpt>
<trkpt lat="48.441922" lon="2.661078"><ele></ele><time>2017-9-18T23:54:44Z</time></trkpt>
<trkpt lat="48.441923" lon="2.660987"><ele></ele><time>2017-9-18T23:54:47Z</time></trkpt>
<trkpt lat="48.441925" lon="2.660903"><ele></ele><time>2017-9-18T23:54:50Z</time></trkpt>
<trkpt lat="48.441933" lon="2.66082"><ele></ele><time>2017-9-18T23:54:53Z</time></trkpt>
<trkpt lat="48.44194" lon="2.660733"><ele></ele><time>2017-9-18T23:54:56Z</time></trkpt>
<trkpt lat="48.44195" lon="2.660652"><ele></ele><time>2017-9-18T23:54:59Z</time></trkpt>
<trkpt lat="48.441958" lon="2.660563"><ele></ele><time>2017-9-18T23:55:2Z</time></trkpt>
<trkpt lat="48.441962" lon="2.660467"><ele></ele><time>2017-9-18T23:55:5Z</time></trkpt>
<trkpt lat="48.441968" lon="2.660382"><ele></ele><time>2017-9-18T23:55:8Z</time></trkpt>
<trkpt lat="48.441973" lon="2.660295"><ele></ele><time>2017-9-18T23:55:11Z</time></trkpt>
<trkpt lat="48.441982" lon="2.660212"><ele></ele><time>2017-9-18T23:55:14Z</time></trkpt>
<trkpt lat="48.441988" lon="2.66012"><ele></ele><time>2017-9-18T23:55:17Z</time></trkpt>
<trkpt lat="48.441998" lon="2.660037"><ele></ele><time>2017-9-18T23:55:20Z</time></trkpt>
<trkpt lat="48.442012" lon="2.65996"><ele></ele><time>2017-9-18T23:55:23Z</time></trkpt>
<trkpt lat="48.442022" lon="2.65988"><ele></ele><time>2017-9-18T23:55:26Z</time></trkpt>
<trkpt lat="48.442032" lon="2.659803"><ele></ele><time>2017-9-18T23:55:29Z</time></trkpt>
<trkpt lat="48.442037" lon="2.659718"><ele></ele><time>2017-9-18T23:55:32Z</time></trkpt>
<trkpt lat="48.442045" lon="2.659643"><ele></ele><time>2017-9-18T23:55:35Z</time></trkpt>
<trkpt lat="48.442055" lon="2.659575"><ele></ele><time>2017-9-18T23:55:38Z</time></trkpt>
<trkpt lat="48.442065" lon="2.659442"><ele></ele><time>2017-9-18T23:55:41Z</time></trkpt>
<trkpt lat="48.44207" lon="2.659375"><ele></ele><time>2017-9-18T23:55:44Z</time></trkpt>
<trkpt lat="48.442088" lon="2.659243"><ele></ele><time>2017-9-18T23:55:47Z</time></trkpt>
<trkpt lat="48.442137" lon="2.659105"><ele></ele><time>2017-9-18T23:55:50Z</time></trkpt>
<trkpt lat="48.44217" lon="2.65898"><ele></ele><time>2017-9-18T23:55:53Z</time></trkpt>
<trkpt lat="48.442195" lon="2.658923"><ele></ele><time>2017-9-18T23:55:56Z</time></trkpt>
<trkpt lat="48.442217" lon="2.658862"><ele></ele><time>2017-9-18T23:55:59Z</time></trkpt>
<trkpt lat="48.442233" lon="2.65879"><ele></ele><time>2017-9-18T23:56:2Z</time></trkpt>
<trkpt lat="48.44225" lon="2.65872"><ele></ele><time>2017-9-18T23:56:5Z</time></trkpt>
<trkpt lat="48.442278" lon="2.658652"><ele></ele><time>2017-9-18T23:56:8Z</time></trkpt>
<trkpt lat="48.442298" lon="2.65859"><ele></ele><time>2017-9-18T23:56:11Z</time></trkpt>
<trkpt lat="48.442313" lon="2.65852"><ele></ele><time>2017-9-18T23:56:14Z</time></trkpt>
<trkpt lat="48.442333" lon="2.658457"><ele></ele><time>2017-9-18T23:56:17Z</time></trkpt>
<trkpt lat="48.442352" lon="2.658393"><ele></ele><time>2017-9-18T23:56:20Z</time></trkpt>
<trkpt lat="48.442388" lon="2.658272"><ele></ele><time>2017-9-18T23:56:23Z</time></trkpt>
<trkpt lat="48.442437" lon="2.658163"><ele></ele><time>2017-9-18T23:56:26Z</time></trkpt>
<trkpt lat="48.442457" lon="2.658108"><ele></ele><time>2017-9-18T23:56:29Z</time></trkpt>
<trkpt lat="48.442488" lon="2.657975"><ele></ele><time>2017-9-18T23:56:32Z</time></trkpt>
<trkpt lat="48.4425" lon="2.657903"><ele></ele><time>2017-9-18T23:56:35Z</time></trkpt>
<trkpt lat="48.44251" lon="2.657825"><ele></ele><time>2017-9-18T23:56:38Z</time></trkpt>
<trkpt lat="48.442532" lon="2.657752"><ele></ele><time>2017-9-18T23:56:41Z</time></trkpt>
<trkpt lat="48.442555" lon="2.657682"><ele></ele><time>2017-9-18T23:56:44Z</time></trkpt>
<trkpt lat="48.442577" lon="2.657612"><ele></ele><time>2017-9-18T23:56:47Z</time></trkpt>
<trkpt lat="48.442622" lon="2.657482"><ele></ele><time>2017-9-18T23:56:50Z</time></trkpt>
<trkpt lat="48.442663" lon="2.657347"><ele></ele><time>2017-9-18T23:56:53Z</time></trkpt>
<trkpt lat="48.442683" lon="2.657278"><ele></ele><time>2017-9-18T23:56:56Z</time></trkpt>
<trkpt lat="48.442703" lon="2.65721"><ele></ele><time>2017-9-18T23:56:59Z</time></trkpt>
<trkpt lat="48.442722" lon="2.657142"><ele></ele><time>2017-9-18T23:57:2Z</time></trkpt>
<trkpt lat="48.442742" lon="2.657075"><ele></ele><time>2017-9-18T23:57:5Z</time></trkpt>
<trkpt lat="48.442763" lon="2.657012"><ele></ele><time>2017-9-18T23:57:8Z</time></trkpt>
<trkpt lat="48.442785" lon="2.656947"><ele></ele><time>2017-9-18T23:57:11Z</time></trkpt>
<trkpt lat="48.442807" lon="2.656882"><ele></ele><time>2017-9-18T23:57:14Z</time></trkpt>
<trkpt lat="48.442842" lon="2.656758"><ele></ele><time>2017-9-18T23:57:17Z</time></trkpt>
<trkpt lat="48.442877" lon="2.65664"><ele></ele><time>2017-9-18T23:57:20Z</time></trkpt>
<trkpt lat="48.442898" lon="2.656577"><ele></ele><time>2017-9-18T23:57:23Z</time></trkpt>
<trkpt lat="48.44292" lon="2.656517"><ele></ele><time>2017-9-18T23:57:26Z</time></trkpt>
<trkpt lat="48.442938" lon="2.656455"><ele></ele><time>2017-9-18T23:57:29Z</time></trkpt>
<trkpt lat="48.442955" lon="2.65639"><ele></ele><time>2017-9-18T23:57:32Z</time></trkpt>
<trkpt lat="48.442993" lon="2.656268"><ele></ele><time>2017-9-18T23:57:35Z</time></trkpt>
<trkpt lat="48.443018" lon="2.656132"><ele></ele><time>2017-9-18T23:57:38Z</time></trkpt>
<trkpt lat="48.443058" lon="2.656005"><ele></ele><time>2017-9-18T23:57:41Z</time></trkpt>
<trkpt lat="48.443102" lon="2.655878"><ele></ele><time>2017-9-18T23:57:44Z</time></trkpt>
<trkpt lat="48.44314" lon="2.655748"><ele></ele><time>2017-9-18T23:57:47Z</time></trkpt>
<trkpt lat="48.443175" lon="2.655618"><ele></ele><time>2017-9-18T23:57:50Z</time></trkpt>
<trkpt lat="48.443193" lon="2.655553"><ele></ele><time>2017-9-18T23:57:53Z</time></trkpt>
<trkpt lat="48.44321" lon="2.655487"><ele></ele><time>2017-9-18T23:57:56Z</time></trkpt>
<trkpt lat="48.443222" lon="2.655417"><ele></ele><time>2017-9-18T23:57:59Z</time></trkpt>
<trkpt lat="48.443237" lon="2.655345"><ele></ele><time>2017-9-18T23:58:2Z</time></trkpt>
<trkpt lat="48.443233" lon="2.65517"><ele></ele><time>2017-9-18T23:58:5Z</time></trkpt>
<trkpt lat="48.443233" lon="2.654992"><ele></ele><time>2017-9-18T23:58:8Z</time></trkpt>
<trkpt lat="48.443237" lon="2.654907"><ele></ele><time>2017-9-18T23:58:11Z</time></trkpt>
<trkpt lat="48.443242" lon="2.654822"><ele></ele><time>2017-9-18T23:58:14Z</time></trkpt>
<trkpt lat="48.443253" lon="2.654742"><ele></ele><time>2017-9-18T23:58:17Z</time></trkpt>
<trkpt lat="48.443265" lon="2.654665"><ele></ele><time>2017-9-18T23:58:20Z</time></trkpt>
<trkpt lat="48.443275" lon="2.654592"><ele></ele><time>2017-9-18T23:58:23Z</time></trkpt>
<trkpt lat="48.443295" lon="2.654518"><ele></ele><time>2017-9-18T23:58:26Z</time></trkpt>
<trkpt lat="48.443302" lon="2.654442"><ele></ele><time>2017-9-18T23:58:29Z</time></trkpt>
<trkpt lat="48.443307" lon="2.65436"><ele></ele><time>2017-9-18T23:58:32Z</time></trkpt>
<trkpt lat="48.44331" lon="2.654277"><ele></ele><time>2017-9-18T23:58:35Z</time></trkpt>
<trkpt lat="48.443318" lon="2.654202"><ele></ele><time>2017-9-18T23:58:38Z</time></trkpt>
<trkpt lat="48.443333" lon="2.654127"><ele></ele><time>2017-9-18T23:58:41Z</time></trkpt>
<trkpt lat="48.443348" lon="2.654053"><ele></ele><time>2017-9-18T23:58:44Z</time></trkpt>
<trkpt lat="48.443365" lon="2.653982"><ele></ele><time>2017-9-18T23:58:47Z</time></trkpt>
<trkpt lat="48.443378" lon="2.653915"><ele></ele><time>2017-9-18T23:58:50Z</time></trkpt>
<trkpt lat="48.443392" lon="2.65385"><ele></ele><time>2017-9-18T23:58:53Z</time></trkpt>
<trkpt lat="48.44342" lon="2.653722"><ele></ele><time>2017-9-18T23:58:56Z</time></trkpt>
<trkpt lat="48.44343" lon="2.653658"><ele></ele><time>2017-9-18T23:58:59Z</time></trkpt>
<trkpt lat="48.443442" lon="2.65359"><ele></ele><time>2017-9-18T23:59:2Z</time></trkpt>
<trkpt lat="48.443453" lon="2.65352"><ele></ele><time>2017-9-18T23:59:5Z</time></trkpt>
<trkpt lat="48.443463" lon="2.653452"><ele></ele><time>2017-9-18T23:59:8Z</time></trkpt>
<trkpt lat="48.443475" lon="2.653383"><ele></ele><time>2017-9-18T23:59:11Z</time></trkpt>
<trkpt lat="48.443487" lon="2.653318"><ele></ele><time>2017-9-18T23:59:14Z</time></trkpt>
<trkpt lat="48.443495" lon="2.653248"><ele></ele><time>2017-9-18T23:59:17Z</time></trkpt>
<trkpt lat="48.443503" lon="2.653182"><ele></ele><time>2017-9-18T23:59:20Z</time></trkpt>
<trkpt lat="48.443513" lon="2.653115"><ele></ele><time>2017-9-18T23:59:23Z</time></trkpt>
<trkpt lat="48.443515" lon="2.653035"><ele></ele><time>2017-9-18T23:59:26Z</time></trkpt>
<trkpt lat="48.44352" lon="2.652962"><ele></ele><time>2017-9-18T23:59:29Z</time></trkpt>
<trkpt lat="48.443525" lon="2.652888"><ele></ele><time>2017-9-18T23:59:32Z</time></trkpt>
<trkpt lat="48.443535" lon="2.652818"><ele></ele><time>2017-9-18T23:59:35Z</time></trkpt>
<trkpt lat="48.443553" lon="2.652752"><ele></ele><time>2017-9-18T23:59:38Z</time></trkpt>
<trkpt lat="48.443573" lon="2.652682"><ele></ele><time>2017-9-18T23:59:41Z</time></trkpt>
<trkpt lat="48.443592" lon="2.652617"><ele></ele><time>2017-9-18T23:59:44Z</time></trkpt>
<trkpt lat="48.443623" lon="2.652495"><ele></ele><time>2017-9-18T23:59:47Z</time></trkpt>
<trkpt lat="48.443637" lon="2.652427"><ele></ele><time>2017-9-18T23:59:50Z</time></trkpt>
<trkpt lat="48.443653" lon="2.652362"><ele></ele><time>2017-9-18T23:59:53Z</time></trkpt>
<trkpt lat="48.443685" lon="2.652227"><ele></ele><time>2017-9-18T23:59:56Z</time></trkpt>
<trkpt lat="48.443717" lon="2.652083"><ele></ele><time>2017-9-18T23:59:59Z</time></trkpt>
<trkpt lat="48.443752" lon="2.651947"><ele></ele><time>2017-9-19T0:0:2Z</time></trkpt>
<trkpt lat="48.44378" lon="2.651808"><ele></ele><time>2017-9-19T0:0:5Z</time></trkpt>
<trkpt lat="48.443822" lon="2.651683"><ele></ele><time>2017-9-19T0:0:8Z</time></trkpt>
<trkpt lat="48.443863" lon="2.651565"><ele></ele><time>2017-9-19T0:0:11Z</time></trkpt>
<trkpt lat="48.443885" lon="2.651435"><ele></ele><time>2017-9-19T0:0:14Z</time></trkpt>
<trkpt lat="48.443905" lon="2.65131"><ele></ele><time>2017-9-19T0:0:17Z</time></trkpt>
<trkpt lat="48.443915" lon="2.651178"><ele></ele><time>2017-9-19T0:0:20Z</time></trkpt>
<trkpt lat="48.44392" lon="2.651047"><ele></ele><time>2017-9-19T0:0:23Z</time></trkpt>
<trkpt lat="48.443932" lon="2.650917"><ele></ele><time>2017-9-19T0:0:26Z</time></trkpt>
<trkpt lat="48.44394" lon="2.65079"><ele></ele><time>2017-9-19T0:0:29Z</time></trkpt>
<trkpt lat="48.44395" lon="2.650663"><ele></ele><time>2017-9-19T0:0:32Z</time></trkpt>
<trkpt lat="48.443982" lon="2.65054"><ele></ele><time>2017-9-19T0:0:35Z</time></trkpt>
<trkpt lat="48.444003" lon="2.65042"><ele></ele><time>2017-9-19T0:0:38Z</time></trkpt>
<trkpt lat="48.44403" lon="2.650303"><ele></ele><time>2017-9-19T0:0:41Z</time></trkpt>
<trkpt lat="48.444047" lon="2.650183"><ele></ele><time>2017-9-19T0:0:44Z</time></trkpt>
<trkpt lat="48.444065" lon="2.650062"><ele></ele><time>2017-9-19T0:0:47Z</time></trkpt>
<trkpt lat="48.44409" lon="2.649942"><ele></ele><time>2017-9-19T0:0:50Z</time></trkpt>
<trkpt lat="48.444108" lon="2.649887"><ele></ele><time>2017-9-19T0:0:53Z</time></trkpt>
<trkpt lat="48.444137" lon="2.649758"><ele></ele><time>2017-9-19T0:0:56Z</time></trkpt>
<trkpt lat="48.444165" lon="2.6497"><ele></ele><time>2017-9-19T0:0:59Z</time></trkpt>
<trkpt lat="48.444207" lon="2.64959"><ele></ele><time>2017-9-19T0:1:2Z</time></trkpt>
<trkpt lat="48.444247" lon="2.649477"><ele></ele><time>2017-9-19T0:1:5Z</time></trkpt>
<trkpt lat="48.44429" lon="2.649367"><ele></ele><time>2017-9-19T0:1:8Z</time></trkpt>
<trkpt lat="48.444307" lon="2.649302"><ele></ele><time>2017-9-19T0:1:11Z</time></trkpt>
<trkpt lat="48.444312" lon="2.649228"><ele></ele><time>2017-9-19T0:1:14Z</time></trkpt>
<trkpt lat="48.444313" lon="2.649155"><ele></ele><time>2017-9-19T0:1:17Z</time></trkpt>
<trkpt lat="48.444345" lon="2.649043"><ele></ele><time>2017-9-19T0:1:20Z</time></trkpt>
<trkpt lat="48.444393" lon="2.64895"><ele></ele><time>2017-9-19T0:1:23Z</time></trkpt>
<trkpt lat="48.444433" lon="2.648863"><ele></ele><time>2017-9-19T0:1:26Z</time></trkpt>
<trkpt lat="48.444467" lon="2.64878"><ele></ele><time>2017-9-19T0:1:29Z</time></trkpt>
<trkpt lat="48.444475" lon="2.648665"><ele></ele><time>2017-9-19T0:1:32Z</time></trkpt>
<trkpt lat="48.444475" lon="2.648537"><ele></ele><time>2017-9-19T0:1:35Z</time></trkpt>
<trkpt lat="48.444467" lon="2.6484"><ele></ele><time>2017-9-19T0:1:38Z</time></trkpt>
<trkpt lat="48.444465" lon="2.648263"><ele></ele><time>2017-9-19T0:1:41Z</time></trkpt>
<trkpt lat="48.444458" lon="2.648137"><ele></ele><time>2017-9-19T0:1:44Z</time></trkpt>
<trkpt lat="48.444452" lon="2.648028"><ele></ele><time>2017-9-19T0:1:47Z</time></trkpt>
<trkpt lat="48.44444" lon="2.647907"><ele></ele><time>2017-9-19T0:1:50Z</time></trkpt>
<trkpt lat="48.44444" lon="2.647787"><ele></ele><time>2017-9-19T0:1:53Z</time></trkpt>
<trkpt lat="48.444437" lon="2.647658"><ele></ele><time>2017-9-19T0:1:56Z</time></trkpt>
<trkpt lat="48.444435" lon="2.64753"><ele></ele><time>2017-9-19T0:1:59Z</time></trkpt>
<trkpt lat="48.444432" lon="2.647405"><ele></ele><time>2017-9-19T0:2:2Z</time></trkpt>
<trkpt lat="48.444433" lon="2.64729"><ele></ele><time>2017-9-19T0:2:5Z</time></trkpt>
<trkpt lat="48.444455" lon="2.6472"><ele></ele><time>2017-9-19T0:2:8Z</time></trkpt>
<trkpt lat="48.444507" lon="2.64709"><ele></ele><time>2017-9-19T0:2:11Z</time></trkpt>
<trkpt lat="48.44455" lon="2.646983"><ele></ele><time>2017-9-19T0:2:14Z</time></trkpt>
<trkpt lat="48.44458" lon="2.64689"><ele></ele><time>2017-9-19T0:2:17Z</time></trkpt>
<trkpt lat="48.44461" lon="2.646792"><ele></ele><time>2017-9-19T0:2:20Z</time></trkpt>
<trkpt lat="48.444652" lon="2.64671"><ele></ele><time>2017-9-19T0:2:23Z</time></trkpt>
<trkpt lat="48.444663" lon="2.64668"><ele></ele><time>2017-9-19T0:2:26Z</time></trkpt>
<trkpt lat="48.444725" lon="2.646517"><ele></ele><time>2017-9-19T0:2:29Z</time></trkpt>
<trkpt lat="48.444763" lon="2.646403"><ele></ele><time>2017-9-19T0:2:32Z</time></trkpt>
<trkpt lat="48.44479" lon="2.64632"><ele></ele><time>2017-9-19T0:2:35Z</time></trkpt>
<trkpt lat="48.444818" lon="2.646237"><ele></ele><time>2017-9-19T0:2:38Z</time></trkpt>
<trkpt lat="48.444843" lon="2.646155"><ele></ele><time>2017-9-19T0:2:41Z</time></trkpt>
<trkpt lat="48.44487" lon="2.646072"><ele></ele><time>2017-9-19T0:2:44Z</time></trkpt>
<trkpt lat="48.444893" lon="2.645978"><ele></ele><time>2017-9-19T0:2:47Z</time></trkpt>
<trkpt lat="48.44492" lon="2.64588"><ele></ele><time>2017-9-19T0:2:50Z</time></trkpt>
<trkpt lat="48.44495" lon="2.64578"><ele></ele><time>2017-9-19T0:2:53Z</time></trkpt>
<trkpt lat="48.444977" lon="2.64567"><ele></ele><time>2017-9-19T0:2:56Z</time></trkpt>
<trkpt lat="48.44499" lon="2.64561"><ele></ele><time>2017-9-19T0:2:59Z</time></trkpt>
<trkpt lat="48.445012" lon="2.645493"><ele></ele><time>2017-9-19T0:3:2Z</time></trkpt>
<trkpt lat="48.44498" lon="2.645313"><ele></ele><time>2017-9-19T0:3:5Z</time></trkpt>
<trkpt lat="48.444975" lon="2.645165"><ele></ele><time>2017-9-19T0:3:8Z</time></trkpt>
<trkpt lat="48.44499" lon="2.645032"><ele></ele><time>2017-9-19T0:3:11Z</time></trkpt>
<trkpt lat="48.44501" lon="2.644897"><ele></ele><time>2017-9-19T0:3:14Z</time></trkpt>
<trkpt lat="48.445035" lon="2.644765"><ele></ele><time>2017-9-19T0:3:17Z</time></trkpt>
<trkpt lat="48.445058" lon="2.644637"><ele></ele><time>2017-9-19T0:3:20Z</time></trkpt>
<trkpt lat="48.445092" lon="2.644513"><ele></ele><time>2017-9-19T0:3:23Z</time></trkpt>
<trkpt lat="48.445133" lon="2.644395"><ele></ele><time>2017-9-19T0:3:26Z</time></trkpt>
<trkpt lat="48.445162" lon="2.644343"><ele></ele><time>2017-9-19T0:3:29Z</time></trkpt>
<trkpt lat="48.445188" lon="2.644285"><ele></ele><time>2017-9-19T0:3:32Z</time></trkpt>
<trkpt lat="48.445217" lon="2.644223"><ele></ele><time>2017-9-19T0:3:35Z</time></trkpt>
<trkpt lat="48.445243" lon="2.644158"><ele></ele><time>2017-9-19T0:3:38Z</time></trkpt>
<trkpt lat="48.445272" lon="2.644093"><ele></ele><time>2017-9-19T0:3:41Z</time></trkpt>
<trkpt lat="48.4453" lon="2.644027"><ele></ele><time>2017-9-19T0:3:44Z</time></trkpt>
<trkpt lat="48.44533" lon="2.64396"><ele></ele><time>2017-9-19T0:3:47Z</time></trkpt>
<trkpt lat="48.44536" lon="2.643895"><ele></ele><time>2017-9-19T0:3:50Z</time></trkpt>
<trkpt lat="48.44539" lon="2.643827"><ele></ele><time>2017-9-19T0:3:53Z</time></trkpt>
<trkpt lat="48.445413" lon="2.643747"><ele></ele><time>2017-9-19T0:3:56Z</time></trkpt>
<trkpt lat="48.445423" lon="2.643658"><ele></ele><time>2017-9-19T0:3:59Z</time></trkpt>
<trkpt lat="48.445428" lon="2.643568"><ele></ele><time>2017-9-19T0:4:2Z</time></trkpt>
<trkpt lat="48.445435" lon="2.643483"><ele></ele><time>2017-9-19T0:4:5Z</time></trkpt>
<trkpt lat="48.445433" lon="2.643398"><ele></ele><time>2017-9-19T0:4:8Z</time></trkpt>
<trkpt lat="48.445442" lon="2.643318"><ele></ele><time>2017-9-19T0:4:11Z</time></trkpt>
<trkpt lat="48.44544" lon="2.64324"><ele></ele><time>2017-9-19T0:4:14Z</time></trkpt>
<trkpt lat="48.44544" lon="2.64316"><ele></ele><time>2017-9-19T0:4:17Z</time></trkpt>
<trkpt lat="48.445435" lon="2.643082"><ele></ele><time>2017-9-19T0:4:20Z</time></trkpt>
<trkpt lat="48.445427" lon="2.642998"><ele></ele><time>2017-9-19T0:4:23Z</time></trkpt>
<trkpt lat="48.445422" lon="2.64292"><ele></ele><time>2017-9-19T0:4:26Z</time></trkpt>
<trkpt lat="48.445418" lon="2.642843"><ele></ele><time>2017-9-19T0:4:29Z</time></trkpt>
<trkpt lat="48.445417" lon="2.642767"><ele></ele><time>2017-9-19T0:4:32Z</time></trkpt>
<trkpt lat="48.44542" lon="2.642697"><ele></ele><time>2017-9-19T0:4:35Z</time></trkpt>
<trkpt lat="48.44543" lon="2.64263"><ele></ele><time>2017-9-19T0:4:38Z</time></trkpt>
<trkpt lat="48.44544" lon="2.64256"><ele></ele><time>2017-9-19T0:4:41Z</time></trkpt>
<trkpt lat="48.445452" lon="2.642492"><ele></ele><time>2017-9-19T0:4:44Z</time></trkpt>
<trkpt lat="48.445462" lon="2.642418"><ele></ele><time>2017-9-19T0:4:47Z</time></trkpt>
<trkpt lat="48.44548" lon="2.64235"><ele></ele><time>2017-9-19T0:4:50Z</time></trkpt>
<trkpt lat="48.445502" lon="2.642227"><ele></ele><time>2017-9-19T0:4:53Z</time></trkpt>
<trkpt lat="48.445495" lon="2.6421"><ele></ele><time>2017-9-19T0:4:56Z</time></trkpt>
<trkpt lat="48.445485" lon="2.642022"><ele></ele><time>2017-9-19T0:4:59Z</time></trkpt>
<trkpt lat="48.445478" lon="2.641948"><ele></ele><time>2017-9-19T0:5:2Z</time></trkpt>
<trkpt lat="48.445482" lon="2.641872"><ele></ele><time>2017-9-19T0:5:5Z</time></trkpt>
<trkpt lat="48.445492" lon="2.641802"><ele></ele><time>2017-9-19T0:5:8Z</time></trkpt>
<trkpt lat="48.445503" lon="2.641728"><ele></ele><time>2017-9-19T0:5:11Z</time></trkpt>
<trkpt lat="48.44553" lon="2.64158"><ele></ele><time>2017-9-19T0:5:14Z</time></trkpt>
<trkpt lat="48.445557" lon="2.64144"><ele></ele><time>2017-9-19T0:5:17Z</time></trkpt>
<trkpt lat="48.44558" lon="2.6413"><ele></ele><time>2017-9-19T0:5:20Z</time></trkpt>
<trkpt lat="48.445617" lon="2.641172"><ele></ele><time>2017-9-19T0:5:23Z</time></trkpt>
<trkpt lat="48.445665" lon="2.641052"><ele></ele><time>2017-9-19T0:5:26Z</time></trkpt>
<trkpt lat="48.445705" lon="2.640923"><ele></ele><time>2017-9-19T0:5:29Z</time></trkpt>
<trkpt lat="48.445735" lon="2.640785"><ele></ele><time>2017-9-19T0:5:32Z</time></trkpt>
<trkpt lat="48.44575" lon="2.640712"><ele></ele><time>2017-9-19T0:5:35Z</time></trkpt>
<trkpt lat="48.445765" lon="2.64064"><ele></ele><time>2017-9-19T0:5:38Z</time></trkpt>
<trkpt lat="48.445778" lon="2.640572"><ele></ele><time>2017-9-19T0:5:41Z</time></trkpt>
<trkpt lat="48.445793" lon="2.640505"><ele></ele><time>2017-9-19T0:5:44Z</time></trkpt>
<trkpt lat="48.445805" lon="2.640438"><ele></ele><time>2017-9-19T0:5:47Z</time></trkpt>
<trkpt lat="48.445817" lon="2.64037"><ele></ele><time>2017-9-19T0:5:50Z</time></trkpt>
<trkpt lat="48.445827" lon="2.640302"><ele></ele><time>2017-9-19T0:5:53Z</time></trkpt>
<trkpt lat="48.445838" lon="2.640235"><ele></ele><time>2017-9-19T0:5:56Z</time></trkpt>
<trkpt lat="48.445848" lon="2.640168"><ele></ele><time>2017-9-19T0:5:59Z</time></trkpt>
<trkpt lat="48.445858" lon="2.640098"><ele></ele><time>2017-9-19T0:6:2Z</time></trkpt>
<trkpt lat="48.44587" lon="2.64003"><ele></ele><time>2017-9-19T0:6:5Z</time></trkpt>
<trkpt lat="48.445887" lon="2.639962"><ele></ele><time>2017-9-19T0:6:8Z</time></trkpt>
<trkpt lat="48.445903" lon="2.639892"><ele></ele><time>2017-9-19T0:6:11Z</time></trkpt>
<trkpt lat="48.445918" lon="2.639827"><ele></ele><time>2017-9-19T0:6:14Z</time></trkpt>
<trkpt lat="48.445943" lon="2.639697"><ele></ele><time>2017-9-19T0:6:17Z</time></trkpt>
<trkpt lat="48.445953" lon="2.639632"><ele></ele><time>2017-9-19T0:6:20Z</time></trkpt>
<trkpt lat="48.445963" lon="2.639563"><ele></ele><time>2017-9-19T0:6:23Z</time></trkpt>
<trkpt lat="48.445975" lon="2.639497"><ele></ele><time>2017-9-19T0:6:26Z</time></trkpt>
<trkpt lat="48.445988" lon="2.63943"><ele></ele><time>2017-9-19T0:6:29Z</time></trkpt>
<trkpt lat="48.446002" lon="2.639365"><ele></ele><time>2017-9-19T0:6:32Z</time></trkpt>
<trkpt lat="48.446025" lon="2.639245"><ele></ele><time>2017-9-19T0:6:35Z</time></trkpt>
<trkpt lat="48.44605" lon="2.639127"><ele></ele><time>2017-9-19T0:6:38Z</time></trkpt>
<trkpt lat="48.446072" lon="2.638997"><ele></ele><time>2017-9-19T0:6:41Z</time></trkpt>
<trkpt lat="48.446098" lon="2.638868"><ele></ele><time>2017-9-19T0:6:44Z</time></trkpt>
<trkpt lat="48.446113" lon="2.638802"><ele></ele><time>2017-9-19T0:6:47Z</time></trkpt>
<trkpt lat="48.446125" lon="2.638732"><ele></ele><time>2017-9-19T0:6:50Z</time></trkpt>
<trkpt lat="48.446145" lon="2.63859"><ele></ele><time>2017-9-19T0:6:53Z</time></trkpt>
<trkpt lat="48.446153" lon="2.638433"><ele></ele><time>2017-9-19T0:6:56Z</time></trkpt>
<trkpt lat="48.446155" lon="2.638293"><ele></ele><time>2017-9-19T0:6:59Z</time></trkpt>
<trkpt lat="48.446152" lon="2.638177"><ele></ele><time>2017-9-19T0:7:2Z</time></trkpt>
<trkpt lat="48.44615" lon="2.63805"><ele></ele><time>2017-9-19T0:7:5Z</time></trkpt>
<trkpt lat="48.446167" lon="2.637952"><ele></ele><time>2017-9-19T0:7:8Z</time></trkpt>
<trkpt lat="48.44618" lon="2.63785"><ele></ele><time>2017-9-19T0:7:11Z</time></trkpt>
<trkpt lat="48.446152" lon="2.637745"><ele></ele><time>2017-9-19T0:7:14Z</time></trkpt>
<trkpt lat="48.446103" lon="2.637687"><ele></ele><time>2017-9-19T0:7:17Z</time></trkpt>
<trkpt lat="48.446043" lon="2.637627"><ele></ele><time>2017-9-19T0:7:20Z</time></trkpt>
<trkpt lat="48.445993" lon="2.637558"><ele></ele><time>2017-9-19T0:7:23Z</time></trkpt>
<trkpt lat="48.445948" lon="2.637488"><ele></ele><time>2017-9-19T0:7:26Z</time></trkpt>
<trkpt lat="48.44591" lon="2.637412"><ele></ele><time>2017-9-19T0:7:29Z</time></trkpt>
<trkpt lat="48.445848" lon="2.637385"><ele></ele><time>2017-9-19T0:7:32Z</time></trkpt>
<trkpt lat="48.44578" lon="2.637408"><ele></ele><time>2017-9-19T0:7:35Z</time></trkpt>
<trkpt lat="48.445708" lon="2.637424"><ele></ele><time>2017-9-19T0:7:38Z</time></trkpt>
<trkpt lat="48.445635" lon="2.637433"><ele></ele><time>2017-9-19T0:7:41Z</time></trkpt>
<trkpt lat="48.44556" lon="2.637443"><ele></ele><time>2017-9-19T0:7:44Z</time></trkpt>
<trkpt lat="48.445452" lon="2.63744"><ele></ele><time>2017-9-19T0:7:47Z</time></trkpt>
<trkpt lat="48.445402" lon="2.63733"><ele></ele><time>2017-9-19T0:7:50Z</time></trkpt>
<trkpt lat="48.445317" lon="2.637372"><ele></ele><time>2017-9-19T0:7:53Z</time></trkpt>
<trkpt lat="48.445242" lon="2.637428"><ele></ele><time>2017-9-19T0:7:56Z</time></trkpt>
<trkpt lat="48.445195" lon="2.637352"><ele></ele><time>2017-9-19T0:7:59Z</time></trkpt>
<trkpt lat="48.445198" lon="2.63722"><ele></ele><time>2017-9-19T0:8:2Z</time></trkpt>
<trkpt lat="48.445213" lon="2.63713"><ele></ele><time>2017-9-19T0:8:5Z</time></trkpt>
<trkpt lat="48.445227" lon="2.637087"><ele></ele><time>2017-9-19T0:8:8Z</time></trkpt>
<trkpt lat="48.445275" lon="2.636953"><ele></ele><time>2017-9-19T0:8:11Z</time></trkpt>
<trkpt lat="48.445313" lon="2.636865"><ele></ele><time>2017-9-19T0:8:14Z</time></trkpt>
<trkpt lat="48.44536" lon="2.636798"><ele></ele><time>2017-9-19T0:8:17Z</time></trkpt>
<trkpt lat="48.445417" lon="2.636755"><ele></ele><time>2017-9-19T0:8:20Z</time></trkpt>
<trkpt lat="48.445495" lon="2.636733"><ele></ele><time>2017-9-19T0:8:23Z</time></trkpt>
<trkpt lat="48.445437" lon="2.636697"><ele></ele><time>2017-9-19T0:8:26Z</time></trkpt>
<trkpt lat="48.445388" lon="2.636698"><ele></ele><time>2017-9-19T0:8:29Z</time></trkpt>
<trkpt lat="48.445343" lon="2.636663"><ele></ele><time>2017-9-19T0:8:32Z</time></trkpt>
<trkpt lat="48.445285" lon="2.636568"><ele></ele><time>2017-9-19T0:8:35Z</time></trkpt>
<trkpt lat="48.445245" lon="2.636492"><ele></ele><time>2017-9-19T0:8:38Z</time></trkpt>
<trkpt lat="48.445213" lon="2.636402"><ele></ele><time>2017-9-19T0:8:41Z</time></trkpt>
<trkpt lat="48.445183" lon="2.636302"><ele></ele><time>2017-9-19T0:8:44Z</time></trkpt>
<trkpt lat="48.445148" lon="2.636203"><ele></ele><time>2017-9-19T0:8:47Z</time></trkpt>
<trkpt lat="48.445107" lon="2.636108"><ele></ele><time>2017-9-19T0:8:50Z</time></trkpt>
<trkpt lat="48.445063" lon="2.636005"><ele></ele><time>2017-9-19T0:8:53Z</time></trkpt>
<trkpt lat="48.44502" lon="2.635895"><ele></ele><time>2017-9-19T0:8:56Z</time></trkpt>
<trkpt lat="48.444983" lon="2.635792"><ele></ele><time>2017-9-19T0:8:59Z</time></trkpt>
<trkpt lat="48.444948" lon="2.63569"><ele></ele><time>2017-9-19T0:9:2Z</time></trkpt>
<trkpt lat="48.444917" lon="2.635593"><ele></ele><time>2017-9-19T0:9:5Z</time></trkpt>
<trkpt lat="48.44488" lon="2.635498"><ele></ele><time>2017-9-19T0:9:8Z</time></trkpt>
<trkpt lat="48.444845" lon="2.635407"><ele></ele><time>2017-9-19T0:9:11Z</time></trkpt>
<trkpt lat="48.444807" lon="2.635308"><ele></ele><time>2017-9-19T0:9:14Z</time></trkpt>
<trkpt lat="48.444765" lon="2.635207"><ele></ele><time>2017-9-19T0:9:17Z</time></trkpt>
<trkpt lat="48.444725" lon="2.635097"><ele></ele><time>2017-9-19T0:9:20Z</time></trkpt>
<trkpt lat="48.444693" lon="2.634998"><ele></ele><time>2017-9-19T0:9:23Z</time></trkpt>
<trkpt lat="48.444657" lon="2.634893"><ele></ele><time>2017-9-19T0:9:26Z</time></trkpt>
<trkpt lat="48.444615" lon="2.634783"><ele></ele><time>2017-9-19T0:9:29Z</time></trkpt>
<trkpt lat="48.444575" lon="2.634687"><ele></ele><time>2017-9-19T0:9:32Z</time></trkpt>
<trkpt lat="48.444535" lon="2.634587"><ele></ele><time>2017-9-19T0:9:35Z</time></trkpt>
<trkpt lat="48.444498" lon="2.634478"><ele></ele><time>2017-9-19T0:9:38Z</time></trkpt>
<trkpt lat="48.444467" lon="2.634378"><ele></ele><time>2017-9-19T0:9:41Z</time></trkpt>
<trkpt lat="48.444435" lon="2.634275"><ele></ele><time>2017-9-19T0:9:44Z</time></trkpt>
<trkpt lat="48.444402" lon="2.634158"><ele></ele><time>2017-9-19T0:9:47Z</time></trkpt>
<trkpt lat="48.444373" lon="2.634045"><ele></ele><time>2017-9-19T0:9:50Z</time></trkpt>
<trkpt lat="48.444347" lon="2.633938"><ele></ele><time>2017-9-19T0:9:53Z</time></trkpt>
<trkpt lat="48.44432" lon="2.633827"><ele></ele><time>2017-9-19T0:9:56Z</time></trkpt>
<trkpt lat="48.444293" lon="2.63371"><ele></ele><time>2017-9-19T0:9:59Z</time></trkpt>
<trkpt lat="48.444265" lon="2.63359"><ele></ele><time>2017-9-19T0:10:2Z</time></trkpt>
<trkpt lat="48.44424" lon="2.633468"><ele></ele><time>2017-9-19T0:10:5Z</time></trkpt>
<trkpt lat="48.444218" lon="2.633398"><ele></ele><time>2017-9-19T0:10:8Z</time></trkpt>
<trkpt lat="48.444188" lon="2.633277"><ele></ele><time>2017-9-19T0:10:11Z</time></trkpt>
<trkpt lat="48.444173" lon="2.63321"><ele></ele><time>2017-9-19T0:10:14Z</time></trkpt>
<trkpt lat="48.44416" lon="2.63314"><ele></ele><time>2017-9-19T0:10:17Z</time></trkpt>
<trkpt lat="48.444148" lon="2.63307"><ele></ele><time>2017-9-19T0:10:20Z</time></trkpt>
<trkpt lat="48.444138" lon="2.633"><ele></ele><time>2017-9-19T0:10:23Z</time></trkpt>
<trkpt lat="48.444127" lon="2.632932"><ele></ele><time>2017-9-19T0:10:26Z</time></trkpt>
<trkpt lat="48.444113" lon="2.632867"><ele></ele><time>2017-9-19T0:10:29Z</time></trkpt>
<trkpt lat="48.444085" lon="2.63274"><ele></ele><time>2017-9-19T0:10:32Z</time></trkpt>
<trkpt lat="48.444057" lon="2.632612"><ele></ele><time>2017-9-19T0:10:35Z</time></trkpt>
<trkpt lat="48.444042" lon="2.63255"><ele></ele><time>2017-9-19T0:10:38Z</time></trkpt>
<trkpt lat="48.444025" lon="2.632483"><ele></ele><time>2017-9-19T0:10:41Z</time></trkpt>
<trkpt lat="48.444007" lon="2.632413"><ele></ele><time>2017-9-19T0:10:44Z</time></trkpt>
<trkpt lat="48.443982" lon="2.632287"><ele></ele><time>2017-9-19T0:10:47Z</time></trkpt>
<trkpt lat="48.443957" lon="2.632165"><ele></ele><time>2017-9-19T0:10:50Z</time></trkpt>
<trkpt lat="48.443927" lon="2.632052"><ele></ele><time>2017-9-19T0:10:53Z</time></trkpt>
<trkpt lat="48.443895" lon="2.63193"><ele></ele><time>2017-9-19T0:10:56Z</time></trkpt>
<trkpt lat="48.443867" lon="2.631865"><ele></ele><time>2017-9-19T0:10:59Z</time></trkpt>
<trkpt lat="48.443837" lon="2.631797"><ele></ele><time>2017-9-19T0:11:2Z</time></trkpt>
<trkpt lat="48.44381" lon="2.63173"><ele></ele><time>2017-9-19T0:11:5Z</time></trkpt>
<trkpt lat="48.443785" lon="2.63166"><ele></ele><time>2017-9-19T0:11:8Z</time></trkpt>
<trkpt lat="48.443748" lon="2.631538"><ele></ele><time>2017-9-19T0:11:11Z</time></trkpt>
<trkpt lat="48.443707" lon="2.631425"><ele></ele><time>2017-9-19T0:11:14Z</time></trkpt>
<trkpt lat="48.443685" lon="2.631368"><ele></ele><time>2017-9-19T0:11:17Z</time></trkpt>
<trkpt lat="48.443657" lon="2.631305"><ele></ele><time>2017-9-19T0:11:20Z</time></trkpt>
<trkpt lat="48.443633" lon="2.631243"><ele></ele><time>2017-9-19T0:11:23Z</time></trkpt>
<trkpt lat="48.443588" lon="2.63112"><ele></ele><time>2017-9-19T0:11:26Z</time></trkpt>
<trkpt lat="48.443547" lon="2.630992"><ele></ele><time>2017-9-19T0:11:29Z</time></trkpt>
<trkpt lat="48.443505" lon="2.630872"><ele></ele><time>2017-9-19T0:11:32Z</time></trkpt>
<trkpt lat="48.443463" lon="2.630757"><ele></ele><time>2017-9-19T0:11:35Z</time></trkpt>
<trkpt lat="48.443413" lon="2.630635"><ele></ele><time>2017-9-19T0:11:38Z</time></trkpt>
<trkpt lat="48.443355" lon="2.63052"><ele></ele><time>2017-9-19T0:11:41Z</time></trkpt>
<trkpt lat="48.443325" lon="2.630463"><ele></ele><time>2017-9-19T0:11:44Z</time></trkpt>
<trkpt lat="48.443293" lon="2.63041"><ele></ele><time>2017-9-19T0:11:47Z</time></trkpt>
<trkpt lat="48.443258" lon="2.63036"><ele></ele><time>2017-9-19T0:11:50Z</time></trkpt>
<trkpt lat="48.443222" lon="2.630308"><ele></ele><time>2017-9-19T0:11:53Z</time></trkpt>
<trkpt lat="48.443182" lon="2.630258"><ele></ele><time>2017-9-19T0:11:56Z</time></trkpt>
<trkpt lat="48.443142" lon="2.630208"><ele></ele><time>2017-9-19T0:11:59Z</time></trkpt>
<trkpt lat="48.443107" lon="2.63016"><ele></ele><time>2017-9-19T0:12:2Z</time></trkpt>
<trkpt lat="48.44307" lon="2.630112"><ele></ele><time>2017-9-19T0:12:5Z</time></trkpt>
<trkpt lat="48.44303" lon="2.630055"><ele></ele><time>2017-9-19T0:12:8Z</time></trkpt>
<trkpt lat="48.442995" lon="2.630003"><ele></ele><time>2017-9-19T0:12:11Z</time></trkpt>
<trkpt lat="48.442963" lon="2.629947"><ele></ele><time>2017-9-19T0:12:14Z</time></trkpt>
<trkpt lat="48.442932" lon="2.629892"><ele></ele><time>2017-9-19T0:12:17Z</time></trkpt>
<trkpt lat="48.442902" lon="2.629837"><ele></ele><time>2017-9-19T0:12:20Z</time></trkpt>
<trkpt lat="48.442843" lon="2.62974"><ele></ele><time>2017-9-19T0:12:23Z</time></trkpt>
<trkpt lat="48.442788" lon="2.629653"><ele></ele><time>2017-9-19T0:12:26Z</time></trkpt>
<trkpt lat="48.442737" lon="2.629562"><ele></ele><time>2017-9-19T0:12:29Z</time></trkpt>
<trkpt lat="48.44271" lon="2.629507"><ele></ele><time>2017-9-19T0:12:32Z</time></trkpt>
<trkpt lat="48.442683" lon="2.629448"><ele></ele><time>2017-9-19T0:12:35Z</time></trkpt>
<trkpt lat="48.442655" lon="2.62939"><ele></ele><time>2017-9-19T0:12:38Z</time></trkpt>
<trkpt lat="48.44263" lon="2.629332"><ele></ele><time>2017-9-19T0:12:41Z</time></trkpt>
<trkpt lat="48.44261" lon="2.62927"><ele></ele><time>2017-9-19T0:12:44Z</time></trkpt>
<trkpt lat="48.44259" lon="2.629208"><ele></ele><time>2017-9-19T0:12:47Z</time></trkpt>
<trkpt lat="48.442552" lon="2.629087"><ele></ele><time>2017-9-19T0:12:50Z</time></trkpt>
<trkpt lat="48.442522" lon="2.628967"><ele></ele><time>2017-9-19T0:12:53Z</time></trkpt>
<trkpt lat="48.4425" lon="2.628897"><ele></ele><time>2017-9-19T0:12:56Z</time></trkpt>
<trkpt lat="48.442478" lon="2.628832"><ele></ele><time>2017-9-19T0:12:59Z</time></trkpt>
<trkpt lat="48.442442" lon="2.62871"><ele></ele><time>2017-9-19T0:13:2Z</time></trkpt>
<trkpt lat="48.442415" lon="2.62862"><ele></ele><time>2017-9-19T0:13:5Z</time></trkpt>
<trkpt lat="48.442392" lon="2.628493"><ele></ele><time>2017-9-19T0:13:8Z</time></trkpt>
<trkpt lat="48.442357" lon="2.628378"><ele></ele><time>2017-9-19T0:13:11Z</time></trkpt>
<trkpt lat="48.442345" lon="2.628305"><ele></ele><time>2017-9-19T0:13:14Z</time></trkpt>
<trkpt lat="48.442333" lon="2.628227"><ele></ele><time>2017-9-19T0:13:17Z</time></trkpt>
<trkpt lat="48.44232" lon="2.628153"><ele></ele><time>2017-9-19T0:13:20Z</time></trkpt>
<trkpt lat="48.442303" lon="2.62808"><ele></ele><time>2017-9-19T0:13:23Z</time></trkpt>
<trkpt lat="48.442285" lon="2.628017"><ele></ele><time>2017-9-19T0:13:26Z</time></trkpt>
<trkpt lat="48.44226" lon="2.627942"><ele></ele><time>2017-9-19T0:13:29Z</time></trkpt>
<trkpt lat="48.442228" lon="2.62785"><ele></ele><time>2017-9-19T0:13:32Z</time></trkpt>
<trkpt lat="48.442197" lon="2.62774"><ele></ele><time>2017-9-19T0:13:35Z</time></trkpt>
<trkpt lat="48.44216" lon="2.627617"><ele></ele><time>2017-9-19T0:13:38Z</time></trkpt>
<trkpt lat="48.442118" lon="2.627498"><ele></ele><time>2017-9-19T0:13:41Z</time></trkpt>
<trkpt lat="48.442072" lon="2.627387"><ele></ele><time>2017-9-19T0:13:44Z</time></trkpt>
<trkpt lat="48.442047" lon="2.627323"><ele></ele><time>2017-9-19T0:13:47Z</time></trkpt>
<trkpt lat="48.442027" lon="2.627263"><ele></ele><time>2017-9-19T0:13:50Z</time></trkpt>
<trkpt lat="48.442005" lon="2.627198"><ele></ele><time>2017-9-19T0:13:53Z</time></trkpt>
<trkpt lat="48.44197" lon="2.627078"><ele></ele><time>2017-9-19T0:13:56Z</time></trkpt>
<trkpt lat="48.441933" lon="2.626962"><ele></ele><time>2017-9-19T0:13:59Z</time></trkpt>
<trkpt lat="48.441913" lon="2.626895"><ele></ele><time>2017-9-19T0:14:2Z</time></trkpt>
<trkpt lat="48.44189" lon="2.626827"><ele></ele><time>2017-9-19T0:14:5Z</time></trkpt>
<trkpt lat="48.44187" lon="2.626765"><ele></ele><time>2017-9-19T0:14:8Z</time></trkpt>
<trkpt lat="48.441847" lon="2.626698"><ele></ele><time>2017-9-19T0:14:11Z</time></trkpt>
<trkpt lat="48.441822" lon="2.626632"><ele></ele><time>2017-9-19T0:14:14Z</time></trkpt>
<trkpt lat="48.441783" lon="2.626518"><ele></ele><time>2017-9-19T0:14:17Z</time></trkpt>
<trkpt lat="48.44174" lon="2.626402"><ele></ele><time>2017-9-19T0:14:20Z</time></trkpt>
<trkpt lat="48.4417" lon="2.626282"><ele></ele><time>2017-9-19T0:14:23Z</time></trkpt>
<trkpt lat="48.441662" lon="2.626167"><ele></ele><time>2017-9-19T0:14:26Z</time></trkpt>
<trkpt lat="48.441618" lon="2.626055"><ele></ele><time>2017-9-19T0:14:29Z</time></trkpt>
<trkpt lat="48.441597" lon="2.625998"><ele></ele><time>2017-9-19T0:14:32Z</time></trkpt>
<trkpt lat="48.44155" lon="2.625883"><ele></ele><time>2017-9-19T0:14:35Z</time></trkpt>
<trkpt lat="48.441513" lon="2.62578"><ele></ele><time>2017-9-19T0:14:38Z</time></trkpt>
<trkpt lat="48.441477" lon="2.625668"><ele></ele><time>2017-9-19T0:14:41Z</time></trkpt>
<trkpt lat="48.441453" lon="2.625607"><ele></ele><time>2017-9-19T0:14:44Z</time></trkpt>
<trkpt lat="48.441432" lon="2.625548"><ele></ele><time>2017-9-19T0:14:47Z</time></trkpt>
<trkpt lat="48.441385" lon="2.625427"><ele></ele><time>2017-9-19T0:14:50Z</time></trkpt>
<trkpt lat="48.441343" lon="2.625312"><ele></ele><time>2017-9-19T0:14:53Z</time></trkpt>
<trkpt lat="48.441305" lon="2.625198"><ele></ele><time>2017-9-19T0:14:56Z</time></trkpt>
<trkpt lat="48.441268" lon="2.625085"><ele></ele><time>2017-9-19T0:14:59Z</time></trkpt>
<trkpt lat="48.441232" lon="2.624992"><ele></ele><time>2017-9-19T0:15:2Z</time></trkpt>
<trkpt lat="48.441202" lon="2.624882"><ele></ele><time>2017-9-19T0:15:5Z</time></trkpt>
<trkpt lat="48.441165" lon="2.624775"><ele></ele><time>2017-9-19T0:15:8Z</time></trkpt>
<trkpt lat="48.44113" lon="2.624677"><ele></ele><time>2017-9-19T0:15:11Z</time></trkpt>
<trkpt lat="48.441105" lon="2.624625"><ele></ele><time>2017-9-19T0:15:14Z</time></trkpt>
<trkpt lat="48.441038" lon="2.6245"><ele></ele><time>2017-9-19T0:15:17Z</time></trkpt>
<trkpt lat="48.440985" lon="2.624398"><ele></ele><time>2017-9-19T0:15:20Z</time></trkpt>
<trkpt lat="48.440923" lon="2.624358"><ele></ele><time>2017-9-19T0:15:23Z</time></trkpt>
<trkpt lat="48.440862" lon="2.62432"><ele></ele><time>2017-9-19T0:15:26Z</time></trkpt>
<trkpt lat="48.44081" lon="2.624268"><ele></ele><time>2017-9-19T0:15:29Z</time></trkpt>
<trkpt lat="48.440758" lon="2.62417"><ele></ele><time>2017-9-19T0:15:32Z</time></trkpt>
<trkpt lat="48.440762" lon="2.624063"><ele></ele><time>2017-9-19T0:15:35Z</time></trkpt>
<trkpt lat="48.440792" lon="2.623978"><ele></ele><time>2017-9-19T0:15:38Z</time></trkpt>
<trkpt lat="48.440822" lon="2.623887"><ele></ele><time>2017-9-19T0:15:41Z</time></trkpt>
<trkpt lat="48.440838" lon="2.623773"><ele></ele><time>2017-9-19T0:15:44Z</time></trkpt>
<trkpt lat="48.44087" lon="2.623675"><ele></ele><time>2017-9-19T0:15:47Z</time></trkpt>
<trkpt lat="48.440907" lon="2.623588"><ele></ele><time>2017-9-19T0:15:50Z</time></trkpt>
<trkpt lat="48.440928" lon="2.623492"><ele></ele><time>2017-9-19T0:15:53Z</time></trkpt>
<trkpt lat="48.440947" lon="2.623392"><ele></ele><time>2017-9-19T0:15:56Z</time></trkpt>
<trkpt lat="48.440973" lon="2.6233"><ele></ele><time>2017-9-19T0:15:59Z</time></trkpt>
<trkpt lat="48.440993" lon="2.623197"><ele></ele><time>2017-9-19T0:16:2Z</time></trkpt>
<trkpt lat="48.441007" lon="2.62307"><ele></ele><time>2017-9-19T0:16:5Z</time></trkpt>
<trkpt lat="48.441008" lon="2.622998"><ele></ele><time>2017-9-19T0:16:8Z</time></trkpt>
<trkpt lat="48.441017" lon="2.62292"><ele></ele><time>2017-9-19T0:16:11Z</time></trkpt>
<trkpt lat="48.44102" lon="2.622845"><ele></ele><time>2017-9-19T0:16:14Z</time></trkpt>
<trkpt lat="48.44104" lon="2.622713"><ele></ele><time>2017-9-19T0:16:17Z</time></trkpt>
<trkpt lat="48.44105" lon="2.622603"><ele></ele><time>2017-9-19T0:16:20Z</time></trkpt>
<trkpt lat="48.44108" lon="2.622515"><ele></ele><time>2017-9-19T0:16:23Z</time></trkpt>
<trkpt lat="48.441103" lon="2.622415"><ele></ele><time>2017-9-19T0:16:26Z</time></trkpt>
<trkpt lat="48.441118" lon="2.622292"><ele></ele><time>2017-9-19T0:16:29Z</time></trkpt>
<trkpt lat="48.441142" lon="2.622217"><ele></ele><time>2017-9-19T0:16:32Z</time></trkpt>
<trkpt lat="48.441155" lon="2.622117"><ele></ele><time>2017-9-19T0:16:35Z</time></trkpt>
<trkpt lat="48.441182" lon="2.622008"><ele></ele><time>2017-9-19T0:16:38Z</time></trkpt>
<trkpt lat="48.441203" lon="2.62189"><ele></ele><time>2017-9-19T0:16:41Z</time></trkpt>
<trkpt lat="48.44122" lon="2.621838"><ele></ele><time>2017-9-19T0:16:44Z</time></trkpt>
<trkpt lat="48.441252" lon="2.621673"><ele></ele><time>2017-9-19T0:16:47Z</time></trkpt>
<trkpt lat="48.441252" lon="2.621548"><ele></ele><time>2017-9-19T0:16:50Z</time></trkpt>
<trkpt lat="48.441257" lon="2.621417"><ele></ele><time>2017-9-19T0:16:53Z</time></trkpt>
<trkpt lat="48.44126" lon="2.621352"><ele></ele><time>2017-9-19T0:16:56Z</time></trkpt>
<trkpt lat="48.441287" lon="2.621263"><ele></ele><time>2017-9-19T0:16:59Z</time></trkpt>
<trkpt lat="48.441305" lon="2.621172"><ele></ele><time>2017-9-19T0:17:2Z</time></trkpt>
<trkpt lat="48.441323" lon="2.62109"><ele></ele><time>2017-9-19T0:17:5Z</time></trkpt>
<trkpt lat="48.441327" lon="2.620987"><ele></ele><time>2017-9-19T0:17:8Z</time></trkpt>
<trkpt lat="48.441338" lon="2.62088"><ele></ele><time>2017-9-19T0:17:11Z</time></trkpt>
<trkpt lat="48.441368" lon="2.620782"><ele></ele><time>2017-9-19T0:17:14Z</time></trkpt>
<trkpt lat="48.441382" lon="2.62066"><ele></ele><time>2017-9-19T0:17:17Z</time></trkpt>
<trkpt lat="48.441398" lon="2.620548"><ele></ele><time>2017-9-19T0:17:20Z</time></trkpt>
<trkpt lat="48.441427" lon="2.620452"><ele></ele><time>2017-9-19T0:17:23Z</time></trkpt>
<trkpt lat="48.441452" lon="2.620337"><ele></ele><time>2017-9-19T0:17:26Z</time></trkpt>
<trkpt lat="48.441465" lon="2.620228"><ele></ele><time>2017-9-19T0:17:29Z</time></trkpt>
<trkpt lat="48.441478" lon="2.620112"><ele></ele><time>2017-9-19T0:17:32Z</time></trkpt>
<trkpt lat="48.441493" lon="2.62001"><ele></ele><time>2017-9-19T0:17:35Z</time></trkpt>
<trkpt lat="48.441527" lon="2.61989"><ele></ele><time>2017-9-19T0:17:38Z</time></trkpt>
<trkpt lat="48.44155" lon="2.619792"><ele></ele><time>2017-9-19T0:17:41Z</time></trkpt>
<trkpt lat="48.441575" lon="2.619692"><ele></ele><time>2017-9-19T0:17:44Z</time></trkpt>
<trkpt lat="48.441602" lon="2.619577"><ele></ele><time>2017-9-19T0:17:47Z</time></trkpt>
<trkpt lat="48.441622" lon="2.619455"><ele></ele><time>2017-9-19T0:17:50Z</time></trkpt>
<trkpt lat="48.441632" lon="2.619345"><ele></ele><time>2017-9-19T0:17:53Z</time></trkpt>
<trkpt lat="48.441647" lon="2.619243"><ele></ele><time>2017-9-19T0:17:56Z</time></trkpt>
<trkpt lat="48.44167" lon="2.619133"><ele></ele><time>2017-9-19T0:17:59Z</time></trkpt>
<trkpt lat="48.441685" lon="2.619032"><ele></ele><time>2017-9-19T0:18:2Z</time></trkpt>
<trkpt lat="48.441712" lon="2.618923"><ele></ele><time>2017-9-19T0:18:5Z</time></trkpt>
<trkpt lat="48.441733" lon="2.618797"><ele></ele><time>2017-9-19T0:18:8Z</time></trkpt>
<trkpt lat="48.44176" lon="2.618672"><ele></ele><time>2017-9-19T0:18:11Z</time></trkpt>
<trkpt lat="48.441777" lon="2.618563"><ele></ele><time>2017-9-19T0:18:14Z</time></trkpt>
<trkpt lat="48.441778" lon="2.61851"><ele></ele><time>2017-9-19T0:18:17Z</time></trkpt>
<trkpt lat="48.441805" lon="2.618342"><ele></ele><time>2017-9-19T0:18:20Z</time></trkpt>
<trkpt lat="48.441818" lon="2.618252"><ele></ele><time>2017-9-19T0:18:23Z</time></trkpt>
<trkpt lat="48.44183" lon="2.618158"><ele></ele><time>2017-9-19T0:18:26Z</time></trkpt>
<trkpt lat="48.441838" lon="2.618068"><ele></ele><time>2017-9-19T0:18:29Z</time></trkpt>
<trkpt lat="48.441847" lon="2.617977"><ele></ele><time>2017-9-19T0:18:32Z</time></trkpt>
<trkpt lat="48.441867" lon="2.617905"><ele></ele><time>2017-9-19T0:18:35Z</time></trkpt>
<trkpt lat="48.441883" lon="2.617793"><ele></ele><time>2017-9-19T0:18:38Z</time></trkpt>
<trkpt lat="48.441802" lon="2.617777"><ele></ele><time>2017-9-19T0:18:41Z</time></trkpt>
<trkpt lat="48.441758" lon="2.61784"><ele></ele><time>2017-9-19T0:18:44Z</time></trkpt>
<trkpt lat="48.441703" lon="2.617898"><ele></ele><time>2017-9-19T0:18:47Z</time></trkpt>
<trkpt lat="48.44165" lon="2.617955"><ele></ele><time>2017-9-19T0:18:50Z</time></trkpt>
<trkpt lat="48.441568" lon="2.618008"><ele></ele><time>2017-9-19T0:18:53Z</time></trkpt>
<trkpt lat="48.441575" lon="2.617893"><ele></ele><time>2017-9-19T0:18:56Z</time></trkpt>
<trkpt lat="48.441602" lon="2.617775"><ele></ele><time>2017-9-19T0:18:59Z</time></trkpt>
<trkpt lat="48.441628" lon="2.617687"><ele></ele><time>2017-9-19T0:19:2Z</time></trkpt>
<trkpt lat="48.441642" lon="2.617597"><ele></ele><time>2017-9-19T0:19:5Z</time></trkpt>
<trkpt lat="48.44166" lon="2.617508"><ele></ele><time>2017-9-19T0:19:8Z</time></trkpt>
<trkpt lat="48.44168" lon="2.617418"><ele></ele><time>2017-9-19T0:19:11Z</time></trkpt>
<trkpt lat="48.4417" lon="2.61733"><ele></ele><time>2017-9-19T0:19:14Z</time></trkpt>
<trkpt lat="48.441725" lon="2.617238"><ele></ele><time>2017-9-19T0:19:17Z</time></trkpt>
<trkpt lat="48.441732" lon="2.617112"><ele></ele><time>2017-9-19T0:19:20Z</time></trkpt>
<trkpt lat="48.441735" lon="2.61706"><ele></ele><time>2017-9-19T0:19:23Z</time></trkpt>
<trkpt lat="48.441723" lon="2.616923"><ele></ele><time>2017-9-19T0:19:26Z</time></trkpt>
<trkpt lat="48.441703" lon="2.616833"><ele></ele><time>2017-9-19T0:19:29Z</time></trkpt>
<trkpt lat="48.441675" lon="2.616733"><ele></ele><time>2017-9-19T0:19:32Z</time></trkpt>
<trkpt lat="48.44164" lon="2.616645"><ele></ele><time>2017-9-19T0:19:35Z</time></trkpt>
<trkpt lat="48.441597" lon="2.61655"><ele></ele><time>2017-9-19T0:19:38Z</time></trkpt>
<trkpt lat="48.44156" lon="2.616463"><ele></ele><time>2017-9-19T0:19:41Z</time></trkpt>
<trkpt lat="48.441525" lon="2.61638"><ele></ele><time>2017-9-19T0:19:44Z</time></trkpt>
<trkpt lat="48.441508" lon="2.616337"><ele></ele><time>2017-9-19T0:19:47Z</time></trkpt>
<trkpt lat="48.441475" lon="2.616247"><ele></ele><time>2017-9-19T0:19:50Z</time></trkpt>
<trkpt lat="48.441448" lon="2.616172"><ele></ele><time>2017-9-19T0:19:53Z</time></trkpt>
<trkpt lat="48.441418" lon="2.616093"><ele></ele><time>2017-9-19T0:19:56Z</time></trkpt>
<trkpt lat="48.441412" lon="2.615968"><ele></ele><time>2017-9-19T0:19:59Z</time></trkpt>
<trkpt lat="48.441412" lon="2.615858"><ele></ele><time>2017-9-19T0:20:2Z</time></trkpt>
<trkpt lat="48.441397" lon="2.615785"><ele></ele><time>2017-9-19T0:20:5Z</time></trkpt>
<trkpt lat="48.44138" lon="2.61571"><ele></ele><time>2017-9-19T0:20:8Z</time></trkpt>
<trkpt lat="48.441363" lon="2.615595"><ele></ele><time>2017-9-19T0:20:11Z</time></trkpt>
<trkpt lat="48.441347" lon="2.615498"><ele></ele><time>2017-9-19T0:20:14Z</time></trkpt>
<trkpt lat="48.441325" lon="2.61541"><ele></ele><time>2017-9-19T0:20:17Z</time></trkpt>
<trkpt lat="48.441302" lon="2.61531"><ele></ele><time>2017-9-19T0:20:20Z</time></trkpt>
<trkpt lat="48.441287" lon="2.615193"><ele></ele><time>2017-9-19T0:20:23Z</time></trkpt>
<trkpt lat="48.441303" lon="2.6151"><ele></ele><time>2017-9-19T0:20:26Z</time></trkpt>
<trkpt lat="48.441307" lon="2.615013"><ele></ele><time>2017-9-19T0:20:29Z</time></trkpt>
<trkpt lat="48.441317" lon="2.614923"><ele></ele><time>2017-9-19T0:20:32Z</time></trkpt>
<trkpt lat="48.441333" lon="2.614835"><ele></ele><time>2017-9-19T0:20:35Z</time></trkpt>
<trkpt lat="48.441352" lon="2.614728"><ele></ele><time>2017-9-19T0:20:38Z</time></trkpt>
<trkpt lat="48.441385" lon="2.614617"><ele></ele><time>2017-9-19T0:20:41Z</time></trkpt>
<trkpt lat="48.441412" lon="2.614512"><ele></ele><time>2017-9-19T0:20:44Z</time></trkpt>
<trkpt lat="48.441428" lon="2.614418"><ele></ele><time>2017-9-19T0:20:47Z</time></trkpt>
<trkpt lat="48.441435" lon="2.614327"><ele></ele><time>2017-9-19T0:20:50Z</time></trkpt>
<trkpt lat="48.441432" lon="2.614225"><ele></ele><time>2017-9-19T0:20:53Z</time></trkpt>
<trkpt lat="48.441418" lon="2.614118"><ele></ele><time>2017-9-19T0:20:56Z</time></trkpt>
<trkpt lat="48.44142" lon="2.614067"><ele></ele><time>2017-9-19T0:20:59Z</time></trkpt>
<trkpt lat="48.441375" lon="2.613892"><ele></ele><time>2017-9-19T0:21:2Z</time></trkpt>
<trkpt lat="48.441295" lon="2.61383"><ele></ele><time>2017-9-19T0:21:5Z</time></trkpt>
<trkpt lat="48.441297" lon="2.613705"><ele></ele><time>2017-9-19T0:21:8Z</time></trkpt>
<trkpt lat="48.441298" lon="2.613682"><ele></ele><time>2017-9-19T0:21:11Z</time></trkpt>
<trkpt lat="48.44129" lon="2.61348"><ele></ele><time>2017-9-19T0:21:14Z</time></trkpt>
<trkpt lat="48.44131" lon="2.613362"><ele></ele><time>2017-9-19T0:21:17Z</time></trkpt>
<trkpt lat="48.441312" lon="2.61324"><ele></ele><time>2017-9-19T0:21:20Z</time></trkpt>
<trkpt lat="48.441235" lon="2.613198"><ele></ele><time>2017-9-19T0:21:23Z</time></trkpt>
<trkpt lat="48.441168" lon="2.613237"><ele></ele><time>2017-9-19T0:21:26Z</time></trkpt>
<trkpt lat="48.441057" lon="2.61329"><ele></ele><time>2017-9-19T0:21:29Z</time></trkpt>
<trkpt lat="48.440968" lon="2.613315"><ele></ele><time>2017-9-19T0:21:32Z</time></trkpt>
<trkpt lat="48.440892" lon="2.613348"><ele></ele><time>2017-9-19T0:21:35Z</time></trkpt>
<trkpt lat="48.440815" lon="2.613338"><ele></ele><time>2017-9-19T0:21:38Z</time></trkpt>
<trkpt lat="48.440738" lon="2.61336"><ele></ele><time>2017-9-19T0:21:41Z</time></trkpt>
<trkpt lat="48.440665" lon="2.613433"><ele></ele><time>2017-9-19T0:21:44Z</time></trkpt>
<trkpt lat="48.440652" lon="2.613448"><ele></ele><time>2017-9-19T0:21:47Z</time></trkpt>
<trkpt lat="48.44053" lon="2.613538"><ele></ele><time>2017-9-19T0:21:50Z</time></trkpt>
<trkpt lat="48.440448" lon="2.613585"><ele></ele><time>2017-9-19T0:21:53Z</time></trkpt>
<trkpt lat="48.440367" lon="2.613548"><ele></ele><time>2017-9-19T0:21:56Z</time></trkpt>
<trkpt lat="48.440282" lon="2.613542"><ele></ele><time>2017-9-19T0:21:59Z</time></trkpt>
<trkpt lat="48.44027" lon="2.613555"><ele></ele><time>2017-9-19T0:22:2Z</time></trkpt>
<trkpt lat="48.440127" lon="2.613518"><ele></ele><time>2017-9-19T0:22:5Z</time></trkpt>
<trkpt lat="48.440052" lon="2.613475"><ele></ele><time>2017-9-19T0:22:8Z</time></trkpt>
<trkpt lat="48.439975" lon="2.613422"><ele></ele><time>2017-9-19T0:22:11Z</time></trkpt>
<trkpt lat="48.439902" lon="2.613383"><ele></ele><time>2017-9-19T0:22:14Z</time></trkpt>
<trkpt lat="48.439838" lon="2.613328"><ele></ele><time>2017-9-19T0:22:17Z</time></trkpt>
<trkpt lat="48.439777" lon="2.613238"><ele></ele><time>2017-9-19T0:22:20Z</time></trkpt>
<trkpt lat="48.439757" lon="2.613118"><ele></ele><time>2017-9-19T0:22:23Z</time></trkpt>
<trkpt lat="48.439748" lon="2.612997"><ele></ele><time>2017-9-19T0:22:26Z</time></trkpt>
<trkpt lat="48.439733" lon="2.612907"><ele></ele><time>2017-9-19T0:22:29Z</time></trkpt>
<trkpt lat="48.439715" lon="2.61281"><ele></ele><time>2017-9-19T0:22:32Z</time></trkpt>
<trkpt lat="48.439697" lon="2.612707"><ele></ele><time>2017-9-19T0:22:35Z</time></trkpt>
<trkpt lat="48.439682" lon="2.612612"><ele></ele><time>2017-9-19T0:22:38Z</time></trkpt>
<trkpt lat="48.439673" lon="2.612515"><ele></ele><time>2017-9-19T0:22:41Z</time></trkpt>
<trkpt lat="48.439665" lon="2.612415"><ele></ele><time>2017-9-19T0:22:44Z</time></trkpt>
<trkpt lat="48.439657" lon="2.612313"><ele></ele><time>2017-9-19T0:22:47Z</time></trkpt>
<trkpt lat="48.43965" lon="2.61221"><ele></ele><time>2017-9-19T0:22:50Z</time></trkpt>
<trkpt lat="48.439645" lon="2.612105"><ele></ele><time>2017-9-19T0:22:53Z</time></trkpt>
<trkpt lat="48.439637" lon="2.612005"><ele></ele><time>2017-9-19T0:22:56Z</time></trkpt>
<trkpt lat="48.43963" lon="2.611912"><ele></ele><time>2017-9-19T0:22:59Z</time></trkpt>
<trkpt lat="48.43962" lon="2.611813"><ele></ele><time>2017-9-19T0:23:2Z</time></trkpt>
<trkpt lat="48.439608" lon="2.61171"><ele></ele><time>2017-9-19T0:23:5Z</time></trkpt>
<trkpt lat="48.439595" lon="2.611608"><ele></ele><time>2017-9-19T0:23:8Z</time></trkpt>
<trkpt lat="48.439585" lon="2.611515"><ele></ele><time>2017-9-19T0:23:11Z</time></trkpt>
<trkpt lat="48.439573" lon="2.611422"><ele></ele><time>2017-9-19T0:23:14Z</time></trkpt>
<trkpt lat="48.439565" lon="2.61133"><ele></ele><time>2017-9-19T0:23:17Z</time></trkpt>
<trkpt lat="48.43956" lon="2.611243"><ele></ele><time>2017-9-19T0:23:20Z</time></trkpt>
<trkpt lat="48.439548" lon="2.611163"><ele></ele><time>2017-9-19T0:23:23Z</time></trkpt>
<trkpt lat="48.439542" lon="2.611083"><ele></ele><time>2017-9-19T0:23:26Z</time></trkpt>
<trkpt lat="48.439535" lon="2.611008"><ele></ele><time>2017-9-19T0:23:29Z</time></trkpt>
<trkpt lat="48.439522" lon="2.610875"><ele></ele><time>2017-9-19T0:23:32Z</time></trkpt>
<trkpt lat="48.439515" lon="2.610808"><ele></ele><time>2017-9-19T0:23:35Z</time></trkpt>
<trkpt lat="48.439493" lon="2.61068"><ele></ele><time>2017-9-19T0:23:38Z</time></trkpt>
<trkpt lat="48.439478" lon="2.610565"><ele></ele><time>2017-9-19T0:23:41Z</time></trkpt>
<trkpt lat="48.439473" lon="2.610467"><ele></ele><time>2017-9-19T0:23:44Z</time></trkpt>
<trkpt lat="48.439462" lon="2.610418"><ele></ele><time>2017-9-19T0:23:47Z</time></trkpt>
<trkpt lat="48.439442" lon="2.610222"><ele></ele><time>2017-9-19T0:23:50Z</time></trkpt>
<trkpt lat="48.439447" lon="2.610108"><ele></ele><time>2017-9-19T0:23:53Z</time></trkpt>
<trkpt lat="48.439447" lon="2.609988"><ele></ele><time>2017-9-19T0:23:56Z</time></trkpt>
<trkpt lat="48.439438" lon="2.609863"><ele></ele><time>2017-9-19T0:23:59Z</time></trkpt>
<trkpt lat="48.439435" lon="2.609792"><ele></ele><time>2017-9-19T0:24:2Z</time></trkpt>
<trkpt lat="48.439425" lon="2.609718"><ele></ele><time>2017-9-19T0:24:5Z</time></trkpt>
<trkpt lat="48.439413" lon="2.609645"><ele></ele><time>2017-9-19T0:24:8Z</time></trkpt>
<trkpt lat="48.439405" lon="2.609573"><ele></ele><time>2017-9-19T0:24:11Z</time></trkpt>
<trkpt lat="48.439397" lon="2.609497"><ele></ele><time>2017-9-19T0:24:14Z</time></trkpt>
<trkpt lat="48.439392" lon="2.609415"><ele></ele><time>2017-9-19T0:24:17Z</time></trkpt>
<trkpt lat="48.439375" lon="2.609322"><ele></ele><time>2017-9-19T0:24:20Z</time></trkpt>
<trkpt lat="48.439365" lon="2.609247"><ele></ele><time>2017-9-19T0:24:23Z</time></trkpt>
<trkpt lat="48.439358" lon="2.609178"><ele></ele><time>2017-9-19T0:24:26Z</time></trkpt>
<trkpt lat="48.439348" lon="2.609108"><ele></ele><time>2017-9-19T0:24:29Z</time></trkpt>
<trkpt lat="48.439342" lon="2.609038"><ele></ele><time>2017-9-19T0:24:32Z</time></trkpt>
<trkpt lat="48.439342" lon="2.60891"><ele></ele><time>2017-9-19T0:24:35Z</time></trkpt>
<trkpt lat="48.439345" lon="2.608795"><ele></ele><time>2017-9-19T0:24:38Z</time></trkpt>
<trkpt lat="48.439345" lon="2.608697"><ele></ele><time>2017-9-19T0:24:41Z</time></trkpt>
<trkpt lat="48.439332" lon="2.608633"><ele></ele><time>2017-9-19T0:24:44Z</time></trkpt>
<trkpt lat="48.439312" lon="2.608567"><ele></ele><time>2017-9-19T0:24:47Z</time></trkpt>
<trkpt lat="48.439295" lon="2.608498"><ele></ele><time>2017-9-19T0:24:50Z</time></trkpt>
<trkpt lat="48.439278" lon="2.608432"><ele></ele><time>2017-9-19T0:24:53Z</time></trkpt>
<trkpt lat="48.439238" lon="2.608315"><ele></ele><time>2017-9-19T0:24:56Z</time></trkpt>
<trkpt lat="48.439203" lon="2.608202"><ele></ele><time>2017-9-19T0:24:59Z</time></trkpt>
<trkpt lat="48.439182" lon="2.608095"><ele></ele><time>2017-9-19T0:25:2Z</time></trkpt>
<trkpt lat="48.439153" lon="2.60797"><ele></ele><time>2017-9-19T0:25:5Z</time></trkpt>
<trkpt lat="48.439138" lon="2.607902"><ele></ele><time>2017-9-19T0:25:8Z</time></trkpt>
<trkpt lat="48.439123" lon="2.607832"><ele></ele><time>2017-9-19T0:25:11Z</time></trkpt>
<trkpt lat="48.4391" lon="2.607762"><ele></ele><time>2017-9-19T0:25:14Z</time></trkpt>
<trkpt lat="48.439073" lon="2.607692"><ele></ele><time>2017-9-19T0:25:17Z</time></trkpt>
<trkpt lat="48.439045" lon="2.607622"><ele></ele><time>2017-9-19T0:25:20Z</time></trkpt>
<trkpt lat="48.439023" lon="2.607553"><ele></ele><time>2017-9-19T0:25:23Z</time></trkpt>
<trkpt lat="48.439003" lon="2.607483"><ele></ele><time>2017-9-19T0:25:26Z</time></trkpt>
<trkpt lat="48.438967" lon="2.607345"><ele></ele><time>2017-9-19T0:25:29Z</time></trkpt>
<trkpt lat="48.438933" lon="2.607227"><ele></ele><time>2017-9-19T0:25:32Z</time></trkpt>
<trkpt lat="48.438918" lon="2.607105"><ele></ele><time>2017-9-19T0:25:35Z</time></trkpt>
<trkpt lat="48.438898" lon="2.607008"><ele></ele><time>2017-9-19T0:25:38Z</time></trkpt>
<trkpt lat="48.438882" lon="2.6069"><ele></ele><time>2017-9-19T0:25:41Z</time></trkpt>
<trkpt lat="48.438862" lon="2.606757"><ele></ele><time>2017-9-19T0:25:44Z</time></trkpt>
<trkpt lat="48.438857" lon="2.606635"><ele></ele><time>2017-9-19T0:25:47Z</time></trkpt>
<trkpt lat="48.43885" lon="2.606542"><ele></ele><time>2017-9-19T0:25:50Z</time></trkpt>
<trkpt lat="48.438847" lon="2.606413"><ele></ele><time>2017-9-19T0:25:53Z</time></trkpt>
<trkpt lat="48.438853" lon="2.606318"><ele></ele><time>2017-9-19T0:25:56Z</time></trkpt>
<trkpt lat="48.438858" lon="2.6062"><ele></ele><time>2017-9-19T0:25:59Z</time></trkpt>
<trkpt lat="48.43887" lon="2.606083"><ele></ele><time>2017-9-19T0:26:2Z</time></trkpt>
<trkpt lat="48.438877" lon="2.605963"><ele></ele><time>2017-9-19T0:26:5Z</time></trkpt>
<trkpt lat="48.438867" lon="2.60585"><ele></ele><time>2017-9-19T0:26:8Z</time></trkpt>
<trkpt lat="48.438878" lon="2.60572"><ele></ele><time>2017-9-19T0:26:11Z</time></trkpt>
<trkpt lat="48.43888" lon="2.605622"><ele></ele><time>2017-9-19T0:26:14Z</time></trkpt>
<trkpt lat="48.438892" lon="2.605488"><ele></ele><time>2017-9-19T0:26:17Z</time></trkpt>
<trkpt lat="48.43892" lon="2.605395"><ele></ele><time>2017-9-19T0:26:20Z</time></trkpt>
<trkpt lat="48.438937" lon="2.605303"><ele></ele><time>2017-9-19T0:26:23Z</time></trkpt>
<trkpt lat="48.438945" lon="2.605173"><ele></ele><time>2017-9-19T0:26:26Z</time></trkpt>
<trkpt lat="48.438955" lon="2.60505"><ele></ele><time>2017-9-19T0:26:29Z</time></trkpt>
<trkpt lat="48.438957" lon="2.604958"><ele></ele><time>2017-9-19T0:26:32Z</time></trkpt>
<trkpt lat="48.438952" lon="2.604853"><ele></ele><time>2017-9-19T0:26:35Z</time></trkpt>
<trkpt lat="48.438948" lon="2.60472"><ele></ele><time>2017-9-19T0:26:38Z</time></trkpt>
<trkpt lat="48.438947" lon="2.604587"><ele></ele><time>2017-9-19T0:26:41Z</time></trkpt>
<trkpt lat="48.438953" lon="2.604465"><ele></ele><time>2017-9-19T0:26:44Z</time></trkpt>
<trkpt lat="48.438967" lon="2.604383"><ele></ele><time>2017-9-19T0:26:47Z</time></trkpt>
<trkpt lat="48.438967" lon="2.60433"><ele></ele><time>2017-9-19T0:26:50Z</time></trkpt>
<trkpt lat="48.438948" lon="2.604118"><ele></ele><time>2017-9-19T0:26:53Z</time></trkpt>
<trkpt lat="48.43895" lon="2.604008"><ele></ele><time>2017-9-19T0:26:56Z</time></trkpt>
<trkpt lat="48.438958" lon="2.603875"><ele></ele><time>2017-9-19T0:26:59Z</time></trkpt>
<trkpt lat="48.438968" lon="2.603773"><ele></ele><time>2017-9-19T0:27:2Z</time></trkpt>
<trkpt lat="48.438968" lon="2.603682"><ele></ele><time>2017-9-19T0:27:5Z</time></trkpt>
<trkpt lat="48.438957" lon="2.60358"><ele></ele><time>2017-9-19T0:27:8Z</time></trkpt>
<trkpt lat="48.438953" lon="2.60347"><ele></ele><time>2017-9-19T0:27:11Z</time></trkpt>
<trkpt lat="48.438948" lon="2.603373"><ele></ele><time>2017-9-19T0:27:14Z</time></trkpt>
<trkpt lat="48.438942" lon="2.603243"><ele></ele><time>2017-9-19T0:27:17Z</time></trkpt>
<trkpt lat="48.438942" lon="2.603148"><ele></ele><time>2017-9-19T0:27:20Z</time></trkpt>
<trkpt lat="48.438923" lon="2.603072"><ele></ele><time>2017-9-19T0:27:23Z</time></trkpt>
<trkpt lat="48.438915" lon="2.602968"><ele></ele><time>2017-9-19T0:27:26Z</time></trkpt>
<trkpt lat="48.438928" lon="2.602855"><ele></ele><time>2017-9-19T0:27:29Z</time></trkpt>
<trkpt lat="48.438927" lon="2.602785"><ele></ele><time>2017-9-19T0:27:32Z</time></trkpt>
<trkpt lat="48.438928" lon="2.602657"><ele></ele><time>2017-9-19T0:27:35Z</time></trkpt>
<trkpt lat="48.43893" lon="2.602562"><ele></ele><time>2017-9-19T0:27:38Z</time></trkpt>
<trkpt lat="48.438915" lon="2.60243"><ele></ele><time>2017-9-19T0:27:41Z</time></trkpt>
<trkpt lat="48.438887" lon="2.602335"><ele></ele><time>2017-9-19T0:27:44Z</time></trkpt>
<trkpt lat="48.438847" lon="2.602248"><ele></ele><time>2017-9-19T0:27:47Z</time></trkpt>
<trkpt lat="48.438813" lon="2.602163"><ele></ele><time>2017-9-19T0:27:50Z</time></trkpt>
<trkpt lat="48.438792" lon="2.602077"><ele></ele><time>2017-9-19T0:27:53Z</time></trkpt>
<trkpt lat="48.438767" lon="2.60198"><ele></ele><time>2017-9-19T0:27:56Z</time></trkpt>
<trkpt lat="48.438757" lon="2.601878"><ele></ele><time>2017-9-19T0:27:59Z</time></trkpt>
<trkpt lat="48.43876" lon="2.601805"><ele></ele><time>2017-9-19T0:28:2Z</time></trkpt>
<trkpt lat="48.438757" lon="2.60169"><ele></ele><time>2017-9-19T0:28:5Z</time></trkpt>
<trkpt lat="48.438757" lon="2.601655"><ele></ele><time>2017-9-19T0:28:8Z</time></trkpt>
<trkpt lat="48.438765" lon="2.601468"><ele></ele><time>2017-9-19T0:28:11Z</time></trkpt>
<trkpt lat="48.438773" lon="2.601362"><ele></ele><time>2017-9-19T0:28:14Z</time></trkpt>
<trkpt lat="48.438778" lon="2.601273"><ele></ele><time>2017-9-19T0:28:17Z</time></trkpt>
<trkpt lat="48.438792" lon="2.60118"><ele></ele><time>2017-9-19T0:28:20Z</time></trkpt>
<trkpt lat="48.438795" lon="2.601083"><ele></ele><time>2017-9-19T0:28:23Z</time></trkpt>
<trkpt lat="48.438802" lon="2.600992"><ele></ele><time>2017-9-19T0:28:26Z</time></trkpt>
<trkpt lat="48.438805" lon="2.600897"><ele></ele><time>2017-9-19T0:28:29Z</time></trkpt>
<trkpt lat="48.438808" lon="2.600808"><ele></ele><time>2017-9-19T0:28:32Z</time></trkpt>
<trkpt lat="48.438808" lon="2.600758"><ele></ele><time>2017-9-19T0:28:35Z</time></trkpt>
<trkpt lat="48.438813" lon="2.600665"><ele></ele><time>2017-9-19T0:28:38Z</time></trkpt>
<trkpt lat="48.43882" lon="2.60054"><ele></ele><time>2017-9-19T0:28:41Z</time></trkpt>
<trkpt lat="48.438822" lon="2.600415"><ele></ele><time>2017-9-19T0:28:44Z</time></trkpt>
<trkpt lat="48.43882" lon="2.6003"><ele></ele><time>2017-9-19T0:28:47Z</time></trkpt>
<trkpt lat="48.438813" lon="2.600188"><ele></ele><time>2017-9-19T0:28:50Z</time></trkpt>
<trkpt lat="48.4388" lon="2.600077"><ele></ele><time>2017-9-19T0:28:53Z</time></trkpt>
<trkpt lat="48.438778" lon="2.59998"><ele></ele><time>2017-9-19T0:28:56Z</time></trkpt>
<trkpt lat="48.438743" lon="2.599857"><ele></ele><time>2017-9-19T0:28:59Z</time></trkpt>
<trkpt lat="48.438713" lon="2.599778"><ele></ele><time>2017-9-19T0:29:2Z</time></trkpt>
<trkpt lat="48.43867" lon="2.599673"><ele></ele><time>2017-9-19T0:29:5Z</time></trkpt>
<trkpt lat="48.438628" lon="2.599573"><ele></ele><time>2017-9-19T0:29:8Z</time></trkpt>
<trkpt lat="48.438578" lon="2.599472"><ele></ele><time>2017-9-19T0:29:11Z</time></trkpt>
<trkpt lat="48.43857" lon="2.599455"><ele></ele><time>2017-9-19T0:29:14Z</time></trkpt>
<trkpt lat="48.438478" lon="2.59929"><ele></ele><time>2017-9-19T0:29:17Z</time></trkpt>
<trkpt lat="48.438427" lon="2.5992"><ele></ele><time>2017-9-19T0:29:20Z</time></trkpt>
<trkpt lat="48.438372" lon="2.599113"><ele></ele><time>2017-9-19T0:29:23Z</time></trkpt>
<trkpt lat="48.438318" lon="2.599032"><ele></ele><time>2017-9-19T0:29:26Z</time></trkpt>
<trkpt lat="48.438267" lon="2.598927"><ele></ele><time>2017-9-19T0:29:29Z</time></trkpt>
<trkpt lat="48.438218" lon="2.59883"><ele></ele><time>2017-9-19T0:29:32Z</time></trkpt>
<trkpt lat="48.438168" lon="2.598743"><ele></ele><time>2017-9-19T0:29:35Z</time></trkpt>
<trkpt lat="48.438118" lon="2.598657"><ele></ele><time>2017-9-19T0:29:38Z</time></trkpt>
<trkpt lat="48.43807" lon="2.598563"><ele></ele><time>2017-9-19T0:29:41Z</time></trkpt>
<trkpt lat="48.43804" lon="2.598513"><ele></ele><time>2017-9-19T0:29:44Z</time></trkpt>
<trkpt lat="48.43798" lon="2.598415"><ele></ele><time>2017-9-19T0:29:47Z</time></trkpt>
<trkpt lat="48.437917" lon="2.59832"><ele></ele><time>2017-9-19T0:29:50Z</time></trkpt>
<trkpt lat="48.437857" lon="2.598225"><ele></ele><time>2017-9-19T0:29:53Z</time></trkpt>
<trkpt lat="48.4378" lon="2.598155"><ele></ele><time>2017-9-19T0:29:56Z</time></trkpt>
<trkpt lat="48.437743" lon="2.598098"><ele></ele><time>2017-9-19T0:29:59Z</time></trkpt>
<trkpt lat="48.437725" lon="2.598077"><ele></ele><time>2017-9-19T0:30:2Z</time></trkpt>
<trkpt lat="48.437602" lon="2.597962"><ele></ele><time>2017-9-19T0:30:5Z</time></trkpt>
<trkpt lat="48.43754" lon="2.597908"><ele></ele><time>2017-9-19T0:30:8Z</time></trkpt>
<trkpt lat="48.437495" lon="2.597852"><ele></ele><time>2017-9-19T0:30:11Z</time></trkpt>
<trkpt lat="48.437437" lon="2.597795"><ele></ele><time>2017-9-19T0:30:14Z</time></trkpt>
<trkpt lat="48.43736" lon="2.597737"><ele></ele><time>2017-9-19T0:30:17Z</time></trkpt>
<trkpt lat="48.437263" lon="2.597673"><ele></ele><time>2017-9-19T0:30:20Z</time></trkpt>
<trkpt lat="48.437157" lon="2.597618"><ele></ele><time>2017-9-19T0:30:23Z</time></trkpt>
<trkpt lat="48.437038" lon="2.597595"><ele></ele><time>2017-9-19T0:30:26Z</time></trkpt>
<trkpt lat="48.436917" lon="2.59761"><ele></ele><time>2017-9-19T0:30:29Z</time></trkpt>
<trkpt lat="48.436792" lon="2.597632"><ele></ele><time>2017-9-19T0:30:32Z</time></trkpt>
<trkpt lat="48.43667" lon="2.597658"><ele></ele><time>2017-9-19T0:30:35Z</time></trkpt>
<trkpt lat="48.43654" lon="2.597685"><ele></ele><time>2017-9-19T0:30:38Z</time></trkpt>
<trkpt lat="48.436414" lon="2.597717"><ele></ele><time>2017-9-19T0:30:41Z</time></trkpt>
<trkpt lat="48.436282" lon="2.597753"><ele></ele><time>2017-9-19T0:30:44Z</time></trkpt>
<trkpt lat="48.436215" lon="2.597767"><ele></ele><time>2017-9-19T0:30:47Z</time></trkpt>
<trkpt lat="48.436153" lon="2.597773"><ele></ele><time>2017-9-19T0:30:50Z</time></trkpt>
<trkpt lat="48.436092" lon="2.597767"><ele></ele><time>2017-9-19T0:30:53Z</time></trkpt>
<trkpt lat="48.436028" lon="2.597763"><ele></ele><time>2017-9-19T0:30:56Z</time></trkpt>
<trkpt lat="48.435972" lon="2.597763"><ele></ele><time>2017-9-19T0:30:59Z</time></trkpt>
<trkpt lat="48.435913" lon="2.597768"><ele></ele><time>2017-9-19T0:31:2Z</time></trkpt>
<trkpt lat="48.435858" lon="2.59777"><ele></ele><time>2017-9-19T0:31:5Z</time></trkpt>
<trkpt lat="48.435807" lon="2.597773"><ele></ele><time>2017-9-19T0:31:8Z</time></trkpt>
<trkpt lat="48.435757" lon="2.597777"><ele></ele><time>2017-9-19T0:31:11Z</time></trkpt>
<trkpt lat="48.435685" lon="2.597795"><ele></ele><time>2017-9-19T0:31:14Z</time></trkpt>
<trkpt lat="48.4356" lon="2.597822"><ele></ele><time>2017-9-19T0:31:17Z</time></trkpt>
<trkpt lat="48.435685" lon="2.59781"><ele></ele><time>2017-9-19T0:31:20Z</time></trkpt>
<trkpt lat="48.435703" lon="2.59781"><ele></ele><time>2017-9-19T0:31:23Z</time></trkpt>
<trkpt lat="48.435853" lon="2.597795"><ele></ele><time>2017-9-19T0:31:26Z</time></trkpt>
<trkpt lat="48.435912" lon="2.597787"><ele></ele><time>2017-9-19T0:31:29Z</time></trkpt>
<trkpt lat="48.43599" lon="2.5978"><ele></ele><time>2017-9-19T0:31:32Z</time></trkpt>
<trkpt lat="48.436058" lon="2.59784"><ele></ele><time>2017-9-19T0:31:35Z</time></trkpt>
<trkpt lat="48.436097" lon="2.597933"><ele></ele><time>2017-9-19T0:31:38Z</time></trkpt>
<trkpt lat="48.436095" lon="2.598037"><ele></ele><time>2017-9-19T0:31:41Z</time></trkpt>
<trkpt lat="48.436073" lon="2.59816"><ele></ele><time>2017-9-19T0:31:44Z</time></trkpt>
<trkpt lat="48.43606" lon="2.598257"><ele></ele><time>2017-9-19T0:31:47Z</time></trkpt>
<trkpt lat="48.436047" lon="2.598368"><ele></ele><time>2017-9-19T0:31:50Z</time></trkpt>
<trkpt lat="48.436038" lon="2.598437"><ele></ele><time>2017-9-19T0:31:53Z</time></trkpt>
<trkpt lat="48.436027" lon="2.598508"><ele></ele><time>2017-9-19T0:31:56Z</time></trkpt>
<trkpt lat="48.436015" lon="2.598587"><ele></ele><time>2017-9-19T0:31:59Z</time></trkpt>
<trkpt lat="48.436" lon="2.598702"><ele></ele><time>2017-9-19T0:32:2Z</time></trkpt>
<trkpt lat="48.43598" lon="2.598832"><ele></ele><time>2017-9-19T0:32:5Z</time></trkpt>
<trkpt lat="48.43597" lon="2.59896"><ele></ele><time>2017-9-19T0:32:8Z</time></trkpt>
<trkpt lat="48.435955" lon="2.599087"><ele></ele><time>2017-9-19T0:32:11Z</time></trkpt>
<trkpt lat="48.43594" lon="2.5992"><ele></ele><time>2017-9-19T0:32:14Z</time></trkpt>
<trkpt lat="48.435927" lon="2.599323"><ele></ele><time>2017-9-19T0:32:17Z</time></trkpt>
<trkpt lat="48.435912" lon="2.599457"><ele></ele><time>2017-9-19T0:32:20Z</time></trkpt>
<trkpt lat="48.435902" lon="2.599543"><ele></ele><time>2017-9-19T0:32:23Z</time></trkpt>
<trkpt lat="48.43589" lon="2.599622"><ele></ele><time>2017-9-19T0:32:26Z</time></trkpt>
<trkpt lat="48.435865" lon="2.599747"><ele></ele><time>2017-9-19T0:32:29Z</time></trkpt>
<trkpt lat="48.43585" lon="2.599873"><ele></ele><time>2017-9-19T0:32:32Z</time></trkpt>
<trkpt lat="48.435837" lon="2.599988"><ele></ele><time>2017-9-19T0:32:35Z</time></trkpt>
<trkpt lat="48.435823" lon="2.600097"><ele></ele><time>2017-9-19T0:32:38Z</time></trkpt>
<trkpt lat="48.435807" lon="2.600213"><ele></ele><time>2017-9-19T0:32:41Z</time></trkpt>
<trkpt lat="48.435785" lon="2.600323"><ele></ele><time>2017-9-19T0:32:44Z</time></trkpt>
<trkpt lat="48.43577" lon="2.600445"><ele></ele><time>2017-9-19T0:32:47Z</time></trkpt>
<trkpt lat="48.435762" lon="2.600542"><ele></ele><time>2017-9-19T0:32:50Z</time></trkpt>
<trkpt lat="48.43575" lon="2.60062"><ele></ele><time>2017-9-19T0:32:53Z</time></trkpt>
<trkpt lat="48.435738" lon="2.600693"><ele></ele><time>2017-9-19T0:32:56Z</time></trkpt>
<trkpt lat="48.435722" lon="2.600773"><ele></ele><time>2017-9-19T0:32:59Z</time></trkpt>
<trkpt lat="48.435707" lon="2.600853"><ele></ele><time>2017-9-19T0:33:2Z</time></trkpt>
<trkpt lat="48.435687" lon="2.600975"><ele></ele><time>2017-9-19T0:33:5Z</time></trkpt>
<trkpt lat="48.43567" lon="2.601102"><ele></ele><time>2017-9-19T0:33:8Z</time></trkpt>
<trkpt lat="48.435653" lon="2.601227"><ele></ele><time>2017-9-19T0:33:11Z</time></trkpt>
<trkpt lat="48.435638" lon="2.601335"><ele></ele><time>2017-9-19T0:33:14Z</time></trkpt>
<trkpt lat="48.435622" lon="2.60144"><ele></ele><time>2017-9-19T0:33:17Z</time></trkpt>
<trkpt lat="48.435603" lon="2.601548"><ele></ele><time>2017-9-19T0:33:20Z</time></trkpt>
<trkpt lat="48.435585" lon="2.601668"><ele></ele><time>2017-9-19T0:33:23Z</time></trkpt>
<trkpt lat="48.435573" lon="2.60175"><ele></ele><time>2017-9-19T0:33:26Z</time></trkpt>
<trkpt lat="48.43556" lon="2.601828"><ele></ele><time>2017-9-19T0:33:29Z</time></trkpt>
<trkpt lat="48.435545" lon="2.60191"><ele></ele><time>2017-9-19T0:33:32Z</time></trkpt>
<trkpt lat="48.435527" lon="2.602027"><ele></ele><time>2017-9-19T0:33:35Z</time></trkpt>
<trkpt lat="48.435513" lon="2.602138"><ele></ele><time>2017-9-19T0:33:38Z</time></trkpt>
<trkpt lat="48.435493" lon="2.602268"><ele></ele><time>2017-9-19T0:33:41Z</time></trkpt>
<trkpt lat="48.435477" lon="2.602388"><ele></ele><time>2017-9-19T0:33:44Z</time></trkpt>
<trkpt lat="48.435457" lon="2.602517"><ele></ele><time>2017-9-19T0:33:47Z</time></trkpt>
<trkpt lat="48.435443" lon="2.602642"><ele></ele><time>2017-9-19T0:33:50Z</time></trkpt>
<trkpt lat="48.435423" lon="2.602762"><ele></ele><time>2017-9-19T0:33:53Z</time></trkpt>
<trkpt lat="48.435427" lon="2.602882"><ele></ele><time>2017-9-19T0:33:56Z</time></trkpt>
<trkpt lat="48.435412" lon="2.602997"><ele></ele><time>2017-9-19T0:33:59Z</time></trkpt>
<trkpt lat="48.4354" lon="2.603123"><ele></ele><time>2017-9-19T0:34:2Z</time></trkpt>
<trkpt lat="48.435385" lon="2.603228"><ele></ele><time>2017-9-19T0:34:5Z</time></trkpt>
<trkpt lat="48.43536" lon="2.603358"><ele></ele><time>2017-9-19T0:34:8Z</time></trkpt>
<trkpt lat="48.435345" lon="2.603447"><ele></ele><time>2017-9-19T0:34:11Z</time></trkpt>
<trkpt lat="48.435327" lon="2.603573"><ele></ele><time>2017-9-19T0:34:14Z</time></trkpt>
<trkpt lat="48.435308" lon="2.603678"><ele></ele><time>2017-9-19T0:34:17Z</time></trkpt>
<trkpt lat="48.435298" lon="2.603732"><ele></ele><time>2017-9-19T0:34:20Z</time></trkpt>
<trkpt lat="48.435275" lon="2.603933"><ele></ele><time>2017-9-19T0:34:23Z</time></trkpt>
<trkpt lat="48.435262" lon="2.604048"><ele></ele><time>2017-9-19T0:34:26Z</time></trkpt>
<trkpt lat="48.435247" lon="2.604162"><ele></ele><time>2017-9-19T0:34:29Z</time></trkpt>
<trkpt lat="48.435228" lon="2.604293"><ele></ele><time>2017-9-19T0:34:32Z</time></trkpt>
<trkpt lat="48.435207" lon="2.604418"><ele></ele><time>2017-9-19T0:34:35Z</time></trkpt>
<trkpt lat="48.435192" lon="2.604533"><ele></ele><time>2017-9-19T0:34:38Z</time></trkpt>
<trkpt lat="48.435173" lon="2.604643"><ele></ele><time>2017-9-19T0:34:41Z</time></trkpt>
<trkpt lat="48.435153" lon="2.604763"><ele></ele><time>2017-9-19T0:34:44Z</time></trkpt>
<trkpt lat="48.435135" lon="2.604878"><ele></ele><time>2017-9-19T0:34:47Z</time></trkpt>
<trkpt lat="48.43512" lon="2.605007"><ele></ele><time>2017-9-19T0:34:50Z</time></trkpt>
<trkpt lat="48.4351" lon="2.605137"><ele></ele><time>2017-9-19T0:34:53Z</time></trkpt>
<trkpt lat="48.435097" lon="2.605157"><ele></ele><time>2017-9-19T0:34:56Z</time></trkpt>
<trkpt lat="48.435057" lon="2.605387"><ele></ele><time>2017-9-19T0:34:59Z</time></trkpt>
<trkpt lat="48.43503" lon="2.605502"><ele></ele><time>2017-9-19T0:35:2Z</time></trkpt>
<trkpt lat="48.435012" lon="2.60562"><ele></ele><time>2017-9-19T0:35:5Z</time></trkpt>
<trkpt lat="48.43499" lon="2.605727"><ele></ele><time>2017-9-19T0:35:8Z</time></trkpt>
<trkpt lat="48.434977" lon="2.60586"><ele></ele><time>2017-9-19T0:35:11Z</time></trkpt>
<trkpt lat="48.43497" lon="2.605993"><ele></ele><time>2017-9-19T0:35:14Z</time></trkpt>
<trkpt lat="48.434945" lon="2.606113"><ele></ele><time>2017-9-19T0:35:17Z</time></trkpt>
<trkpt lat="48.434943" lon="2.606133"><ele></ele><time>2017-9-19T0:35:20Z</time></trkpt>
<trkpt lat="48.43493" lon="2.606353"><ele></ele><time>2017-9-19T0:35:23Z</time></trkpt>
<trkpt lat="48.434915" lon="2.606453"><ele></ele><time>2017-9-19T0:35:26Z</time></trkpt>
<trkpt lat="48.434895" lon="2.606558"><ele></ele><time>2017-9-19T0:35:29Z</time></trkpt>
<trkpt lat="48.434885" lon="2.606623"><ele></ele><time>2017-9-19T0:35:32Z</time></trkpt>
<trkpt lat="48.434865" lon="2.606747"><ele></ele><time>2017-9-19T0:35:35Z</time></trkpt>
<trkpt lat="48.434848" lon="2.606843"><ele></ele><time>2017-9-19T0:35:38Z</time></trkpt>
<trkpt lat="48.434837" lon="2.60695"><ele></ele><time>2017-9-19T0:35:41Z</time></trkpt>
<trkpt lat="48.434825" lon="2.607055"><ele></ele><time>2017-9-19T0:35:44Z</time></trkpt>
<trkpt lat="48.43482" lon="2.607172"><ele></ele><time>2017-9-19T0:35:47Z</time></trkpt>
<trkpt lat="48.434802" lon="2.607293"><ele></ele><time>2017-9-19T0:35:50Z</time></trkpt>
<trkpt lat="48.43478" lon="2.607392"><ele></ele><time>2017-9-19T0:35:53Z</time></trkpt>
<trkpt lat="48.434772" lon="2.607503"><ele></ele><time>2017-9-19T0:35:56Z</time></trkpt>
<trkpt lat="48.434758" lon="2.607625"><ele></ele><time>2017-9-19T0:35:59Z</time></trkpt>
<trkpt lat="48.43473" lon="2.60774"><ele></ele><time>2017-9-19T0:36:2Z</time></trkpt>
<trkpt lat="48.434708" lon="2.607865"><ele></ele><time>2017-9-19T0:36:5Z</time></trkpt>
<trkpt lat="48.434707" lon="2.607883"><ele></ele><time>2017-9-19T0:36:8Z</time></trkpt>
<trkpt lat="48.434673" lon="2.608118"><ele></ele><time>2017-9-19T0:36:11Z</time></trkpt>
<trkpt lat="48.434655" lon="2.60825"><ele></ele><time>2017-9-19T0:36:14Z</time></trkpt>
<trkpt lat="48.434637" lon="2.608375"><ele></ele><time>2017-9-19T0:36:17Z</time></trkpt>
<trkpt lat="48.434627" lon="2.608457"><ele></ele><time>2017-9-19T0:36:20Z</time></trkpt>
<trkpt lat="48.434605" lon="2.608573"><ele></ele><time>2017-9-19T0:36:23Z</time></trkpt>
<trkpt lat="48.434603" lon="2.608683"><ele></ele><time>2017-9-19T0:36:26Z</time></trkpt>
<trkpt lat="48.434588" lon="2.608803"><ele></ele><time>2017-9-19T0:36:29Z</time></trkpt>
<trkpt lat="48.434565" lon="2.60892"><ele></ele><time>2017-9-19T0:36:32Z</time></trkpt>
<trkpt lat="48.434552" lon="2.608988"><ele></ele><time>2017-9-19T0:36:35Z</time></trkpt>
<trkpt lat="48.434528" lon="2.609098"><ele></ele><time>2017-9-19T0:36:38Z</time></trkpt>
<trkpt lat="48.434513" lon="2.60919"><ele></ele><time>2017-9-19T0:36:41Z</time></trkpt>
<trkpt lat="48.434497" lon="2.609312"><ele></ele><time>2017-9-19T0:36:44Z</time></trkpt>
<trkpt lat="48.434472" lon="2.609425"><ele></ele><time>2017-9-19T0:36:47Z</time></trkpt>
<trkpt lat="48.434437" lon="2.609545"><ele></ele><time>2017-9-19T0:36:50Z</time></trkpt>
<trkpt lat="48.43442" lon="2.609647"><ele></ele><time>2017-9-19T0:36:53Z</time></trkpt>
<trkpt lat="48.434397" lon="2.609773"><ele></ele><time>2017-9-19T0:36:56Z</time></trkpt>
<trkpt lat="48.434397" lon="2.609908"><ele></ele><time>2017-9-19T0:36:59Z</time></trkpt>
<trkpt lat="48.434388" lon="2.610013"><ele></ele><time>2017-9-19T0:37:2Z</time></trkpt>
<trkpt lat="48.434375" lon="2.610087"><ele></ele><time>2017-9-19T0:37:5Z</time></trkpt>
<trkpt lat="48.434362" lon="2.610173"><ele></ele><time>2017-9-19T0:37:8Z</time></trkpt>
<trkpt lat="48.434342" lon="2.610278"><ele></ele><time>2017-9-19T0:37:11Z</time></trkpt>
<trkpt lat="48.434323" lon="2.610408"><ele></ele><time>2017-9-19T0:37:14Z</time></trkpt>
<trkpt lat="48.43432" lon="2.610443"><ele></ele><time>2017-9-19T0:37:17Z</time></trkpt>
<trkpt lat="48.434292" lon="2.610637"><ele></ele><time>2017-9-19T0:37:20Z</time></trkpt>
<trkpt lat="48.434272" lon="2.610767"><ele></ele><time>2017-9-19T0:37:23Z</time></trkpt>
<trkpt lat="48.434252" lon="2.610863"><ele></ele><time>2017-9-19T0:37:26Z</time></trkpt>
<trkpt lat="48.43423" lon="2.61098"><ele></ele><time>2017-9-19T0:37:29Z</time></trkpt>
<trkpt lat="48.434208" lon="2.61111"><ele></ele><time>2017-9-19T0:37:32Z</time></trkpt>
<trkpt lat="48.434188" lon="2.61121"><ele></ele><time>2017-9-19T0:37:35Z</time></trkpt>
<trkpt lat="48.43417" lon="2.611333"><ele></ele><time>2017-9-19T0:37:38Z</time></trkpt>
<trkpt lat="48.434143" lon="2.611428"><ele></ele><time>2017-9-19T0:37:41Z</time></trkpt>
<trkpt lat="48.43412" lon="2.611553"><ele></ele><time>2017-9-19T0:37:44Z</time></trkpt>
<trkpt lat="48.434093" lon="2.61166"><ele></ele><time>2017-9-19T0:37:47Z</time></trkpt>
<trkpt lat="48.43408" lon="2.611783"><ele></ele><time>2017-9-19T0:37:50Z</time></trkpt>
<trkpt lat="48.434065" lon="2.611905"><ele></ele><time>2017-9-19T0:37:53Z</time></trkpt>
<trkpt lat="48.434057" lon="2.612027"><ele></ele><time>2017-9-19T0:37:56Z</time></trkpt>
<trkpt lat="48.434048" lon="2.612137"><ele></ele><time>2017-9-19T0:37:59Z</time></trkpt>
<trkpt lat="48.434035" lon="2.612255"><ele></ele><time>2017-9-19T0:38:2Z</time></trkpt>
<trkpt lat="48.43402" lon="2.612333"><ele></ele><time>2017-9-19T0:38:5Z</time></trkpt>
<trkpt lat="48.434002" lon="2.612427"><ele></ele><time>2017-9-19T0:38:8Z</time></trkpt>
<trkpt lat="48.433992" lon="2.612525"><ele></ele><time>2017-9-19T0:38:11Z</time></trkpt>
<trkpt lat="48.433985" lon="2.612563"><ele></ele><time>2017-9-19T0:38:14Z</time></trkpt>
<trkpt lat="48.433942" lon="2.612745"><ele></ele><time>2017-9-19T0:38:17Z</time></trkpt>
<trkpt lat="48.433925" lon="2.612872"><ele></ele><time>2017-9-19T0:38:20Z</time></trkpt>
<trkpt lat="48.433905" lon="2.612997"><ele></ele><time>2017-9-19T0:38:23Z</time></trkpt>
<trkpt lat="48.4339" lon="2.61309"><ele></ele><time>2017-9-19T0:38:26Z</time></trkpt>
<trkpt lat="48.433882" lon="2.613213"><ele></ele><time>2017-9-19T0:38:29Z</time></trkpt>
<trkpt lat="48.43385" lon="2.613333"><ele></ele><time>2017-9-19T0:38:32Z</time></trkpt>
<trkpt lat="48.433828" lon="2.613437"><ele></ele><time>2017-9-19T0:38:35Z</time></trkpt>
<trkpt lat="48.433813" lon="2.613565"><ele></ele><time>2017-9-19T0:38:38Z</time></trkpt>
<trkpt lat="48.433793" lon="2.613687"><ele></ele><time>2017-9-19T0:38:41Z</time></trkpt>
<trkpt lat="48.433782" lon="2.613807"><ele></ele><time>2017-9-19T0:38:44Z</time></trkpt>
<trkpt lat="48.433763" lon="2.613898"><ele></ele><time>2017-9-19T0:38:47Z</time></trkpt>
<trkpt lat="48.433743" lon="2.614018"><ele></ele><time>2017-9-19T0:38:50Z</time></trkpt>
<trkpt lat="48.43372" lon="2.614143"><ele></ele><time>2017-9-19T0:38:53Z</time></trkpt>
<trkpt lat="48.433685" lon="2.614265"><ele></ele><time>2017-9-19T0:38:56Z</time></trkpt>
<trkpt lat="48.433685" lon="2.614395"><ele></ele><time>2017-9-19T0:38:59Z</time></trkpt>
<trkpt lat="48.433687" lon="2.614413"><ele></ele><time>2017-9-19T0:39:2Z</time></trkpt>
<trkpt lat="48.433615" lon="2.614635"><ele></ele><time>2017-9-19T0:39:5Z</time></trkpt>
<trkpt lat="48.433602" lon="2.614748"><ele></ele><time>2017-9-19T0:39:8Z</time></trkpt>
<trkpt lat="48.433598" lon="2.614775"><ele></ele><time>2017-9-19T0:39:11Z</time></trkpt>
<trkpt lat="48.43357" lon="2.61498"><ele></ele><time>2017-9-19T0:39:14Z</time></trkpt>
<trkpt lat="48.433552" lon="2.615077"><ele></ele><time>2017-9-19T0:39:17Z</time></trkpt>
<trkpt lat="48.433535" lon="2.61518"><ele></ele><time>2017-9-19T0:39:20Z</time></trkpt>
<trkpt lat="48.433518" lon="2.61529"><ele></ele><time>2017-9-19T0:39:23Z</time></trkpt>
<trkpt lat="48.433505" lon="2.615402"><ele></ele><time>2017-9-19T0:39:26Z</time></trkpt>
<trkpt lat="48.433488" lon="2.615517"><ele></ele><time>2017-9-19T0:39:29Z</time></trkpt>
<trkpt lat="48.433472" lon="2.615625"><ele></ele><time>2017-9-19T0:39:32Z</time></trkpt>
<trkpt lat="48.433457" lon="2.615738"><ele></ele><time>2017-9-19T0:39:35Z</time></trkpt>
<trkpt lat="48.433443" lon="2.615862"><ele></ele><time>2017-9-19T0:39:38Z</time></trkpt>
<trkpt lat="48.433428" lon="2.615985"><ele></ele><time>2017-9-19T0:39:41Z</time></trkpt>
<trkpt lat="48.43341" lon="2.616095"><ele></ele><time>2017-9-19T0:39:44Z</time></trkpt>
<trkpt lat="48.433398" lon="2.616167"><ele></ele><time>2017-9-19T0:39:47Z</time></trkpt>
<trkpt lat="48.433388" lon="2.616242"><ele></ele><time>2017-9-19T0:39:50Z</time></trkpt>
<trkpt lat="48.433363" lon="2.61637"><ele></ele><time>2017-9-19T0:39:53Z</time></trkpt>
<trkpt lat="48.433338" lon="2.61648"><ele></ele><time>2017-9-19T0:39:56Z</time></trkpt>
<trkpt lat="48.433317" lon="2.616578"><ele></ele><time>2017-9-19T0:39:59Z</time></trkpt>
<trkpt lat="48.433298" lon="2.616683"><ele></ele><time>2017-9-19T0:40:2Z</time></trkpt>
<trkpt lat="48.43328" lon="2.616797"><ele></ele><time>2017-9-19T0:40:5Z</time></trkpt>
<trkpt lat="48.433262" lon="2.616902"><ele></ele><time>2017-9-19T0:40:8Z</time></trkpt>
<trkpt lat="48.433257" lon="2.616937"><ele></ele><time>2017-9-19T0:40:11Z</time></trkpt>
<trkpt lat="48.433223" lon="2.617107"><ele></ele><time>2017-9-19T0:40:14Z</time></trkpt>
<trkpt lat="48.433205" lon="2.61721"><ele></ele><time>2017-9-19T0:40:17Z</time></trkpt>
<trkpt lat="48.433182" lon="2.617307"><ele></ele><time>2017-9-19T0:40:20Z</time></trkpt>
<trkpt lat="48.433158" lon="2.617405"><ele></ele><time>2017-9-19T0:40:23Z</time></trkpt>
<trkpt lat="48.433138" lon="2.617505"><ele></ele><time>2017-9-19T0:40:26Z</time></trkpt>
<trkpt lat="48.43313" lon="2.61761"><ele></ele><time>2017-9-19T0:40:29Z</time></trkpt>
<trkpt lat="48.433122" lon="2.61771"><ele></ele><time>2017-9-19T0:40:32Z</time></trkpt>
<trkpt lat="48.433117" lon="2.617815"><ele></ele><time>2017-9-19T0:40:35Z</time></trkpt>
<trkpt lat="48.433117" lon="2.617918"><ele></ele><time>2017-9-19T0:40:38Z</time></trkpt>
<trkpt lat="48.433105" lon="2.618052"><ele></ele><time>2017-9-19T0:40:41Z</time></trkpt>
<trkpt lat="48.433095" lon="2.61816"><ele></ele><time>2017-9-19T0:40:44Z</time></trkpt>
<trkpt lat="48.433093" lon="2.618232"><ele></ele><time>2017-9-19T0:40:47Z</time></trkpt>
<trkpt lat="48.433088" lon="2.618358"><ele></ele><time>2017-9-19T0:40:50Z</time></trkpt>
<trkpt lat="48.433073" lon="2.618483"><ele></ele><time>2017-9-19T0:40:53Z</time></trkpt>
<trkpt lat="48.433062" lon="2.618608"><ele></ele><time>2017-9-19T0:40:56Z</time></trkpt>
<trkpt lat="48.433053" lon="2.618735"><ele></ele><time>2017-9-19T0:40:59Z</time></trkpt>
<trkpt lat="48.433033" lon="2.618867"><ele></ele><time>2017-9-19T0:41:2Z</time></trkpt>
<trkpt lat="48.43302" lon="2.618975"><ele></ele><time>2017-9-19T0:41:5Z</time></trkpt>
<trkpt lat="48.433015" lon="2.619002"><ele></ele><time>2017-9-19T0:41:8Z</time></trkpt>
<trkpt lat="48.43299" lon="2.619182"><ele></ele><time>2017-9-19T0:41:11Z</time></trkpt>
<trkpt lat="48.43298" lon="2.619297"><ele></ele><time>2017-9-19T0:41:14Z</time></trkpt>
<trkpt lat="48.432963" lon="2.61942"><ele></ele><time>2017-9-19T0:41:17Z</time></trkpt>
<trkpt lat="48.43296" lon="2.619528"><ele></ele><time>2017-9-19T0:41:20Z</time></trkpt>
<trkpt lat="48.432957" lon="2.61963"><ele></ele><time>2017-9-19T0:41:23Z</time></trkpt>
<trkpt lat="48.432948" lon="2.619758"><ele></ele><time>2017-9-19T0:41:26Z</time></trkpt>
<trkpt lat="48.432932" lon="2.61986"><ele></ele><time>2017-9-19T0:41:29Z</time></trkpt>
<trkpt lat="48.432912" lon="2.619987"><ele></ele><time>2017-9-19T0:41:32Z</time></trkpt>
<trkpt lat="48.432903" lon="2.620088"><ele></ele><time>2017-9-19T0:41:35Z</time></trkpt>
<trkpt lat="48.432908" lon="2.620192"><ele></ele><time>2017-9-19T0:41:38Z</time></trkpt>
<trkpt lat="48.432948" lon="2.620278"><ele></ele><time>2017-9-19T0:41:41Z</time></trkpt>
<trkpt lat="48.433027" lon="2.62034"><ele></ele><time>2017-9-19T0:41:44Z</time></trkpt>
<trkpt lat="48.43309" lon="2.6204"><ele></ele><time>2017-9-19T0:41:47Z</time></trkpt>
<trkpt lat="48.433152" lon="2.62047"><ele></ele><time>2017-9-19T0:41:50Z</time></trkpt>
<trkpt lat="48.433215" lon="2.620555"><ele></ele><time>2017-9-19T0:41:53Z</time></trkpt>
<trkpt lat="48.43327" lon="2.620623"><ele></ele><time>2017-9-19T0:41:56Z</time></trkpt>
<trkpt lat="48.433292" lon="2.620648"><ele></ele><time>2017-9-19T0:41:59Z</time></trkpt>
<trkpt lat="48.433418" lon="2.62074"><ele></ele><time>2017-9-19T0:42:2Z</time></trkpt>
<trkpt lat="48.433348" lon="2.620692"><ele></ele><time>2017-9-19T0:42:5Z</time></trkpt>
<trkpt lat="48.43333" lon="2.620672"><ele></ele><time>2017-9-19T0:42:8Z</time></trkpt>
<trkpt lat="48.433215" lon="2.62052"><ele></ele><time>2017-9-19T0:42:11Z</time></trkpt>
<trkpt lat="48.433143" lon="2.620457"><ele></ele><time>2017-9-19T0:42:14Z</time></trkpt>
<trkpt lat="48.433072" lon="2.620392"><ele></ele><time>2017-9-19T0:42:17Z</time></trkpt>
<trkpt lat="48.43299" lon="2.620335"><ele></ele><time>2017-9-19T0:42:20Z</time></trkpt>
<trkpt lat="48.432942" lon="2.620307"><ele></ele><time>2017-9-19T0:42:23Z</time></trkpt>
<trkpt lat="48.432897" lon="2.6203"><ele></ele><time>2017-9-19T0:42:26Z</time></trkpt>
<trkpt lat="48.43285" lon="2.620305"><ele></ele><time>2017-9-19T0:42:29Z</time></trkpt>
<trkpt lat="48.432768" lon="2.620345"><ele></ele><time>2017-9-19T0:42:32Z</time></trkpt>
<trkpt lat="48.432708" lon="2.62038"><ele></ele><time>2017-9-19T0:42:35Z</time></trkpt>
<trkpt lat="48.43268" lon="2.6204"><ele></ele><time>2017-9-19T0:42:38Z</time></trkpt>
<trkpt lat="48.432603" lon="2.620467"><ele></ele><time>2017-9-19T0:42:41Z</time></trkpt>
<trkpt lat="48.432525" lon="2.620528"><ele></ele><time>2017-9-19T0:42:44Z</time></trkpt>
<trkpt lat="48.432448" lon="2.62058"><ele></ele><time>2017-9-19T0:42:47Z</time></trkpt>
<trkpt lat="48.432373" lon="2.62063"><ele></ele><time>2017-9-19T0:42:50Z</time></trkpt>
<trkpt lat="48.432292" lon="2.620668"><ele></ele><time>2017-9-19T0:42:53Z</time></trkpt>
<trkpt lat="48.432237" lon="2.620705"><ele></ele><time>2017-9-19T0:42:56Z</time></trkpt>
<trkpt lat="48.43218" lon="2.620743"><ele></ele><time>2017-9-19T0:42:59Z</time></trkpt>
<trkpt lat="48.432123" lon="2.620782"><ele></ele><time>2017-9-19T0:43:2Z</time></trkpt>
<trkpt lat="48.432065" lon="2.62082"><ele></ele><time>2017-9-19T0:43:5Z</time></trkpt>
<trkpt lat="48.432003" lon="2.620857"><ele></ele><time>2017-9-19T0:43:8Z</time></trkpt>
<trkpt lat="48.431942" lon="2.620895"><ele></ele><time>2017-9-19T0:43:11Z</time></trkpt>
<trkpt lat="48.431878" lon="2.620942"><ele></ele><time>2017-9-19T0:43:14Z</time></trkpt>
<trkpt lat="48.431813" lon="2.620992"><ele></ele><time>2017-9-19T0:43:17Z</time></trkpt>
<trkpt lat="48.431783" lon="2.621012"><ele></ele><time>2017-9-19T0:43:20Z</time></trkpt>
<trkpt lat="48.431692" lon="2.621077"><ele></ele><time>2017-9-19T0:43:23Z</time></trkpt>
<trkpt lat="48.431632" lon="2.621117"><ele></ele><time>2017-9-19T0:43:26Z</time></trkpt>
<trkpt lat="48.431575" lon="2.621158"><ele></ele><time>2017-9-19T0:43:29Z</time></trkpt>
<trkpt lat="48.431518" lon="2.621203"><ele></ele><time>2017-9-19T0:43:32Z</time></trkpt>
<trkpt lat="48.431462" lon="2.621243"><ele></ele><time>2017-9-19T0:43:35Z</time></trkpt>
<trkpt lat="48.431408" lon="2.62129"><ele></ele><time>2017-9-19T0:43:38Z</time></trkpt>
<trkpt lat="48.43136" lon="2.621353"><ele></ele><time>2017-9-19T0:43:41Z</time></trkpt>
<trkpt lat="48.431313" lon="2.621417"><ele></ele><time>2017-9-19T0:43:44Z</time></trkpt>
<trkpt lat="48.431258" lon="2.621518"><ele></ele><time>2017-9-19T0:43:47Z</time></trkpt>
<trkpt lat="48.43123" lon="2.621593"><ele></ele><time>2017-9-19T0:43:50Z</time></trkpt>
<trkpt lat="48.4312" lon="2.621677"><ele></ele><time>2017-9-19T0:43:53Z</time></trkpt>
<trkpt lat="48.431153" lon="2.621787"><ele></ele><time>2017-9-19T0:43:56Z</time></trkpt>
<trkpt lat="48.431125" lon="2.621888"><ele></ele><time>2017-9-19T0:43:59Z</time></trkpt>
<trkpt lat="48.431077" lon="2.621985"><ele></ele><time>2017-9-19T0:44:2Z</time></trkpt>
<trkpt lat="48.431027" lon="2.62204"><ele></ele><time>2017-9-19T0:44:5Z</time></trkpt>
<trkpt lat="48.430938" lon="2.622057"><ele></ele><time>2017-9-19T0:44:8Z</time></trkpt>
<trkpt lat="48.430875" lon="2.622025"><ele></ele><time>2017-9-19T0:44:11Z</time></trkpt>
<trkpt lat="48.430822" lon="2.621983"><ele></ele><time>2017-9-19T0:44:14Z</time></trkpt>
<trkpt lat="48.43076" lon="2.62193"><ele></ele><time>2017-9-19T0:44:17Z</time></trkpt>
<trkpt lat="48.430702" lon="2.621868"><ele></ele><time>2017-9-19T0:44:20Z</time></trkpt>
<trkpt lat="48.430638" lon="2.621808"><ele></ele><time>2017-9-19T0:44:23Z</time></trkpt>
<trkpt lat="48.43057" lon="2.62174"><ele></ele><time>2017-9-19T0:44:26Z</time></trkpt>
<trkpt lat="48.4305" lon="2.621673"><ele></ele><time>2017-9-19T0:44:29Z</time></trkpt>
<trkpt lat="48.430467" lon="2.621638"><ele></ele><time>2017-9-19T0:44:32Z</time></trkpt>
<trkpt lat="48.4304" lon="2.621575"><ele></ele><time>2017-9-19T0:44:35Z</time></trkpt>
<trkpt lat="48.430325" lon="2.621507"><ele></ele><time>2017-9-19T0:44:38Z</time></trkpt>
<trkpt lat="48.430245" lon="2.62143"><ele></ele><time>2017-9-19T0:44:41Z</time></trkpt>
<trkpt lat="48.430172" lon="2.621358"><ele></ele><time>2017-9-19T0:44:44Z</time></trkpt>
<trkpt lat="48.430097" lon="2.621285"><ele></ele><time>2017-9-19T0:44:47Z</time></trkpt>
<trkpt lat="48.430058" lon="2.621248"><ele></ele><time>2017-9-19T0:44:50Z</time></trkpt>
<trkpt lat="48.430018" lon="2.62121"><ele></ele><time>2017-9-19T0:44:53Z</time></trkpt>
<trkpt lat="48.429943" lon="2.62114"><ele></ele><time>2017-9-19T0:44:56Z</time></trkpt>
<trkpt lat="48.429903" lon="2.621103"><ele></ele><time>2017-9-19T0:44:59Z</time></trkpt>
<trkpt lat="48.429865" lon="2.621068"><ele></ele><time>2017-9-19T0:45:2Z</time></trkpt>
<trkpt lat="48.429788" lon="2.621002"><ele></ele><time>2017-9-19T0:45:5Z</time></trkpt>
<trkpt lat="48.429748" lon="2.620965"><ele></ele><time>2017-9-19T0:45:8Z</time></trkpt>
<trkpt lat="48.429675" lon="2.620887"><ele></ele><time>2017-9-19T0:45:11Z</time></trkpt>
<trkpt lat="48.429608" lon="2.620817"><ele></ele><time>2017-9-19T0:45:14Z</time></trkpt>
<trkpt lat="48.429572" lon="2.62078"><ele></ele><time>2017-9-19T0:45:17Z</time></trkpt>
<trkpt lat="48.429498" lon="2.620705"><ele></ele><time>2017-9-19T0:45:20Z</time></trkpt>
<trkpt lat="48.429427" lon="2.62064"><ele></ele><time>2017-9-19T0:45:23Z</time></trkpt>
<trkpt lat="48.429357" lon="2.62058"><ele></ele><time>2017-9-19T0:45:26Z</time></trkpt>
<trkpt lat="48.42929" lon="2.62052"><ele></ele><time>2017-9-19T0:45:29Z</time></trkpt>
<trkpt lat="48.42922" lon="2.620457"><ele></ele><time>2017-9-19T0:45:32Z</time></trkpt>
<trkpt lat="48.429147" lon="2.620388"><ele></ele><time>2017-9-19T0:45:35Z</time></trkpt>
<trkpt lat="48.429075" lon="2.620317"><ele></ele><time>2017-9-19T0:45:38Z</time></trkpt>
<trkpt lat="48.42904" lon="2.620277"><ele></ele><time>2017-9-19T0:45:41Z</time></trkpt>
<trkpt lat="48.428968" lon="2.620202"><ele></ele><time>2017-9-19T0:45:44Z</time></trkpt>
<trkpt lat="48.428895" lon="2.62013"><ele></ele><time>2017-9-19T0:45:47Z</time></trkpt>
<trkpt lat="48.428818" lon="2.620063"><ele></ele><time>2017-9-19T0:45:50Z</time></trkpt>
<trkpt lat="48.428747" lon="2.619988"><ele></ele><time>2017-9-19T0:45:53Z</time></trkpt>
<trkpt lat="48.428673" lon="2.619915"><ele></ele><time>2017-9-19T0:45:56Z</time></trkpt>
<trkpt lat="48.428602" lon="2.619843"><ele></ele><time>2017-9-19T0:45:59Z</time></trkpt>
<trkpt lat="48.428565" lon="2.619807"><ele></ele><time>2017-9-19T0:46:2Z</time></trkpt>
<trkpt lat="48.428528" lon="2.619763"><ele></ele><time>2017-9-19T0:46:5Z</time></trkpt>
<trkpt lat="48.428493" lon="2.61972"><ele></ele><time>2017-9-19T0:46:8Z</time></trkpt>
<trkpt lat="48.428457" lon="2.61968"><ele></ele><time>2017-9-19T0:46:11Z</time></trkpt>
<trkpt lat="48.428418" lon="2.619637"><ele></ele><time>2017-9-19T0:46:14Z</time></trkpt>
<trkpt lat="48.42835" lon="2.619562"><ele></ele><time>2017-9-19T0:46:17Z</time></trkpt>
<trkpt lat="48.428275" lon="2.619492"><ele></ele><time>2017-9-19T0:46:20Z</time></trkpt>
<trkpt lat="48.4282" lon="2.619422"><ele></ele><time>2017-9-19T0:46:23Z</time></trkpt>
<trkpt lat="48.428123" lon="2.619348"><ele></ele><time>2017-9-19T0:46:26Z</time></trkpt>
<trkpt lat="48.428047" lon="2.619278"><ele></ele><time>2017-9-19T0:46:29Z</time></trkpt>
<trkpt lat="48.427975" lon="2.619207"><ele></ele><time>2017-9-19T0:46:32Z</time></trkpt>
<trkpt lat="48.42794" lon="2.619172"><ele></ele><time>2017-9-19T0:46:35Z</time></trkpt>
<trkpt lat="48.427835" lon="2.619073"><ele></ele><time>2017-9-19T0:46:38Z</time></trkpt>
<trkpt lat="48.42776" lon="2.618995"><ele></ele><time>2017-9-19T0:46:41Z</time></trkpt>
<trkpt lat="48.427722" lon="2.618957"><ele></ele><time>2017-9-19T0:46:44Z</time></trkpt>
<trkpt lat="48.427682" lon="2.618917"><ele></ele><time>2017-9-19T0:46:47Z</time></trkpt>
<trkpt lat="48.427643" lon="2.618877"><ele></ele><time>2017-9-19T0:46:50Z</time></trkpt>
<trkpt lat="48.427573" lon="2.618802"><ele></ele><time>2017-9-19T0:46:53Z</time></trkpt>
<trkpt lat="48.427537" lon="2.618765"><ele></ele><time>2017-9-19T0:46:56Z</time></trkpt>
<trkpt lat="48.427498" lon="2.618727"><ele></ele><time>2017-9-19T0:46:59Z</time></trkpt>
<trkpt lat="48.427458" lon="2.618683"><ele></ele><time>2017-9-19T0:47:2Z</time></trkpt>
<trkpt lat="48.42742" lon="2.618637"><ele></ele><time>2017-9-19T0:47:5Z</time></trkpt>
<trkpt lat="48.427382" lon="2.618595"><ele></ele><time>2017-9-19T0:47:8Z</time></trkpt>
<trkpt lat="48.427343" lon="2.618553"><ele></ele><time>2017-9-19T0:47:11Z</time></trkpt>
<trkpt lat="48.427278" lon="2.618482"><ele></ele><time>2017-9-19T0:47:14Z</time></trkpt>
<trkpt lat="48.427227" lon="2.618435"><ele></ele><time>2017-9-19T0:47:17Z</time></trkpt>
<trkpt lat="48.427168" lon="2.618395"><ele></ele><time>2017-9-19T0:47:20Z</time></trkpt>
<trkpt lat="48.427085" lon="2.618325"><ele></ele><time>2017-9-19T0:47:23Z</time></trkpt>
<trkpt lat="48.427032" lon="2.618273"><ele></ele><time>2017-9-19T0:47:26Z</time></trkpt>
<trkpt lat="48.426968" lon="2.618208"><ele></ele><time>2017-9-19T0:47:29Z</time></trkpt>
<trkpt lat="48.426893" lon="2.618135"><ele></ele><time>2017-9-19T0:47:32Z</time></trkpt>
<trkpt lat="48.42682" lon="2.618057"><ele></ele><time>2017-9-19T0:47:35Z</time></trkpt>
<trkpt lat="48.426742" lon="2.617983"><ele></ele><time>2017-9-19T0:47:38Z</time></trkpt>
<trkpt lat="48.426667" lon="2.617908"><ele></ele><time>2017-9-19T0:47:41Z</time></trkpt>
<trkpt lat="48.426597" lon="2.617828"><ele></ele><time>2017-9-19T0:47:44Z</time></trkpt>
<trkpt lat="48.426517" lon="2.617742"><ele></ele><time>2017-9-19T0:47:47Z</time></trkpt>
<trkpt lat="48.426432" lon="2.617663"><ele></ele><time>2017-9-19T0:47:50Z</time></trkpt>
<trkpt lat="48.426347" lon="2.617587"><ele></ele><time>2017-9-19T0:47:53Z</time></trkpt>
<trkpt lat="48.42626" lon="2.617507"><ele></ele><time>2017-9-19T0:47:56Z</time></trkpt>
<trkpt lat="48.426172" lon="2.617422"><ele></ele><time>2017-9-19T0:47:59Z</time></trkpt>
<trkpt lat="48.426085" lon="2.617342"><ele></ele><time>2017-9-19T0:48:2Z</time></trkpt>
<trkpt lat="48.425993" lon="2.617252"><ele></ele><time>2017-9-19T0:48:5Z</time></trkpt>
<trkpt lat="48.425902" lon="2.617162"><ele></ele><time>2017-9-19T0:48:8Z</time></trkpt>
<trkpt lat="48.425813" lon="2.617073"><ele></ele><time>2017-9-19T0:48:11Z</time></trkpt>
<trkpt lat="48.425728" lon="2.616987"><ele></ele><time>2017-9-19T0:48:14Z</time></trkpt>
<trkpt lat="48.425565" lon="2.616823"><ele></ele><time>2017-9-19T0:48:17Z</time></trkpt>
<trkpt lat="48.425408" lon="2.616682"><ele></ele><time>2017-9-19T0:48:20Z</time></trkpt>
<trkpt lat="48.42534" lon="2.616608"><ele></ele><time>2017-9-19T0:48:23Z</time></trkpt>
<trkpt lat="48.425273" lon="2.616545"><ele></ele><time>2017-9-19T0:48:26Z</time></trkpt>
<trkpt lat="48.42521" lon="2.616483"><ele></ele><time>2017-9-19T0:48:29Z</time></trkpt>
<trkpt lat="48.425142" lon="2.616413"><ele></ele><time>2017-9-19T0:48:32Z</time></trkpt>
<trkpt lat="48.425072" lon="2.616345"><ele></ele><time>2017-9-19T0:48:35Z</time></trkpt>
<trkpt lat="48.424998" lon="2.616275"><ele></ele><time>2017-9-19T0:48:38Z</time></trkpt>
<trkpt lat="48.424927" lon="2.616203"><ele></ele><time>2017-9-19T0:48:41Z</time></trkpt>
<trkpt lat="48.424853" lon="2.616127"><ele></ele><time>2017-9-19T0:48:44Z</time></trkpt>
<trkpt lat="48.42478" lon="2.616055"><ele></ele><time>2017-9-19T0:48:47Z</time></trkpt>
<trkpt lat="48.424707" lon="2.615977"><ele></ele><time>2017-9-19T0:48:50Z</time></trkpt>
<trkpt lat="48.424633" lon="2.6159"><ele></ele><time>2017-9-19T0:48:53Z</time></trkpt>
<trkpt lat="48.424562" lon="2.615827"><ele></ele><time>2017-9-19T0:48:56Z</time></trkpt>
<trkpt lat="48.424487" lon="2.615752"><ele></ele><time>2017-9-19T0:48:59Z</time></trkpt>
<trkpt lat="48.424413" lon="2.615678"><ele></ele><time>2017-9-19T0:49:2Z</time></trkpt>
<trkpt lat="48.424345" lon="2.61561"><ele></ele><time>2017-9-19T0:49:5Z</time></trkpt>
<trkpt lat="48.424283" lon="2.615547"><ele></ele><time>2017-9-19T0:49:8Z</time></trkpt>
<trkpt lat="48.424223" lon="2.615487"><ele></ele><time>2017-9-19T0:49:11Z</time></trkpt>
<trkpt lat="48.424167" lon="2.615422"><ele></ele><time>2017-9-19T0:49:14Z</time></trkpt>
<trkpt lat="48.424108" lon="2.615363"><ele></ele><time>2017-9-19T0:49:17Z</time></trkpt>
<trkpt lat="48.424047" lon="2.615308"><ele></ele><time>2017-9-19T0:49:20Z</time></trkpt>
<trkpt lat="48.423988" lon="2.615252"><ele></ele><time>2017-9-19T0:49:23Z</time></trkpt>
<trkpt lat="48.423933" lon="2.615193"><ele></ele><time>2017-9-19T0:49:26Z</time></trkpt>
<trkpt lat="48.423882" lon="2.61514"><ele></ele><time>2017-9-19T0:49:29Z</time></trkpt>
<trkpt lat="48.423772" lon="2.615055"><ele></ele><time>2017-9-19T0:49:32Z</time></trkpt>
<trkpt lat="48.423715" lon="2.615018"><ele></ele><time>2017-9-19T0:49:35Z</time></trkpt>
<trkpt lat="48.423663" lon="2.614982"><ele></ele><time>2017-9-19T0:49:38Z</time></trkpt>
<trkpt lat="48.423612" lon="2.614938"><ele></ele><time>2017-9-19T0:49:41Z</time></trkpt>
<trkpt lat="48.423565" lon="2.614892"><ele></ele><time>2017-9-19T0:49:44Z</time></trkpt>
<trkpt lat="48.423518" lon="2.614847"><ele></ele><time>2017-9-19T0:49:47Z</time></trkpt>
<trkpt lat="48.423473" lon="2.6148"><ele></ele><time>2017-9-19T0:49:50Z</time></trkpt>
<trkpt lat="48.423425" lon="2.614757"><ele></ele><time>2017-9-19T0:49:53Z</time></trkpt>
<trkpt lat="48.42338" lon="2.614713"><ele></ele><time>2017-9-19T0:49:56Z</time></trkpt>
<trkpt lat="48.423335" lon="2.614668"><ele></ele><time>2017-9-19T0:49:59Z</time></trkpt>
<trkpt lat="48.423293" lon="2.614623"><ele></ele><time>2017-9-19T0:50:2Z</time></trkpt>
<trkpt lat="48.423252" lon="2.61458"><ele></ele><time>2017-9-19T0:50:5Z</time></trkpt>
<trkpt lat="48.423208" lon="2.614537"><ele></ele><time>2017-9-19T0:50:8Z</time></trkpt>
<trkpt lat="48.423167" lon="2.614498"><ele></ele><time>2017-9-19T0:50:11Z</time></trkpt>
<trkpt lat="48.423127" lon="2.614457"><ele></ele><time>2017-9-19T0:50:14Z</time></trkpt>
<trkpt lat="48.423085" lon="2.61442"><ele></ele><time>2017-9-19T0:50:17Z</time></trkpt>
<trkpt lat="48.423042" lon="2.61438"><ele></ele><time>2017-9-19T0:50:20Z</time></trkpt>
<trkpt lat="48.422995" lon="2.614342"><ele></ele><time>2017-9-19T0:50:23Z</time></trkpt>
<trkpt lat="48.422948" lon="2.614302"><ele></ele><time>2017-9-19T0:50:26Z</time></trkpt>
<trkpt lat="48.422902" lon="2.614255"><ele></ele><time>2017-9-19T0:50:29Z</time></trkpt>
<trkpt lat="48.422807" lon="2.614153"><ele></ele><time>2017-9-19T0:50:32Z</time></trkpt>
<trkpt lat="48.42272" lon="2.614057"><ele></ele><time>2017-9-19T0:50:35Z</time></trkpt>
<trkpt lat="48.422677" lon="2.61401"><ele></ele><time>2017-9-19T0:50:38Z</time></trkpt>
<trkpt lat="48.422637" lon="2.613967"><ele></ele><time>2017-9-19T0:50:41Z</time></trkpt>
<trkpt lat="48.422598" lon="2.613923"><ele></ele><time>2017-9-19T0:50:44Z</time></trkpt>
<trkpt lat="48.422557" lon="2.613882"><ele></ele><time>2017-9-19T0:50:47Z</time></trkpt>
<trkpt lat="48.422515" lon="2.613842"><ele></ele><time>2017-9-19T0:50:50Z</time></trkpt>
<trkpt lat="48.42247" lon="2.613802"><ele></ele><time>2017-9-19T0:50:53Z</time></trkpt>
<trkpt lat="48.422425" lon="2.61376"><ele></ele><time>2017-9-19T0:50:56Z</time></trkpt>
<trkpt lat="48.42238" lon="2.613717"><ele></ele><time>2017-9-19T0:50:59Z</time></trkpt>
<trkpt lat="48.422335" lon="2.613673"><ele></ele><time>2017-9-19T0:51:2Z</time></trkpt>
<trkpt lat="48.42229" lon="2.613632"><ele></ele><time>2017-9-19T0:51:5Z</time></trkpt>
<trkpt lat="48.422247" lon="2.613588"><ele></ele><time>2017-9-19T0:51:8Z</time></trkpt>
<trkpt lat="48.422202" lon="2.613547"><ele></ele><time>2017-9-19T0:51:11Z</time></trkpt>
<trkpt lat="48.422155" lon="2.613503"><ele></ele><time>2017-9-19T0:51:14Z</time></trkpt>
<trkpt lat="48.422108" lon="2.61346"><ele></ele><time>2017-9-19T0:51:17Z</time></trkpt>
<trkpt lat="48.42206" lon="2.61342"><ele></ele><time>2017-9-19T0:51:20Z</time></trkpt>
<trkpt lat="48.422013" lon="2.613383"><ele></ele><time>2017-9-19T0:51:23Z</time></trkpt>
<trkpt lat="48.421968" lon="2.613345"><ele></ele><time>2017-9-19T0:51:26Z</time></trkpt>
<trkpt lat="48.421925" lon="2.6133"><ele></ele><time>2017-9-19T0:51:29Z</time></trkpt>
<trkpt lat="48.421883" lon="2.613255"><ele></ele><time>2017-9-19T0:51:32Z</time></trkpt>
<trkpt lat="48.42184" lon="2.613213"><ele></ele><time>2017-9-19T0:51:35Z</time></trkpt>
<trkpt lat="48.421797" lon="2.613175"><ele></ele><time>2017-9-19T0:51:38Z</time></trkpt>
<trkpt lat="48.421753" lon="2.613137"><ele></ele><time>2017-9-19T0:51:41Z</time></trkpt>
<trkpt lat="48.42171" lon="2.613095"><ele></ele><time>2017-9-19T0:51:44Z</time></trkpt>
<trkpt lat="48.421667" lon="2.613053"><ele></ele><time>2017-9-19T0:51:47Z</time></trkpt>
<trkpt lat="48.421625" lon="2.61301"><ele></ele><time>2017-9-19T0:51:50Z</time></trkpt>
<trkpt lat="48.421538" lon="2.612922"><ele></ele><time>2017-9-19T0:51:53Z</time></trkpt>
<trkpt lat="48.421497" lon="2.61288"><ele></ele><time>2017-9-19T0:51:56Z</time></trkpt>
<trkpt lat="48.421455" lon="2.61284"><ele></ele><time>2017-9-19T0:51:59Z</time></trkpt>
<trkpt lat="48.421413" lon="2.612802"><ele></ele><time>2017-9-19T0:52:2Z</time></trkpt>
<trkpt lat="48.421373" lon="2.612762"><ele></ele><time>2017-9-19T0:52:5Z</time></trkpt>
<trkpt lat="48.421335" lon="2.612722"><ele></ele><time>2017-9-19T0:52:8Z</time></trkpt>
<trkpt lat="48.421295" lon="2.612685"><ele></ele><time>2017-9-19T0:52:11Z</time></trkpt>
<trkpt lat="48.421257" lon="2.612645"><ele></ele><time>2017-9-19T0:52:14Z</time></trkpt>
<trkpt lat="48.421218" lon="2.612607"><ele></ele><time>2017-9-19T0:52:17Z</time></trkpt>
<trkpt lat="48.42118" lon="2.612568"><ele></ele><time>2017-9-19T0:52:20Z</time></trkpt>
<trkpt lat="48.42114" lon="2.612528"><ele></ele><time>2017-9-19T0:52:23Z</time></trkpt>
<trkpt lat="48.421102" lon="2.612487"><ele></ele><time>2017-9-19T0:52:26Z</time></trkpt>
<trkpt lat="48.421063" lon="2.612445"><ele></ele><time>2017-9-19T0:52:29Z</time></trkpt>
<trkpt lat="48.421025" lon="2.612403"><ele></ele><time>2017-9-19T0:52:32Z</time></trkpt>
<trkpt lat="48.42099" lon="2.612358"><ele></ele><time>2017-9-19T0:52:35Z</time></trkpt>
<trkpt lat="48.420928" lon="2.612262"><ele></ele><time>2017-9-19T0:52:38Z</time></trkpt>
<trkpt lat="48.420868" lon="2.6122"><ele></ele><time>2017-9-19T0:52:41Z</time></trkpt>
<trkpt lat="48.4208" lon="2.612123"><ele></ele><time>2017-9-19T0:52:44Z</time></trkpt>
<trkpt lat="48.42073" lon="2.612068"><ele></ele><time>2017-9-19T0:52:47Z</time></trkpt>
<trkpt lat="48.420668" lon="2.612017"><ele></ele><time>2017-9-19T0:52:50Z</time></trkpt>
<trkpt lat="48.420637" lon="2.611988"><ele></ele><time>2017-9-19T0:52:53Z</time></trkpt>
<trkpt lat="48.420568" lon="2.611928"><ele></ele><time>2017-9-19T0:52:56Z</time></trkpt>
<trkpt lat="48.420502" lon="2.611857"><ele></ele><time>2017-9-19T0:52:59Z</time></trkpt>
<trkpt lat="48.420432" lon="2.611788"><ele></ele><time>2017-9-19T0:53:2Z</time></trkpt>
<trkpt lat="48.420358" lon="2.611717"><ele></ele><time>2017-9-19T0:53:5Z</time></trkpt>
<trkpt lat="48.420283" lon="2.611642"><ele></ele><time>2017-9-19T0:53:8Z</time></trkpt>
<trkpt lat="48.420247" lon="2.611602"><ele></ele><time>2017-9-19T0:53:11Z</time></trkpt>
<trkpt lat="48.420207" lon="2.611563"><ele></ele><time>2017-9-19T0:53:14Z</time></trkpt>
<trkpt lat="48.420133" lon="2.611485"><ele></ele><time>2017-9-19T0:53:17Z</time></trkpt>
<trkpt lat="48.420063" lon="2.611417"><ele></ele><time>2017-9-19T0:53:20Z</time></trkpt>
<trkpt lat="48.419998" lon="2.61135"><ele></ele><time>2017-9-19T0:53:23Z</time></trkpt>
<trkpt lat="48.419933" lon="2.611285"><ele></ele><time>2017-9-19T0:53:26Z</time></trkpt>
<trkpt lat="48.41987" lon="2.611223"><ele></ele><time>2017-9-19T0:53:29Z</time></trkpt>
<trkpt lat="48.419803" lon="2.611158"><ele></ele><time>2017-9-19T0:53:32Z</time></trkpt>
<trkpt lat="48.419732" lon="2.61109"><ele></ele><time>2017-9-19T0:53:35Z</time></trkpt>
<trkpt lat="48.41966" lon="2.61102"><ele></ele><time>2017-9-19T0:53:38Z</time></trkpt>
<trkpt lat="48.419592" lon="2.610947"><ele></ele><time>2017-9-19T0:53:41Z</time></trkpt>
<trkpt lat="48.419527" lon="2.610877"><ele></ele><time>2017-9-19T0:53:44Z</time></trkpt>
<trkpt lat="48.419463" lon="2.610812"><ele></ele><time>2017-9-19T0:53:47Z</time></trkpt>
<trkpt lat="48.419433" lon="2.610778"><ele></ele><time>2017-9-19T0:53:50Z</time></trkpt>
<trkpt lat="48.41934" lon="2.610685"><ele></ele><time>2017-9-19T0:53:53Z</time></trkpt>
<trkpt lat="48.419308" lon="2.610655"><ele></ele><time>2017-9-19T0:53:56Z</time></trkpt>
<trkpt lat="48.419245" lon="2.610597"><ele></ele><time>2017-9-19T0:53:59Z</time></trkpt>
<trkpt lat="48.41918" lon="2.61054"><ele></ele><time>2017-9-19T0:54:2Z</time></trkpt>
<trkpt lat="48.419117" lon="2.610478"><ele></ele><time>2017-9-19T0:54:5Z</time></trkpt>
<trkpt lat="48.419053" lon="2.610415"><ele></ele><time>2017-9-19T0:54:8Z</time></trkpt>
<trkpt lat="48.418992" lon="2.61036"><ele></ele><time>2017-9-19T0:54:11Z</time></trkpt>
<trkpt lat="48.418958" lon="2.61033"><ele></ele><time>2017-9-19T0:54:14Z</time></trkpt>
<trkpt lat="48.418823" lon="2.6102"><ele></ele><time>2017-9-19T0:54:17Z</time></trkpt>
<trkpt lat="48.418758" lon="2.61013"><ele></ele><time>2017-9-19T0:54:20Z</time></trkpt>
<trkpt lat="48.418693" lon="2.610062"><ele></ele><time>2017-9-19T0:54:23Z</time></trkpt>
<trkpt lat="48.418627" lon="2.609997"><ele></ele><time>2017-9-19T0:54:26Z</time></trkpt>
<trkpt lat="48.41856" lon="2.60993"><ele></ele><time>2017-9-19T0:54:29Z</time></trkpt>
<trkpt lat="48.418493" lon="2.609865"><ele></ele><time>2017-9-19T0:54:32Z</time></trkpt>
<trkpt lat="48.418425" lon="2.609802"><ele></ele><time>2017-9-19T0:54:35Z</time></trkpt>
<trkpt lat="48.41836" lon="2.609737"><ele></ele><time>2017-9-19T0:54:38Z</time></trkpt>
<trkpt lat="48.418295" lon="2.609672"><ele></ele><time>2017-9-19T0:54:41Z</time></trkpt>
<trkpt lat="48.41823" lon="2.609608"><ele></ele><time>2017-9-19T0:54:44Z</time></trkpt>
<trkpt lat="48.418167" lon="2.609543"><ele></ele><time>2017-9-19T0:54:47Z</time></trkpt>
<trkpt lat="48.4181" lon="2.60948"><ele></ele><time>2017-9-19T0:54:50Z</time></trkpt>
<trkpt lat="48.418035" lon="2.609417"><ele></ele><time>2017-9-19T0:54:53Z</time></trkpt>
<trkpt lat="48.417968" lon="2.609352"><ele></ele><time>2017-9-19T0:54:56Z</time></trkpt>
<trkpt lat="48.417903" lon="2.609287"><ele></ele><time>2017-9-19T0:54:59Z</time></trkpt>
<trkpt lat="48.417837" lon="2.609222"><ele></ele><time>2017-9-19T0:55:2Z</time></trkpt>
<trkpt lat="48.41777" lon="2.609155"><ele></ele><time>2017-9-19T0:55:5Z</time></trkpt>
<trkpt lat="48.417702" lon="2.609092"><ele></ele><time>2017-9-19T0:55:8Z</time></trkpt>
<trkpt lat="48.417638" lon="2.609025"><ele></ele><time>2017-9-19T0:55:11Z</time></trkpt>
<trkpt lat="48.417573" lon="2.608963"><ele></ele><time>2017-9-19T0:55:14Z</time></trkpt>
<trkpt lat="48.417512" lon="2.608907"><ele></ele><time>2017-9-19T0:55:17Z</time></trkpt>
<trkpt lat="48.417452" lon="2.608847"><ele></ele><time>2017-9-19T0:55:20Z</time></trkpt>
<trkpt lat="48.41742" lon="2.608813"><ele></ele><time>2017-9-19T0:55:23Z</time></trkpt>
<trkpt lat="48.417328" lon="2.60872"><ele></ele><time>2017-9-19T0:55:26Z</time></trkpt>
<trkpt lat="48.417272" lon="2.608652"><ele></ele><time>2017-9-19T0:55:29Z</time></trkpt>
<trkpt lat="48.417213" lon="2.608595"><ele></ele><time>2017-9-19T0:55:32Z</time></trkpt>
<trkpt lat="48.417152" lon="2.608542"><ele></ele><time>2017-9-19T0:55:35Z</time></trkpt>
<trkpt lat="48.417092" lon="2.608488"><ele></ele><time>2017-9-19T0:55:38Z</time></trkpt>
<trkpt lat="48.41703" lon="2.608413"><ele></ele><time>2017-9-19T0:55:41Z</time></trkpt>
<trkpt lat="48.416957" lon="2.608348"><ele></ele><time>2017-9-19T0:55:44Z</time></trkpt>
<trkpt lat="48.41691" lon="2.608297"><ele></ele><time>2017-9-19T0:55:47Z</time></trkpt>
<trkpt lat="48.416848" lon="2.608252"><ele></ele><time>2017-9-19T0:55:50Z</time></trkpt>
<trkpt lat="48.416783" lon="2.608185"><ele></ele><time>2017-9-19T0:55:53Z</time></trkpt>
<trkpt lat="48.41674" lon="2.608138"><ele></ele><time>2017-9-19T0:55:56Z</time></trkpt>
<trkpt lat="48.41669" lon="2.608092"><ele></ele><time>2017-9-19T0:55:59Z</time></trkpt>
<trkpt lat="48.416633" lon="2.608035"><ele></ele><time>2017-9-19T0:56:2Z</time></trkpt>
<trkpt lat="48.416582" lon="2.60798"><ele></ele><time>2017-9-19T0:56:5Z</time></trkpt>
<trkpt lat="48.416535" lon="2.607923"><ele></ele><time>2017-9-19T0:56:8Z</time></trkpt>
<trkpt lat="48.416485" lon="2.607867"><ele></ele><time>2017-9-19T0:56:11Z</time></trkpt>
<trkpt lat="48.416432" lon="2.607808"><ele></ele><time>2017-9-19T0:56:14Z</time></trkpt>
<trkpt lat="48.416375" lon="2.607757"><ele></ele><time>2017-9-19T0:56:17Z</time></trkpt>
<trkpt lat="48.416313" lon="2.607713"><ele></ele><time>2017-9-19T0:56:20Z</time></trkpt>
<trkpt lat="48.41625" lon="2.607685"><ele></ele><time>2017-9-19T0:56:23Z</time></trkpt>
<trkpt lat="48.416182" lon="2.607655"><ele></ele><time>2017-9-19T0:56:26Z</time></trkpt>
<trkpt lat="48.416163" lon="2.607647"><ele></ele><time>2017-9-19T0:56:29Z</time></trkpt>
<trkpt lat="48.416045" lon="2.607672"><ele></ele><time>2017-9-19T0:56:32Z</time></trkpt>
<trkpt lat="48.415983" lon="2.607693"><ele></ele><time>2017-9-19T0:56:35Z</time></trkpt>
<trkpt lat="48.415918" lon="2.607717"><ele></ele><time>2017-9-19T0:56:38Z</time></trkpt>
<trkpt lat="48.41584" lon="2.607737"><ele></ele><time>2017-9-19T0:56:41Z</time></trkpt>
<trkpt lat="48.41576" lon="2.607767"><ele></ele><time>2017-9-19T0:56:44Z</time></trkpt>
<trkpt lat="48.415683" lon="2.607807"><ele></ele><time>2017-9-19T0:56:47Z</time></trkpt>
<trkpt lat="48.415605" lon="2.607837"><ele></ele><time>2017-9-19T0:56:50Z</time></trkpt>
<trkpt lat="48.415527" lon="2.607857"><ele></ele><time>2017-9-19T0:56:53Z</time></trkpt>
<trkpt lat="48.415447" lon="2.60787"><ele></ele><time>2017-9-19T0:56:56Z</time></trkpt>
<trkpt lat="48.415368" lon="2.607888"><ele></ele><time>2017-9-19T0:56:59Z</time></trkpt>
<trkpt lat="48.415292" lon="2.607912"><ele></ele><time>2017-9-19T0:57:2Z</time></trkpt>
<trkpt lat="48.41522" lon="2.607947"><ele></ele><time>2017-9-19T0:57:5Z</time></trkpt>
<trkpt lat="48.41514" lon="2.607963"><ele></ele><time>2017-9-19T0:57:8Z</time></trkpt>
<trkpt lat="48.415097" lon="2.607977"><ele></ele><time>2017-9-19T0:57:11Z</time></trkpt>
<trkpt lat="48.41501" lon="2.608002"><ele></ele><time>2017-9-19T0:57:14Z</time></trkpt>
<trkpt lat="48.41492" lon="2.608037"><ele></ele><time>2017-9-19T0:57:17Z</time></trkpt>
<trkpt lat="48.414833" lon="2.608072"><ele></ele><time>2017-9-19T0:57:20Z</time></trkpt>
<trkpt lat="48.41479" lon="2.608088"><ele></ele><time>2017-9-19T0:57:23Z</time></trkpt>
<trkpt lat="48.414743" lon="2.608105"><ele></ele><time>2017-9-19T0:57:26Z</time></trkpt>
<trkpt lat="48.414697" lon="2.608122"><ele></ele><time>2017-9-19T0:57:29Z</time></trkpt>
<trkpt lat="48.41465" lon="2.608135"><ele></ele><time>2017-9-19T0:57:32Z</time></trkpt>
<trkpt lat="48.414605" lon="2.608153"><ele></ele><time>2017-9-19T0:57:35Z</time></trkpt>
<trkpt lat="48.41452" lon="2.608193"><ele></ele><time>2017-9-19T0:57:38Z</time></trkpt>
<trkpt lat="48.414437" lon="2.608235"><ele></ele><time>2017-9-19T0:57:41Z</time></trkpt>
<trkpt lat="48.41435" lon="2.608268"><ele></ele><time>2017-9-19T0:57:44Z</time></trkpt>
<trkpt lat="48.414263" lon="2.608303"><ele></ele><time>2017-9-19T0:57:47Z</time></trkpt>
<trkpt lat="48.41418" lon="2.608337"><ele></ele><time>2017-9-19T0:57:50Z</time></trkpt>
<trkpt lat="48.414098" lon="2.608372"><ele></ele><time>2017-9-19T0:57:53Z</time></trkpt>
<trkpt lat="48.414013" lon="2.608398"><ele></ele><time>2017-9-19T0:57:56Z</time></trkpt>
<trkpt lat="48.413928" lon="2.608427"><ele></ele><time>2017-9-19T0:57:59Z</time></trkpt>
<trkpt lat="48.413845" lon="2.608447"><ele></ele><time>2017-9-19T0:58:2Z</time></trkpt>
<trkpt lat="48.4138" lon="2.608458"><ele></ele><time>2017-9-19T0:58:5Z</time></trkpt>
<trkpt lat="48.413755" lon="2.608468"><ele></ele><time>2017-9-19T0:58:8Z</time></trkpt>
<trkpt lat="48.413628" lon="2.608503"><ele></ele><time>2017-9-19T0:58:11Z</time></trkpt>
<trkpt lat="48.413547" lon="2.60853"><ele></ele><time>2017-9-19T0:58:14Z</time></trkpt>
<trkpt lat="48.413463" lon="2.608555"><ele></ele><time>2017-9-19T0:58:17Z</time></trkpt>
<trkpt lat="48.413418" lon="2.608575"><ele></ele><time>2017-9-19T0:58:20Z</time></trkpt>
<trkpt lat="48.413333" lon="2.608607"><ele></ele><time>2017-9-19T0:58:23Z</time></trkpt>
<trkpt lat="48.413248" lon="2.608628"><ele></ele><time>2017-9-19T0:58:26Z</time></trkpt>
<trkpt lat="48.413207" lon="2.608642"><ele></ele><time>2017-9-19T0:58:29Z</time></trkpt>
<trkpt lat="48.413125" lon="2.608678"><ele></ele><time>2017-9-19T0:58:32Z</time></trkpt>
<trkpt lat="48.413052" lon="2.608712"><ele></ele><time>2017-9-19T0:58:35Z</time></trkpt>
<trkpt lat="48.412983" lon="2.60874"><ele></ele><time>2017-9-19T0:58:38Z</time></trkpt>
<trkpt lat="48.412902" lon="2.608773"><ele></ele><time>2017-9-19T0:58:41Z</time></trkpt>
<trkpt lat="48.412817" lon="2.608813"><ele></ele><time>2017-9-19T0:58:44Z</time></trkpt>
<trkpt lat="48.412798" lon="2.60894"><ele></ele><time>2017-9-19T0:58:47Z</time></trkpt>
<trkpt lat="48.4128" lon="2.608947"><ele></ele><time>2017-9-19T0:58:50Z</time></trkpt>
<trkpt lat="48.412782" lon="2.609073"><ele></ele><time>2017-9-19T0:58:53Z</time></trkpt>
<trkpt lat="48.41262" lon="2.609035"><ele></ele><time>2017-9-19T0:58:56Z</time></trkpt>
<trkpt lat="48.412558" lon="2.609052"><ele></ele><time>2017-9-19T0:58:59Z</time></trkpt>
<trkpt lat="48.412525" lon="2.609062"><ele></ele><time>2017-9-19T0:59:2Z</time></trkpt>
<trkpt lat="48.412458" lon="2.609085"><ele></ele><time>2017-9-19T0:59:5Z</time></trkpt>
<trkpt lat="48.412388" lon="2.609103"><ele></ele><time>2017-9-19T0:59:8Z</time></trkpt>
<trkpt lat="48.412315" lon="2.609127"><ele></ele><time>2017-9-19T0:59:11Z</time></trkpt>
<trkpt lat="48.412237" lon="2.609143"><ele></ele><time>2017-9-19T0:59:14Z</time></trkpt>
<trkpt lat="48.41216" lon="2.609177"><ele></ele><time>2017-9-19T0:59:17Z</time></trkpt>
<trkpt lat="48.412082" lon="2.609205"><ele></ele><time>2017-9-19T0:59:20Z</time></trkpt>
<trkpt lat="48.412002" lon="2.609228"><ele></ele><time>2017-9-19T0:59:23Z</time></trkpt>
<trkpt lat="48.411923" lon="2.609252"><ele></ele><time>2017-9-19T0:59:26Z</time></trkpt>
<trkpt lat="48.41185" lon="2.609272"><ele></ele><time>2017-9-19T0:59:29Z</time></trkpt>
<trkpt lat="48.41178" lon="2.609282"><ele></ele><time>2017-9-19T0:59:32Z</time></trkpt>
<trkpt lat="48.411715" lon="2.609297"><ele></ele><time>2017-9-19T0:59:35Z</time></trkpt>
<trkpt lat="48.411648" lon="2.609315"><ele></ele><time>2017-9-19T0:59:38Z</time></trkpt>
<trkpt lat="48.411572" lon="2.60933"><ele></ele><time>2017-9-19T0:59:41Z</time></trkpt>
<trkpt lat="48.4115" lon="2.609337"><ele></ele><time>2017-9-19T0:59:44Z</time></trkpt>
<trkpt lat="48.411427" lon="2.609357"><ele></ele><time>2017-9-19T0:59:47Z</time></trkpt>
<trkpt lat="48.41139" lon="2.609362"><ele></ele><time>2017-9-19T0:59:50Z</time></trkpt>
<trkpt lat="48.411315" lon="2.609385"><ele></ele><time>2017-9-19T0:59:53Z</time></trkpt>
<trkpt lat="48.41125" lon="2.609407"><ele></ele><time>2017-9-19T0:59:56Z</time></trkpt>
<trkpt lat="48.411167" lon="2.609442"><ele></ele><time>2017-9-19T0:59:59Z</time></trkpt>
<trkpt lat="48.411108" lon="2.609482"><ele></ele><time>2017-9-19T1:0:2Z</time></trkpt>
<trkpt lat="48.411078" lon="2.60949"><ele></ele><time>2017-9-19T1:0:5Z</time></trkpt>
<trkpt lat="48.410947" lon="2.609552"><ele></ele><time>2017-9-19T1:0:8Z</time></trkpt>
<trkpt lat="48.410858" lon="2.609567"><ele></ele><time>2017-9-19T1:0:11Z</time></trkpt>
<trkpt lat="48.410795" lon="2.609603"><ele></ele><time>2017-9-19T1:0:14Z</time></trkpt>
<trkpt lat="48.410732" lon="2.60965"><ele></ele><time>2017-9-19T1:0:17Z</time></trkpt>
<trkpt lat="48.410647" lon="2.609667"><ele></ele><time>2017-9-19T1:0:20Z</time></trkpt>
<trkpt lat="48.410578" lon="2.609677"><ele></ele><time>2017-9-19T1:0:23Z</time></trkpt>
<trkpt lat="48.410495" lon="2.60971"><ele></ele><time>2017-9-19T1:0:26Z</time></trkpt>
<trkpt lat="48.410413" lon="2.609743"><ele></ele><time>2017-9-19T1:0:29Z</time></trkpt>
<trkpt lat="48.410335" lon="2.609775"><ele></ele><time>2017-9-19T1:0:32Z</time></trkpt>
<trkpt lat="48.410253" lon="2.609808"><ele></ele><time>2017-9-19T1:0:35Z</time></trkpt>
<trkpt lat="48.410173" lon="2.609775"><ele></ele><time>2017-9-19T1:0:38Z</time></trkpt>
<trkpt lat="48.410088" lon="2.609737"><ele></ele><time>2017-9-19T1:0:41Z</time></trkpt>
<trkpt lat="48.41001" lon="2.609692"><ele></ele><time>2017-9-19T1:0:44Z</time></trkpt>
<trkpt lat="48.409925" lon="2.609668"><ele></ele><time>2017-9-19T1:0:47Z</time></trkpt>
<trkpt lat="48.409848" lon="2.609663"><ele></ele><time>2017-9-19T1:0:50Z</time></trkpt>
<trkpt lat="48.409832" lon="2.60966"><ele></ele><time>2017-9-19T1:0:53Z</time></trkpt>
<trkpt lat="48.409683" lon="2.609645"><ele></ele><time>2017-9-19T1:0:56Z</time></trkpt>
<trkpt lat="48.40961" lon="2.60968"><ele></ele><time>2017-9-19T1:0:59Z</time></trkpt>
<trkpt lat="48.409527" lon="2.60971"><ele></ele><time>2017-9-19T1:1:2Z</time></trkpt>
<trkpt lat="48.409465" lon="2.609777"><ele></ele><time>2017-9-19T1:1:5Z</time></trkpt>
<trkpt lat="48.409397" lon="2.609862"><ele></ele><time>2017-9-19T1:1:8Z</time></trkpt>
<trkpt lat="48.409337" lon="2.609942"><ele></ele><time>2017-9-19T1:1:11Z</time></trkpt>
<trkpt lat="48.409268" lon="2.609998"><ele></ele><time>2017-9-19T1:1:14Z</time></trkpt>
<trkpt lat="48.409198" lon="2.610062"><ele></ele><time>2017-9-19T1:1:17Z</time></trkpt>
<trkpt lat="48.409127" lon="2.610122"><ele></ele><time>2017-9-19T1:1:20Z</time></trkpt>
<trkpt lat="48.409045" lon="2.61017"><ele></ele><time>2017-9-19T1:1:23Z</time></trkpt>
<trkpt lat="48.408982" lon="2.610202"><ele></ele><time>2017-9-19T1:1:26Z</time></trkpt>
<trkpt lat="48.408915" lon="2.610245"><ele></ele><time>2017-9-19T1:1:29Z</time></trkpt>
<trkpt lat="48.408867" lon="2.61034"><ele></ele><time>2017-9-19T1:1:32Z</time></trkpt>
<trkpt lat="48.408817" lon="2.61049"><ele></ele><time>2017-9-19T1:1:35Z</time></trkpt>
<trkpt lat="48.408757" lon="2.61065"><ele></ele><time>2017-9-19T1:1:38Z</time></trkpt>
<trkpt lat="48.40873" lon="2.610832"><ele></ele><time>2017-9-19T1:1:41Z</time></trkpt>
<trkpt lat="48.408722" lon="2.610928"><ele></ele><time>2017-9-19T1:1:44Z</time></trkpt>
<trkpt lat="48.408712" lon="2.611027"><ele></ele><time>2017-9-19T1:1:47Z</time></trkpt>
<trkpt lat="48.408708" lon="2.611127"><ele></ele><time>2017-9-19T1:1:50Z</time></trkpt>
<trkpt lat="48.408705" lon="2.61123"><ele></ele><time>2017-9-19T1:1:53Z</time></trkpt>
<trkpt lat="48.408705" lon="2.611333"><ele></ele><time>2017-9-19T1:1:56Z</time></trkpt>
<trkpt lat="48.408708" lon="2.611432"><ele></ele><time>2017-9-19T1:1:59Z</time></trkpt>
<trkpt lat="48.408717" lon="2.611535"><ele></ele><time>2017-9-19T1:2:2Z</time></trkpt>
<trkpt lat="48.408725" lon="2.611637"><ele></ele><time>2017-9-19T1:2:5Z</time></trkpt>
<trkpt lat="48.408737" lon="2.611733"><ele></ele><time>2017-9-19T1:2:8Z</time></trkpt>
<trkpt lat="48.408747" lon="2.611832"><ele></ele><time>2017-9-19T1:2:11Z</time></trkpt>
<trkpt lat="48.408758" lon="2.611927"><ele></ele><time>2017-9-19T1:2:14Z</time></trkpt>
<trkpt lat="48.408777" lon="2.612023"><ele></ele><time>2017-9-19T1:2:17Z</time></trkpt>
<trkpt lat="48.408792" lon="2.612115"><ele></ele><time>2017-9-19T1:2:20Z</time></trkpt>
<trkpt lat="48.408815" lon="2.612208"><ele></ele><time>2017-9-19T1:2:23Z</time></trkpt>
<trkpt lat="48.40883" lon="2.612292"><ele></ele><time>2017-9-19T1:2:26Z</time></trkpt>
<trkpt lat="48.408845" lon="2.612368"><ele></ele><time>2017-9-19T1:2:29Z</time></trkpt>
<trkpt lat="48.408858" lon="2.61247"><ele></ele><time>2017-9-19T1:2:32Z</time></trkpt>
<trkpt lat="48.408868" lon="2.612537"><ele></ele><time>2017-9-19T1:2:35Z</time></trkpt>
<trkpt lat="48.408878" lon="2.612612"><ele></ele><time>2017-9-19T1:2:38Z</time></trkpt>
<trkpt lat="48.408893" lon="2.612745"><ele></ele><time>2017-9-19T1:2:41Z</time></trkpt>
<trkpt lat="48.408908" lon="2.612845"><ele></ele><time>2017-9-19T1:2:44Z</time></trkpt>
<trkpt lat="48.408927" lon="2.612933"><ele></ele><time>2017-9-19T1:2:47Z</time></trkpt>
<trkpt lat="48.408943" lon="2.613033"><ele></ele><time>2017-9-19T1:2:50Z</time></trkpt>
<trkpt lat="48.408957" lon="2.613112"><ele></ele><time>2017-9-19T1:2:53Z</time></trkpt>
<trkpt lat="48.408978" lon="2.613228"><ele></ele><time>2017-9-19T1:2:56Z</time></trkpt>
<trkpt lat="48.408995" lon="2.61333"><ele></ele><time>2017-9-19T1:2:59Z</time></trkpt>
<trkpt lat="48.40902" lon="2.613452"><ele></ele><time>2017-9-19T1:3:2Z</time></trkpt>
<trkpt lat="48.409035" lon="2.613535"><ele></ele><time>2017-9-19T1:3:5Z</time></trkpt>
<trkpt lat="48.409053" lon="2.613633"><ele></ele><time>2017-9-19T1:3:8Z</time></trkpt>
<trkpt lat="48.409082" lon="2.613758"><ele></ele><time>2017-9-19T1:3:11Z</time></trkpt>
<trkpt lat="48.4091" lon="2.61385"><ele></ele><time>2017-9-19T1:3:14Z</time></trkpt>
<trkpt lat="48.409117" lon="2.613943"><ele></ele><time>2017-9-19T1:3:17Z</time></trkpt>
<trkpt lat="48.409125" lon="2.614035"><ele></ele><time>2017-9-19T1:3:20Z</time></trkpt>
<trkpt lat="48.409132" lon="2.614117"><ele></ele><time>2017-9-19T1:3:23Z</time></trkpt>
<trkpt lat="48.409127" lon="2.614197"><ele></ele><time>2017-9-19T1:3:26Z</time></trkpt>
<trkpt lat="48.409113" lon="2.614313"><ele></ele><time>2017-9-19T1:3:29Z</time></trkpt>
<trkpt lat="48.409087" lon="2.614422"><ele></ele><time>2017-9-19T1:3:32Z</time></trkpt>
<trkpt lat="48.409055" lon="2.61452"><ele></ele><time>2017-9-19T1:3:35Z</time></trkpt>
<trkpt lat="48.409047" lon="2.614552"><ele></ele><time>2017-9-19T1:3:38Z</time></trkpt>
<trkpt lat="48.409003" lon="2.614728"><ele></ele><time>2017-9-19T1:3:41Z</time></trkpt>
<trkpt lat="48.408982" lon="2.614832"><ele></ele><time>2017-9-19T1:3:44Z</time></trkpt>
<trkpt lat="48.408955" lon="2.614928"><ele></ele><time>2017-9-19T1:3:47Z</time></trkpt>
<trkpt lat="48.408923" lon="2.61504"><ele></ele><time>2017-9-19T1:3:50Z</time></trkpt>
<trkpt lat="48.408877" lon="2.615133"><ele></ele><time>2017-9-19T1:3:53Z</time></trkpt>
<trkpt lat="48.408832" lon="2.615233"><ele></ele><time>2017-9-19T1:3:56Z</time></trkpt>
<trkpt lat="48.408785" lon="2.615315"><ele></ele><time>2017-9-19T1:3:59Z</time></trkpt>
<trkpt lat="48.408738" lon="2.615407"><ele></ele><time>2017-9-19T1:4:2Z</time></trkpt>
<trkpt lat="48.408675" lon="2.61549"><ele></ele><time>2017-9-19T1:4:5Z</time></trkpt>
<trkpt lat="48.40863" lon="2.615543"><ele></ele><time>2017-9-19T1:4:8Z</time></trkpt>
<trkpt lat="48.40859" lon="2.615607"><ele></ele><time>2017-9-19T1:4:11Z</time></trkpt>
<trkpt lat="48.40855" lon="2.61567"><ele></ele><time>2017-9-19T1:4:14Z</time></trkpt>
<trkpt lat="48.408512" lon="2.615733"><ele></ele><time>2017-9-19T1:4:17Z</time></trkpt>
<trkpt lat="48.408488" lon="2.615807"><ele></ele><time>2017-9-19T1:4:20Z</time></trkpt>
<trkpt lat="48.40847" lon="2.61588"><ele></ele><time>2017-9-19T1:4:23Z</time></trkpt>
<trkpt lat="48.408452" lon="2.615993"><ele></ele><time>2017-9-19T1:4:26Z</time></trkpt>
<trkpt lat="48.408442" lon="2.616118"><ele></ele><time>2017-9-19T1:4:29Z</time></trkpt>
<trkpt lat="48.408437" lon="2.616208"><ele></ele><time>2017-9-19T1:4:32Z</time></trkpt>
<trkpt lat="48.408432" lon="2.616302"><ele></ele><time>2017-9-19T1:4:35Z</time></trkpt>
<trkpt lat="48.408418" lon="2.61639"><ele></ele><time>2017-9-19T1:4:38Z</time></trkpt>
<trkpt lat="48.408397" lon="2.616518"><ele></ele><time>2017-9-19T1:4:41Z</time></trkpt>
<trkpt lat="48.408387" lon="2.616643"><ele></ele><time>2017-9-19T1:4:44Z</time></trkpt>
<trkpt lat="48.408368" lon="2.61677"><ele></ele><time>2017-9-19T1:4:47Z</time></trkpt>
<trkpt lat="48.408362" lon="2.616817"><ele></ele><time>2017-9-19T1:4:50Z</time></trkpt>
<trkpt lat="48.408328" lon="2.617023"><ele></ele><time>2017-9-19T1:4:53Z</time></trkpt>
<trkpt lat="48.408307" lon="2.617153"><ele></ele><time>2017-9-19T1:4:56Z</time></trkpt>
<trkpt lat="48.40829" lon="2.617273"><ele></ele><time>2017-9-19T1:4:59Z</time></trkpt>
<trkpt lat="48.40827" lon="2.617353"><ele></ele><time>2017-9-19T1:5:2Z</time></trkpt>
<trkpt lat="48.408242" lon="2.617465"><ele></ele><time>2017-9-19T1:5:5Z</time></trkpt>
<trkpt lat="48.408218" lon="2.617585"><ele></ele><time>2017-9-19T1:5:8Z</time></trkpt>
<trkpt lat="48.40819" lon="2.617707"><ele></ele><time>2017-9-19T1:5:11Z</time></trkpt>
<trkpt lat="48.408175" lon="2.617802"><ele></ele><time>2017-9-19T1:5:14Z</time></trkpt>
<trkpt lat="48.408157" lon="2.617893"><ele></ele><time>2017-9-19T1:5:17Z</time></trkpt>
<trkpt lat="48.40814" lon="2.618017"><ele></ele><time>2017-9-19T1:5:20Z</time></trkpt>
<trkpt lat="48.4081" lon="2.618122"><ele></ele><time>2017-9-19T1:5:23Z</time></trkpt>
<trkpt lat="48.408045" lon="2.61819"><ele></ele><time>2017-9-19T1:5:26Z</time></trkpt>
<trkpt lat="48.407975" lon="2.618262"><ele></ele><time>2017-9-19T1:5:29Z</time></trkpt>
<trkpt lat="48.407935" lon="2.618293"><ele></ele><time>2017-9-19T1:5:32Z</time></trkpt>
<trkpt lat="48.407895" lon="2.618337"><ele></ele><time>2017-9-19T1:5:35Z</time></trkpt>
<trkpt lat="48.407827" lon="2.618422"><ele></ele><time>2017-9-19T1:5:38Z</time></trkpt>
<trkpt lat="48.407762" lon="2.618492"><ele></ele><time>2017-9-19T1:5:41Z</time></trkpt>
<trkpt lat="48.407688" lon="2.618517"><ele></ele><time>2017-9-19T1:5:44Z</time></trkpt>
<trkpt lat="48.407602" lon="2.618488"><ele></ele><time>2017-9-19T1:5:47Z</time></trkpt>
<trkpt lat="48.407528" lon="2.618438"><ele></ele><time>2017-9-19T1:5:50Z</time></trkpt>
<trkpt lat="48.407513" lon="2.618432"><ele></ele><time>2017-9-19T1:5:53Z</time></trkpt>
<trkpt lat="48.407375" lon="2.618312"><ele></ele><time>2017-9-19T1:5:56Z</time></trkpt>
<trkpt lat="48.40729" lon="2.618273"><ele></ele><time>2017-9-19T1:5:59Z</time></trkpt>
<trkpt lat="48.40723" lon="2.61831"><ele></ele><time>2017-9-19T1:6:2Z</time></trkpt>
<trkpt lat="48.407158" lon="2.618383"><ele></ele><time>2017-9-19T1:6:5Z</time></trkpt>
<trkpt lat="48.407093" lon="2.618473"><ele></ele><time>2017-9-19T1:6:8Z</time></trkpt>
<trkpt lat="48.407037" lon="2.61855"><ele></ele><time>2017-9-19T1:6:11Z</time></trkpt>
<trkpt lat="48.406987" lon="2.618628"><ele></ele><time>2017-9-19T1:6:14Z</time></trkpt>
<trkpt lat="48.40691" lon="2.618658"><ele></ele><time>2017-9-19T1:6:17Z</time></trkpt>
<trkpt lat="48.406835" lon="2.618712"><ele></ele><time>2017-9-19T1:6:20Z</time></trkpt>
<trkpt lat="48.406768" lon="2.618802"><ele></ele><time>2017-9-19T1:6:23Z</time></trkpt>
<trkpt lat="48.40671" lon="2.618875"><ele></ele><time>2017-9-19T1:6:26Z</time></trkpt>
<trkpt lat="48.406695" lon="2.61889"><ele></ele><time>2017-9-19T1:6:29Z</time></trkpt>
<trkpt lat="48.4066" lon="2.619033"><ele></ele><time>2017-9-19T1:6:32Z</time></trkpt>
<trkpt lat="48.406548" lon="2.619123"><ele></ele><time>2017-9-19T1:6:35Z</time></trkpt>
<trkpt lat="48.40649" lon="2.61921"><ele></ele><time>2017-9-19T1:6:38Z</time></trkpt>
<trkpt lat="48.40645" lon="2.619098"><ele></ele><time>2017-9-19T1:6:41Z</time></trkpt>
<trkpt lat="48.406467" lon="2.61898"><ele></ele><time>2017-9-19T1:6:44Z</time></trkpt>
<trkpt lat="48.406483" lon="2.618875"><ele></ele><time>2017-9-19T1:6:47Z</time></trkpt>
<trkpt lat="48.406497" lon="2.61877"><ele></ele><time>2017-9-19T1:6:50Z</time></trkpt>
<trkpt lat="48.406508" lon="2.618647"><ele></ele><time>2017-9-19T1:6:53Z</time></trkpt>
<trkpt lat="48.406523" lon="2.618517"><ele></ele><time>2017-9-19T1:6:56Z</time></trkpt>
<trkpt lat="48.406538" lon="2.61841"><ele></ele><time>2017-9-19T1:6:59Z</time></trkpt>
<trkpt lat="48.406558" lon="2.618315"><ele></ele><time>2017-9-19T1:7:2Z</time></trkpt>
<trkpt lat="48.406573" lon="2.618215"><ele></ele><time>2017-9-19T1:7:5Z</time></trkpt>
<trkpt lat="48.406587" lon="2.61811"><ele></ele><time>2017-9-19T1:7:8Z</time></trkpt>
<trkpt lat="48.406605" lon="2.618005"><ele></ele><time>2017-9-19T1:7:11Z</time></trkpt>
<trkpt lat="48.406615" lon="2.617895"><ele></ele><time>2017-9-19T1:7:14Z</time></trkpt>
<trkpt lat="48.406627" lon="2.617792"><ele></ele><time>2017-9-19T1:7:17Z</time></trkpt>
<trkpt lat="48.406643" lon="2.6177"><ele></ele><time>2017-9-19T1:7:20Z</time></trkpt>
<trkpt lat="48.406658" lon="2.617612"><ele></ele><time>2017-9-19T1:7:23Z</time></trkpt>
<trkpt lat="48.406675" lon="2.617482"><ele></ele><time>2017-9-19T1:7:26Z</time></trkpt>
<trkpt lat="48.406688" lon="2.617392"><ele></ele><time>2017-9-19T1:7:29Z</time></trkpt>
<trkpt lat="48.4067" lon="2.617298"><ele></ele><time>2017-9-19T1:7:32Z</time></trkpt>
<trkpt lat="48.406717" lon="2.617202"><ele></ele><time>2017-9-19T1:7:35Z</time></trkpt>
<trkpt lat="48.40672" lon="2.61709"><ele></ele><time>2017-9-19T1:7:38Z</time></trkpt>
<trkpt lat="48.406728" lon="2.616987"><ele></ele><time>2017-9-19T1:7:41Z</time></trkpt>
<trkpt lat="48.406737" lon="2.616888"><ele></ele><time>2017-9-19T1:7:44Z</time></trkpt>
<trkpt lat="48.406753" lon="2.616758"><ele></ele><time>2017-9-19T1:7:47Z</time></trkpt>
<trkpt lat="48.406767" lon="2.61663"><ele></ele><time>2017-9-19T1:7:50Z</time></trkpt>
<trkpt lat="48.406778" lon="2.616497"><ele></ele><time>2017-9-19T1:7:53Z</time></trkpt>
<trkpt lat="48.406795" lon="2.61638"><ele></ele><time>2017-9-19T1:7:56Z</time></trkpt>
<trkpt lat="48.406807" lon="2.616275"><ele></ele><time>2017-9-19T1:7:59Z</time></trkpt>
<trkpt lat="48.406818" lon="2.61617"><ele></ele><time>2017-9-19T1:8:2Z</time></trkpt>
<trkpt lat="48.406833" lon="2.61604"><ele></ele><time>2017-9-19T1:8:5Z</time></trkpt>
<trkpt lat="48.406842" lon="2.61591"><ele></ele><time>2017-9-19T1:8:8Z</time></trkpt>
<trkpt lat="48.406852" lon="2.615807"><ele></ele><time>2017-9-19T1:8:11Z</time></trkpt>
<trkpt lat="48.406872" lon="2.615702"><ele></ele><time>2017-9-19T1:8:14Z</time></trkpt>
<trkpt lat="48.40688" lon="2.615637"><ele></ele><time>2017-9-19T1:8:17Z</time></trkpt>
<trkpt lat="48.406892" lon="2.615537"><ele></ele><time>2017-9-19T1:8:20Z</time></trkpt>
<trkpt lat="48.406897" lon="2.615503"><ele></ele><time>2017-9-19T1:8:23Z</time></trkpt>
<trkpt lat="48.406903" lon="2.615352"><ele></ele><time>2017-9-19T1:8:26Z</time></trkpt>
<trkpt lat="48.40691" lon="2.615277"><ele></ele><time>2017-9-19T1:8:29Z</time></trkpt>
<trkpt lat="48.40692" lon="2.615168"><ele></ele><time>2017-9-19T1:8:32Z</time></trkpt>
<trkpt lat="48.406938" lon="2.615058"><ele></ele><time>2017-9-19T1:8:35Z</time></trkpt>
<trkpt lat="48.406948" lon="2.614955"><ele></ele><time>2017-9-19T1:8:38Z</time></trkpt>
<trkpt lat="48.406955" lon="2.614853"><ele></ele><time>2017-9-19T1:8:41Z</time></trkpt>
<trkpt lat="48.40697" lon="2.614732"><ele></ele><time>2017-9-19T1:8:44Z</time></trkpt>
<trkpt lat="48.406987" lon="2.614617"><ele></ele><time>2017-9-19T1:8:47Z</time></trkpt>
<trkpt lat="48.407005" lon="2.614493"><ele></ele><time>2017-9-19T1:8:50Z</time></trkpt>
<trkpt lat="48.406927" lon="2.614523"><ele></ele><time>2017-9-19T1:8:53Z</time></trkpt>
<trkpt lat="48.406873" lon="2.614607"><ele></ele><time>2017-9-19T1:8:56Z</time></trkpt>
<trkpt lat="48.40686" lon="2.614623"><ele></ele><time>2017-9-19T1:8:59Z</time></trkpt>
<trkpt lat="48.40675" lon="2.614748"><ele></ele><time>2017-9-19T1:9:2Z</time></trkpt>
<trkpt lat="48.406685" lon="2.614813"><ele></ele><time>2017-9-19T1:9:5Z</time></trkpt>
<trkpt lat="48.406602" lon="2.614838"><ele></ele><time>2017-9-19T1:9:8Z</time></trkpt>
<trkpt lat="48.406513" lon="2.614837"><ele></ele><time>2017-9-19T1:9:11Z</time></trkpt>
<trkpt lat="48.406437" lon="2.614853"><ele></ele><time>2017-9-19T1:9:14Z</time></trkpt>
<trkpt lat="48.406367" lon="2.614858"><ele></ele><time>2017-9-19T1:9:17Z</time></trkpt>
<trkpt lat="48.406292" lon="2.614872"><ele></ele><time>2017-9-19T1:9:20Z</time></trkpt>
<trkpt lat="48.40621" lon="2.614875"><ele></ele><time>2017-9-19T1:9:23Z</time></trkpt>
<trkpt lat="48.406135" lon="2.614883"><ele></ele><time>2017-9-19T1:9:26Z</time></trkpt>
<trkpt lat="48.40607" lon="2.614883"><ele></ele><time>2017-9-19T1:9:29Z</time></trkpt>
<trkpt lat="48.405992" lon="2.614883"><ele></ele><time>2017-9-19T1:9:32Z</time></trkpt>
<trkpt lat="48.405908" lon="2.614892"><ele></ele><time>2017-9-19T1:9:35Z</time></trkpt>
<trkpt lat="48.405895" lon="2.614895"><ele></ele><time>2017-9-19T1:9:38Z</time></trkpt>
<trkpt lat="48.4059" lon="2.614663"><ele></ele><time>2017-9-19T1:9:41Z</time></trkpt>
<trkpt lat="48.405917" lon="2.614597"><ele></ele><time>2017-9-19T1:9:44Z</time></trkpt>
<trkpt lat="48.405938" lon="2.614535"><ele></ele><time>2017-9-19T1:9:47Z</time></trkpt>
<trkpt lat="48.40596" lon="2.614468"><ele></ele><time>2017-9-19T1:9:50Z</time></trkpt>
<trkpt lat="48.405992" lon="2.614377"><ele></ele><time>2017-9-19T1:9:53Z</time></trkpt>
<trkpt lat="48.406032" lon="2.614292"><ele></ele><time>2017-9-19T1:9:56Z</time></trkpt>
<trkpt lat="48.406075" lon="2.614212"><ele></ele><time>2017-9-19T1:9:59Z</time></trkpt>
<trkpt lat="48.406127" lon="2.614112"><ele></ele><time>2017-9-19T1:10:2Z</time></trkpt>
<trkpt lat="48.40618" lon="2.614003"><ele></ele><time>2017-9-19T1:10:5Z</time></trkpt>
<trkpt lat="48.406235" lon="2.613897"><ele></ele><time>2017-9-19T1:10:8Z</time></trkpt>
<trkpt lat="48.40627" lon="2.613823"><ele></ele><time>2017-9-19T1:10:11Z</time></trkpt>
<trkpt lat="48.406288" lon="2.613785"><ele></ele><time>2017-9-19T1:10:14Z</time></trkpt>
<trkpt lat="48.40632" lon="2.613707"><ele></ele><time>2017-9-19T1:10:17Z</time></trkpt>
<trkpt lat="48.406357" lon="2.613633"><ele></ele><time>2017-9-19T1:10:20Z</time></trkpt>
<trkpt lat="48.406393" lon="2.613555"><ele></ele><time>2017-9-19T1:10:23Z</time></trkpt>
<trkpt lat="48.40643" lon="2.613473"><ele></ele><time>2017-9-19T1:10:26Z</time></trkpt>
<trkpt lat="48.406468" lon="2.61339"><ele></ele><time>2017-9-19T1:10:29Z</time></trkpt>
<trkpt lat="48.406513" lon="2.613303"><ele></ele><time>2017-9-19T1:10:32Z</time></trkpt>
<trkpt lat="48.406558" lon="2.613213"><ele></ele><time>2017-9-19T1:10:35Z</time></trkpt>
<trkpt lat="48.406602" lon="2.613122"><ele></ele><time>2017-9-19T1:10:38Z</time></trkpt>
<trkpt lat="48.406635" lon="2.613028"><ele></ele><time>2017-9-19T1:10:41Z</time></trkpt>
<trkpt lat="48.406662" lon="2.612922"><ele></ele><time>2017-9-19T1:10:44Z</time></trkpt>
<trkpt lat="48.406685" lon="2.612813"><ele></ele><time>2017-9-19T1:10:47Z</time></trkpt>
<trkpt lat="48.406708" lon="2.612705"><ele></ele><time>2017-9-19T1:10:50Z</time></trkpt>
<trkpt lat="48.406718" lon="2.612577"><ele></ele><time>2017-9-19T1:10:53Z</time></trkpt>
<trkpt lat="48.406717" lon="2.612448"><ele></ele><time>2017-9-19T1:10:56Z</time></trkpt>
<trkpt lat="48.406713" lon="2.612387"><ele></ele><time>2017-9-19T1:10:59Z</time></trkpt>
<trkpt lat="48.406707" lon="2.612268"><ele></ele><time>2017-9-19T1:11:2Z</time></trkpt>
<trkpt lat="48.406698" lon="2.612162"><ele></ele><time>2017-9-19T1:11:5Z</time></trkpt>
<trkpt lat="48.406687" lon="2.612055"><ele></ele><time>2017-9-19T1:11:8Z</time></trkpt>
<trkpt lat="48.406668" lon="2.611947"><ele></ele><time>2017-9-19T1:11:11Z</time></trkpt>
<trkpt lat="48.40665" lon="2.611837"><ele></ele><time>2017-9-19T1:11:14Z</time></trkpt>
<trkpt lat="48.406642" lon="2.611782"><ele></ele><time>2017-9-19T1:11:17Z</time></trkpt>
<trkpt lat="48.406618" lon="2.611615"><ele></ele><time>2017-9-19T1:11:20Z</time></trkpt>
<trkpt lat="48.406605" lon="2.6115"><ele></ele><time>2017-9-19T1:11:23Z</time></trkpt>
<trkpt lat="48.406603" lon="2.611388"><ele></ele><time>2017-9-19T1:11:26Z</time></trkpt>
<trkpt lat="48.406603" lon="2.611285"><ele></ele><time>2017-9-19T1:11:29Z</time></trkpt>
<trkpt lat="48.406603" lon="2.611187"><ele></ele><time>2017-9-19T1:11:32Z</time></trkpt>
<trkpt lat="48.406598" lon="2.611082"><ele></ele><time>2017-9-19T1:11:35Z</time></trkpt>
<trkpt lat="48.406585" lon="2.610973"><ele></ele><time>2017-9-19T1:11:38Z</time></trkpt>
<trkpt lat="48.406577" lon="2.610922"><ele></ele><time>2017-9-19T1:11:41Z</time></trkpt>
<trkpt lat="48.406553" lon="2.610795"><ele></ele><time>2017-9-19T1:11:44Z</time></trkpt>
<trkpt lat="48.406542" lon="2.610663"><ele></ele><time>2017-9-19T1:11:47Z</time></trkpt>
<trkpt lat="48.406547" lon="2.610543"><ele></ele><time>2017-9-19T1:11:50Z</time></trkpt>
<trkpt lat="48.40656" lon="2.610427"><ele></ele><time>2017-9-19T1:11:53Z</time></trkpt>
<trkpt lat="48.406588" lon="2.610317"><ele></ele><time>2017-9-19T1:11:56Z</time></trkpt>
<trkpt lat="48.406627" lon="2.610212"><ele></ele><time>2017-9-19T1:11:59Z</time></trkpt>
<trkpt lat="48.406668" lon="2.610113"><ele></ele><time>2017-9-19T1:12:2Z</time></trkpt>
<trkpt lat="48.406705" lon="2.610023"><ele></ele><time>2017-9-19T1:12:5Z</time></trkpt>
<trkpt lat="48.406737" lon="2.609935"><ele></ele><time>2017-9-19T1:12:8Z</time></trkpt>
<trkpt lat="48.406763" lon="2.609847"><ele></ele><time>2017-9-19T1:12:11Z</time></trkpt>
<trkpt lat="48.406788" lon="2.60975"><ele></ele><time>2017-9-19T1:12:14Z</time></trkpt>
<trkpt lat="48.406797" lon="2.6097"><ele></ele><time>2017-9-19T1:12:17Z</time></trkpt>
<trkpt lat="48.4068" lon="2.609587"><ele></ele><time>2017-9-19T1:12:20Z</time></trkpt>
<trkpt lat="48.406795" lon="2.60947"><ele></ele><time>2017-9-19T1:12:23Z</time></trkpt>
<trkpt lat="48.406783" lon="2.609353"><ele></ele><time>2017-9-19T1:12:26Z</time></trkpt>
<trkpt lat="48.40678" lon="2.60924"><ele></ele><time>2017-9-19T1:12:29Z</time></trkpt>
<trkpt lat="48.406773" lon="2.609132"><ele></ele><time>2017-9-19T1:12:32Z</time></trkpt>
<trkpt lat="48.406767" lon="2.609023"><ele></ele><time>2017-9-19T1:12:35Z</time></trkpt>
<trkpt lat="48.406757" lon="2.608923"><ele></ele><time>2017-9-19T1:12:38Z</time></trkpt>
<trkpt lat="48.406753" lon="2.60883"><ele></ele><time>2017-9-19T1:12:41Z</time></trkpt>
<trkpt lat="48.406753" lon="2.608695"><ele></ele><time>2017-9-19T1:12:44Z</time></trkpt>
<trkpt lat="48.406752" lon="2.608597"><ele></ele><time>2017-9-19T1:12:47Z</time></trkpt>
<trkpt lat="48.406752" lon="2.608543"><ele></ele><time>2017-9-19T1:12:50Z</time></trkpt>
<trkpt lat="48.406753" lon="2.608385"><ele></ele><time>2017-9-19T1:12:53Z</time></trkpt>
<trkpt lat="48.406758" lon="2.608282"><ele></ele><time>2017-9-19T1:12:56Z</time></trkpt>
<trkpt lat="48.406767" lon="2.608182"><ele></ele><time>2017-9-19T1:12:59Z</time></trkpt>
<trkpt lat="48.406773" lon="2.608078"><ele></ele><time>2017-9-19T1:13:2Z</time></trkpt>
<trkpt lat="48.40678" lon="2.607975"><ele></ele><time>2017-9-19T1:13:5Z</time></trkpt>
<trkpt lat="48.406783" lon="2.607867"><ele></ele><time>2017-9-19T1:13:8Z</time></trkpt>
<trkpt lat="48.406785" lon="2.607763"><ele></ele><time>2017-9-19T1:13:11Z</time></trkpt>
<trkpt lat="48.406787" lon="2.607655"><ele></ele><time>2017-9-19T1:13:14Z</time></trkpt>
<trkpt lat="48.406783" lon="2.607552"><ele></ele><time>2017-9-19T1:13:17Z</time></trkpt>
<trkpt lat="48.406775" lon="2.607452"><ele></ele><time>2017-9-19T1:13:20Z</time></trkpt>
<trkpt lat="48.406763" lon="2.60736"><ele></ele><time>2017-9-19T1:13:23Z</time></trkpt>
<trkpt lat="48.406755" lon="2.60726"><ele></ele><time>2017-9-19T1:13:26Z</time></trkpt>
<trkpt lat="48.406747" lon="2.607148"><ele></ele><time>2017-9-19T1:13:29Z</time></trkpt>
<trkpt lat="48.406738" lon="2.607037"><ele></ele><time>2017-9-19T1:13:32Z</time></trkpt>
<trkpt lat="48.406735" lon="2.60698"><ele></ele><time>2017-9-19T1:13:35Z</time></trkpt>
<trkpt lat="48.40674" lon="2.606868"><ele></ele><time>2017-9-19T1:13:38Z</time></trkpt>
<trkpt lat="48.406748" lon="2.606762"><ele></ele><time>2017-9-19T1:13:41Z</time></trkpt>
<trkpt lat="48.40675" lon="2.606657"><ele></ele><time>2017-9-19T1:13:44Z</time></trkpt>
<trkpt lat="48.406738" lon="2.606552"><ele></ele><time>2017-9-19T1:13:47Z</time></trkpt>
<trkpt lat="48.40672" lon="2.606448"><ele></ele><time>2017-9-19T1:13:50Z</time></trkpt>
<trkpt lat="48.406683" lon="2.60633"><ele></ele><time>2017-9-19T1:13:53Z</time></trkpt>
<trkpt lat="48.406667" lon="2.606225"><ele></ele><time>2017-9-19T1:13:56Z</time></trkpt>
<trkpt lat="48.40666" lon="2.60612"><ele></ele><time>2017-9-19T1:13:59Z</time></trkpt>
<trkpt lat="48.406685" lon="2.606012"><ele></ele><time>2017-9-19T1:14:2Z</time></trkpt>
<trkpt lat="48.40672" lon="2.60594"><ele></ele><time>2017-9-19T1:14:5Z</time></trkpt>
<trkpt lat="48.40677" lon="2.605857"><ele></ele><time>2017-9-19T1:14:8Z</time></trkpt>
<trkpt lat="48.406827" lon="2.605763"><ele></ele><time>2017-9-19T1:14:11Z</time></trkpt>
<trkpt lat="48.40685" lon="2.605718"><ele></ele><time>2017-9-19T1:14:14Z</time></trkpt>
<trkpt lat="48.406885" lon="2.60562"><ele></ele><time>2017-9-19T1:14:17Z</time></trkpt>
<trkpt lat="48.406902" lon="2.605522"><ele></ele><time>2017-9-19T1:14:20Z</time></trkpt>
<trkpt lat="48.406905" lon="2.60542"><ele></ele><time>2017-9-19T1:14:23Z</time></trkpt>
<trkpt lat="48.406903" lon="2.605313"><ele></ele><time>2017-9-19T1:14:26Z</time></trkpt>
<trkpt lat="48.4069" lon="2.605092"><ele></ele><time>2017-9-19T1:14:29Z</time></trkpt>
<trkpt lat="48.406903" lon="2.604983"><ele></ele><time>2017-9-19T1:14:32Z</time></trkpt>
<trkpt lat="48.406907" lon="2.604878"><ele></ele><time>2017-9-19T1:14:35Z</time></trkpt>
<trkpt lat="48.406908" lon="2.60477"><ele></ele><time>2017-9-19T1:14:38Z</time></trkpt>
<trkpt lat="48.406908" lon="2.604665"><ele></ele><time>2017-9-19T1:14:41Z</time></trkpt>
<trkpt lat="48.406918" lon="2.604558"><ele></ele><time>2017-9-19T1:14:44Z</time></trkpt>
<trkpt lat="48.406923" lon="2.604452"><ele></ele><time>2017-9-19T1:14:47Z</time></trkpt>
<trkpt lat="48.406923" lon="2.604348"><ele></ele><time>2017-9-19T1:14:50Z</time></trkpt>
<trkpt lat="48.406925" lon="2.604253"><ele></ele><time>2017-9-19T1:14:53Z</time></trkpt>
<trkpt lat="48.406925" lon="2.604135"><ele></ele><time>2017-9-19T1:14:56Z</time></trkpt>
<trkpt lat="48.406898" lon="2.60407"><ele></ele><time>2017-9-19T1:14:59Z</time></trkpt>
<trkpt lat="48.406852" lon="2.604012"><ele></ele><time>2017-9-19T1:15:2Z</time></trkpt>
<trkpt lat="48.406783" lon="2.603968"><ele></ele><time>2017-9-19T1:15:5Z</time></trkpt>
<trkpt lat="48.406713" lon="2.603913"><ele></ele><time>2017-9-19T1:15:8Z</time></trkpt>
<trkpt lat="48.406647" lon="2.603843"><ele></ele><time>2017-9-19T1:15:11Z</time></trkpt>
<trkpt lat="48.406585" lon="2.60377"><ele></ele><time>2017-9-19T1:15:14Z</time></trkpt>
<trkpt lat="48.406525" lon="2.603707"><ele></ele><time>2017-9-19T1:15:17Z</time></trkpt>
<trkpt lat="48.406463" lon="2.603638"><ele></ele><time>2017-9-19T1:15:20Z</time></trkpt>
<trkpt lat="48.406402" lon="2.603573"><ele></ele><time>2017-9-19T1:15:23Z</time></trkpt>
<trkpt lat="48.406348" lon="2.60351"><ele></ele><time>2017-9-19T1:15:26Z</time></trkpt>
<trkpt lat="48.406288" lon="2.603447"><ele></ele><time>2017-9-19T1:15:29Z</time></trkpt>
<trkpt lat="48.406228" lon="2.603378"><ele></ele><time>2017-9-19T1:15:32Z</time></trkpt>
<trkpt lat="48.40617" lon="2.603305"><ele></ele><time>2017-9-19T1:15:35Z</time></trkpt>
<trkpt lat="48.406118" lon="2.603233"><ele></ele><time>2017-9-19T1:15:38Z</time></trkpt>
<trkpt lat="48.406072" lon="2.603158"><ele></ele><time>2017-9-19T1:15:41Z</time></trkpt>
<trkpt lat="48.40605" lon="2.60307"><ele></ele><time>2017-9-19T1:15:44Z</time></trkpt>
<trkpt lat="48.406042" lon="2.603018"><ele></ele><time>2017-9-19T1:15:47Z</time></trkpt>
<trkpt lat="48.406043" lon="2.602852"><ele></ele><time>2017-9-19T1:15:50Z</time></trkpt>
<trkpt lat="48.406062" lon="2.60274"><ele></ele><time>2017-9-19T1:15:53Z</time></trkpt>
<trkpt lat="48.406078" lon="2.602625"><ele></ele><time>2017-9-19T1:15:56Z</time></trkpt>
<trkpt lat="48.406097" lon="2.602507"><ele></ele><time>2017-9-19T1:15:59Z</time></trkpt>
<trkpt lat="48.406118" lon="2.6024"><ele></ele><time>2017-9-19T1:16:2Z</time></trkpt>
<trkpt lat="48.406138" lon="2.602293"><ele></ele><time>2017-9-19T1:16:5Z</time></trkpt>
<trkpt lat="48.406158" lon="2.602188"><ele></ele><time>2017-9-19T1:16:8Z</time></trkpt>
<trkpt lat="48.40617" lon="2.602133"><ele></ele><time>2017-9-19T1:16:11Z</time></trkpt>
<trkpt lat="48.406195" lon="2.602027"><ele></ele><time>2017-9-19T1:16:14Z</time></trkpt>
<trkpt lat="48.40622" lon="2.601912"><ele></ele><time>2017-9-19T1:16:17Z</time></trkpt>
<trkpt lat="48.406242" lon="2.601802"><ele></ele><time>2017-9-19T1:16:20Z</time></trkpt>
<trkpt lat="48.406265" lon="2.601695"><ele></ele><time>2017-9-19T1:16:23Z</time></trkpt>
<trkpt lat="48.406285" lon="2.60158"><ele></ele><time>2017-9-19T1:16:26Z</time></trkpt>
<trkpt lat="48.406317" lon="2.601465"><ele></ele><time>2017-9-19T1:16:29Z</time></trkpt>
<trkpt lat="48.406342" lon="2.601348"><ele></ele><time>2017-9-19T1:16:32Z</time></trkpt>
<trkpt lat="48.406365" lon="2.601227"><ele></ele><time>2017-9-19T1:16:35Z</time></trkpt>
<trkpt lat="48.406385" lon="2.601098"><ele></ele><time>2017-9-19T1:16:38Z</time></trkpt>
<trkpt lat="48.4064" lon="2.600972"><ele></ele><time>2017-9-19T1:16:41Z</time></trkpt>
<trkpt lat="48.406413" lon="2.600843"><ele></ele><time>2017-9-19T1:16:44Z</time></trkpt>
<trkpt lat="48.406427" lon="2.600717"><ele></ele><time>2017-9-19T1:16:47Z</time></trkpt>
<trkpt lat="48.406438" lon="2.600583"><ele></ele><time>2017-9-19T1:16:50Z</time></trkpt>
<trkpt lat="48.406447" lon="2.600452"><ele></ele><time>2017-9-19T1:16:53Z</time></trkpt>
<trkpt lat="48.406452" lon="2.600328"><ele></ele><time>2017-9-19T1:16:56Z</time></trkpt>
<trkpt lat="48.406452" lon="2.600205"><ele></ele><time>2017-9-19T1:16:59Z</time></trkpt>
<trkpt lat="48.406453" lon="2.60014"><ele></ele><time>2017-9-19T1:17:2Z</time></trkpt>
<trkpt lat="48.40645" lon="2.600015"><ele></ele><time>2017-9-19T1:17:5Z</time></trkpt>
<trkpt lat="48.406447" lon="2.599905"><ele></ele><time>2017-9-19T1:17:8Z</time></trkpt>
<trkpt lat="48.406445" lon="2.599803"><ele></ele><time>2017-9-19T1:17:11Z</time></trkpt>
<trkpt lat="48.40644" lon="2.599688"><ele></ele><time>2017-9-19T1:17:14Z</time></trkpt>
<trkpt lat="48.40644" lon="2.599577"><ele></ele><time>2017-9-19T1:17:17Z</time></trkpt>
<trkpt lat="48.406437" lon="2.599463"><ele></ele><time>2017-9-19T1:17:20Z</time></trkpt>
<trkpt lat="48.406435" lon="2.599405"><ele></ele><time>2017-9-19T1:17:23Z</time></trkpt>
<trkpt lat="48.406427" lon="2.599233"><ele></ele><time>2017-9-19T1:17:26Z</time></trkpt>
<trkpt lat="48.406418" lon="2.599122"><ele></ele><time>2017-9-19T1:17:29Z</time></trkpt>
<trkpt lat="48.4064" lon="2.599012"><ele></ele><time>2017-9-19T1:17:32Z</time></trkpt>
<trkpt lat="48.406375" lon="2.5989"><ele></ele><time>2017-9-19T1:17:35Z</time></trkpt>
<trkpt lat="48.406347" lon="2.598798"><ele></ele><time>2017-9-19T1:17:38Z</time></trkpt>
<trkpt lat="48.40631" lon="2.598702"><ele></ele><time>2017-9-19T1:17:41Z</time></trkpt>
<trkpt lat="48.406268" lon="2.598612"><ele></ele><time>2017-9-19T1:17:44Z</time></trkpt>
<trkpt lat="48.406223" lon="2.59853"><ele></ele><time>2017-9-19T1:17:47Z</time></trkpt>
<trkpt lat="48.406198" lon="2.598492"><ele></ele><time>2017-9-19T1:17:50Z</time></trkpt>
<trkpt lat="48.406153" lon="2.59842"><ele></ele><time>2017-9-19T1:17:53Z</time></trkpt>
<trkpt lat="48.406107" lon="2.598355"><ele></ele><time>2017-9-19T1:17:56Z</time></trkpt>
<trkpt lat="48.406025" lon="2.598298"><ele></ele><time>2017-9-19T1:17:59Z</time></trkpt>
<trkpt lat="48.405967" lon="2.598278"><ele></ele><time>2017-9-19T1:18:2Z</time></trkpt>
<trkpt lat="48.405885" lon="2.598265"><ele></ele><time>2017-9-19T1:18:5Z</time></trkpt>
<trkpt lat="48.405827" lon="2.59833"><ele></ele><time>2017-9-19T1:18:8Z</time></trkpt>
<trkpt lat="48.405757" lon="2.598412"><ele></ele><time>2017-9-19T1:18:11Z</time></trkpt>
<trkpt lat="48.405692" lon="2.598492"><ele></ele><time>2017-9-19T1:18:14Z</time></trkpt>
<trkpt lat="48.40563" lon="2.598587"><ele></ele><time>2017-9-19T1:18:17Z</time></trkpt>
<trkpt lat="48.40556" lon="2.598668"><ele></ele><time>2017-9-19T1:18:20Z</time></trkpt>
<trkpt lat="48.405608" lon="2.598623"><ele></ele><time>2017-9-19T1:18:23Z</time></trkpt>
<trkpt lat="48.405643" lon="2.598583"><ele></ele><time>2017-9-19T1:18:26Z</time></trkpt>
<trkpt lat="48.405707" lon="2.598502"><ele></ele><time>2017-9-19T1:18:29Z</time></trkpt>
<trkpt lat="48.405773" lon="2.598423"><ele></ele><time>2017-9-19T1:18:32Z</time></trkpt>
<trkpt lat="48.405842" lon="2.598337"><ele></ele><time>2017-9-19T1:18:35Z</time></trkpt>
<trkpt lat="48.405902" lon="2.598302"><ele></ele><time>2017-9-19T1:18:38Z</time></trkpt>
<trkpt lat="48.405965" lon="2.59826"><ele></ele><time>2017-9-19T1:18:41Z</time></trkpt>
<trkpt lat="48.40602" lon="2.598175"><ele></ele><time>2017-9-19T1:18:44Z</time></trkpt>
<trkpt lat="48.406048" lon="2.598125"><ele></ele><time>2017-9-19T1:18:47Z</time></trkpt>
<trkpt lat="48.40608" lon="2.598072"><ele></ele><time>2017-9-19T1:18:50Z</time></trkpt>
<trkpt lat="48.40614" lon="2.597983"><ele></ele><time>2017-9-19T1:18:53Z</time></trkpt>
<trkpt lat="48.406202" lon="2.597898"><ele></ele><time>2017-9-19T1:18:56Z</time></trkpt>
<trkpt lat="48.406252" lon="2.59781"><ele></ele><time>2017-9-19T1:18:59Z</time></trkpt>
<trkpt lat="48.406317" lon="2.597718"><ele></ele><time>2017-9-19T1:19:2Z</time></trkpt>
<trkpt lat="48.40634" lon="2.5976"><ele></ele><time>2017-9-19T1:19:5Z</time></trkpt>
<trkpt lat="48.406342" lon="2.597585"><ele></ele><time>2017-9-19T1:19:8Z</time></trkpt>
<trkpt lat="48.406452" lon="2.597433"><ele></ele><time>2017-9-19T1:19:11Z</time></trkpt>
<trkpt lat="48.406457" lon="2.597432"><ele></ele><time>2017-9-19T1:19:14Z</time></trkpt>
<trkpt lat="48.406578" lon="2.597473"><ele></ele><time>2017-9-19T1:19:17Z</time></trkpt>
<trkpt lat="48.406645" lon="2.597498"><ele></ele><time>2017-9-19T1:19:20Z</time></trkpt>
<trkpt lat="48.406725" lon="2.59753"><ele></ele><time>2017-9-19T1:19:23Z</time></trkpt>
<trkpt lat="48.406813" lon="2.59754"><ele></ele><time>2017-9-19T1:19:26Z</time></trkpt>
<trkpt lat="48.406903" lon="2.597542"><ele></ele><time>2017-9-19T1:19:29Z</time></trkpt>
<trkpt lat="48.406958" lon="2.597633"><ele></ele><time>2017-9-19T1:19:32Z</time></trkpt>
<trkpt lat="48.407007" lon="2.597723"><ele></ele><time>2017-9-19T1:19:35Z</time></trkpt>
<trkpt lat="48.407027" lon="2.597852"><ele></ele><time>2017-9-19T1:19:38Z</time></trkpt>
<trkpt lat="48.407032" lon="2.597862"><ele></ele><time>2017-9-19T1:19:41Z</time></trkpt>
<trkpt lat="48.407133" lon="2.598037"><ele></ele><time>2017-9-19T1:19:44Z</time></trkpt>
<trkpt lat="48.407222" lon="2.59806"><ele></ele><time>2017-9-19T1:19:47Z</time></trkpt>
<trkpt lat="48.407293" lon="2.598127"><ele></ele><time>2017-9-19T1:19:50Z</time></trkpt>
<trkpt lat="48.407297" lon="2.598135"><ele></ele><time>2017-9-19T1:19:53Z</time></trkpt>
<trkpt lat="48.407442" lon="2.598263"><ele></ele><time>2017-9-19T1:19:56Z</time></trkpt>
<trkpt lat="48.407507" lon="2.598348"><ele></ele><time>2017-9-19T1:19:59Z</time></trkpt>
<trkpt lat="48.40751" lon="2.598353"><ele></ele><time>2017-9-19T1:20:2Z</time></trkpt>
<trkpt lat="48.407652" lon="2.598432"><ele></ele><time>2017-9-19T1:20:5Z</time></trkpt>
<trkpt lat="48.407737" lon="2.598428"><ele></ele><time>2017-9-19T1:20:8Z</time></trkpt>
<trkpt lat="48.407782" lon="2.598418"><ele></ele><time>2017-9-19T1:20:11Z</time></trkpt>
<trkpt lat="48.407823" lon="2.598392"><ele></ele><time>2017-9-19T1:20:14Z</time></trkpt>
<trkpt lat="48.407908" lon="2.598368"><ele></ele><time>2017-9-19T1:20:17Z</time></trkpt>
<trkpt lat="48.407975" lon="2.598355"><ele></ele><time>2017-9-19T1:20:20Z</time></trkpt>
<trkpt lat="48.408058" lon="2.598352"><ele></ele><time>2017-9-19T1:20:23Z</time></trkpt>
<trkpt lat="48.408132" lon="2.598345"><ele></ele><time>2017-9-19T1:20:26Z</time></trkpt>
<trkpt lat="48.408198" lon="2.598303"><ele></ele><time>2017-9-19T1:20:29Z</time></trkpt>
<trkpt lat="48.408257" lon="2.598223"><ele></ele><time>2017-9-19T1:20:32Z</time></trkpt>
<trkpt lat="48.408343" lon="2.598215"><ele></ele><time>2017-9-19T1:20:35Z</time></trkpt>
<trkpt lat="48.408405" lon="2.598175"><ele></ele><time>2017-9-19T1:20:38Z</time></trkpt>
<trkpt lat="48.408478" lon="2.598145"><ele></ele><time>2017-9-19T1:20:41Z</time></trkpt>
<trkpt lat="48.408538" lon="2.598152"><ele></ele><time>2017-9-19T1:20:44Z</time></trkpt>
<trkpt lat="48.408627" lon="2.598145"><ele></ele><time>2017-9-19T1:20:47Z</time></trkpt>
<trkpt lat="48.408683" lon="2.598108"><ele></ele><time>2017-9-19T1:20:50Z</time></trkpt>
<trkpt lat="48.408755" lon="2.59808"><ele></ele><time>2017-9-19T1:20:53Z</time></trkpt>
<trkpt lat="48.408823" lon="2.598055"><ele></ele><time>2017-9-19T1:20:56Z</time></trkpt>
<trkpt lat="48.408873" lon="2.597998"><ele></ele><time>2017-9-19T1:20:59Z</time></trkpt>
<trkpt lat="48.40893" lon="2.597933"><ele></ele><time>2017-9-19T1:21:2Z</time></trkpt>
<trkpt lat="48.408958" lon="2.597897"><ele></ele><time>2017-9-19T1:21:5Z</time></trkpt>
<trkpt lat="48.409008" lon="2.597852"><ele></ele><time>2017-9-19T1:21:8Z</time></trkpt>
<trkpt lat="48.40906" lon="2.597852"><ele></ele><time>2017-9-19T1:21:11Z</time></trkpt>
<trkpt lat="48.409148" lon="2.597832"><ele></ele><time>2017-9-19T1:21:14Z</time></trkpt>
<trkpt lat="48.409213" lon="2.597823"><ele></ele><time>2017-9-19T1:21:17Z</time></trkpt>
<trkpt lat="48.409275" lon="2.5978"><ele></ele><time>2017-9-19T1:21:20Z</time></trkpt>
<trkpt lat="48.409332" lon="2.597708"><ele></ele><time>2017-9-19T1:21:23Z</time></trkpt>
<trkpt lat="48.409348" lon="2.59762"><ele></ele><time>2017-9-19T1:21:26Z</time></trkpt>
<trkpt lat="48.409355" lon="2.597575"><ele></ele><time>2017-9-19T1:21:29Z</time></trkpt>
<trkpt lat="48.409382" lon="2.597397"><ele></ele><time>2017-9-19T1:21:32Z</time></trkpt>
<trkpt lat="48.409402" lon="2.59728"><ele></ele><time>2017-9-19T1:21:35Z</time></trkpt>
<trkpt lat="48.409407" lon="2.597233"><ele></ele><time>2017-9-19T1:21:38Z</time></trkpt>
<trkpt lat="48.409413" lon="2.597133"><ele></ele><time>2017-9-19T1:21:41Z</time></trkpt>
<trkpt lat="48.409423" lon="2.597027"><ele></ele><time>2017-9-19T1:21:44Z</time></trkpt>
<trkpt lat="48.409438" lon="2.596922"><ele></ele><time>2017-9-19T1:21:47Z</time></trkpt>
<trkpt lat="48.409447" lon="2.596812"><ele></ele><time>2017-9-19T1:21:50Z</time></trkpt>
<trkpt lat="48.409462" lon="2.596702"><ele></ele><time>2017-9-19T1:21:53Z</time></trkpt>
<trkpt lat="48.409477" lon="2.596592"><ele></ele><time>2017-9-19T1:21:56Z</time></trkpt>
<trkpt lat="48.409492" lon="2.596482"><ele></ele><time>2017-9-19T1:21:59Z</time></trkpt>
<trkpt lat="48.409505" lon="2.596377"><ele></ele><time>2017-9-19T1:22:2Z</time></trkpt>
<trkpt lat="48.409517" lon="2.596267"><ele></ele><time>2017-9-19T1:22:5Z</time></trkpt>
<trkpt lat="48.409532" lon="2.59615"><ele></ele><time>2017-9-19T1:22:8Z</time></trkpt>
<trkpt lat="48.409538" lon="2.596088"><ele></ele><time>2017-9-19T1:22:11Z</time></trkpt>
<trkpt lat="48.409553" lon="2.595972"><ele></ele><time>2017-9-19T1:22:14Z</time></trkpt>
<trkpt lat="48.409563" lon="2.595855"><ele></ele><time>2017-9-19T1:22:17Z</time></trkpt>
<trkpt lat="48.409582" lon="2.595753"><ele></ele><time>2017-9-19T1:22:20Z</time></trkpt>
<trkpt lat="48.409637" lon="2.595748"><ele></ele><time>2017-9-19T1:22:23Z</time></trkpt>
<trkpt lat="48.409665" lon="2.595808"><ele></ele><time>2017-9-19T1:22:26Z</time></trkpt>
<trkpt lat="48.409702" lon="2.59587"><ele></ele><time>2017-9-19T1:22:29Z</time></trkpt>
<trkpt lat="48.409738" lon="2.59594"><ele></ele><time>2017-9-19T1:22:32Z</time></trkpt>
<trkpt lat="48.409788" lon="2.596052"><ele></ele><time>2017-9-19T1:22:35Z</time></trkpt>
<trkpt lat="48.409825" lon="2.59613"><ele></ele><time>2017-9-19T1:22:38Z</time></trkpt>
<trkpt lat="48.409867" lon="2.596208"><ele></ele><time>2017-9-19T1:22:41Z</time></trkpt>
<trkpt lat="48.409908" lon="2.596287"><ele></ele><time>2017-9-19T1:22:44Z</time></trkpt>
<trkpt lat="48.409955" lon="2.59637"><ele></ele><time>2017-9-19T1:22:47Z</time></trkpt>
<trkpt lat="48.409998" lon="2.596452"><ele></ele><time>2017-9-19T1:22:50Z</time></trkpt>
<trkpt lat="48.410047" lon="2.596535"><ele></ele><time>2017-9-19T1:22:53Z</time></trkpt>
<trkpt lat="48.410097" lon="2.596613"><ele></ele><time>2017-9-19T1:22:56Z</time></trkpt>
<trkpt lat="48.410147" lon="2.596698"><ele></ele><time>2017-9-19T1:22:59Z</time></trkpt>
<trkpt lat="48.410192" lon="2.596787"><ele></ele><time>2017-9-19T1:23:2Z</time></trkpt>
<trkpt lat="48.41024" lon="2.596878"><ele></ele><time>2017-9-19T1:23:5Z</time></trkpt>
<trkpt lat="48.410283" lon="2.596967"><ele></ele><time>2017-9-19T1:23:8Z</time></trkpt>
<trkpt lat="48.410335" lon="2.597052"><ele></ele><time>2017-9-19T1:23:11Z</time></trkpt>
<trkpt lat="48.410382" lon="2.597142"><ele></ele><time>2017-9-19T1:23:14Z</time></trkpt>
<trkpt lat="48.41043" lon="2.597227"><ele></ele><time>2017-9-19T1:23:17Z</time></trkpt>
<trkpt lat="48.410473" lon="2.59731"><ele></ele><time>2017-9-19T1:23:20Z</time></trkpt>
<trkpt lat="48.41052" lon="2.5974"><ele></ele><time>2017-9-19T1:23:23Z</time></trkpt>
<trkpt lat="48.410567" lon="2.597492"><ele></ele><time>2017-9-19T1:23:26Z</time></trkpt>
<trkpt lat="48.410625" lon="2.597577"><ele></ele><time>2017-9-19T1:23:29Z</time></trkpt>
<trkpt lat="48.410673" lon="2.59766"><ele></ele><time>2017-9-19T1:23:32Z</time></trkpt>
<trkpt lat="48.410722" lon="2.597753"><ele></ele><time>2017-9-19T1:23:35Z</time></trkpt>
<trkpt lat="48.410748" lon="2.597803"><ele></ele><time>2017-9-19T1:23:38Z</time></trkpt>
<trkpt lat="48.410788" lon="2.597898"><ele></ele><time>2017-9-19T1:23:41Z</time></trkpt>
<trkpt lat="48.410833" lon="2.597988"><ele></ele><time>2017-9-19T1:23:44Z</time></trkpt>
<trkpt lat="48.410878" lon="2.598073"><ele></ele><time>2017-9-19T1:23:47Z</time></trkpt>
<trkpt lat="48.410922" lon="2.598157"><ele></ele><time>2017-9-19T1:23:50Z</time></trkpt>
<trkpt lat="48.41096" lon="2.598252"><ele></ele><time>2017-9-19T1:23:53Z</time></trkpt>
<trkpt lat="48.411008" lon="2.59834"><ele></ele><time>2017-9-19T1:23:56Z</time></trkpt>
<trkpt lat="48.411027" lon="2.59837"><ele></ele><time>2017-9-19T1:23:59Z</time></trkpt>
<trkpt lat="48.411113" lon="2.598468"><ele></ele><time>2017-9-19T1:24:2Z</time></trkpt>
<trkpt lat="48.411133" lon="2.598557"><ele></ele><time>2017-9-19T1:24:5Z</time></trkpt>
<trkpt lat="48.411155" lon="2.598643"><ele></ele><time>2017-9-19T1:24:8Z</time></trkpt>
<trkpt lat="48.411163" lon="2.598738"><ele></ele><time>2017-9-19T1:24:11Z</time></trkpt>
<trkpt lat="48.411172" lon="2.598787"><ele></ele><time>2017-9-19T1:24:14Z</time></trkpt>
<trkpt lat="48.411188" lon="2.598888"><ele></ele><time>2017-9-19T1:24:17Z</time></trkpt>
<trkpt lat="48.4112" lon="2.59899"><ele></ele><time>2017-9-19T1:24:20Z</time></trkpt>
<trkpt lat="48.411192" lon="2.599097"><ele></ele><time>2017-9-19T1:24:23Z</time></trkpt>
<trkpt lat="48.411153" lon="2.599185"><ele></ele><time>2017-9-19T1:24:26Z</time></trkpt>
<trkpt lat="48.411117" lon="2.59927"><ele></ele><time>2017-9-19T1:24:29Z</time></trkpt>
<trkpt lat="48.411088" lon="2.599357"><ele></ele><time>2017-9-19T1:24:32Z</time></trkpt>
<trkpt lat="48.411062" lon="2.59945"><ele></ele><time>2017-9-19T1:24:35Z</time></trkpt>
<trkpt lat="48.411032" lon="2.59955"><ele></ele><time>2017-9-19T1:24:38Z</time></trkpt>
<trkpt lat="48.411018" lon="2.59965"><ele></ele><time>2017-9-19T1:24:41Z</time></trkpt>
<trkpt lat="48.411008" lon="2.599748"><ele></ele><time>2017-9-19T1:24:44Z</time></trkpt>
<trkpt lat="48.411005" lon="2.599797"><ele></ele><time>2017-9-19T1:24:47Z</time></trkpt>
<trkpt lat="48.410998" lon="2.599897"><ele></ele><time>2017-9-19T1:24:50Z</time></trkpt>
<trkpt lat="48.410992" lon="2.6"><ele></ele><time>2017-9-19T1:24:53Z</time></trkpt>
<trkpt lat="48.410985" lon="2.600105"><ele></ele><time>2017-9-19T1:24:56Z</time></trkpt>
<trkpt lat="48.410977" lon="2.600205"><ele></ele><time>2017-9-19T1:24:59Z</time></trkpt>
<trkpt lat="48.410968" lon="2.600297"><ele></ele><time>2017-9-19T1:25:2Z</time></trkpt>
<trkpt lat="48.410958" lon="2.60039"><ele></ele><time>2017-9-19T1:25:5Z</time></trkpt>
<trkpt lat="48.410947" lon="2.60048"><ele></ele><time>2017-9-19T1:25:8Z</time></trkpt>
<trkpt lat="48.41093" lon="2.600582"><ele></ele><time>2017-9-19T1:25:11Z</time></trkpt>
<trkpt lat="48.410913" lon="2.600705"><ele></ele><time>2017-9-19T1:25:14Z</time></trkpt>
<trkpt lat="48.41089" lon="2.600792"><ele></ele><time>2017-9-19T1:25:17Z</time></trkpt>
<trkpt lat="48.410872" lon="2.600893"><ele></ele><time>2017-9-19T1:25:20Z</time></trkpt>
<trkpt lat="48.410863" lon="2.600993"><ele></ele><time>2017-9-19T1:25:23Z</time></trkpt>
<trkpt lat="48.410848" lon="2.601102"><ele></ele><time>2017-9-19T1:25:26Z</time></trkpt>
<trkpt lat="48.410832" lon="2.601212"><ele></ele><time>2017-9-19T1:25:29Z</time></trkpt>
<trkpt lat="48.410818" lon="2.601312"><ele></ele><time>2017-9-19T1:25:32Z</time></trkpt>
<trkpt lat="48.410807" lon="2.60141"><ele></ele><time>2017-9-19T1:25:35Z</time></trkpt>
<trkpt lat="48.410798" lon="2.601533"><ele></ele><time>2017-9-19T1:25:38Z</time></trkpt>
<trkpt lat="48.410788" lon="2.601642"><ele></ele><time>2017-9-19T1:25:41Z</time></trkpt>
<trkpt lat="48.410768" lon="2.601755"><ele></ele><time>2017-9-19T1:25:44Z</time></trkpt>
<trkpt lat="48.410763" lon="2.601857"><ele></ele><time>2017-9-19T1:25:47Z</time></trkpt>
<trkpt lat="48.41075" lon="2.60196"><ele></ele><time>2017-9-19T1:25:50Z</time></trkpt>
<trkpt lat="48.410732" lon="2.602072"><ele></ele><time>2017-9-19T1:25:53Z</time></trkpt>
<trkpt lat="48.410722" lon="2.602173"><ele></ele><time>2017-9-19T1:25:56Z</time></trkpt>
<trkpt lat="48.410717" lon="2.602275"><ele></ele><time>2017-9-19T1:25:59Z</time></trkpt>
<trkpt lat="48.410708" lon="2.60237"><ele></ele><time>2017-9-19T1:26:2Z</time></trkpt>
<trkpt lat="48.410702" lon="2.602418"><ele></ele><time>2017-9-19T1:26:5Z</time></trkpt>
<trkpt lat="48.410693" lon="2.602515"><ele></ele><time>2017-9-19T1:26:8Z</time></trkpt>
<trkpt lat="48.410682" lon="2.602618"><ele></ele><time>2017-9-19T1:26:11Z</time></trkpt>
<trkpt lat="48.410673" lon="2.602727"><ele></ele><time>2017-9-19T1:26:14Z</time></trkpt>
<trkpt lat="48.410658" lon="2.602833"><ele></ele><time>2017-9-19T1:26:17Z</time></trkpt>
<trkpt lat="48.410648" lon="2.602943"><ele></ele><time>2017-9-19T1:26:20Z</time></trkpt>
<trkpt lat="48.410635" lon="2.603048"><ele></ele><time>2017-9-19T1:26:23Z</time></trkpt>
<trkpt lat="48.410622" lon="2.603157"><ele></ele><time>2017-9-19T1:26:26Z</time></trkpt>
<trkpt lat="48.410612" lon="2.603265"><ele></ele><time>2017-9-19T1:26:29Z</time></trkpt>
<trkpt lat="48.410598" lon="2.603375"><ele></ele><time>2017-9-19T1:26:32Z</time></trkpt>
<trkpt lat="48.41058" lon="2.603485"><ele></ele><time>2017-9-19T1:26:35Z</time></trkpt>
<trkpt lat="48.410572" lon="2.60354"><ele></ele><time>2017-9-19T1:26:38Z</time></trkpt>
<trkpt lat="48.410568" lon="2.603658"><ele></ele><time>2017-9-19T1:26:41Z</time></trkpt>
<trkpt lat="48.410558" lon="2.603768"><ele></ele><time>2017-9-19T1:26:44Z</time></trkpt>
<trkpt lat="48.410547" lon="2.60388"><ele></ele><time>2017-9-19T1:26:47Z</time></trkpt>
<trkpt lat="48.410538" lon="2.603983"><ele></ele><time>2017-9-19T1:26:50Z</time></trkpt>
<trkpt lat="48.410528" lon="2.604087"><ele></ele><time>2017-9-19T1:26:53Z</time></trkpt>
<trkpt lat="48.410512" lon="2.604183"><ele></ele><time>2017-9-19T1:26:56Z</time></trkpt>
<trkpt lat="48.410503" lon="2.60428"><ele></ele><time>2017-9-19T1:26:59Z</time></trkpt>
<trkpt lat="48.410495" lon="2.604377"><ele></ele><time>2017-9-19T1:27:2Z</time></trkpt>
<trkpt lat="48.41049" lon="2.60443"><ele></ele><time>2017-9-19T1:27:5Z</time></trkpt>
<trkpt lat="48.410468" lon="2.604575"><ele></ele><time>2017-9-19T1:27:8Z</time></trkpt>
<trkpt lat="48.410455" lon="2.604677"><ele></ele><time>2017-9-19T1:27:11Z</time></trkpt>
<trkpt lat="48.410447" lon="2.604782"><ele></ele><time>2017-9-19T1:27:14Z</time></trkpt>
<trkpt lat="48.410435" lon="2.604878"><ele></ele><time>2017-9-19T1:27:17Z</time></trkpt>
<trkpt lat="48.410425" lon="2.604982"><ele></ele><time>2017-9-19T1:27:20Z</time></trkpt>
<trkpt lat="48.41042" lon="2.60508"><ele></ele><time>2017-9-19T1:27:23Z</time></trkpt>
<trkpt lat="48.410412" lon="2.605182"><ele></ele><time>2017-9-19T1:27:26Z</time></trkpt>
<trkpt lat="48.410408" lon="2.605275"><ele></ele><time>2017-9-19T1:27:29Z</time></trkpt>
<trkpt lat="48.410402" lon="2.605372"><ele></ele><time>2017-9-19T1:27:32Z</time></trkpt>
<trkpt lat="48.410392" lon="2.605472"><ele></ele><time>2017-9-19T1:27:35Z</time></trkpt>
<trkpt lat="48.41038" lon="2.605578"><ele></ele><time>2017-9-19T1:27:38Z</time></trkpt>
<trkpt lat="48.410363" lon="2.605682"><ele></ele><time>2017-9-19T1:27:41Z</time></trkpt>
<trkpt lat="48.410347" lon="2.60579"><ele></ele><time>2017-9-19T1:27:44Z</time></trkpt>
<trkpt lat="48.410333" lon="2.6059"><ele></ele><time>2017-9-19T1:27:47Z</time></trkpt>
<trkpt lat="48.410325" lon="2.606005"><ele></ele><time>2017-9-19T1:27:50Z</time></trkpt>
<trkpt lat="48.410308" lon="2.606103"><ele></ele><time>2017-9-19T1:27:53Z</time></trkpt>
<trkpt lat="48.410295" lon="2.606203"><ele></ele><time>2017-9-19T1:27:56Z</time></trkpt>
<trkpt lat="48.41028" lon="2.606307"><ele></ele><time>2017-9-19T1:27:59Z</time></trkpt>
<trkpt lat="48.410272" lon="2.606407"><ele></ele><time>2017-9-19T1:28:2Z</time></trkpt>
<trkpt lat="48.410258" lon="2.606505"><ele></ele><time>2017-9-19T1:28:5Z</time></trkpt>
<trkpt lat="48.410253" lon="2.606553"><ele></ele><time>2017-9-19T1:28:8Z</time></trkpt>
<trkpt lat="48.410245" lon="2.606653"><ele></ele><time>2017-9-19T1:28:11Z</time></trkpt>
<trkpt lat="48.410233" lon="2.606753"><ele></ele><time>2017-9-19T1:28:14Z</time></trkpt>
<trkpt lat="48.41022" lon="2.606853"><ele></ele><time>2017-9-19T1:28:17Z</time></trkpt>
<trkpt lat="48.410208" lon="2.606957"><ele></ele><time>2017-9-19T1:28:20Z</time></trkpt>
<trkpt lat="48.41019" lon="2.607055"><ele></ele><time>2017-9-19T1:28:23Z</time></trkpt>
<trkpt lat="48.41016" lon="2.607173"><ele></ele><time>2017-9-19T1:28:26Z</time></trkpt>
<trkpt lat="48.41014" lon="2.607267"><ele></ele><time>2017-9-19T1:28:29Z</time></trkpt>
<trkpt lat="48.410122" lon="2.607362"><ele></ele><time>2017-9-19T1:28:32Z</time></trkpt>
<trkpt lat="48.410103" lon="2.607455"><ele></ele><time>2017-9-19T1:28:35Z</time></trkpt>
<trkpt lat="48.410095" lon="2.607502"><ele></ele><time>2017-9-19T1:28:38Z</time></trkpt>
<trkpt lat="48.41008" lon="2.60768"><ele></ele><time>2017-9-19T1:28:41Z</time></trkpt>
<trkpt lat="48.410073" lon="2.607767"><ele></ele><time>2017-9-19T1:28:44Z</time></trkpt>
<trkpt lat="48.410085" lon="2.607873"><ele></ele><time>2017-9-19T1:28:47Z</time></trkpt>
<trkpt lat="48.410143" lon="2.607958"><ele></ele><time>2017-9-19T1:28:50Z</time></trkpt>
<trkpt lat="48.4102" lon="2.608002"><ele></ele><time>2017-9-19T1:28:53Z</time></trkpt>
<trkpt lat="48.410262" lon="2.608022"><ele></ele><time>2017-9-19T1:28:56Z</time></trkpt>
<trkpt lat="48.410338" lon="2.608027"><ele></ele><time>2017-9-19T1:28:59Z</time></trkpt>
<trkpt lat="48.41042" lon="2.608022"><ele></ele><time>2017-9-19T1:29:2Z</time></trkpt>
<trkpt lat="48.410502" lon="2.608035"><ele></ele><time>2017-9-19T1:29:5Z</time></trkpt>
<trkpt lat="48.410568" lon="2.608075"><ele></ele><time>2017-9-19T1:29:8Z</time></trkpt>
<trkpt lat="48.410632" lon="2.608152"><ele></ele><time>2017-9-19T1:29:11Z</time></trkpt>
<trkpt lat="48.410695" lon="2.608235"><ele></ele><time>2017-9-19T1:29:14Z</time></trkpt>
<trkpt lat="48.410757" lon="2.608327"><ele></ele><time>2017-9-19T1:29:17Z</time></trkpt>
<trkpt lat="48.410818" lon="2.608425"><ele></ele><time>2017-9-19T1:29:20Z</time></trkpt>
<trkpt lat="48.410868" lon="2.608522"><ele></ele><time>2017-9-19T1:29:23Z</time></trkpt>
<trkpt lat="48.410903" lon="2.608637"><ele></ele><time>2017-9-19T1:29:26Z</time></trkpt>
<trkpt lat="48.410942" lon="2.608753"><ele></ele><time>2017-9-19T1:29:29Z</time></trkpt>
<trkpt lat="48.410982" lon="2.608872"><ele></ele><time>2017-9-19T1:29:32Z</time></trkpt>
<trkpt lat="48.411003" lon="2.608933"><ele></ele><time>2017-9-19T1:29:35Z</time></trkpt>
<trkpt lat="48.411042" lon="2.609053"><ele></ele><time>2017-9-19T1:29:38Z</time></trkpt>
<trkpt lat="48.411063" lon="2.609167"><ele></ele><time>2017-9-19T1:29:41Z</time></trkpt>
<trkpt lat="48.411093" lon="2.609273"><ele></ele><time>2017-9-19T1:29:44Z</time></trkpt>
<trkpt lat="48.411117" lon="2.609382"><ele></ele><time>2017-9-19T1:29:47Z</time></trkpt>
<trkpt lat="48.411137" lon="2.6095"><ele></ele><time>2017-9-19T1:29:50Z</time></trkpt>
<trkpt lat="48.411148" lon="2.609623"><ele></ele><time>2017-9-19T1:29:53Z</time></trkpt>
<trkpt lat="48.411157" lon="2.609752"><ele></ele><time>2017-9-19T1:29:56Z</time></trkpt>
<trkpt lat="48.411167" lon="2.609877"><ele></ele><time>2017-9-19T1:29:59Z</time></trkpt>
<trkpt lat="48.411178" lon="2.61"><ele></ele><time>2017-9-19T1:30:2Z</time></trkpt>
<trkpt lat="48.411187" lon="2.610118"><ele></ele><time>2017-9-19T1:30:5Z</time></trkpt>
<trkpt lat="48.41119" lon="2.610175"><ele></ele><time>2017-9-19T1:30:8Z</time></trkpt>
<trkpt lat="48.411197" lon="2.61034"><ele></ele><time>2017-9-19T1:30:11Z</time></trkpt>
<trkpt lat="48.411215" lon="2.610442"><ele></ele><time>2017-9-19T1:30:14Z</time></trkpt>
<trkpt lat="48.411228" lon="2.61049"><ele></ele><time>2017-9-19T1:30:17Z</time></trkpt>
<trkpt lat="48.411237" lon="2.610613"><ele></ele><time>2017-9-19T1:30:20Z</time></trkpt>
<trkpt lat="48.41125" lon="2.610718"><ele></ele><time>2017-9-19T1:30:23Z</time></trkpt>
<trkpt lat="48.411263" lon="2.610827"><ele></ele><time>2017-9-19T1:30:26Z</time></trkpt>
<trkpt lat="48.411263" lon="2.610937"><ele></ele><time>2017-9-19T1:30:29Z</time></trkpt>
<trkpt lat="48.411268" lon="2.611038"><ele></ele><time>2017-9-19T1:30:32Z</time></trkpt>
<trkpt lat="48.411277" lon="2.611138"><ele></ele><time>2017-9-19T1:30:35Z</time></trkpt>
<trkpt lat="48.41129" lon="2.611233"><ele></ele><time>2017-9-19T1:30:38Z</time></trkpt>
<trkpt lat="48.4113" lon="2.611325"><ele></ele><time>2017-9-19T1:30:41Z</time></trkpt>
<trkpt lat="48.411308" lon="2.611418"><ele></ele><time>2017-9-19T1:30:44Z</time></trkpt>
<trkpt lat="48.411313" lon="2.611463"><ele></ele><time>2017-9-19T1:30:47Z</time></trkpt>
<trkpt lat="48.411325" lon="2.611553"><ele></ele><time>2017-9-19T1:30:50Z</time></trkpt>
<trkpt lat="48.411342" lon="2.61165"><ele></ele><time>2017-9-19T1:30:53Z</time></trkpt>
<trkpt lat="48.411355" lon="2.61175"><ele></ele><time>2017-9-19T1:30:56Z</time></trkpt>
<trkpt lat="48.411355" lon="2.611853"><ele></ele><time>2017-9-19T1:30:59Z</time></trkpt>
<trkpt lat="48.411355" lon="2.611955"><ele></ele><time>2017-9-19T1:31:2Z</time></trkpt>
<trkpt lat="48.411358" lon="2.612043"><ele></ele><time>2017-9-19T1:31:5Z</time></trkpt>
<trkpt lat="48.411363" lon="2.612157"><ele></ele><time>2017-9-19T1:31:8Z</time></trkpt>
<trkpt lat="48.411362" lon="2.61227"><ele></ele><time>2017-9-19T1:31:11Z</time></trkpt>
<trkpt lat="48.411358" lon="2.612378"><ele></ele><time>2017-9-19T1:31:14Z</time></trkpt>
<trkpt lat="48.411353" lon="2.612487"><ele></ele><time>2017-9-19T1:31:17Z</time></trkpt>
<trkpt lat="48.411377" lon="2.612587"><ele></ele><time>2017-9-19T1:31:20Z</time></trkpt>
<trkpt lat="48.411387" lon="2.612632"><ele></ele><time>2017-9-19T1:31:23Z</time></trkpt>
<trkpt lat="48.4114" lon="2.612722"><ele></ele><time>2017-9-19T1:31:26Z</time></trkpt>
<trkpt lat="48.41141" lon="2.612817"><ele></ele><time>2017-9-19T1:31:29Z</time></trkpt>
<trkpt lat="48.411433" lon="2.612927"><ele></ele><time>2017-9-19T1:31:32Z</time></trkpt>
<trkpt lat="48.411447" lon="2.613038"><ele></ele><time>2017-9-19T1:31:35Z</time></trkpt>
<trkpt lat="48.411457" lon="2.61317"><ele></ele><time>2017-9-19T1:31:38Z</time></trkpt>
<trkpt lat="48.41148" lon="2.61328"><ele></ele><time>2017-9-19T1:31:41Z</time></trkpt>
<trkpt lat="48.41149" lon="2.613332"><ele></ele><time>2017-9-19T1:31:44Z</time></trkpt>
<trkpt lat="48.411513" lon="2.613478"><ele></ele><time>2017-9-19T1:31:47Z</time></trkpt>
<trkpt lat="48.411528" lon="2.613577"><ele></ele><time>2017-9-19T1:31:50Z</time></trkpt>
<trkpt lat="48.411543" lon="2.613678"><ele></ele><time>2017-9-19T1:31:53Z</time></trkpt>
<trkpt lat="48.411555" lon="2.613778"><ele></ele><time>2017-9-19T1:31:56Z</time></trkpt>
<trkpt lat="48.41157" lon="2.613875"><ele></ele><time>2017-9-19T1:31:59Z</time></trkpt>
<trkpt lat="48.41158" lon="2.613927"><ele></ele><time>2017-9-19T1:32:2Z</time></trkpt>
<trkpt lat="48.411593" lon="2.614027"><ele></ele><time>2017-9-19T1:32:5Z</time></trkpt>
<trkpt lat="48.411607" lon="2.614127"><ele></ele><time>2017-9-19T1:32:8Z</time></trkpt>
<trkpt lat="48.411615" lon="2.61422"><ele></ele><time>2017-9-19T1:32:11Z</time></trkpt>
<trkpt lat="48.411622" lon="2.614313"><ele></ele><time>2017-9-19T1:32:14Z</time></trkpt>
<trkpt lat="48.41163" lon="2.614407"><ele></ele><time>2017-9-19T1:32:17Z</time></trkpt>
<trkpt lat="48.41163" lon="2.614515"><ele></ele><time>2017-9-19T1:32:20Z</time></trkpt>
<trkpt lat="48.411648" lon="2.614635"><ele></ele><time>2017-9-19T1:32:23Z</time></trkpt>
<trkpt lat="48.411643" lon="2.614742"><ele></ele><time>2017-9-19T1:32:26Z</time></trkpt>
<trkpt lat="48.411633" lon="2.614847"><ele></ele><time>2017-9-19T1:32:29Z</time></trkpt>
<trkpt lat="48.411623" lon="2.614952"><ele></ele><time>2017-9-19T1:32:32Z</time></trkpt>
<trkpt lat="48.411605" lon="2.615052"><ele></ele><time>2017-9-19T1:32:35Z</time></trkpt>
<trkpt lat="48.411592" lon="2.61514"><ele></ele><time>2017-9-19T1:32:38Z</time></trkpt>
<trkpt lat="48.41156" lon="2.615245"><ele></ele><time>2017-9-19T1:32:41Z</time></trkpt>
<trkpt lat="48.411538" lon="2.615335"><ele></ele><time>2017-9-19T1:32:44Z</time></trkpt>
<trkpt lat="48.411525" lon="2.615425"><ele></ele><time>2017-9-19T1:32:47Z</time></trkpt>
<trkpt lat="48.41151" lon="2.615513"><ele></ele><time>2017-9-19T1:32:50Z</time></trkpt>
<trkpt lat="48.411492" lon="2.615608"><ele></ele><time>2017-9-19T1:32:53Z</time></trkpt>
<trkpt lat="48.411465" lon="2.615703"><ele></ele><time>2017-9-19T1:32:56Z</time></trkpt>
<trkpt lat="48.411442" lon="2.615805"><ele></ele><time>2017-9-19T1:32:59Z</time></trkpt>
<trkpt lat="48.41142" lon="2.615905"><ele></ele><time>2017-9-19T1:33:2Z</time></trkpt>
<trkpt lat="48.411395" lon="2.616018"><ele></ele><time>2017-9-19T1:33:5Z</time></trkpt>
<trkpt lat="48.411382" lon="2.616118"><ele></ele><time>2017-9-19T1:33:8Z</time></trkpt>
<trkpt lat="48.411362" lon="2.616212"><ele></ele><time>2017-9-19T1:33:11Z</time></trkpt>
<trkpt lat="48.411352" lon="2.616255"><ele></ele><time>2017-9-19T1:33:14Z</time></trkpt>
<trkpt lat="48.411332" lon="2.61635"><ele></ele><time>2017-9-19T1:33:17Z</time></trkpt>
<trkpt lat="48.411313" lon="2.616448"><ele></ele><time>2017-9-19T1:33:20Z</time></trkpt>
<trkpt lat="48.411305" lon="2.616547"><ele></ele><time>2017-9-19T1:33:23Z</time></trkpt>
<trkpt lat="48.411298" lon="2.616642"><ele></ele><time>2017-9-19T1:33:26Z</time></trkpt>
<trkpt lat="48.411277" lon="2.61675"><ele></ele><time>2017-9-19T1:33:29Z</time></trkpt>
<trkpt lat="48.411258" lon="2.616845"><ele></ele><time>2017-9-19T1:33:32Z</time></trkpt>
<trkpt lat="48.411237" lon="2.61693"><ele></ele><time>2017-9-19T1:33:35Z</time></trkpt>
<trkpt lat="48.4112" lon="2.617052"><ele></ele><time>2017-9-19T1:33:38Z</time></trkpt>
<trkpt lat="48.411182" lon="2.617142"><ele></ele><time>2017-9-19T1:33:41Z</time></trkpt>
<trkpt lat="48.41116" lon="2.617242"><ele></ele><time>2017-9-19T1:33:44Z</time></trkpt>
<trkpt lat="48.411138" lon="2.617342"><ele></ele><time>2017-9-19T1:33:47Z</time></trkpt>
<trkpt lat="48.41112" lon="2.617442"><ele></ele><time>2017-9-19T1:33:50Z</time></trkpt>
<trkpt lat="48.411108" lon="2.617527"><ele></ele><time>2017-9-19T1:33:53Z</time></trkpt>
<trkpt lat="48.411092" lon="2.617613"><ele></ele><time>2017-9-19T1:33:56Z</time></trkpt>
<trkpt lat="48.41108" lon="2.61769"><ele></ele><time>2017-9-19T1:33:59Z</time></trkpt>
<trkpt lat="48.411065" lon="2.61777"><ele></ele><time>2017-9-19T1:34:2Z</time></trkpt>
<trkpt lat="48.411053" lon="2.61785"><ele></ele><time>2017-9-19T1:34:5Z</time></trkpt>
<trkpt lat="48.411033" lon="2.617928"><ele></ele><time>2017-9-19T1:34:8Z</time></trkpt>
<trkpt lat="48.411015" lon="2.61802"><ele></ele><time>2017-9-19T1:34:11Z</time></trkpt>
<trkpt lat="48.411008" lon="2.618098"><ele></ele><time>2017-9-19T1:34:14Z</time></trkpt>
<trkpt lat="48.41099" lon="2.618215"><ele></ele><time>2017-9-19T1:34:17Z</time></trkpt>
<trkpt lat="48.41097" lon="2.618343"><ele></ele><time>2017-9-19T1:34:20Z</time></trkpt>
<trkpt lat="48.410943" lon="2.618465"><ele></ele><time>2017-9-19T1:34:23Z</time></trkpt>
<trkpt lat="48.410917" lon="2.618585"><ele></ele><time>2017-9-19T1:34:26Z</time></trkpt>
<trkpt lat="48.410902" lon="2.618707"><ele></ele><time>2017-9-19T1:34:29Z</time></trkpt>
<trkpt lat="48.410888" lon="2.618833"><ele></ele><time>2017-9-19T1:34:32Z</time></trkpt>
<trkpt lat="48.41088" lon="2.618955"><ele></ele><time>2017-9-19T1:34:35Z</time></trkpt>
<trkpt lat="48.410875" lon="2.618993"><ele></ele><time>2017-9-19T1:34:38Z</time></trkpt>
<trkpt lat="48.410855" lon="2.61919"><ele></ele><time>2017-9-19T1:34:41Z</time></trkpt>
<trkpt lat="48.410843" lon="2.619272"><ele></ele><time>2017-9-19T1:34:44Z</time></trkpt>
<trkpt lat="48.410828" lon="2.61935"><ele></ele><time>2017-9-19T1:34:47Z</time></trkpt>
<trkpt lat="48.410812" lon="2.619465"><ele></ele><time>2017-9-19T1:34:50Z</time></trkpt>
<trkpt lat="48.410795" lon="2.619577"><ele></ele><time>2017-9-19T1:34:53Z</time></trkpt>
<trkpt lat="48.410785" lon="2.619685"><ele></ele><time>2017-9-19T1:34:56Z</time></trkpt>
<trkpt lat="48.410778" lon="2.619792"><ele></ele><time>2017-9-19T1:34:59Z</time></trkpt>
<trkpt lat="48.410763" lon="2.619895"><ele></ele><time>2017-9-19T1:35:2Z</time></trkpt>
<trkpt lat="48.410755" lon="2.62"><ele></ele><time>2017-9-19T1:35:5Z</time></trkpt>
<trkpt lat="48.41074" lon="2.620107"><ele></ele><time>2017-9-19T1:35:8Z</time></trkpt>
<trkpt lat="48.410732" lon="2.620213"><ele></ele><time>2017-9-19T1:35:11Z</time></trkpt>
<trkpt lat="48.410708" lon="2.620313"><ele></ele><time>2017-9-19T1:35:14Z</time></trkpt>
<trkpt lat="48.410687" lon="2.620423"><ele></ele><time>2017-9-19T1:35:17Z</time></trkpt>
<trkpt lat="48.410668" lon="2.620547"><ele></ele><time>2017-9-19T1:35:20Z</time></trkpt>
<trkpt lat="48.410657" lon="2.620658"><ele></ele><time>2017-9-19T1:35:23Z</time></trkpt>
<trkpt lat="48.410648" lon="2.62075"><ele></ele><time>2017-9-19T1:35:26Z</time></trkpt>
<trkpt lat="48.41064" lon="2.62085"><ele></ele><time>2017-9-19T1:35:29Z</time></trkpt>
<trkpt lat="48.410633" lon="2.62096"><ele></ele><time>2017-9-19T1:35:32Z</time></trkpt>
<trkpt lat="48.410633" lon="2.621073"><ele></ele><time>2017-9-19T1:35:35Z</time></trkpt>
<trkpt lat="48.410638" lon="2.62113"><ele></ele><time>2017-9-19T1:35:38Z</time></trkpt>
<trkpt lat="48.410632" lon="2.62134"><ele></ele><time>2017-9-19T1:35:41Z</time></trkpt>
<trkpt lat="48.410638" lon="2.621472"><ele></ele><time>2017-9-19T1:35:44Z</time></trkpt>
<trkpt lat="48.410637" lon="2.621588"><ele></ele><time>2017-9-19T1:35:47Z</time></trkpt>
<trkpt lat="48.410643" lon="2.621723"><ele></ele><time>2017-9-19T1:35:50Z</time></trkpt>
<trkpt lat="48.410652" lon="2.621832"><ele></ele><time>2017-9-19T1:35:53Z</time></trkpt>
<trkpt lat="48.410667" lon="2.621945"><ele></ele><time>2017-9-19T1:35:56Z</time></trkpt>
<trkpt lat="48.410677" lon="2.622065"><ele></ele><time>2017-9-19T1:35:59Z</time></trkpt>
<trkpt lat="48.410688" lon="2.622177"><ele></ele><time>2017-9-19T1:36:2Z</time></trkpt>
<trkpt lat="48.410695" lon="2.622307"><ele></ele><time>2017-9-19T1:36:5Z</time></trkpt>
<trkpt lat="48.410688" lon="2.622408"><ele></ele><time>2017-9-19T1:36:8Z</time></trkpt>
<trkpt lat="48.410678" lon="2.62252"><ele></ele><time>2017-9-19T1:36:11Z</time></trkpt>
<trkpt lat="48.410672" lon="2.622602"><ele></ele><time>2017-9-19T1:36:14Z</time></trkpt>
<trkpt lat="48.410663" lon="2.622708"><ele></ele><time>2017-9-19T1:36:17Z</time></trkpt>
<trkpt lat="48.410665" lon="2.622828"><ele></ele><time>2017-9-19T1:36:20Z</time></trkpt>
<trkpt lat="48.410662" lon="2.622947"><ele></ele><time>2017-9-19T1:36:23Z</time></trkpt>
<trkpt lat="48.41066" lon="2.622977"><ele></ele><time>2017-9-19T1:36:26Z</time></trkpt>
<trkpt lat="48.410642" lon="2.62318"><ele></ele><time>2017-9-19T1:36:29Z</time></trkpt>
<trkpt lat="48.410633" lon="2.623307"><ele></ele><time>2017-9-19T1:36:32Z</time></trkpt>
<trkpt lat="48.410595" lon="2.623412"><ele></ele><time>2017-9-19T1:36:35Z</time></trkpt>
<trkpt lat="48.410553" lon="2.623528"><ele></ele><time>2017-9-19T1:36:38Z</time></trkpt>
<trkpt lat="48.410512" lon="2.623622"><ele></ele><time>2017-9-19T1:36:41Z</time></trkpt>
<trkpt lat="48.410487" lon="2.623675"><ele></ele><time>2017-9-19T1:36:44Z</time></trkpt>
<trkpt lat="48.410453" lon="2.623732"><ele></ele><time>2017-9-19T1:36:47Z</time></trkpt>
<trkpt lat="48.410423" lon="2.623792"><ele></ele><time>2017-9-19T1:36:50Z</time></trkpt>
<trkpt lat="48.410392" lon="2.623853"><ele></ele><time>2017-9-19T1:36:53Z</time></trkpt>
<trkpt lat="48.410357" lon="2.623915"><ele></ele><time>2017-9-19T1:36:56Z</time></trkpt>
<trkpt lat="48.41032" lon="2.623982"><ele></ele><time>2017-9-19T1:36:59Z</time></trkpt>
<trkpt lat="48.410288" lon="2.624032"><ele></ele><time>2017-9-19T1:37:2Z</time></trkpt>
<trkpt lat="48.410262" lon="2.624088"><ele></ele><time>2017-9-19T1:37:5Z</time></trkpt>
<trkpt lat="48.410227" lon="2.624175"><ele></ele><time>2017-9-19T1:37:8Z</time></trkpt>
<trkpt lat="48.410185" lon="2.624263"><ele></ele><time>2017-9-19T1:37:11Z</time></trkpt>
<trkpt lat="48.410143" lon="2.624367"><ele></ele><time>2017-9-19T1:37:14Z</time></trkpt>
<trkpt lat="48.410098" lon="2.62445"><ele></ele><time>2017-9-19T1:37:17Z</time></trkpt>
<trkpt lat="48.410048" lon="2.624557"><ele></ele><time>2017-9-19T1:37:20Z</time></trkpt>
<trkpt lat="48.41001" lon="2.62465"><ele></ele><time>2017-9-19T1:37:23Z</time></trkpt>
<trkpt lat="48.409973" lon="2.624747"><ele></ele><time>2017-9-19T1:37:26Z</time></trkpt>
<trkpt lat="48.409963" lon="2.624777"><ele></ele><time>2017-9-19T1:37:29Z</time></trkpt>
<trkpt lat="48.409902" lon="2.624902"><ele></ele><time>2017-9-19T1:37:32Z</time></trkpt>
<trkpt lat="48.40987" lon="2.624997"><ele></ele><time>2017-9-19T1:37:35Z</time></trkpt>
<trkpt lat="48.409827" lon="2.625115"><ele></ele><time>2017-9-19T1:37:38Z</time></trkpt>
<trkpt lat="48.409798" lon="2.625207"><ele></ele><time>2017-9-19T1:37:41Z</time></trkpt>
<trkpt lat="48.40977" lon="2.625308"><ele></ele><time>2017-9-19T1:37:44Z</time></trkpt>
<trkpt lat="48.40975" lon="2.62544"><ele></ele><time>2017-9-19T1:37:47Z</time></trkpt>
<trkpt lat="48.409723" lon="2.625568"><ele></ele><time>2017-9-19T1:37:50Z</time></trkpt>
<trkpt lat="48.409718" lon="2.625633"><ele></ele><time>2017-9-19T1:37:53Z</time></trkpt>
<trkpt lat="48.409708" lon="2.625707"><ele></ele><time>2017-9-19T1:37:56Z</time></trkpt>
<trkpt lat="48.409695" lon="2.625783"><ele></ele><time>2017-9-19T1:37:59Z</time></trkpt>
<trkpt lat="48.40968" lon="2.625915"><ele></ele><time>2017-9-19T1:38:2Z</time></trkpt>
<trkpt lat="48.409667" lon="2.626003"><ele></ele><time>2017-9-19T1:38:5Z</time></trkpt>
<trkpt lat="48.40965" lon="2.626132"><ele></ele><time>2017-9-19T1:38:8Z</time></trkpt>
<trkpt lat="48.40963" lon="2.626255"><ele></ele><time>2017-9-19T1:38:11Z</time></trkpt>
<trkpt lat="48.409615" lon="2.626348"><ele></ele><time>2017-9-19T1:38:14Z</time></trkpt>
<trkpt lat="48.4096" lon="2.626447"><ele></ele><time>2017-9-19T1:38:17Z</time></trkpt>
<trkpt lat="48.409583" lon="2.626547"><ele></ele><time>2017-9-19T1:38:20Z</time></trkpt>
<trkpt lat="48.409575" lon="2.626647"><ele></ele><time>2017-9-19T1:38:23Z</time></trkpt>
<trkpt lat="48.409565" lon="2.626748"><ele></ele><time>2017-9-19T1:38:26Z</time></trkpt>
<trkpt lat="48.409562" lon="2.626852"><ele></ele><time>2017-9-19T1:38:29Z</time></trkpt>
<trkpt lat="48.409567" lon="2.62695"><ele></ele><time>2017-9-19T1:38:32Z</time></trkpt>
<trkpt lat="48.40958" lon="2.627047"><ele></ele><time>2017-9-19T1:38:35Z</time></trkpt>
<trkpt lat="48.409588" lon="2.627145"><ele></ele><time>2017-9-19T1:38:38Z</time></trkpt>
<trkpt lat="48.409597" lon="2.627195"><ele></ele><time>2017-9-19T1:38:41Z</time></trkpt>
<trkpt lat="48.409618" lon="2.627337"><ele></ele><time>2017-9-19T1:38:44Z</time></trkpt>
<trkpt lat="48.40963" lon="2.627437"><ele></ele><time>2017-9-19T1:38:47Z</time></trkpt>
<trkpt lat="48.409643" lon="2.627533"><ele></ele><time>2017-9-19T1:38:50Z</time></trkpt>
<trkpt lat="48.409658" lon="2.627628"><ele></ele><time>2017-9-19T1:38:53Z</time></trkpt>
<trkpt lat="48.409673" lon="2.627725"><ele></ele><time>2017-9-19T1:38:56Z</time></trkpt>
<trkpt lat="48.409692" lon="2.627818"><ele></ele><time>2017-9-19T1:38:59Z</time></trkpt>
<trkpt lat="48.409705" lon="2.627912"><ele></ele><time>2017-9-19T1:39:2Z</time></trkpt>
<trkpt lat="48.409722" lon="2.628"><ele></ele><time>2017-9-19T1:39:5Z</time></trkpt>
<trkpt lat="48.409747" lon="2.62813"><ele></ele><time>2017-9-19T1:39:8Z</time></trkpt>
<trkpt lat="48.409762" lon="2.628258"><ele></ele><time>2017-9-19T1:39:11Z</time></trkpt>
<trkpt lat="48.409782" lon="2.62838"><ele></ele><time>2017-9-19T1:39:14Z</time></trkpt>
<trkpt lat="48.409787" lon="2.628458"><ele></ele><time>2017-9-19T1:39:17Z</time></trkpt>
<trkpt lat="48.409795" lon="2.62854"><ele></ele><time>2017-9-19T1:39:20Z</time></trkpt>
<trkpt lat="48.409808" lon="2.628622"><ele></ele><time>2017-9-19T1:39:23Z</time></trkpt>
<trkpt lat="48.40982" lon="2.628709"><ele></ele><time>2017-9-19T1:39:26Z</time></trkpt>
<trkpt lat="48.409845" lon="2.628825"><ele></ele><time>2017-9-19T1:39:29Z</time></trkpt>
<trkpt lat="48.409872" lon="2.628943"><ele></ele><time>2017-9-19T1:39:32Z</time></trkpt>
<trkpt lat="48.409897" lon="2.629053"><ele></ele><time>2017-9-19T1:39:35Z</time></trkpt>
<trkpt lat="48.409912" lon="2.629167"><ele></ele><time>2017-9-19T1:39:38Z</time></trkpt>
<trkpt lat="48.40993" lon="2.629287"><ele></ele><time>2017-9-19T1:39:41Z</time></trkpt>
<trkpt lat="48.409948" lon="2.629417"><ele></ele><time>2017-9-19T1:39:44Z</time></trkpt>
<trkpt lat="48.409982" lon="2.629538"><ele></ele><time>2017-9-19T1:39:47Z</time></trkpt>
<trkpt lat="48.410013" lon="2.629608"><ele></ele><time>2017-9-19T1:39:50Z</time></trkpt>
<trkpt lat="48.410058" lon="2.62971"><ele></ele><time>2017-9-19T1:39:53Z</time></trkpt>
<trkpt lat="48.410067" lon="2.629747"><ele></ele><time>2017-9-19T1:39:56Z</time></trkpt>
<trkpt lat="48.410112" lon="2.629952"><ele></ele><time>2017-9-19T1:39:59Z</time></trkpt>
<trkpt lat="48.410133" lon="2.630072"><ele></ele><time>2017-9-19T1:40:2Z</time></trkpt>
<trkpt lat="48.410158" lon="2.630202"><ele></ele><time>2017-9-19T1:40:5Z</time></trkpt>
<trkpt lat="48.410157" lon="2.630318"><ele></ele><time>2017-9-19T1:40:8Z</time></trkpt>
<trkpt lat="48.410155" lon="2.63045"><ele></ele><time>2017-9-19T1:40:11Z</time></trkpt>
<trkpt lat="48.41015" lon="2.630537"><ele></ele><time>2017-9-19T1:40:14Z</time></trkpt>
<trkpt lat="48.41014" lon="2.630608"><ele></ele><time>2017-9-19T1:40:17Z</time></trkpt>
<trkpt lat="48.410123" lon="2.63067"><ele></ele><time>2017-9-19T1:40:20Z</time></trkpt>
<trkpt lat="48.410078" lon="2.630762"><ele></ele><time>2017-9-19T1:40:23Z</time></trkpt>
<trkpt lat="48.410037" lon="2.630825"><ele></ele><time>2017-9-19T1:40:26Z</time></trkpt>
<trkpt lat="48.40999" lon="2.630892"><ele></ele><time>2017-9-19T1:40:29Z</time></trkpt>
<trkpt lat="48.409947" lon="2.630967"><ele></ele><time>2017-9-19T1:40:32Z</time></trkpt>
<trkpt lat="48.409897" lon="2.631045"><ele></ele><time>2017-9-19T1:40:35Z</time></trkpt>
<trkpt lat="48.40985" lon="2.63111"><ele></ele><time>2017-9-19T1:40:38Z</time></trkpt>
<trkpt lat="48.409802" lon="2.631178"><ele></ele><time>2017-9-19T1:40:41Z</time></trkpt>
<trkpt lat="48.409743" lon="2.631248"><ele></ele><time>2017-9-19T1:40:44Z</time></trkpt>
<trkpt lat="48.409685" lon="2.631317"><ele></ele><time>2017-9-19T1:40:47Z</time></trkpt>
<trkpt lat="48.409625" lon="2.631387"><ele></ele><time>2017-9-19T1:40:50Z</time></trkpt>
<trkpt lat="48.409568" lon="2.63145"><ele></ele><time>2017-9-19T1:40:53Z</time></trkpt>
<trkpt lat="48.409518" lon="2.631503"><ele></ele><time>2017-9-19T1:40:56Z</time></trkpt>
<trkpt lat="48.40947" lon="2.631563"><ele></ele><time>2017-9-19T1:40:59Z</time></trkpt>
<trkpt lat="48.409433" lon="2.631638"><ele></ele><time>2017-9-19T1:41:2Z</time></trkpt>
<trkpt lat="48.409392" lon="2.63171"><ele></ele><time>2017-9-19T1:41:5Z</time></trkpt>
<trkpt lat="48.409347" lon="2.631773"><ele></ele><time>2017-9-19T1:41:8Z</time></trkpt>
<trkpt lat="48.409307" lon="2.631822"><ele></ele><time>2017-9-19T1:41:11Z</time></trkpt>
<trkpt lat="48.409263" lon="2.631855"><ele></ele><time>2017-9-19T1:41:14Z</time></trkpt>
<trkpt lat="48.409212" lon="2.63189"><ele></ele><time>2017-9-19T1:41:17Z</time></trkpt>
<trkpt lat="48.409157" lon="2.631935"><ele></ele><time>2017-9-19T1:41:20Z</time></trkpt>
<trkpt lat="48.409102" lon="2.631982"><ele></ele><time>2017-9-19T1:41:23Z</time></trkpt>
<trkpt lat="48.409043" lon="2.632027"><ele></ele><time>2017-9-19T1:41:26Z</time></trkpt>
<trkpt lat="48.408985" lon="2.632073"><ele></ele><time>2017-9-19T1:41:29Z</time></trkpt>
<trkpt lat="48.408927" lon="2.632122"><ele></ele><time>2017-9-19T1:41:32Z</time></trkpt>
<trkpt lat="48.408867" lon="2.632167"><ele></ele><time>2017-9-19T1:41:35Z</time></trkpt>
<trkpt lat="48.408812" lon="2.632217"><ele></ele><time>2017-9-19T1:41:38Z</time></trkpt>
<trkpt lat="48.408742" lon="2.632292"><ele></ele><time>2017-9-19T1:41:41Z</time></trkpt>
<trkpt lat="48.408687" lon="2.632382"><ele></ele><time>2017-9-19T1:41:44Z</time></trkpt>
<trkpt lat="48.408647" lon="2.632488"><ele></ele><time>2017-9-19T1:41:47Z</time></trkpt>
<trkpt lat="48.408615" lon="2.632605"><ele></ele><time>2017-9-19T1:41:50Z</time></trkpt>
<trkpt lat="48.408598" lon="2.632693"><ele></ele><time>2017-9-19T1:41:53Z</time></trkpt>
<trkpt lat="48.408593" lon="2.632738"><ele></ele><time>2017-9-19T1:41:56Z</time></trkpt>
<trkpt lat="48.408578" lon="2.632832"><ele></ele><time>2017-9-19T1:41:59Z</time></trkpt>
<trkpt lat="48.40857" lon="2.632935"><ele></ele><time>2017-9-19T1:42:2Z</time></trkpt>
<trkpt lat="48.408563" lon="2.633038"><ele></ele><time>2017-9-19T1:42:5Z</time></trkpt>
<trkpt lat="48.408578" lon="2.633133"><ele></ele><time>2017-9-19T1:42:8Z</time></trkpt>
<trkpt lat="48.408615" lon="2.63322"><ele></ele><time>2017-9-19T1:42:11Z</time></trkpt>
<trkpt lat="48.408648" lon="2.63331"><ele></ele><time>2017-9-19T1:42:14Z</time></trkpt>
<trkpt lat="48.408682" lon="2.633402"><ele></ele><time>2017-9-19T1:42:17Z</time></trkpt>
<trkpt lat="48.408713" lon="2.63349"><ele></ele><time>2017-9-19T1:42:20Z</time></trkpt>
<trkpt lat="48.408747" lon="2.633578"><ele></ele><time>2017-9-19T1:42:23Z</time></trkpt>
<trkpt lat="48.408772" lon="2.63367"><ele></ele><time>2017-9-19T1:42:26Z</time></trkpt>
<trkpt lat="48.408787" lon="2.633765"><ele></ele><time>2017-9-19T1:42:29Z</time></trkpt>
<trkpt lat="48.408803" lon="2.63387"><ele></ele><time>2017-9-19T1:42:32Z</time></trkpt>
<trkpt lat="48.408808" lon="2.633978"><ele></ele><time>2017-9-19T1:42:35Z</time></trkpt>
<trkpt lat="48.408808" lon="2.634087"><ele></ele><time>2017-9-19T1:42:38Z</time></trkpt>
<trkpt lat="48.408803" lon="2.634192"><ele></ele><time>2017-9-19T1:42:41Z</time></trkpt>
<trkpt lat="48.408818" lon="2.634295"><ele></ele><time>2017-9-19T1:42:44Z</time></trkpt>
<trkpt lat="48.408833" lon="2.634348"><ele></ele><time>2017-9-19T1:42:47Z</time></trkpt>
<trkpt lat="48.408887" lon="2.634495"><ele></ele><time>2017-9-19T1:42:50Z</time></trkpt>
<trkpt lat="48.408932" lon="2.634593"><ele></ele><time>2017-9-19T1:42:53Z</time></trkpt>
<trkpt lat="48.40895" lon="2.63464"><ele></ele><time>2017-9-19T1:42:56Z</time></trkpt>
<trkpt lat="48.408985" lon="2.634747"><ele></ele><time>2017-9-19T1:42:59Z</time></trkpt>
<trkpt lat="48.408998" lon="2.634852"><ele></ele><time>2017-9-19T1:43:2Z</time></trkpt>
<trkpt lat="48.409005" lon="2.634958"><ele></ele><time>2017-9-19T1:43:5Z</time></trkpt>
<trkpt lat="48.409007" lon="2.635067"><ele></ele><time>2017-9-19T1:43:8Z</time></trkpt>
<trkpt lat="48.408992" lon="2.635172"><ele></ele><time>2017-9-19T1:43:11Z</time></trkpt>
<trkpt lat="48.408957" lon="2.635263"><ele></ele><time>2017-9-19T1:43:14Z</time></trkpt>
<trkpt lat="48.408935" lon="2.635355"><ele></ele><time>2017-9-19T1:43:17Z</time></trkpt>
<trkpt lat="48.408928" lon="2.635452"><ele></ele><time>2017-9-19T1:43:20Z</time></trkpt>
<trkpt lat="48.40892" lon="2.635552"><ele></ele><time>2017-9-19T1:43:23Z</time></trkpt>
<trkpt lat="48.408905" lon="2.635657"><ele></ele><time>2017-9-19T1:43:26Z</time></trkpt>
<trkpt lat="48.408863" lon="2.63575"><ele></ele><time>2017-9-19T1:43:29Z</time></trkpt>
<trkpt lat="48.408817" lon="2.635837"><ele></ele><time>2017-9-19T1:43:32Z</time></trkpt>
<trkpt lat="48.408773" lon="2.635923"><ele></ele><time>2017-9-19T1:43:35Z</time></trkpt>
<trkpt lat="48.408753" lon="2.635968"><ele></ele><time>2017-9-19T1:43:38Z</time></trkpt>
<trkpt lat="48.408718" lon="2.636062"><ele></ele><time>2017-9-19T1:43:41Z</time></trkpt>
<trkpt lat="48.40869" lon="2.636163"><ele></ele><time>2017-9-19T1:43:44Z</time></trkpt>
<trkpt lat="48.408662" lon="2.63627"><ele></ele><time>2017-9-19T1:43:47Z</time></trkpt>
<trkpt lat="48.408643" lon="2.636382"><ele></ele><time>2017-9-19T1:43:50Z</time></trkpt>
<trkpt lat="48.408632" lon="2.636495"><ele></ele><time>2017-9-19T1:43:53Z</time></trkpt>
<trkpt lat="48.408615" lon="2.636602"><ele></ele><time>2017-9-19T1:43:56Z</time></trkpt>
<trkpt lat="48.408593" lon="2.636707"><ele></ele><time>2017-9-19T1:43:59Z</time></trkpt>
<trkpt lat="48.408568" lon="2.636813"><ele></ele><time>2017-9-19T1:44:2Z</time></trkpt>
<trkpt lat="48.408527" lon="2.636908"><ele></ele><time>2017-9-19T1:44:5Z</time></trkpt>
<trkpt lat="48.408472" lon="2.636985"><ele></ele><time>2017-9-19T1:44:8Z</time></trkpt>
<trkpt lat="48.408413" lon="2.637053"><ele></ele><time>2017-9-19T1:44:11Z</time></trkpt>
<trkpt lat="48.408353" lon="2.637108"><ele></ele><time>2017-9-19T1:44:14Z</time></trkpt>
<trkpt lat="48.40829" lon="2.63717"><ele></ele><time>2017-9-19T1:44:17Z</time></trkpt>
<trkpt lat="48.408233" lon="2.637268"><ele></ele><time>2017-9-19T1:44:20Z</time></trkpt>
<trkpt lat="48.408213" lon="2.63733"><ele></ele><time>2017-9-19T1:44:23Z</time></trkpt>
<trkpt lat="48.408198" lon="2.637397"><ele></ele><time>2017-9-19T1:44:26Z</time></trkpt>
<trkpt lat="48.408185" lon="2.637463"><ele></ele><time>2017-9-19T1:44:29Z</time></trkpt>
<trkpt lat="48.40815" lon="2.637585"><ele></ele><time>2017-9-19T1:44:32Z</time></trkpt>
<trkpt lat="48.40812" lon="2.6377"><ele></ele><time>2017-9-19T1:44:35Z</time></trkpt>
<trkpt lat="48.408115" lon="2.637813"><ele></ele><time>2017-9-19T1:44:38Z</time></trkpt>
<trkpt lat="48.40814" lon="2.637907"><ele></ele><time>2017-9-19T1:44:41Z</time></trkpt>
<trkpt lat="48.408213" lon="2.637982"><ele></ele><time>2017-9-19T1:44:44Z</time></trkpt>
<trkpt lat="48.408273" lon="2.637997"><ele></ele><time>2017-9-19T1:44:47Z</time></trkpt>
<trkpt lat="48.408338" lon="2.637988"><ele></ele><time>2017-9-19T1:44:50Z</time></trkpt>
<trkpt lat="48.408372" lon="2.637978"><ele></ele><time>2017-9-19T1:44:53Z</time></trkpt>
<trkpt lat="48.408435" lon="2.63794"><ele></ele><time>2017-9-19T1:44:56Z</time></trkpt>
<trkpt lat="48.40851" lon="2.63791"><ele></ele><time>2017-9-19T1:44:59Z</time></trkpt>
<trkpt lat="48.408583" lon="2.637932"><ele></ele><time>2017-9-19T1:45:2Z</time></trkpt>
<trkpt lat="48.408643" lon="2.637995"><ele></ele><time>2017-9-19T1:45:5Z</time></trkpt>
<trkpt lat="48.408685" lon="2.638085"><ele></ele><time>2017-9-19T1:45:8Z</time></trkpt>
<trkpt lat="48.40869" lon="2.63819"><ele></ele><time>2017-9-19T1:45:11Z</time></trkpt>
<trkpt lat="48.408683" lon="2.638292"><ele></ele><time>2017-9-19T1:45:14Z</time></trkpt>
<trkpt lat="48.408668" lon="2.638383"><ele></ele><time>2017-9-19T1:45:17Z</time></trkpt>
<trkpt lat="48.408647" lon="2.638512"><ele></ele><time>2017-9-19T1:45:20Z</time></trkpt>
<trkpt lat="48.40861" lon="2.638618"><ele></ele><time>2017-9-19T1:45:23Z</time></trkpt>
<trkpt lat="48.408538" lon="2.63869"><ele></ele><time>2017-9-19T1:45:26Z</time></trkpt>
<trkpt lat="48.408472" lon="2.638733"><ele></ele><time>2017-9-19T1:45:29Z</time></trkpt>
<trkpt lat="48.408388" lon="2.638783"><ele></ele><time>2017-9-19T1:45:32Z</time></trkpt>
<trkpt lat="48.408355" lon="2.63886"><ele></ele><time>2017-9-19T1:45:35Z</time></trkpt>
<trkpt lat="48.408347" lon="2.638908"><ele></ele><time>2017-9-19T1:45:38Z</time></trkpt>
<trkpt lat="48.408342" lon="2.639013"><ele></ele><time>2017-9-19T1:45:41Z</time></trkpt>
<trkpt lat="48.408327" lon="2.639118"><ele></ele><time>2017-9-19T1:45:44Z</time></trkpt>
<trkpt lat="48.40829" lon="2.63921"><ele></ele><time>2017-9-19T1:45:47Z</time></trkpt>
<trkpt lat="48.408225" lon="2.639293"><ele></ele><time>2017-9-19T1:45:50Z</time></trkpt>
<trkpt lat="48.408193" lon="2.639328"><ele></ele><time>2017-9-19T1:45:53Z</time></trkpt>
<trkpt lat="48.4081" lon="2.639435"><ele></ele><time>2017-9-19T1:45:56Z</time></trkpt>
<trkpt lat="48.40805" lon="2.63951"><ele></ele><time>2017-9-19T1:45:59Z</time></trkpt>
<trkpt lat="48.407987" lon="2.639587"><ele></ele><time>2017-9-19T1:46:2Z</time></trkpt>
<trkpt lat="48.407932" lon="2.639643"><ele></ele><time>2017-9-19T1:46:5Z</time></trkpt>
<trkpt lat="48.40786" lon="2.639718"><ele></ele><time>2017-9-19T1:46:8Z</time></trkpt>
<trkpt lat="48.407797" lon="2.63978"><ele></ele><time>2017-9-19T1:46:11Z</time></trkpt>
<trkpt lat="48.407755" lon="2.639825"><ele></ele><time>2017-9-19T1:46:14Z</time></trkpt>
<trkpt lat="48.40771" lon="2.639892"><ele></ele><time>2017-9-19T1:46:17Z</time></trkpt>
<trkpt lat="48.407662" lon="2.639963"><ele></ele><time>2017-9-19T1:46:20Z</time></trkpt>
<trkpt lat="48.407608" lon="2.640033"><ele></ele><time>2017-9-19T1:46:23Z</time></trkpt>
<trkpt lat="48.407552" lon="2.640115"><ele></ele><time>2017-9-19T1:46:26Z</time></trkpt>
<trkpt lat="48.407503" lon="2.640197"><ele></ele><time>2017-9-19T1:46:29Z</time></trkpt>
<trkpt lat="48.407427" lon="2.640265"><ele></ele><time>2017-9-19T1:46:32Z</time></trkpt>
<trkpt lat="48.407362" lon="2.640318"><ele></ele><time>2017-9-19T1:46:35Z</time></trkpt>
<trkpt lat="48.407273" lon="2.640333"><ele></ele><time>2017-9-19T1:46:38Z</time></trkpt>
<trkpt lat="48.407232" lon="2.640422"><ele></ele><time>2017-9-19T1:46:41Z</time></trkpt>
<trkpt lat="48.407183" lon="2.64049"><ele></ele><time>2017-9-19T1:46:44Z</time></trkpt>
<trkpt lat="48.407135" lon="2.640557"><ele></ele><time>2017-9-19T1:46:47Z</time></trkpt>
<trkpt lat="48.407082" lon="2.640605"><ele></ele><time>2017-9-19T1:46:50Z</time></trkpt>
<trkpt lat="48.407017" lon="2.640655"><ele></ele><time>2017-9-19T1:46:53Z</time></trkpt>
<trkpt lat="48.406992" lon="2.640752"><ele></ele><time>2017-9-19T1:46:56Z</time></trkpt>
<trkpt lat="48.406965" lon="2.640865"><ele></ele><time>2017-9-19T1:46:59Z</time></trkpt>
<trkpt lat="48.406942" lon="2.640993"><ele></ele><time>2017-9-19T1:47:2Z</time></trkpt>
<trkpt lat="48.406937" lon="2.641037"><ele></ele><time>2017-9-19T1:47:5Z</time></trkpt>
<trkpt lat="48.406915" lon="2.641223"><ele></ele><time>2017-9-19T1:47:8Z</time></trkpt>
<trkpt lat="48.406882" lon="2.641327"><ele></ele><time>2017-9-19T1:47:11Z</time></trkpt>
<trkpt lat="48.406837" lon="2.641408"><ele></ele><time>2017-9-19T1:47:14Z</time></trkpt>
<trkpt lat="48.406793" lon="2.641505"><ele></ele><time>2017-9-19T1:47:17Z</time></trkpt>
<trkpt lat="48.406753" lon="2.641612"><ele></ele><time>2017-9-19T1:47:20Z</time></trkpt>
<trkpt lat="48.40671" lon="2.641695"><ele></ele><time>2017-9-19T1:47:23Z</time></trkpt>
<trkpt lat="48.406658" lon="2.641795"><ele></ele><time>2017-9-19T1:47:26Z</time></trkpt>
<trkpt lat="48.406637" lon="2.641888"><ele></ele><time>2017-9-19T1:47:29Z</time></trkpt>
<trkpt lat="48.406613" lon="2.642017"><ele></ele><time>2017-9-19T1:47:32Z</time></trkpt>
<trkpt lat="48.406597" lon="2.6421"><ele></ele><time>2017-9-19T1:47:35Z</time></trkpt>
<trkpt lat="48.40657" lon="2.64219"><ele></ele><time>2017-9-19T1:47:38Z</time></trkpt>
<trkpt lat="48.406543" lon="2.64228"><ele></ele><time>2017-9-19T1:47:41Z</time></trkpt>
<trkpt lat="48.406512" lon="2.642405"><ele></ele><time>2017-9-19T1:47:44Z</time></trkpt>
<trkpt lat="48.40649" lon="2.642528"><ele></ele><time>2017-9-19T1:47:47Z</time></trkpt>
<trkpt lat="48.406425" lon="2.642572"><ele></ele><time>2017-9-19T1:47:50Z</time></trkpt>
<trkpt lat="48.406367" lon="2.642617"><ele></ele><time>2017-9-19T1:47:53Z</time></trkpt>
<trkpt lat="48.40633" lon="2.64274"><ele></ele><time>2017-9-19T1:47:56Z</time></trkpt>
<trkpt lat="48.406323" lon="2.642855"><ele></ele><time>2017-9-19T1:47:59Z</time></trkpt>
<trkpt lat="48.406328" lon="2.642918"><ele></ele><time>2017-9-19T1:48:2Z</time></trkpt>
<trkpt lat="48.406337" lon="2.643053"><ele></ele><time>2017-9-19T1:48:5Z</time></trkpt>
<trkpt lat="48.40632" lon="2.643167"><ele></ele><time>2017-9-19T1:48:8Z</time></trkpt>
<trkpt lat="48.406315" lon="2.643308"><ele></ele><time>2017-9-19T1:48:11Z</time></trkpt>
<trkpt lat="48.406312" lon="2.643387"><ele></ele><time>2017-9-19T1:48:14Z</time></trkpt>
<trkpt lat="48.40631" lon="2.643468"><ele></ele><time>2017-9-19T1:48:17Z</time></trkpt>
<trkpt lat="48.406313" lon="2.643548"><ele></ele><time>2017-9-19T1:48:20Z</time></trkpt>
<trkpt lat="48.406312" lon="2.643627"><ele></ele><time>2017-9-19T1:48:23Z</time></trkpt>
<trkpt lat="48.40631" lon="2.643708"><ele></ele><time>2017-9-19T1:48:26Z</time></trkpt>
<trkpt lat="48.406312" lon="2.643798"><ele></ele><time>2017-9-19T1:48:29Z</time></trkpt>
<trkpt lat="48.406308" lon="2.643887"><ele></ele><time>2017-9-19T1:48:32Z</time></trkpt>
<trkpt lat="48.4063" lon="2.643963"><ele></ele><time>2017-9-19T1:48:35Z</time></trkpt>
<trkpt lat="48.406283" lon="2.644033"><ele></ele><time>2017-9-19T1:48:38Z</time></trkpt>
<trkpt lat="48.406258" lon="2.644107"><ele></ele><time>2017-9-19T1:48:41Z</time></trkpt>
<trkpt lat="48.406223" lon="2.644173"><ele></ele><time>2017-9-19T1:48:44Z</time></trkpt>
<trkpt lat="48.406183" lon="2.644235"><ele></ele><time>2017-9-19T1:48:47Z</time></trkpt>
<trkpt lat="48.406137" lon="2.644292"><ele></ele><time>2017-9-19T1:48:50Z</time></trkpt>
<trkpt lat="48.40609" lon="2.644348"><ele></ele><time>2017-9-19T1:48:53Z</time></trkpt>
<trkpt lat="48.406052" lon="2.644403"><ele></ele><time>2017-9-19T1:48:56Z</time></trkpt>
<trkpt lat="48.406017" lon="2.644462"><ele></ele><time>2017-9-19T1:48:59Z</time></trkpt>
<trkpt lat="48.405983" lon="2.644518"><ele></ele><time>2017-9-19T1:49:2Z</time></trkpt>
<trkpt lat="48.405957" lon="2.644585"><ele></ele><time>2017-9-19T1:49:5Z</time></trkpt>
<trkpt lat="48.405938" lon="2.64466"><ele></ele><time>2017-9-19T1:49:8Z</time></trkpt>
<trkpt lat="48.405933" lon="2.644823"><ele></ele><time>2017-9-19T1:49:11Z</time></trkpt>
<trkpt lat="48.40595" lon="2.644992"><ele></ele><time>2017-9-19T1:49:14Z</time></trkpt>
<trkpt lat="48.405968" lon="2.645167"><ele></ele><time>2017-9-19T1:49:17Z</time></trkpt>
<trkpt lat="48.405982" lon="2.645253"><ele></ele><time>2017-9-19T1:49:20Z</time></trkpt>
<trkpt lat="48.405997" lon="2.645337"><ele></ele><time>2017-9-19T1:49:23Z</time></trkpt>
<trkpt lat="48.406012" lon="2.645422"><ele></ele><time>2017-9-19T1:49:26Z</time></trkpt>
<trkpt lat="48.406025" lon="2.645508"><ele></ele><time>2017-9-19T1:49:29Z</time></trkpt>
<trkpt lat="48.406038" lon="2.645597"><ele></ele><time>2017-9-19T1:49:32Z</time></trkpt>
<trkpt lat="48.406055" lon="2.64568"><ele></ele><time>2017-9-19T1:49:35Z</time></trkpt>
<trkpt lat="48.406067" lon="2.645765"><ele></ele><time>2017-9-19T1:49:38Z</time></trkpt>
<trkpt lat="48.406077" lon="2.645853"><ele></ele><time>2017-9-19T1:49:41Z</time></trkpt>
<trkpt lat="48.406087" lon="2.645935"><ele></ele><time>2017-9-19T1:49:44Z</time></trkpt>
<trkpt lat="48.4061" lon="2.646017"><ele></ele><time>2017-9-19T1:49:47Z</time></trkpt>
<trkpt lat="48.406108" lon="2.646105"><ele></ele><time>2017-9-19T1:49:50Z</time></trkpt>
<trkpt lat="48.406118" lon="2.646202"><ele></ele><time>2017-9-19T1:49:53Z</time></trkpt>
<trkpt lat="48.40612" lon="2.646293"><ele></ele><time>2017-9-19T1:49:56Z</time></trkpt>
<trkpt lat="48.406108" lon="2.646457"><ele></ele><time>2017-9-19T1:49:59Z</time></trkpt>
<trkpt lat="48.406072" lon="2.646617"><ele></ele><time>2017-9-19T1:50:2Z</time></trkpt>
<trkpt lat="48.406032" lon="2.646782"><ele></ele><time>2017-9-19T1:50:5Z</time></trkpt>
<trkpt lat="48.40599" lon="2.646942"><ele></ele><time>2017-9-19T1:50:8Z</time></trkpt>
<trkpt lat="48.405963" lon="2.647097"><ele></ele><time>2017-9-19T1:50:11Z</time></trkpt>
<trkpt lat="48.405943" lon="2.647245"><ele></ele><time>2017-9-19T1:50:14Z</time></trkpt>
<trkpt lat="48.405915" lon="2.647373"><ele></ele><time>2017-9-19T1:50:17Z</time></trkpt>
<trkpt lat="48.405897" lon="2.647433"><ele></ele><time>2017-9-19T1:50:20Z</time></trkpt>
<trkpt lat="48.40588" lon="2.647498"><ele></ele><time>2017-9-19T1:50:23Z</time></trkpt>
<trkpt lat="48.405863" lon="2.647563"><ele></ele><time>2017-9-19T1:50:26Z</time></trkpt>
<trkpt lat="48.405852" lon="2.64763"><ele></ele><time>2017-9-19T1:50:29Z</time></trkpt>
<trkpt lat="48.40584" lon="2.647698"><ele></ele><time>2017-9-19T1:50:32Z</time></trkpt>
<trkpt lat="48.405828" lon="2.64777"><ele></ele><time>2017-9-19T1:50:35Z</time></trkpt>
<trkpt lat="48.405815" lon="2.647842"><ele></ele><time>2017-9-19T1:50:38Z</time></trkpt>
<trkpt lat="48.405805" lon="2.647915"><ele></ele><time>2017-9-19T1:50:41Z</time></trkpt>
<trkpt lat="48.405795" lon="2.647983"><ele></ele><time>2017-9-19T1:50:44Z</time></trkpt>
<trkpt lat="48.405787" lon="2.648053"><ele></ele><time>2017-9-19T1:50:47Z</time></trkpt>
<trkpt lat="48.405778" lon="2.648125"><ele></ele><time>2017-9-19T1:50:50Z</time></trkpt>
<trkpt lat="48.405768" lon="2.648198"><ele></ele><time>2017-9-19T1:50:53Z</time></trkpt>
<trkpt lat="48.405757" lon="2.648275"><ele></ele><time>2017-9-19T1:50:56Z</time></trkpt>
<trkpt lat="48.405752" lon="2.648348"><ele></ele><time>2017-9-19T1:50:59Z</time></trkpt>
<trkpt lat="48.405743" lon="2.648425"><ele></ele><time>2017-9-19T1:51:2Z</time></trkpt>
<trkpt lat="48.405732" lon="2.648503"><ele></ele><time>2017-9-19T1:51:5Z</time></trkpt>
<trkpt lat="48.405717" lon="2.648577"><ele></ele><time>2017-9-19T1:51:8Z</time></trkpt>
<trkpt lat="48.405697" lon="2.648648"><ele></ele><time>2017-9-19T1:51:11Z</time></trkpt>
<trkpt lat="48.405675" lon="2.648715"><ele></ele><time>2017-9-19T1:51:14Z</time></trkpt>
<trkpt lat="48.405647" lon="2.648778"><ele></ele><time>2017-9-19T1:51:17Z</time></trkpt>
<trkpt lat="48.405612" lon="2.648838"><ele></ele><time>2017-9-19T1:51:20Z</time></trkpt>
<trkpt lat="48.405578" lon="2.648892"><ele></ele><time>2017-9-19T1:51:23Z</time></trkpt>
<trkpt lat="48.40554" lon="2.648943"><ele></ele><time>2017-9-19T1:51:26Z</time></trkpt>
<trkpt lat="48.405502" lon="2.649003"><ele></ele><time>2017-9-19T1:51:29Z</time></trkpt>
<trkpt lat="48.405465" lon="2.649067"><ele></ele><time>2017-9-19T1:51:32Z</time></trkpt>
<trkpt lat="48.405427" lon="2.649135"><ele></ele><time>2017-9-19T1:51:35Z</time></trkpt>
<trkpt lat="48.40539" lon="2.649205"><ele></ele><time>2017-9-19T1:51:38Z</time></trkpt>
<trkpt lat="48.405355" lon="2.649273"><ele></ele><time>2017-9-19T1:51:41Z</time></trkpt>
<trkpt lat="48.405318" lon="2.649343"><ele></ele><time>2017-9-19T1:51:44Z</time></trkpt>
<trkpt lat="48.405283" lon="2.649413"><ele></ele><time>2017-9-19T1:51:47Z</time></trkpt>
<trkpt lat="48.40525" lon="2.64948"><ele></ele><time>2017-9-19T1:51:50Z</time></trkpt>
<trkpt lat="48.40519" lon="2.649615"><ele></ele><time>2017-9-19T1:51:53Z</time></trkpt>
<trkpt lat="48.405162" lon="2.649672"><ele></ele><time>2017-9-19T1:51:56Z</time></trkpt>
<trkpt lat="48.405132" lon="2.649727"><ele></ele><time>2017-9-19T1:51:59Z</time></trkpt>
<trkpt lat="48.405097" lon="2.649777"><ele></ele><time>2017-9-19T1:52:2Z</time></trkpt>
<trkpt lat="48.405058" lon="2.64982"><ele></ele><time>2017-9-19T1:52:5Z</time></trkpt>
<trkpt lat="48.405023" lon="2.649862"><ele></ele><time>2017-9-19T1:52:8Z</time></trkpt>
<trkpt lat="48.404987" lon="2.649905"><ele></ele><time>2017-9-19T1:52:11Z</time></trkpt>
<trkpt lat="48.40491" lon="2.649995"><ele></ele><time>2017-9-19T1:52:14Z</time></trkpt>
<trkpt lat="48.404845" lon="2.650077"><ele></ele><time>2017-9-19T1:52:17Z</time></trkpt>
<trkpt lat="48.404775" lon="2.650165"><ele></ele><time>2017-9-19T1:52:20Z</time></trkpt>
<trkpt lat="48.40472" lon="2.650258"><ele></ele><time>2017-9-19T1:52:23Z</time></trkpt>
<trkpt lat="48.404662" lon="2.650363"><ele></ele><time>2017-9-19T1:52:26Z</time></trkpt>
<trkpt lat="48.404633" lon="2.65042"><ele></ele><time>2017-9-19T1:52:29Z</time></trkpt>
<trkpt lat="48.404607" lon="2.650477"><ele></ele><time>2017-9-19T1:52:32Z</time></trkpt>
<trkpt lat="48.404553" lon="2.650582"><ele></ele><time>2017-9-19T1:52:35Z</time></trkpt>
<trkpt lat="48.4045" lon="2.650683"><ele></ele><time>2017-9-19T1:52:38Z</time></trkpt>
<trkpt lat="48.40447" lon="2.650733"><ele></ele><time>2017-9-19T1:52:41Z</time></trkpt>
<trkpt lat="48.404415" lon="2.650838"><ele></ele><time>2017-9-19T1:52:44Z</time></trkpt>
<trkpt lat="48.404367" lon="2.650948"><ele></ele><time>2017-9-19T1:52:47Z</time></trkpt>
<trkpt lat="48.40434" lon="2.651072"><ele></ele><time>2017-9-19T1:52:50Z</time></trkpt>
<trkpt lat="48.40432" lon="2.651197"><ele></ele><time>2017-9-19T1:52:53Z</time></trkpt>
<trkpt lat="48.404297" lon="2.65132"><ele></ele><time>2017-9-19T1:52:56Z</time></trkpt>
<trkpt lat="48.404278" lon="2.651437"><ele></ele><time>2017-9-19T1:52:59Z</time></trkpt>
<trkpt lat="48.404257" lon="2.651557"><ele></ele><time>2017-9-19T1:53:2Z</time></trkpt>
<trkpt lat="48.404238" lon="2.651683"><ele></ele><time>2017-9-19T1:53:5Z</time></trkpt>
<trkpt lat="48.40423" lon="2.651748"><ele></ele><time>2017-9-19T1:53:8Z</time></trkpt>
<trkpt lat="48.404215" lon="2.651882"><ele></ele><time>2017-9-19T1:53:11Z</time></trkpt>
<trkpt lat="48.40421" lon="2.651955"><ele></ele><time>2017-9-19T1:53:14Z</time></trkpt>
<trkpt lat="48.404197" lon="2.652088"><ele></ele><time>2017-9-19T1:53:17Z</time></trkpt>
<trkpt lat="48.404183" lon="2.652212"><ele></ele><time>2017-9-19T1:53:20Z</time></trkpt>
<trkpt lat="48.404168" lon="2.652333"><ele></ele><time>2017-9-19T1:53:23Z</time></trkpt>
<trkpt lat="48.404162" lon="2.6524"><ele></ele><time>2017-9-19T1:53:26Z</time></trkpt>
<trkpt lat="48.404152" lon="2.652468"><ele></ele><time>2017-9-19T1:53:29Z</time></trkpt>
<trkpt lat="48.40415" lon="2.6526"><ele></ele><time>2017-9-19T1:53:32Z</time></trkpt>
<trkpt lat="48.404142" lon="2.65272"><ele></ele><time>2017-9-19T1:53:35Z</time></trkpt>
<trkpt lat="48.404127" lon="2.65283"><ele></ele><time>2017-9-19T1:53:38Z</time></trkpt>
<trkpt lat="48.404113" lon="2.652938"><ele></ele><time>2017-9-19T1:53:41Z</time></trkpt>
<trkpt lat="48.404097" lon="2.65306"><ele></ele><time>2017-9-19T1:53:44Z</time></trkpt>
<trkpt lat="48.404087" lon="2.65317"><ele></ele><time>2017-9-19T1:53:47Z</time></trkpt>
<trkpt lat="48.404075" lon="2.653293"><ele></ele><time>2017-9-19T1:53:50Z</time></trkpt>
<trkpt lat="48.404065" lon="2.653417"><ele></ele><time>2017-9-19T1:53:53Z</time></trkpt>
<trkpt lat="48.404053" lon="2.65353"><ele></ele><time>2017-9-19T1:53:56Z</time></trkpt>
<trkpt lat="48.404048" lon="2.65364"><ele></ele><time>2017-9-19T1:53:59Z</time></trkpt>
<trkpt lat="48.404043" lon="2.653752"><ele></ele><time>2017-9-19T1:54:2Z</time></trkpt>
<trkpt lat="48.40403" lon="2.653815"><ele></ele><time>2017-9-19T1:54:5Z</time></trkpt>
<trkpt lat="48.404017" lon="2.653882"><ele></ele><time>2017-9-19T1:54:8Z</time></trkpt>
<trkpt lat="48.404" lon="2.654003"><ele></ele><time>2017-9-19T1:54:11Z</time></trkpt>
<trkpt lat="48.40399" lon="2.654072"><ele></ele><time>2017-9-19T1:54:14Z</time></trkpt>
<trkpt lat="48.403982" lon="2.65414"><ele></ele><time>2017-9-19T1:54:17Z</time></trkpt>
<trkpt lat="48.403962" lon="2.654268"><ele></ele><time>2017-9-19T1:54:20Z</time></trkpt>
<trkpt lat="48.403948" lon="2.654392"><ele></ele><time>2017-9-19T1:54:23Z</time></trkpt>
<trkpt lat="48.403927" lon="2.654517"><ele></ele><time>2017-9-19T1:54:26Z</time></trkpt>
<trkpt lat="48.40391" lon="2.65464"><ele></ele><time>2017-9-19T1:54:29Z</time></trkpt>
<trkpt lat="48.403903" lon="2.654703"><ele></ele><time>2017-9-19T1:54:32Z</time></trkpt>
<trkpt lat="48.403893" lon="2.654773"><ele></ele><time>2017-9-19T1:54:35Z</time></trkpt>
<trkpt lat="48.403885" lon="2.65484"><ele></ele><time>2017-9-19T1:54:38Z</time></trkpt>
<trkpt lat="48.403877" lon="2.65491"><ele></ele><time>2017-9-19T1:54:41Z</time></trkpt>
<trkpt lat="48.403863" lon="2.655043"><ele></ele><time>2017-9-19T1:54:44Z</time></trkpt>
<trkpt lat="48.403845" lon="2.655167"><ele></ele><time>2017-9-19T1:54:47Z</time></trkpt>
<trkpt lat="48.403825" lon="2.655282"><ele></ele><time>2017-9-19T1:54:50Z</time></trkpt>
<trkpt lat="48.403815" lon="2.655385"><ele></ele><time>2017-9-19T1:54:53Z</time></trkpt>
<trkpt lat="48.403805" lon="2.655517"><ele></ele><time>2017-9-19T1:54:56Z</time></trkpt>
<trkpt lat="48.403803" lon="2.655543"><ele></ele><time>2017-9-19T1:54:59Z</time></trkpt>
<trkpt lat="48.403808" lon="2.655752"><ele></ele><time>2017-9-19T1:55:2Z</time></trkpt>
<trkpt lat="48.403817" lon="2.655882"><ele></ele><time>2017-9-19T1:55:5Z</time></trkpt>
<trkpt lat="48.403812" lon="2.65598"><ele></ele><time>2017-9-19T1:55:8Z</time></trkpt>
<trkpt lat="48.403808" lon="2.656083"><ele></ele><time>2017-9-19T1:55:11Z</time></trkpt>
<trkpt lat="48.403807" lon="2.656182"><ele></ele><time>2017-9-19T1:55:14Z</time></trkpt>
<trkpt lat="48.403813" lon="2.65631"><ele></ele><time>2017-9-19T1:55:17Z</time></trkpt>
<trkpt lat="48.403815" lon="2.656355"><ele></ele><time>2017-9-19T1:55:20Z</time></trkpt>
<trkpt lat="48.403815" lon="2.656502"><ele></ele><time>2017-9-19T1:55:23Z</time></trkpt>
<trkpt lat="48.403813" lon="2.65661"><ele></ele><time>2017-9-19T1:55:26Z</time></trkpt>
<trkpt lat="48.403807" lon="2.656717"><ele></ele><time>2017-9-19T1:55:29Z</time></trkpt>
<trkpt lat="48.403812" lon="2.656843"><ele></ele><time>2017-9-19T1:55:32Z</time></trkpt>
<trkpt lat="48.403807" lon="2.65696"><ele></ele><time>2017-9-19T1:55:35Z</time></trkpt>
<trkpt lat="48.40381" lon="2.657072"><ele></ele><time>2017-9-19T1:55:38Z</time></trkpt>
<trkpt lat="48.403803" lon="2.657177"><ele></ele><time>2017-9-19T1:55:41Z</time></trkpt>
<trkpt lat="48.403797" lon="2.657272"><ele></ele><time>2017-9-19T1:55:44Z</time></trkpt>
<trkpt lat="48.403803" lon="2.65736"><ele></ele><time>2017-9-19T1:55:47Z</time></trkpt>
<trkpt lat="48.403797" lon="2.657455"><ele></ele><time>2017-9-19T1:55:50Z</time></trkpt>
<trkpt lat="48.403807" lon="2.65758"><ele></ele><time>2017-9-19T1:55:53Z</time></trkpt>
<trkpt lat="48.403808" lon="2.657703"><ele></ele><time>2017-9-19T1:55:56Z</time></trkpt>
<trkpt lat="48.403812" lon="2.657823"><ele></ele><time>2017-9-19T1:55:59Z</time></trkpt>
<trkpt lat="48.4038" lon="2.657947"><ele></ele><time>2017-9-19T1:56:2Z</time></trkpt>
<trkpt lat="48.403795" lon="2.658047"><ele></ele><time>2017-9-19T1:56:5Z</time></trkpt>
<trkpt lat="48.403792" lon="2.658153"><ele></ele><time>2017-9-19T1:56:8Z</time></trkpt>
<trkpt lat="48.403793" lon="2.658265"><ele></ele><time>2017-9-19T1:56:11Z</time></trkpt>
<trkpt lat="48.403788" lon="2.658378"><ele></ele><time>2017-9-19T1:56:14Z</time></trkpt>
<trkpt lat="48.403783" lon="2.658493"><ele></ele><time>2017-9-19T1:56:17Z</time></trkpt>
<trkpt lat="48.403777" lon="2.658612"><ele></ele><time>2017-9-19T1:56:20Z</time></trkpt>
<trkpt lat="48.403772" lon="2.658733"><ele></ele><time>2017-9-19T1:56:23Z</time></trkpt>
<trkpt lat="48.403775" lon="2.658853"><ele></ele><time>2017-9-19T1:56:26Z</time></trkpt>
<trkpt lat="48.403778" lon="2.658977"><ele></ele><time>2017-9-19T1:56:29Z</time></trkpt>
<trkpt lat="48.40378" lon="2.659103"><ele></ele><time>2017-9-19T1:56:32Z</time></trkpt>
<trkpt lat="48.403777" lon="2.659233"><ele></ele><time>2017-9-19T1:56:35Z</time></trkpt>
<trkpt lat="48.403768" lon="2.659367"><ele></ele><time>2017-9-19T1:56:38Z</time></trkpt>
<trkpt lat="48.403775" lon="2.659438"><ele></ele><time>2017-9-19T1:56:41Z</time></trkpt>
<trkpt lat="48.403782" lon="2.659508"><ele></ele><time>2017-9-19T1:56:44Z</time></trkpt>
<trkpt lat="48.403787" lon="2.659575"><ele></ele><time>2017-9-19T1:56:47Z</time></trkpt>
<trkpt lat="48.403793" lon="2.659647"><ele></ele><time>2017-9-19T1:56:50Z</time></trkpt>
<trkpt lat="48.403795" lon="2.659715"><ele></ele><time>2017-9-19T1:56:53Z</time></trkpt>
<trkpt lat="48.403795" lon="2.659783"><ele></ele><time>2017-9-19T1:56:56Z</time></trkpt>
<trkpt lat="48.403798" lon="2.659918"><ele></ele><time>2017-9-19T1:56:59Z</time></trkpt>
<trkpt lat="48.403817" lon="2.660047"><ele></ele><time>2017-9-19T1:57:2Z</time></trkpt>
<trkpt lat="48.403823" lon="2.66017"><ele></ele><time>2017-9-19T1:57:5Z</time></trkpt>
<trkpt lat="48.403813" lon="2.660283"><ele></ele><time>2017-9-19T1:57:8Z</time></trkpt>
<trkpt lat="48.403802" lon="2.660397"><ele></ele><time>2017-9-19T1:57:11Z</time></trkpt>
<trkpt lat="48.403788" lon="2.660507"><ele></ele><time>2017-9-19T1:57:14Z</time></trkpt>
<trkpt lat="48.403805" lon="2.660638"><ele></ele><time>2017-9-19T1:57:17Z</time></trkpt>
<trkpt lat="48.403862" lon="2.660715"><ele></ele><time>2017-9-19T1:57:20Z</time></trkpt>
<trkpt lat="48.403912" lon="2.6608"><ele></ele><time>2017-9-19T1:57:23Z</time></trkpt>
<trkpt lat="48.40396" lon="2.660885"><ele></ele><time>2017-9-19T1:57:26Z</time></trkpt>
<trkpt lat="48.40402" lon="2.660985"><ele></ele><time>2017-9-19T1:57:29Z</time></trkpt>
<trkpt lat="48.404068" lon="2.661058"><ele></ele><time>2017-9-19T1:57:32Z</time></trkpt>
<trkpt lat="48.404125" lon="2.661158"><ele></ele><time>2017-9-19T1:57:35Z</time></trkpt>
<trkpt lat="48.404167" lon="2.661245"><ele></ele><time>2017-9-19T1:57:38Z</time></trkpt>
<trkpt lat="48.404245" lon="2.661283"><ele></ele><time>2017-9-19T1:57:41Z</time></trkpt>
<trkpt lat="48.404312" lon="2.661273"><ele></ele><time>2017-9-19T1:57:44Z</time></trkpt>
<trkpt lat="48.404388" lon="2.661265"><ele></ele><time>2017-9-19T1:57:47Z</time></trkpt>
<trkpt lat="48.404455" lon="2.66125"><ele></ele><time>2017-9-19T1:57:50Z</time></trkpt>
<trkpt lat="48.404522" lon="2.661217"><ele></ele><time>2017-9-19T1:57:53Z</time></trkpt>
<trkpt lat="48.404598" lon="2.661178"><ele></ele><time>2017-9-19T1:57:56Z</time></trkpt>
<trkpt lat="48.404685" lon="2.661147"><ele></ele><time>2017-9-19T1:57:59Z</time></trkpt>
<trkpt lat="48.40475" lon="2.661133"><ele></ele><time>2017-9-19T1:58:2Z</time></trkpt>
<trkpt lat="48.404817" lon="2.66113"><ele></ele><time>2017-9-19T1:58:5Z</time></trkpt>
<trkpt lat="48.404895" lon="2.661103"><ele></ele><time>2017-9-19T1:58:8Z</time></trkpt>
<trkpt lat="48.40497" lon="2.661088"><ele></ele><time>2017-9-19T1:58:11Z</time></trkpt>
<trkpt lat="48.405047" lon="2.66107"><ele></ele><time>2017-9-19T1:58:14Z</time></trkpt>
<trkpt lat="48.405125" lon="2.661047"><ele></ele><time>2017-9-19T1:58:17Z</time></trkpt>
<trkpt lat="48.405207" lon="2.66104"><ele></ele><time>2017-9-19T1:58:20Z</time></trkpt>
<trkpt lat="48.405277" lon="2.661033"><ele></ele><time>2017-9-19T1:58:23Z</time></trkpt>
<trkpt lat="48.405347" lon="2.661043"><ele></ele><time>2017-9-19T1:58:26Z</time></trkpt>
<trkpt lat="48.405417" lon="2.661115"><ele></ele><time>2017-9-19T1:58:29Z</time></trkpt>
<trkpt lat="48.405425" lon="2.661212"><ele></ele><time>2017-9-19T1:58:32Z</time></trkpt>
<trkpt lat="48.405445" lon="2.661322"><ele></ele><time>2017-9-19T1:58:35Z</time></trkpt>
<trkpt lat="48.405477" lon="2.661432"><ele></ele><time>2017-9-19T1:58:38Z</time></trkpt>
<trkpt lat="48.405508" lon="2.661538"><ele></ele><time>2017-9-19T1:58:41Z</time></trkpt>
<trkpt lat="48.405535" lon="2.661652"><ele></ele><time>2017-9-19T1:58:44Z</time></trkpt>
<trkpt lat="48.405555" lon="2.661732"><ele></ele><time>2017-9-19T1:58:47Z</time></trkpt>
<trkpt lat="48.405567" lon="2.661813"><ele></ele><time>2017-9-19T1:58:50Z</time></trkpt>
<trkpt lat="48.405588" lon="2.661883"><ele></ele><time>2017-9-19T1:58:53Z</time></trkpt>
<trkpt lat="48.405597" lon="2.661993"><ele></ele><time>2017-9-19T1:58:56Z</time></trkpt>
<trkpt lat="48.405602" lon="2.662032"><ele></ele><time>2017-9-19T1:58:59Z</time></trkpt>
<trkpt lat="48.405618" lon="2.662213"><ele></ele><time>2017-9-19T1:59:2Z</time></trkpt>
<trkpt lat="48.40563" lon="2.66232"><ele></ele><time>2017-9-19T1:59:5Z</time></trkpt>
<trkpt lat="48.405647" lon="2.66245"><ele></ele><time>2017-9-19T1:59:8Z</time></trkpt>
<trkpt lat="48.405665" lon="2.66257"><ele></ele><time>2017-9-19T1:59:11Z</time></trkpt>
<trkpt lat="48.405665" lon="2.6627"><ele></ele><time>2017-9-19T1:59:14Z</time></trkpt>
<trkpt lat="48.405687" lon="2.662807"><ele></ele><time>2017-9-19T1:59:17Z</time></trkpt>
<trkpt lat="48.405697" lon="2.662913"><ele></ele><time>2017-9-19T1:59:20Z</time></trkpt>
<trkpt lat="48.405692" lon="2.663045"><ele></ele><time>2017-9-19T1:59:23Z</time></trkpt>
<trkpt lat="48.405665" lon="2.663135"><ele></ele><time>2017-9-19T1:59:26Z</time></trkpt>
<trkpt lat="48.40565" lon="2.663235"><ele></ele><time>2017-9-19T1:59:29Z</time></trkpt>
<trkpt lat="48.405638" lon="2.66334"><ele></ele><time>2017-9-19T1:59:32Z</time></trkpt>
<trkpt lat="48.40563" lon="2.663412"><ele></ele><time>2017-9-19T1:59:35Z</time></trkpt>
<trkpt lat="48.405623" lon="2.66349"><ele></ele><time>2017-9-19T1:59:38Z</time></trkpt>
<trkpt lat="48.405618" lon="2.663603"><ele></ele><time>2017-9-19T1:59:41Z</time></trkpt>
<trkpt lat="48.405602" lon="2.663712"><ele></ele><time>2017-9-19T1:59:44Z</time></trkpt>
<trkpt lat="48.405613" lon="2.663797"><ele></ele><time>2017-9-19T1:59:47Z</time></trkpt>
<trkpt lat="48.405617" lon="2.663925"><ele></ele><time>2017-9-19T1:59:50Z</time></trkpt>
<trkpt lat="48.40558" lon="2.664045"><ele></ele><time>2017-9-19T1:59:53Z</time></trkpt>
<trkpt lat="48.405537" lon="2.664147"><ele></ele><time>2017-9-19T1:59:56Z</time></trkpt>
<trkpt lat="48.405517" lon="2.66419"><ele></ele><time>2017-9-19T1:59:59Z</time></trkpt>
<trkpt lat="48.405462" lon="2.664295"><ele></ele><time>2017-9-19T2:0:2Z</time></trkpt>
<trkpt lat="48.405448" lon="2.66436"><ele></ele><time>2017-9-19T2:0:5Z</time></trkpt>
<trkpt lat="48.405432" lon="2.664425"><ele></ele><time>2017-9-19T2:0:8Z</time></trkpt>
<trkpt lat="48.405408" lon="2.664483"><ele></ele><time>2017-9-19T2:0:11Z</time></trkpt>
<trkpt lat="48.405378" lon="2.664538"><ele></ele><time>2017-9-19T2:0:14Z</time></trkpt>
<trkpt lat="48.405347" lon="2.664593"><ele></ele><time>2017-9-19T2:0:17Z</time></trkpt>
<trkpt lat="48.405277" lon="2.664723"><ele></ele><time>2017-9-19T2:0:20Z</time></trkpt>
<trkpt lat="48.405247" lon="2.6648"><ele></ele><time>2017-9-19T2:0:23Z</time></trkpt>
<trkpt lat="48.405225" lon="2.664885"><ele></ele><time>2017-9-19T2:0:26Z</time></trkpt>
<trkpt lat="48.405213" lon="2.664975"><ele></ele><time>2017-9-19T2:0:29Z</time></trkpt>
<trkpt lat="48.405203" lon="2.665068"><ele></ele><time>2017-9-19T2:0:32Z</time></trkpt>
<trkpt lat="48.405193" lon="2.665165"><ele></ele><time>2017-9-19T2:0:35Z</time></trkpt>
<trkpt lat="48.405182" lon="2.665265"><ele></ele><time>2017-9-19T2:0:38Z</time></trkpt>
<trkpt lat="48.405167" lon="2.665367"><ele></ele><time>2017-9-19T2:0:41Z</time></trkpt>
<trkpt lat="48.405157" lon="2.665465"><ele></ele><time>2017-9-19T2:0:44Z</time></trkpt>
<trkpt lat="48.405148" lon="2.665562"><ele></ele><time>2017-9-19T2:0:47Z</time></trkpt>
<trkpt lat="48.405133" lon="2.66566"><ele></ele><time>2017-9-19T2:0:50Z</time></trkpt>
<trkpt lat="48.405118" lon="2.665757"><ele></ele><time>2017-9-19T2:0:53Z</time></trkpt>
<trkpt lat="48.405103" lon="2.665852"><ele></ele><time>2017-9-19T2:0:56Z</time></trkpt>
<trkpt lat="48.40509" lon="2.665943"><ele></ele><time>2017-9-19T2:0:59Z</time></trkpt>
<trkpt lat="48.405078" lon="2.66604"><ele></ele><time>2017-9-19T2:1:2Z</time></trkpt>
<trkpt lat="48.405068" lon="2.66613"><ele></ele><time>2017-9-19T2:1:5Z</time></trkpt>
<trkpt lat="48.405058" lon="2.666222"><ele></ele><time>2017-9-19T2:1:8Z</time></trkpt>
<trkpt lat="48.405043" lon="2.666313"><ele></ele><time>2017-9-19T2:1:11Z</time></trkpt>
<trkpt lat="48.405028" lon="2.666402"><ele></ele><time>2017-9-19T2:1:14Z</time></trkpt>
<trkpt lat="48.405015" lon="2.666493"><ele></ele><time>2017-9-19T2:1:17Z</time></trkpt>
<trkpt lat="48.404983" lon="2.666668"><ele></ele><time>2017-9-19T2:1:20Z</time></trkpt>
<trkpt lat="48.404955" lon="2.66685"><ele></ele><time>2017-9-19T2:1:23Z</time></trkpt>
<trkpt lat="48.404935" lon="2.666937"><ele></ele><time>2017-9-19T2:1:26Z</time></trkpt>
<trkpt lat="48.40492" lon="2.667023"><ele></ele><time>2017-9-19T2:1:29Z</time></trkpt>
<trkpt lat="48.404903" lon="2.66711"><ele></ele><time>2017-9-19T2:1:32Z</time></trkpt>
<trkpt lat="48.404892" lon="2.667198"><ele></ele><time>2017-9-19T2:1:35Z</time></trkpt>
<trkpt lat="48.404887" lon="2.667288"><ele></ele><time>2017-9-19T2:1:38Z</time></trkpt>
<trkpt lat="48.404877" lon="2.66737"><ele></ele><time>2017-9-19T2:1:41Z</time></trkpt>
<trkpt lat="48.404867" lon="2.667453"><ele></ele><time>2017-9-19T2:1:44Z</time></trkpt>
<trkpt lat="48.404853" lon="2.66753"><ele></ele><time>2017-9-19T2:1:47Z</time></trkpt>
<trkpt lat="48.40484" lon="2.667605"><ele></ele><time>2017-9-19T2:1:50Z</time></trkpt>
<trkpt lat="48.404828" lon="2.667737"><ele></ele><time>2017-9-19T2:1:53Z</time></trkpt>
<trkpt lat="48.404818" lon="2.667835"><ele></ele><time>2017-9-19T2:1:56Z</time></trkpt>
<trkpt lat="48.404803" lon="2.667965"><ele></ele><time>2017-9-19T2:1:59Z</time></trkpt>
<trkpt lat="48.40488" lon="2.668035"><ele></ele><time>2017-9-19T2:2:2Z</time></trkpt>
<trkpt lat="48.404882" lon="2.668043"><ele></ele><time>2017-9-19T2:2:5Z</time></trkpt>
<trkpt lat="48.404913" lon="2.668247"><ele></ele><time>2017-9-19T2:2:8Z</time></trkpt>
<trkpt lat="48.404918" lon="2.66833"><ele></ele><time>2017-9-19T2:2:11Z</time></trkpt>
<trkpt lat="48.404933" lon="2.66841"><ele></ele><time>2017-9-19T2:2:14Z</time></trkpt>
<trkpt lat="48.404958" lon="2.668488"><ele></ele><time>2017-9-19T2:2:17Z</time></trkpt>
<trkpt lat="48.404985" lon="2.668577"><ele></ele><time>2017-9-19T2:2:20Z</time></trkpt>
<trkpt lat="48.405013" lon="2.668667"><ele></ele><time>2017-9-19T2:2:23Z</time></trkpt>
<trkpt lat="48.405047" lon="2.668752"><ele></ele><time>2017-9-19T2:2:26Z</time></trkpt>
<trkpt lat="48.40508" lon="2.668838"><ele></ele><time>2017-9-19T2:2:29Z</time></trkpt>
<trkpt lat="48.405108" lon="2.668933"><ele></ele><time>2017-9-19T2:2:32Z</time></trkpt>
<trkpt lat="48.405135" lon="2.669027"><ele></ele><time>2017-9-19T2:2:35Z</time></trkpt>
<trkpt lat="48.40516" lon="2.669117"><ele></ele><time>2017-9-19T2:2:38Z</time></trkpt>
<trkpt lat="48.405188" lon="2.669198"><ele></ele><time>2017-9-19T2:2:41Z</time></trkpt>
<trkpt lat="48.405225" lon="2.66932"><ele></ele><time>2017-9-19T2:2:44Z</time></trkpt>
<trkpt lat="48.405258" lon="2.669443"><ele></ele><time>2017-9-19T2:2:47Z</time></trkpt>
<trkpt lat="48.405288" lon="2.669557"><ele></ele><time>2017-9-19T2:2:50Z</time></trkpt>
<trkpt lat="48.405302" lon="2.669625"><ele></ele><time>2017-9-19T2:2:53Z</time></trkpt>
<trkpt lat="48.405332" lon="2.669737"><ele></ele><time>2017-9-19T2:2:56Z</time></trkpt>
<trkpt lat="48.405365" lon="2.669852"><ele></ele><time>2017-9-19T2:2:59Z</time></trkpt>
<trkpt lat="48.405403" lon="2.669965"><ele></ele><time>2017-9-19T2:3:2Z</time></trkpt>
<trkpt lat="48.405442" lon="2.67008"><ele></ele><time>2017-9-19T2:3:5Z</time></trkpt>
<trkpt lat="48.405467" lon="2.670163"><ele></ele><time>2017-9-19T2:3:8Z</time></trkpt>
<trkpt lat="48.405508" lon="2.67028"><ele></ele><time>2017-9-19T2:3:11Z</time></trkpt>
<trkpt lat="48.405535" lon="2.670358"><ele></ele><time>2017-9-19T2:3:14Z</time></trkpt>
<trkpt lat="48.405587" lon="2.670515"><ele></ele><time>2017-9-19T2:3:17Z</time></trkpt>
<trkpt lat="48.405615" lon="2.670588"><ele></ele><time>2017-9-19T2:3:20Z</time></trkpt>
<trkpt lat="48.405652" lon="2.670697"><ele></ele><time>2017-9-19T2:3:23Z</time></trkpt>
<trkpt lat="48.405688" lon="2.670797"><ele></ele><time>2017-9-19T2:3:26Z</time></trkpt>
<trkpt lat="48.405723" lon="2.67089"><ele></ele><time>2017-9-19T2:3:29Z</time></trkpt>
<trkpt lat="48.405752" lon="2.670992"><ele></ele><time>2017-9-19T2:3:32Z</time></trkpt>
<trkpt lat="48.40578" lon="2.671097"><ele></ele><time>2017-9-19T2:3:35Z</time></trkpt>
<trkpt lat="48.405813" lon="2.671202"><ele></ele><time>2017-9-19T2:3:38Z</time></trkpt>
<trkpt lat="48.405842" lon="2.671312"><ele></ele><time>2017-9-19T2:3:41Z</time></trkpt>
<trkpt lat="48.405858" lon="2.671385"><ele></ele><time>2017-9-19T2:3:44Z</time></trkpt>
<trkpt lat="48.405893" lon="2.671508"><ele></ele><time>2017-9-19T2:3:47Z</time></trkpt>
<trkpt lat="48.405923" lon="2.671628"><ele></ele><time>2017-9-19T2:3:50Z</time></trkpt>
<trkpt lat="48.405923" lon="2.671723"><ele></ele><time>2017-9-19T2:3:53Z</time></trkpt>
<trkpt lat="48.40592" lon="2.671815"><ele></ele><time>2017-9-19T2:3:56Z</time></trkpt>
<trkpt lat="48.40591" lon="2.671922"><ele></ele><time>2017-9-19T2:3:59Z</time></trkpt>
<trkpt lat="48.405898" lon="2.67204"><ele></ele><time>2017-9-19T2:4:2Z</time></trkpt>
<trkpt lat="48.405887" lon="2.672167"><ele></ele><time>2017-9-19T2:4:5Z</time></trkpt>
<trkpt lat="48.40587" lon="2.672297"><ele></ele><time>2017-9-19T2:4:8Z</time></trkpt>
<trkpt lat="48.405863" lon="2.672365"><ele></ele><time>2017-9-19T2:4:11Z</time></trkpt>
<trkpt lat="48.405843" lon="2.672488"><ele></ele><time>2017-9-19T2:4:14Z</time></trkpt>
<trkpt lat="48.405922" lon="2.672467"><ele></ele><time>2017-9-19T2:4:17Z</time></trkpt>
<trkpt lat="48.405957" lon="2.672535"><ele></ele><time>2017-9-19T2:4:20Z</time></trkpt>
<trkpt lat="48.406002" lon="2.672617"><ele></ele><time>2017-9-19T2:4:23Z</time></trkpt>
<trkpt lat="48.40604" lon="2.672712"><ele></ele><time>2017-9-19T2:4:26Z</time></trkpt>
<trkpt lat="48.406072" lon="2.67282"><ele></ele><time>2017-9-19T2:4:29Z</time></trkpt>
<trkpt lat="48.406118" lon="2.672917"><ele></ele><time>2017-9-19T2:4:32Z</time></trkpt>
<trkpt lat="48.406165" lon="2.67301"><ele></ele><time>2017-9-19T2:4:35Z</time></trkpt>
<trkpt lat="48.406203" lon="2.673105"><ele></ele><time>2017-9-19T2:4:38Z</time></trkpt>
<trkpt lat="48.406248" lon="2.6732"><ele></ele><time>2017-9-19T2:4:41Z</time></trkpt>
<trkpt lat="48.406297" lon="2.673295"><ele></ele><time>2017-9-19T2:4:44Z</time></trkpt>
<trkpt lat="48.406338" lon="2.673393"><ele></ele><time>2017-9-19T2:4:47Z</time></trkpt>
<trkpt lat="48.406368" lon="2.673503"><ele></ele><time>2017-9-19T2:4:50Z</time></trkpt>
<trkpt lat="48.406398" lon="2.673605"><ele></ele><time>2017-9-19T2:4:53Z</time></trkpt>
<trkpt lat="48.406433" lon="2.673703"><ele></ele><time>2017-9-19T2:4:56Z</time></trkpt>
<trkpt lat="48.406477" lon="2.673787"><ele></ele><time>2017-9-19T2:4:59Z</time></trkpt>
<trkpt lat="48.406513" lon="2.673865"><ele></ele><time>2017-9-19T2:5:2Z</time></trkpt>
<trkpt lat="48.406555" lon="2.673948"><ele></ele><time>2017-9-19T2:5:5Z</time></trkpt>
<trkpt lat="48.406578" lon="2.67399"><ele></ele><time>2017-9-19T2:5:8Z</time></trkpt>
<trkpt lat="48.406632" lon="2.674075"><ele></ele><time>2017-9-19T2:5:11Z</time></trkpt>
<trkpt lat="48.406688" lon="2.67416"><ele></ele><time>2017-9-19T2:5:14Z</time></trkpt>
<trkpt lat="48.40673" lon="2.674255"><ele></ele><time>2017-9-19T2:5:17Z</time></trkpt>
<trkpt lat="48.40677" lon="2.674348"><ele></ele><time>2017-9-19T2:5:20Z</time></trkpt>
<trkpt lat="48.40681" lon="2.674427"><ele></ele><time>2017-9-19T2:5:23Z</time></trkpt>
<trkpt lat="48.406847" lon="2.674488"><ele></ele><time>2017-9-19T2:5:26Z</time></trkpt>
<trkpt lat="48.406913" lon="2.674628"><ele></ele><time>2017-9-19T2:5:29Z</time></trkpt>
<trkpt lat="48.406965" lon="2.674728"><ele></ele><time>2017-9-19T2:5:32Z</time></trkpt>
<trkpt lat="48.407015" lon="2.67484"><ele></ele><time>2017-9-19T2:5:35Z</time></trkpt>
<trkpt lat="48.407063" lon="2.674947"><ele></ele><time>2017-9-19T2:5:38Z</time></trkpt>
<trkpt lat="48.40712" lon="2.67501"><ele></ele><time>2017-9-19T2:5:41Z</time></trkpt>
<trkpt lat="48.407135" lon="2.675033"><ele></ele><time>2017-9-19T2:5:44Z</time></trkpt>
<trkpt lat="48.4072" lon="2.675158"><ele></ele><time>2017-9-19T2:5:47Z</time></trkpt>
<trkpt lat="48.407249" lon="2.67524"><ele></ele><time>2017-9-19T2:5:50Z</time></trkpt>
<trkpt lat="48.407285" lon="2.675337"><ele></ele><time>2017-9-19T2:5:53Z</time></trkpt>
<trkpt lat="48.407313" lon="2.675437"><ele></ele><time>2017-9-19T2:5:56Z</time></trkpt>
<trkpt lat="48.40734" lon="2.675532"><ele></ele><time>2017-9-19T2:5:59Z</time></trkpt>
<trkpt lat="48.407373" lon="2.675615"><ele></ele><time>2017-9-19T2:6:2Z</time></trkpt>
<trkpt lat="48.407405" lon="2.6757"><ele></ele><time>2017-9-19T2:6:5Z</time></trkpt>
<trkpt lat="48.407442" lon="2.675775"><ele></ele><time>2017-9-19T2:6:8Z</time></trkpt>
<trkpt lat="48.407472" lon="2.675822"><ele></ele><time>2017-9-19T2:6:11Z</time></trkpt>
<trkpt lat="48.407515" lon="2.675892"><ele></ele><time>2017-9-19T2:6:14Z</time></trkpt>
<trkpt lat="48.407593" lon="2.675958"><ele></ele><time>2017-9-19T2:6:17Z</time></trkpt>
<trkpt lat="48.407647" lon="2.675993"><ele></ele><time>2017-9-19T2:6:20Z</time></trkpt>
<trkpt lat="48.40771" lon="2.676042"><ele></ele><time>2017-9-19T2:6:23Z</time></trkpt>
<trkpt lat="48.40777" lon="2.67609"><ele></ele><time>2017-9-19T2:6:26Z</time></trkpt>
<trkpt lat="48.407827" lon="2.676128"><ele></ele><time>2017-9-19T2:6:29Z</time></trkpt>
<trkpt lat="48.407872" lon="2.676185"><ele></ele><time>2017-9-19T2:6:32Z</time></trkpt>
<trkpt lat="48.407908" lon="2.67627"><ele></ele><time>2017-9-19T2:6:35Z</time></trkpt>
<trkpt lat="48.407927" lon="2.676315"><ele></ele><time>2017-9-19T2:6:38Z</time></trkpt>
<trkpt lat="48.407973" lon="2.676375"><ele></ele><time>2017-9-19T2:6:41Z</time></trkpt>
<trkpt lat="48.407993" lon="2.676472"><ele></ele><time>2017-9-19T2:6:44Z</time></trkpt>
<trkpt lat="48.408018" lon="2.67657"><ele></ele><time>2017-9-19T2:6:47Z</time></trkpt>
<trkpt lat="48.408068" lon="2.676657"><ele></ele><time>2017-9-19T2:6:50Z</time></trkpt>
<trkpt lat="48.408095" lon="2.67678"><ele></ele><time>2017-9-19T2:6:53Z</time></trkpt>
<trkpt lat="48.408137" lon="2.676897"><ele></ele><time>2017-9-19T2:6:56Z</time></trkpt>
<trkpt lat="48.408178" lon="2.676978"><ele></ele><time>2017-9-19T2:6:59Z</time></trkpt>
<trkpt lat="48.408227" lon="2.677057"><ele></ele><time>2017-9-19T2:7:2Z</time></trkpt>
<trkpt lat="48.408273" lon="2.677133"><ele></ele><time>2017-9-19T2:7:5Z</time></trkpt>
<trkpt lat="48.408315" lon="2.677213"><ele></ele><time>2017-9-19T2:7:8Z</time></trkpt>
<trkpt lat="48.408353" lon="2.67729"><ele></ele><time>2017-9-19T2:7:11Z</time></trkpt>
<trkpt lat="48.408372" lon="2.677328"><ele></ele><time>2017-9-19T2:7:14Z</time></trkpt>
<trkpt lat="48.408437" lon="2.67748"><ele></ele><time>2017-9-19T2:7:17Z</time></trkpt>
<trkpt lat="48.408445" lon="2.677578"><ele></ele><time>2017-9-19T2:7:20Z</time></trkpt>
<trkpt lat="48.40844" lon="2.67768"><ele></ele><time>2017-9-19T2:7:23Z</time></trkpt>
<trkpt lat="48.408442" lon="2.677733"><ele></ele><time>2017-9-19T2:7:26Z</time></trkpt>
<trkpt lat="48.408443" lon="2.677842"><ele></ele><time>2017-9-19T2:7:29Z</time></trkpt>
<trkpt lat="48.408433" lon="2.67795"><ele></ele><time>2017-9-19T2:7:32Z</time></trkpt>
<trkpt lat="48.408422" lon="2.678058"><ele></ele><time>2017-9-19T2:7:35Z</time></trkpt>
<trkpt lat="48.408413" lon="2.67816"><ele></ele><time>2017-9-19T2:7:38Z</time></trkpt>
<trkpt lat="48.408403" lon="2.67826"><ele></ele><time>2017-9-19T2:7:41Z</time></trkpt>
<trkpt lat="48.408392" lon="2.67836"><ele></ele><time>2017-9-19T2:7:44Z</time></trkpt>
<trkpt lat="48.408382" lon="2.678462"><ele></ele><time>2017-9-19T2:7:47Z</time></trkpt>
<trkpt lat="48.408373" lon="2.67856"><ele></ele><time>2017-9-19T2:7:50Z</time></trkpt>
<trkpt lat="48.40836" lon="2.67865"><ele></ele><time>2017-9-19T2:7:53Z</time></trkpt>
<trkpt lat="48.408347" lon="2.678775"><ele></ele><time>2017-9-19T2:7:56Z</time></trkpt>
<trkpt lat="48.40835" lon="2.678853"><ele></ele><time>2017-9-19T2:7:59Z</time></trkpt>
<trkpt lat="48.408352" lon="2.678933"><ele></ele><time>2017-9-19T2:8:2Z</time></trkpt>
<trkpt lat="48.408365" lon="2.679015"><ele></ele><time>2017-9-19T2:8:5Z</time></trkpt>
<trkpt lat="48.408378" lon="2.679117"><ele></ele><time>2017-9-19T2:8:8Z</time></trkpt>
<trkpt lat="48.40843" lon="2.679203"><ele></ele><time>2017-9-19T2:8:11Z</time></trkpt>
<trkpt lat="48.408482" lon="2.67929"><ele></ele><time>2017-9-19T2:8:14Z</time></trkpt>
<trkpt lat="48.40849" lon="2.679403"><ele></ele><time>2017-9-19T2:8:17Z</time></trkpt>
<trkpt lat="48.408502" lon="2.679498"><ele></ele><time>2017-9-19T2:8:20Z</time></trkpt>
<trkpt lat="48.408527" lon="2.679607"><ele></ele><time>2017-9-19T2:8:23Z</time></trkpt>
<trkpt lat="48.408562" lon="2.679715"><ele></ele><time>2017-9-19T2:8:26Z</time></trkpt>
<trkpt lat="48.4086" lon="2.679825"><ele></ele><time>2017-9-19T2:8:29Z</time></trkpt>
<trkpt lat="48.408637" lon="2.679927"><ele></ele><time>2017-9-19T2:8:32Z</time></trkpt>
<trkpt lat="48.408653" lon="2.679977"><ele></ele><time>2017-9-19T2:8:35Z</time></trkpt>
<trkpt lat="48.40869" lon="2.680082"><ele></ele><time>2017-9-19T2:8:38Z</time></trkpt>
<trkpt lat="48.408728" lon="2.680185"><ele></ele><time>2017-9-19T2:8:41Z</time></trkpt>
<trkpt lat="48.408763" lon="2.680292"><ele></ele><time>2017-9-19T2:8:44Z</time></trkpt>
<trkpt lat="48.408797" lon="2.6804"><ele></ele><time>2017-9-19T2:8:47Z</time></trkpt>
<trkpt lat="48.408832" lon="2.68051"><ele></ele><time>2017-9-19T2:8:50Z</time></trkpt>
<trkpt lat="48.408867" lon="2.680613"><ele></ele><time>2017-9-19T2:8:53Z</time></trkpt>
<trkpt lat="48.408903" lon="2.680725"><ele></ele><time>2017-9-19T2:8:56Z</time></trkpt>
<trkpt lat="48.408942" lon="2.680835"><ele></ele><time>2017-9-19T2:8:59Z</time></trkpt>
<trkpt lat="48.408975" lon="2.680945"><ele></ele><time>2017-9-19T2:9:2Z</time></trkpt>
<trkpt lat="48.409007" lon="2.681048"><ele></ele><time>2017-9-19T2:9:5Z</time></trkpt>
<trkpt lat="48.409042" lon="2.681152"><ele></ele><time>2017-9-19T2:9:8Z</time></trkpt>
<trkpt lat="48.409075" lon="2.681258"><ele></ele><time>2017-9-19T2:9:11Z</time></trkpt>
<trkpt lat="48.409108" lon="2.681362"><ele></ele><time>2017-9-19T2:9:14Z</time></trkpt>
<trkpt lat="48.409125" lon="2.68141"><ele></ele><time>2017-9-19T2:9:17Z</time></trkpt>
<trkpt lat="48.409157" lon="2.681492"><ele></ele><time>2017-9-19T2:9:20Z</time></trkpt>
<trkpt lat="48.409182" lon="2.681572"><ele></ele><time>2017-9-19T2:9:23Z</time></trkpt>
<trkpt lat="48.409215" lon="2.681693"><ele></ele><time>2017-9-19T2:9:26Z</time></trkpt>
<trkpt lat="48.409287" lon="2.681747"><ele></ele><time>2017-9-19T2:9:29Z</time></trkpt>
<trkpt lat="48.409365" lon="2.68181"><ele></ele><time>2017-9-19T2:9:32Z</time></trkpt>
<trkpt lat="48.409405" lon="2.68189"><ele></ele><time>2017-9-19T2:9:35Z</time></trkpt>
<trkpt lat="48.409457" lon="2.68199"><ele></ele><time>2017-9-19T2:9:38Z</time></trkpt>
<trkpt lat="48.409538" lon="2.682017"><ele></ele><time>2017-9-19T2:9:41Z</time></trkpt>
<trkpt lat="48.409608" lon="2.682058"><ele></ele><time>2017-9-19T2:9:44Z</time></trkpt>
<trkpt lat="48.40968" lon="2.682103"><ele></ele><time>2017-9-19T2:9:47Z</time></trkpt>
<trkpt lat="48.409728" lon="2.682133"><ele></ele><time>2017-9-19T2:9:50Z</time></trkpt>
<trkpt lat="48.409778" lon="2.682167"><ele></ele><time>2017-9-19T2:9:53Z</time></trkpt>
<trkpt lat="48.409822" lon="2.682198"><ele></ele><time>2017-9-19T2:9:56Z</time></trkpt>
<trkpt lat="48.409867" lon="2.682227"><ele></ele><time>2017-9-19T2:9:59Z</time></trkpt>
<trkpt lat="48.409915" lon="2.682255"><ele></ele><time>2017-9-19T2:10:2Z</time></trkpt>
<trkpt lat="48.409995" lon="2.682312"><ele></ele><time>2017-9-19T2:10:5Z</time></trkpt>
<trkpt lat="48.41007" lon="2.682357"><ele></ele><time>2017-9-19T2:10:8Z</time></trkpt>
<trkpt lat="48.41015" lon="2.68241"><ele></ele><time>2017-9-19T2:10:11Z</time></trkpt>
<trkpt lat="48.410223" lon="2.682467"><ele></ele><time>2017-9-19T2:10:14Z</time></trkpt>
<trkpt lat="48.4103" lon="2.682532"><ele></ele><time>2017-9-19T2:10:17Z</time></trkpt>
<trkpt lat="48.410372" lon="2.682573"><ele></ele><time>2017-9-19T2:10:20Z</time></trkpt>
<trkpt lat="48.410443" lon="2.682613"><ele></ele><time>2017-9-19T2:10:23Z</time></trkpt>
<trkpt lat="48.410497" lon="2.682647"><ele></ele><time>2017-9-19T2:10:26Z</time></trkpt>
<trkpt lat="48.410565" lon="2.682677"><ele></ele><time>2017-9-19T2:10:29Z</time></trkpt>
<trkpt lat="48.410625" lon="2.6827"><ele></ele><time>2017-9-19T2:10:32Z</time></trkpt>
<trkpt lat="48.410708" lon="2.68275"><ele></ele><time>2017-9-19T2:10:35Z</time></trkpt>
<trkpt lat="48.410777" lon="2.682795"><ele></ele><time>2017-9-19T2:10:38Z</time></trkpt>
<trkpt lat="48.41086" lon="2.68282"><ele></ele><time>2017-9-19T2:10:41Z</time></trkpt>
<trkpt lat="48.410865" lon="2.682822"><ele></ele><time>2017-9-19T2:10:44Z</time></trkpt>
<trkpt lat="48.411013" lon="2.682907"><ele></ele><time>2017-9-19T2:10:47Z</time></trkpt>
<trkpt lat="48.411075" lon="2.68296"><ele></ele><time>2017-9-19T2:10:50Z</time></trkpt>
<trkpt lat="48.411128" lon="2.683048"><ele></ele><time>2017-9-19T2:10:53Z</time></trkpt>
<trkpt lat="48.411187" lon="2.683132"><ele></ele><time>2017-9-19T2:10:56Z</time></trkpt>
<trkpt lat="48.41119" lon="2.683148"><ele></ele><time>2017-9-19T2:10:59Z</time></trkpt>
<trkpt lat="48.411235" lon="2.683362"><ele></ele><time>2017-9-19T2:11:2Z</time></trkpt>
<trkpt lat="48.41125" lon="2.68349"><ele></ele><time>2017-9-19T2:11:5Z</time></trkpt>
<trkpt lat="48.411262" lon="2.683623"><ele></ele><time>2017-9-19T2:11:8Z</time></trkpt>
<trkpt lat="48.411277" lon="2.683752"><ele></ele><time>2017-9-19T2:11:11Z</time></trkpt>
<trkpt lat="48.411305" lon="2.68385"><ele></ele><time>2017-9-19T2:11:14Z</time></trkpt>
<trkpt lat="48.411315" lon="2.683953"><ele></ele><time>2017-9-19T2:11:17Z</time></trkpt>
<trkpt lat="48.411327" lon="2.684058"><ele></ele><time>2017-9-19T2:11:20Z</time></trkpt>
<trkpt lat="48.411332" lon="2.684158"><ele></ele><time>2017-9-19T2:11:23Z</time></trkpt>
<trkpt lat="48.411358" lon="2.684268"><ele></ele><time>2017-9-19T2:11:26Z</time></trkpt>
<trkpt lat="48.411375" lon="2.684372"><ele></ele><time>2017-9-19T2:11:29Z</time></trkpt>
<trkpt lat="48.411403" lon="2.684477"><ele></ele><time>2017-9-19T2:11:32Z</time></trkpt>
<trkpt lat="48.411418" lon="2.68458"><ele></ele><time>2017-9-19T2:11:35Z</time></trkpt>
<trkpt lat="48.411423" lon="2.684682"><ele></ele><time>2017-9-19T2:11:38Z</time></trkpt>
<trkpt lat="48.411433" lon="2.684785"><ele></ele><time>2017-9-19T2:11:41Z</time></trkpt>
<trkpt lat="48.411443" lon="2.684895"><ele></ele><time>2017-9-19T2:11:44Z</time></trkpt>
<trkpt lat="48.411452" lon="2.685"><ele></ele><time>2017-9-19T2:11:47Z</time></trkpt>
<trkpt lat="48.411463" lon="2.685107"><ele></ele><time>2017-9-19T2:11:50Z</time></trkpt>
<trkpt lat="48.411475" lon="2.685178"><ele></ele><time>2017-9-19T2:11:53Z</time></trkpt>
<trkpt lat="48.41149" lon="2.68526"><ele></ele><time>2017-9-19T2:11:56Z</time></trkpt>
<trkpt lat="48.411505" lon="2.685378"><ele></ele><time>2017-9-19T2:11:59Z</time></trkpt>
<trkpt lat="48.411518" lon="2.685492"><ele></ele><time>2017-9-19T2:12:2Z</time></trkpt>
<trkpt lat="48.41153" lon="2.68561"><ele></ele><time>2017-9-19T2:12:5Z</time></trkpt>
<trkpt lat="48.411563" lon="2.685733"><ele></ele><time>2017-9-19T2:12:8Z</time></trkpt>
<trkpt lat="48.411588" lon="2.685855"><ele></ele><time>2017-9-19T2:12:11Z</time></trkpt>
<trkpt lat="48.41161" lon="2.685968"><ele></ele><time>2017-9-19T2:12:14Z</time></trkpt>
<trkpt lat="48.411632" lon="2.686092"><ele></ele><time>2017-9-19T2:12:17Z</time></trkpt>
<trkpt lat="48.411643" lon="2.686178"><ele></ele><time>2017-9-19T2:12:20Z</time></trkpt>
<trkpt lat="48.411655" lon="2.686267"><ele></ele><time>2017-9-19T2:12:23Z</time></trkpt>
<trkpt lat="48.41167" lon="2.68636"><ele></ele><time>2017-9-19T2:12:26Z</time></trkpt>
<trkpt lat="48.411683" lon="2.686455"><ele></ele><time>2017-9-19T2:12:29Z</time></trkpt>
<trkpt lat="48.411695" lon="2.68655"><ele></ele><time>2017-9-19T2:12:32Z</time></trkpt>
<trkpt lat="48.411708" lon="2.686647"><ele></ele><time>2017-9-19T2:12:35Z</time></trkpt>
<trkpt lat="48.41172" lon="2.686747"><ele></ele><time>2017-9-19T2:12:38Z</time></trkpt>
<trkpt lat="48.411732" lon="2.686847"><ele></ele><time>2017-9-19T2:12:41Z</time></trkpt>
<trkpt lat="48.411747" lon="2.686942"><ele></ele><time>2017-9-19T2:12:44Z</time></trkpt>
<trkpt lat="48.41176" lon="2.687035"><ele></ele><time>2017-9-19T2:12:47Z</time></trkpt>
<trkpt lat="48.411767" lon="2.687125"><ele></ele><time>2017-9-19T2:12:50Z</time></trkpt>
<trkpt lat="48.411767" lon="2.687173"><ele></ele><time>2017-9-19T2:12:53Z</time></trkpt>
<trkpt lat="48.411775" lon="2.687268"><ele></ele><time>2017-9-19T2:12:56Z</time></trkpt>
<trkpt lat="48.41179" lon="2.687358"><ele></ele><time>2017-9-19T2:12:59Z</time></trkpt>
<trkpt lat="48.411807" lon="2.687487"><ele></ele><time>2017-9-19T2:13:2Z</time></trkpt>
<trkpt lat="48.411822" lon="2.68762"><ele></ele><time>2017-9-19T2:13:5Z</time></trkpt>
<trkpt lat="48.411842" lon="2.687747"><ele></ele><time>2017-9-19T2:13:8Z</time></trkpt>
<trkpt lat="48.411862" lon="2.687878"><ele></ele><time>2017-9-19T2:13:11Z</time></trkpt>
<trkpt lat="48.41187" lon="2.687923"><ele></ele><time>2017-9-19T2:13:14Z</time></trkpt>
<trkpt lat="48.411887" lon="2.688062"><ele></ele><time>2017-9-19T2:13:17Z</time></trkpt>
<trkpt lat="48.411902" lon="2.688155"><ele></ele><time>2017-9-19T2:13:20Z</time></trkpt>
<trkpt lat="48.411915" lon="2.68825"><ele></ele><time>2017-9-19T2:13:23Z</time></trkpt>
<trkpt lat="48.411927" lon="2.68834"><ele></ele><time>2017-9-19T2:13:26Z</time></trkpt>
<trkpt lat="48.411932" lon="2.688385"><ele></ele><time>2017-9-19T2:13:29Z</time></trkpt>
<trkpt lat="48.411945" lon="2.688478"><ele></ele><time>2017-9-19T2:13:32Z</time></trkpt>
<trkpt lat="48.411958" lon="2.688578"><ele></ele><time>2017-9-19T2:13:35Z</time></trkpt>
<trkpt lat="48.411972" lon="2.68868"><ele></ele><time>2017-9-19T2:13:38Z</time></trkpt>
<trkpt lat="48.411987" lon="2.688783"><ele></ele><time>2017-9-19T2:13:41Z</time></trkpt>
<trkpt lat="48.412002" lon="2.688885"><ele></ele><time>2017-9-19T2:13:44Z</time></trkpt>
<trkpt lat="48.412013" lon="2.688982"><ele></ele><time>2017-9-19T2:13:47Z</time></trkpt>
<trkpt lat="48.412028" lon="2.689077"><ele></ele><time>2017-9-19T2:13:50Z</time></trkpt>
<trkpt lat="48.412038" lon="2.68917"><ele></ele><time>2017-9-19T2:13:53Z</time></trkpt>
<trkpt lat="48.41205" lon="2.68926"><ele></ele><time>2017-9-19T2:13:56Z</time></trkpt>
<trkpt lat="48.412062" lon="2.689362"><ele></ele><time>2017-9-19T2:13:59Z</time></trkpt>
<trkpt lat="48.412078" lon="2.689468"><ele></ele><time>2017-9-19T2:14:2Z</time></trkpt>
<trkpt lat="48.412098" lon="2.689585"><ele></ele><time>2017-9-19T2:14:5Z</time></trkpt>
<trkpt lat="48.412112" lon="2.689697"><ele></ele><time>2017-9-19T2:14:8Z</time></trkpt>
<trkpt lat="48.41212" lon="2.689758"><ele></ele><time>2017-9-19T2:14:11Z</time></trkpt>
<trkpt lat="48.412138" lon="2.68988"><ele></ele><time>2017-9-19T2:14:14Z</time></trkpt>
<trkpt lat="48.412152" lon="2.690005"><ele></ele><time>2017-9-19T2:14:17Z</time></trkpt>
<trkpt lat="48.412167" lon="2.690123"><ele></ele><time>2017-9-19T2:14:20Z</time></trkpt>
<trkpt lat="48.412183" lon="2.69024"><ele></ele><time>2017-9-19T2:14:23Z</time></trkpt>
<trkpt lat="48.412202" lon="2.690353"><ele></ele><time>2017-9-19T2:14:26Z</time></trkpt>
<trkpt lat="48.412218" lon="2.690465"><ele></ele><time>2017-9-19T2:14:29Z</time></trkpt>
<trkpt lat="48.412233" lon="2.690568"><ele></ele><time>2017-9-19T2:14:32Z</time></trkpt>
<trkpt lat="48.412245" lon="2.69067"><ele></ele><time>2017-9-19T2:14:35Z</time></trkpt>
<trkpt lat="48.412245" lon="2.690797"><ele></ele><time>2017-9-19T2:14:38Z</time></trkpt>
<trkpt lat="48.41229" lon="2.690893"><ele></ele><time>2017-9-19T2:14:41Z</time></trkpt>
<trkpt lat="48.412303" lon="2.690915"><ele></ele><time>2017-9-19T2:14:44Z</time></trkpt>
<trkpt lat="48.41241" lon="2.690893"><ele></ele><time>2017-9-19T2:14:47Z</time></trkpt>
<trkpt lat="48.412417" lon="2.690782"><ele></ele><time>2017-9-19T2:14:50Z</time></trkpt>
<trkpt lat="48.412417" lon="2.69074"><ele></ele><time>2017-9-19T2:14:53Z</time></trkpt>
<trkpt lat="48.412413" lon="2.69061"><ele></ele><time>2017-9-19T2:14:56Z</time></trkpt>
<trkpt lat="48.412407" lon="2.690475"><ele></ele><time>2017-9-19T2:14:59Z</time></trkpt>
<trkpt lat="48.412402" lon="2.69034"><ele></ele><time>2017-9-19T2:15:2Z</time></trkpt>
<trkpt lat="48.412395" lon="2.69025"><ele></ele><time>2017-9-19T2:15:5Z</time></trkpt>
<trkpt lat="48.412388" lon="2.69016"><ele></ele><time>2017-9-19T2:15:8Z</time></trkpt>
<trkpt lat="48.412383" lon="2.690028"><ele></ele><time>2017-9-19T2:15:11Z</time></trkpt>
<trkpt lat="48.412377" lon="2.689937"><ele></ele><time>2017-9-19T2:15:14Z</time></trkpt>
<trkpt lat="48.412377" lon="2.689888"><ele></ele><time>2017-9-19T2:15:17Z</time></trkpt>
<trkpt lat="48.412368" lon="2.689797"><ele></ele><time>2017-9-19T2:15:20Z</time></trkpt>
<trkpt lat="48.41236" lon="2.689707"><ele></ele><time>2017-9-19T2:15:23Z</time></trkpt>
<trkpt lat="48.41235" lon="2.689617"><ele></ele><time>2017-9-19T2:15:26Z</time></trkpt>
<trkpt lat="48.412338" lon="2.689522"><ele></ele><time>2017-9-19T2:15:29Z</time></trkpt>
<trkpt lat="48.412332" lon="2.68943"><ele></ele><time>2017-9-19T2:15:32Z</time></trkpt>
<trkpt lat="48.412323" lon="2.689338"><ele></ele><time>2017-9-19T2:15:35Z</time></trkpt>
<trkpt lat="48.412323" lon="2.68921"><ele></ele><time>2017-9-19T2:15:38Z</time></trkpt>
<trkpt lat="48.412323" lon="2.689083"><ele></ele><time>2017-9-19T2:15:41Z</time></trkpt>
<trkpt lat="48.412317" lon="2.688987"><ele></ele><time>2017-9-19T2:15:44Z</time></trkpt>
<trkpt lat="48.412315" lon="2.688853"><ele></ele><time>2017-9-19T2:15:47Z</time></trkpt>
<trkpt lat="48.412308" lon="2.68872"><ele></ele><time>2017-9-19T2:15:50Z</time></trkpt>
<trkpt lat="48.412305" lon="2.688592"><ele></ele><time>2017-9-19T2:15:53Z</time></trkpt>
<trkpt lat="48.412308" lon="2.68848"><ele></ele><time>2017-9-19T2:15:56Z</time></trkpt>
<trkpt lat="48.412312" lon="2.688368"><ele></ele><time>2017-9-19T2:15:59Z</time></trkpt>
<trkpt lat="48.412313" lon="2.688253"><ele></ele><time>2017-9-19T2:16:2Z</time></trkpt>
<trkpt lat="48.41231" lon="2.688128"><ele></ele><time>2017-9-19T2:16:5Z</time></trkpt>
<trkpt lat="48.412308" lon="2.688088"><ele></ele><time>2017-9-19T2:16:8Z</time></trkpt>
<trkpt lat="48.412297" lon="2.687872"><ele></ele><time>2017-9-19T2:16:11Z</time></trkpt>
<trkpt lat="48.412302" lon="2.68775"><ele></ele><time>2017-9-19T2:16:14Z</time></trkpt>
<trkpt lat="48.4123" lon="2.687632"><ele></ele><time>2017-9-19T2:16:17Z</time></trkpt>
<trkpt lat="48.412307" lon="2.687517"><ele></ele><time>2017-9-19T2:16:20Z</time></trkpt>
<trkpt lat="48.412305" lon="2.687402"><ele></ele><time>2017-9-19T2:16:23Z</time></trkpt>
<trkpt lat="48.412308" lon="2.687287"><ele></ele><time>2017-9-19T2:16:26Z</time></trkpt>
<trkpt lat="48.41232" lon="2.687178"><ele></ele><time>2017-9-19T2:16:29Z</time></trkpt>
<trkpt lat="48.412332" lon="2.687067"><ele></ele><time>2017-9-19T2:16:32Z</time></trkpt>
<trkpt lat="48.41234" lon="2.686963"><ele></ele><time>2017-9-19T2:16:35Z</time></trkpt>
<trkpt lat="48.412348" lon="2.686892"><ele></ele><time>2017-9-19T2:16:38Z</time></trkpt>
<trkpt lat="48.412362" lon="2.686783"><ele></ele><time>2017-9-19T2:16:41Z</time></trkpt>
<trkpt lat="48.41237" lon="2.686678"><ele></ele><time>2017-9-19T2:16:44Z</time></trkpt>
<trkpt lat="48.41238" lon="2.686565"><ele></ele><time>2017-9-19T2:16:47Z</time></trkpt>
<trkpt lat="48.412392" lon="2.686463"><ele></ele><time>2017-9-19T2:16:50Z</time></trkpt>
<trkpt lat="48.4124" lon="2.686365"><ele></ele><time>2017-9-19T2:16:53Z</time></trkpt>
<trkpt lat="48.412413" lon="2.68626"><ele></ele><time>2017-9-19T2:16:56Z</time></trkpt>
<trkpt lat="48.412422" lon="2.686148"><ele></ele><time>2017-9-19T2:16:59Z</time></trkpt>
<trkpt lat="48.412422" lon="2.686073"><ele></ele><time>2017-9-19T2:17:2Z</time></trkpt>
<trkpt lat="48.412425" lon="2.686003"><ele></ele><time>2017-9-19T2:17:5Z</time></trkpt>
<trkpt lat="48.412417" lon="2.685918"><ele></ele><time>2017-9-19T2:17:8Z</time></trkpt>
<trkpt lat="48.41241" lon="2.685797"><ele></ele><time>2017-9-19T2:17:11Z</time></trkpt>
<trkpt lat="48.412413" lon="2.685767"><ele></ele><time>2017-9-19T2:17:14Z</time></trkpt>
<trkpt lat="48.412405" lon="2.685568"><ele></ele><time>2017-9-19T2:17:17Z</time></trkpt>
<trkpt lat="48.412407" lon="2.685457"><ele></ele><time>2017-9-19T2:17:20Z</time></trkpt>
<trkpt lat="48.412403" lon="2.685342"><ele></ele><time>2017-9-19T2:17:23Z</time></trkpt>
<trkpt lat="48.412407" lon="2.685232"><ele></ele><time>2017-9-19T2:17:26Z</time></trkpt>
<trkpt lat="48.412415" lon="2.685132"><ele></ele><time>2017-9-19T2:17:29Z</time></trkpt>
<trkpt lat="48.412412" lon="2.68502"><ele></ele><time>2017-9-19T2:17:32Z</time></trkpt>
<trkpt lat="48.412423" lon="2.684915"><ele></ele><time>2017-9-19T2:17:35Z</time></trkpt>
<trkpt lat="48.41243" lon="2.6848"><ele></ele><time>2017-9-19T2:17:38Z</time></trkpt>
<trkpt lat="48.412435" lon="2.684692"><ele></ele><time>2017-9-19T2:17:41Z</time></trkpt>
<trkpt lat="48.412427" lon="2.684567"><ele></ele><time>2017-9-19T2:17:44Z</time></trkpt>
<trkpt lat="48.412418" lon="2.68445"><ele></ele><time>2017-9-19T2:17:47Z</time></trkpt>
<trkpt lat="48.412405" lon="2.684338"><ele></ele><time>2017-9-19T2:17:50Z</time></trkpt>
<trkpt lat="48.412398" lon="2.684265"><ele></ele><time>2017-9-19T2:17:53Z</time></trkpt>
<trkpt lat="48.4124" lon="2.68416"><ele></ele><time>2017-9-19T2:17:56Z</time></trkpt>
<trkpt lat="48.412417" lon="2.684032"><ele></ele><time>2017-9-19T2:17:59Z</time></trkpt>
<trkpt lat="48.412433" lon="2.683928"><ele></ele><time>2017-9-19T2:18:2Z</time></trkpt>
<trkpt lat="48.412448" lon="2.683823"><ele></ele><time>2017-9-19T2:18:5Z</time></trkpt>
<trkpt lat="48.412455" lon="2.683713"><ele></ele><time>2017-9-19T2:18:8Z</time></trkpt>
<trkpt lat="48.412473" lon="2.683603"><ele></ele><time>2017-9-19T2:18:11Z</time></trkpt>
<trkpt lat="48.412485" lon="2.683535"><ele></ele><time>2017-9-19T2:18:14Z</time></trkpt>
<trkpt lat="48.412512" lon="2.6834"><ele></ele><time>2017-9-19T2:18:17Z</time></trkpt>
<trkpt lat="48.41254" lon="2.6833"><ele></ele><time>2017-9-19T2:18:20Z</time></trkpt>
<trkpt lat="48.412577" lon="2.683202"><ele></ele><time>2017-9-19T2:18:23Z</time></trkpt>
<trkpt lat="48.41261" lon="2.68311"><ele></ele><time>2017-9-19T2:18:26Z</time></trkpt>
<trkpt lat="48.412648" lon="2.683025"><ele></ele><time>2017-9-19T2:18:29Z</time></trkpt>
<trkpt lat="48.412688" lon="2.68294"><ele></ele><time>2017-9-19T2:18:32Z</time></trkpt>
<trkpt lat="48.412727" lon="2.682855"><ele></ele><time>2017-9-19T2:18:35Z</time></trkpt>
<trkpt lat="48.412773" lon="2.682768"><ele></ele><time>2017-9-19T2:18:38Z</time></trkpt>
<trkpt lat="48.412823" lon="2.682677"><ele></ele><time>2017-9-19T2:18:41Z</time></trkpt>
<trkpt lat="48.412875" lon="2.682593"><ele></ele><time>2017-9-19T2:18:44Z</time></trkpt>
<trkpt lat="48.412915" lon="2.6825"><ele></ele><time>2017-9-19T2:18:47Z</time></trkpt>
<trkpt lat="48.412952" lon="2.6824"><ele></ele><time>2017-9-19T2:18:50Z</time></trkpt>
<trkpt lat="48.413002" lon="2.682317"><ele></ele><time>2017-9-19T2:18:53Z</time></trkpt>
<trkpt lat="48.413048" lon="2.682242"><ele></ele><time>2017-9-19T2:18:56Z</time></trkpt>
<trkpt lat="48.41312" lon="2.682163"><ele></ele><time>2017-9-19T2:18:59Z</time></trkpt>
<trkpt lat="48.413168" lon="2.68214"><ele></ele><time>2017-9-19T2:19:2Z</time></trkpt>
<trkpt lat="48.413232" lon="2.682057"><ele></ele><time>2017-9-19T2:19:5Z</time></trkpt>
<trkpt lat="48.41331" lon="2.681997"><ele></ele><time>2017-9-19T2:19:8Z</time></trkpt>
<trkpt lat="48.413382" lon="2.681938"><ele></ele><time>2017-9-19T2:19:11Z</time></trkpt>
<trkpt lat="48.413402" lon="2.681927"><ele></ele><time>2017-9-19T2:19:14Z</time></trkpt>
<trkpt lat="48.413527" lon="2.681863"><ele></ele><time>2017-9-19T2:19:17Z</time></trkpt>
<trkpt lat="48.41361" lon="2.681848"><ele></ele><time>2017-9-19T2:19:20Z</time></trkpt>
<trkpt lat="48.413678" lon="2.681822"><ele></ele><time>2017-9-19T2:19:23Z</time></trkpt>
<trkpt lat="48.413762" lon="2.681775"><ele></ele><time>2017-9-19T2:19:26Z</time></trkpt>
<trkpt lat="48.41383" lon="2.681752"><ele></ele><time>2017-9-19T2:19:29Z</time></trkpt>
<trkpt lat="48.413903" lon="2.681727"><ele></ele><time>2017-9-19T2:19:32Z</time></trkpt>
<trkpt lat="48.413972" lon="2.681705"><ele></ele><time>2017-9-19T2:19:35Z</time></trkpt>
<trkpt lat="48.414035" lon="2.681685"><ele></ele><time>2017-9-19T2:19:38Z</time></trkpt>
<trkpt lat="48.414112" lon="2.681673"><ele></ele><time>2017-9-19T2:19:41Z</time></trkpt>
<trkpt lat="48.414192" lon="2.681657"><ele></ele><time>2017-9-19T2:19:44Z</time></trkpt>
<trkpt lat="48.414238" lon="2.681638"><ele></ele><time>2017-9-19T2:19:47Z</time></trkpt>
<trkpt lat="48.414293" lon="2.681617"><ele></ele><time>2017-9-19T2:19:50Z</time></trkpt>
<trkpt lat="48.414343" lon="2.681595"><ele></ele><time>2017-9-19T2:19:53Z</time></trkpt>
<trkpt lat="48.414428" lon="2.681573"><ele></ele><time>2017-9-19T2:19:56Z</time></trkpt>
<trkpt lat="48.414465" lon="2.681567"><ele></ele><time>2017-9-19T2:19:59Z</time></trkpt>
<trkpt lat="48.414537" lon="2.681553"><ele></ele><time>2017-9-19T2:20:2Z</time></trkpt>
<trkpt lat="48.4146" lon="2.681535"><ele></ele><time>2017-9-19T2:20:5Z</time></trkpt>
<trkpt lat="48.414663" lon="2.681513"><ele></ele><time>2017-9-19T2:20:8Z</time></trkpt>
<trkpt lat="48.414727" lon="2.681493"><ele></ele><time>2017-9-19T2:20:11Z</time></trkpt>
<trkpt lat="48.414795" lon="2.681473"><ele></ele><time>2017-9-19T2:20:14Z</time></trkpt>
<trkpt lat="48.414863" lon="2.68145"><ele></ele><time>2017-9-19T2:20:17Z</time></trkpt>
<trkpt lat="48.414937" lon="2.68143"><ele></ele><time>2017-9-19T2:20:20Z</time></trkpt>
<trkpt lat="48.415008" lon="2.681417"><ele></ele><time>2017-9-19T2:20:23Z</time></trkpt>
<trkpt lat="48.415045" lon="2.681408"><ele></ele><time>2017-9-19T2:20:26Z</time></trkpt>
<trkpt lat="48.41516" lon="2.681378"><ele></ele><time>2017-9-19T2:20:29Z</time></trkpt>
<trkpt lat="48.415242" lon="2.681357"><ele></ele><time>2017-9-19T2:20:32Z</time></trkpt>
<trkpt lat="48.415328" lon="2.681333"><ele></ele><time>2017-9-19T2:20:35Z</time></trkpt>
<trkpt lat="48.415403" lon="2.681303"><ele></ele><time>2017-9-19T2:20:38Z</time></trkpt>
<trkpt lat="48.415472" lon="2.681268"><ele></ele><time>2017-9-19T2:20:41Z</time></trkpt>
<trkpt lat="48.415552" lon="2.681227"><ele></ele><time>2017-9-19T2:20:44Z</time></trkpt>
<trkpt lat="48.41559" lon="2.681207"><ele></ele><time>2017-9-19T2:20:47Z</time></trkpt>
<trkpt lat="48.415665" lon="2.681157"><ele></ele><time>2017-9-19T2:20:50Z</time></trkpt>
<trkpt lat="48.415743" lon="2.6811"><ele></ele><time>2017-9-19T2:20:53Z</time></trkpt>
<trkpt lat="48.415808" lon="2.681042"><ele></ele><time>2017-9-19T2:20:56Z</time></trkpt>
<trkpt lat="48.415877" lon="2.680977"><ele></ele><time>2017-9-19T2:20:59Z</time></trkpt>
<trkpt lat="48.415938" lon="2.680903"><ele></ele><time>2017-9-19T2:21:2Z</time></trkpt>
<trkpt lat="48.416003" lon="2.680832"><ele></ele><time>2017-9-19T2:21:5Z</time></trkpt>
<trkpt lat="48.41607" lon="2.680757"><ele></ele><time>2017-9-19T2:21:8Z</time></trkpt>
<trkpt lat="48.41613" lon="2.680672"><ele></ele><time>2017-9-19T2:21:11Z</time></trkpt>
<trkpt lat="48.416178" lon="2.680585"><ele></ele><time>2017-9-19T2:21:14Z</time></trkpt>
<trkpt lat="48.416218" lon="2.68049"><ele></ele><time>2017-9-19T2:21:17Z</time></trkpt>
<trkpt lat="48.41626" lon="2.680405"><ele></ele><time>2017-9-19T2:21:20Z</time></trkpt>
<trkpt lat="48.416308" lon="2.680312"><ele></ele><time>2017-9-19T2:21:23Z</time></trkpt>
<trkpt lat="48.416355" lon="2.680212"><ele></ele><time>2017-9-19T2:21:26Z</time></trkpt>
<trkpt lat="48.416392" lon="2.680103"><ele></ele><time>2017-9-19T2:21:29Z</time></trkpt>
<trkpt lat="48.416432" lon="2.68001"><ele></ele><time>2017-9-19T2:21:32Z</time></trkpt>
<trkpt lat="48.416477" lon="2.679938"><ele></ele><time>2017-9-19T2:21:35Z</time></trkpt>
<trkpt lat="48.416527" lon="2.679833"><ele></ele><time>2017-9-19T2:21:38Z</time></trkpt>
<trkpt lat="48.416517" lon="2.679708"><ele></ele><time>2017-9-19T2:21:41Z</time></trkpt>
<trkpt lat="48.416507" lon="2.67969"><ele></ele><time>2017-9-19T2:21:44Z</time></trkpt>
<trkpt lat="48.416582" lon="2.679698"><ele></ele><time>2017-9-19T2:21:47Z</time></trkpt>
<trkpt lat="48.416593" lon="2.679717"><ele></ele><time>2017-9-19T2:21:50Z</time></trkpt>
<trkpt lat="48.416733" lon="2.679698"><ele></ele><time>2017-9-19T2:21:53Z</time></trkpt>
<trkpt lat="48.4168" lon="2.67968"><ele></ele><time>2017-9-19T2:21:56Z</time></trkpt>
<trkpt lat="48.416862" lon="2.679673"><ele></ele><time>2017-9-19T2:21:59Z</time></trkpt>
<trkpt lat="48.416932" lon="2.679662"><ele></ele><time>2017-9-19T2:22:2Z</time></trkpt>
<trkpt lat="48.41701" lon="2.679638"><ele></ele><time>2017-9-19T2:22:5Z</time></trkpt>
<trkpt lat="48.417092" lon="2.679613"><ele></ele><time>2017-9-19T2:22:8Z</time></trkpt>
<trkpt lat="48.417177" lon="2.679588"><ele></ele><time>2017-9-19T2:22:11Z</time></trkpt>
<trkpt lat="48.417258" lon="2.679573"><ele></ele><time>2017-9-19T2:22:14Z</time></trkpt>
<trkpt lat="48.417303" lon="2.679558"><ele></ele><time>2017-9-19T2:22:17Z</time></trkpt>
<trkpt lat="48.417395" lon="2.679537"><ele></ele><time>2017-9-19T2:22:20Z</time></trkpt>
<trkpt lat="48.417453" lon="2.679522"><ele></ele><time>2017-9-19T2:22:23Z</time></trkpt>
<trkpt lat="48.417507" lon="2.679507"><ele></ele><time>2017-9-19T2:22:26Z</time></trkpt>
<trkpt lat="48.417588" lon="2.679483"><ele></ele><time>2017-9-19T2:22:29Z</time></trkpt>
<trkpt lat="48.41764" lon="2.679468"><ele></ele><time>2017-9-19T2:22:32Z</time></trkpt>
<trkpt lat="48.417728" lon="2.679443"><ele></ele><time>2017-9-19T2:22:35Z</time></trkpt>
<trkpt lat="48.417777" lon="2.679428"><ele></ele><time>2017-9-19T2:22:38Z</time></trkpt>
<trkpt lat="48.417863" lon="2.679408"><ele></ele><time>2017-9-19T2:22:41Z</time></trkpt>
<trkpt lat="48.417943" lon="2.67938"><ele></ele><time>2017-9-19T2:22:44Z</time></trkpt>
<trkpt lat="48.417993" lon="2.679357"><ele></ele><time>2017-9-19T2:22:47Z</time></trkpt>
<trkpt lat="48.41808" lon="2.679335"><ele></ele><time>2017-9-19T2:22:50Z</time></trkpt>
<trkpt lat="48.418138" lon="2.679323"><ele></ele><time>2017-9-19T2:22:53Z</time></trkpt>
<trkpt lat="48.418208" lon="2.679303"><ele></ele><time>2017-9-19T2:22:56Z</time></trkpt>
<trkpt lat="48.418233" lon="2.679298"><ele></ele><time>2017-9-19T2:22:59Z</time></trkpt>
<trkpt lat="48.418303" lon="2.679278"><ele></ele><time>2017-9-19T2:23:2Z</time></trkpt>
<trkpt lat="48.418363" lon="2.679258"><ele></ele><time>2017-9-19T2:23:5Z</time></trkpt>
<trkpt lat="48.418435" lon="2.679232"><ele></ele><time>2017-9-19T2:23:8Z</time></trkpt>
<trkpt lat="48.418522" lon="2.67921"><ele></ele><time>2017-9-19T2:23:11Z</time></trkpt>
<trkpt lat="48.418593" lon="2.679195"><ele></ele><time>2017-9-19T2:23:14Z</time></trkpt>
<trkpt lat="48.41868" lon="2.679183"><ele></ele><time>2017-9-19T2:23:17Z</time></trkpt>
<trkpt lat="48.418732" lon="2.67917"><ele></ele><time>2017-9-19T2:23:20Z</time></trkpt>
<trkpt lat="48.418818" lon="2.679145"><ele></ele><time>2017-9-19T2:23:23Z</time></trkpt>
<trkpt lat="48.418858" lon="2.679135"><ele></ele><time>2017-9-19T2:23:26Z</time></trkpt>
<trkpt lat="48.418977" lon="2.679092"><ele></ele><time>2017-9-19T2:23:29Z</time></trkpt>
<trkpt lat="48.419063" lon="2.67906"><ele></ele><time>2017-9-19T2:23:32Z</time></trkpt>
<trkpt lat="48.419137" lon="2.679038"><ele></ele><time>2017-9-19T2:23:35Z</time></trkpt>
<trkpt lat="48.419215" lon="2.67903"><ele></ele><time>2017-9-19T2:23:38Z</time></trkpt>
<trkpt lat="48.419297" lon="2.679025"><ele></ele><time>2017-9-19T2:23:41Z</time></trkpt>
<trkpt lat="48.41938" lon="2.679003"><ele></ele><time>2017-9-19T2:23:44Z</time></trkpt>
<trkpt lat="48.419443" lon="2.678977"><ele></ele><time>2017-9-19T2:23:47Z</time></trkpt>
<trkpt lat="48.419505" lon="2.678948"><ele></ele><time>2017-9-19T2:23:50Z</time></trkpt>
<trkpt lat="48.419575" lon="2.67892"><ele></ele><time>2017-9-19T2:23:53Z</time></trkpt>
<trkpt lat="48.419647" lon="2.678905"><ele></ele><time>2017-9-19T2:23:56Z</time></trkpt>
<trkpt lat="48.419722" lon="2.678888"><ele></ele><time>2017-9-19T2:23:59Z</time></trkpt>
<trkpt lat="48.419788" lon="2.678873"><ele></ele><time>2017-9-19T2:24:2Z</time></trkpt>
<trkpt lat="48.419853" lon="2.678855"><ele></ele><time>2017-9-19T2:24:5Z</time></trkpt>
<trkpt lat="48.419925" lon="2.678825"><ele></ele><time>2017-9-19T2:24:8Z</time></trkpt>
<trkpt lat="48.420002" lon="2.678805"><ele></ele><time>2017-9-19T2:24:11Z</time></trkpt>
<trkpt lat="48.420088" lon="2.678788"><ele></ele><time>2017-9-19T2:24:14Z</time></trkpt>
<trkpt lat="48.420155" lon="2.678773"><ele></ele><time>2017-9-19T2:24:17Z</time></trkpt>
<trkpt lat="48.420227" lon="2.678753"><ele></ele><time>2017-9-19T2:24:20Z</time></trkpt>
<trkpt lat="48.4203" lon="2.678723"><ele></ele><time>2017-9-19T2:24:23Z</time></trkpt>
<trkpt lat="48.420375" lon="2.678698"><ele></ele><time>2017-9-19T2:24:26Z</time></trkpt>
<trkpt lat="48.420457" lon="2.678673"><ele></ele><time>2017-9-19T2:24:29Z</time></trkpt>
<trkpt lat="48.420543" lon="2.678648"><ele></ele><time>2017-9-19T2:24:32Z</time></trkpt>
<trkpt lat="48.420615" lon="2.678627"><ele></ele><time>2017-9-19T2:24:35Z</time></trkpt>
<trkpt lat="48.420692" lon="2.678607"><ele></ele><time>2017-9-19T2:24:38Z</time></trkpt>
<trkpt lat="48.42077" lon="2.678587"><ele></ele><time>2017-9-19T2:24:41Z</time></trkpt>
<trkpt lat="48.420848" lon="2.678573"><ele></ele><time>2017-9-19T2:24:44Z</time></trkpt>
<trkpt lat="48.420932" lon="2.678545"><ele></ele><time>2017-9-19T2:24:47Z</time></trkpt>
<trkpt lat="48.42101" lon="2.678517"><ele></ele><time>2017-9-19T2:24:50Z</time></trkpt>
<trkpt lat="48.42109" lon="2.678503"><ele></ele><time>2017-9-19T2:24:53Z</time></trkpt>
<trkpt lat="48.421177" lon="2.678483"><ele></ele><time>2017-9-19T2:24:56Z</time></trkpt>
<trkpt lat="48.42122" lon="2.678473"><ele></ele><time>2017-9-19T2:24:59Z</time></trkpt>
<trkpt lat="48.421338" lon="2.678437"><ele></ele><time>2017-9-19T2:25:2Z</time></trkpt>
<trkpt lat="48.421397" lon="2.678415"><ele></ele><time>2017-9-19T2:25:5Z</time></trkpt>
<trkpt lat="48.421463" lon="2.678383"><ele></ele><time>2017-9-19T2:25:8Z</time></trkpt>
<trkpt lat="48.421542" lon="2.678363"><ele></ele><time>2017-9-19T2:25:11Z</time></trkpt>
<trkpt lat="48.42162" lon="2.678348"><ele></ele><time>2017-9-19T2:25:14Z</time></trkpt>
<trkpt lat="48.421655" lon="2.67834"><ele></ele><time>2017-9-19T2:25:17Z</time></trkpt>
<trkpt lat="48.421722" lon="2.678322"><ele></ele><time>2017-9-19T2:25:20Z</time></trkpt>
<trkpt lat="48.421793" lon="2.678305"><ele></ele><time>2017-9-19T2:25:23Z</time></trkpt>
<trkpt lat="48.421868" lon="2.678278"><ele></ele><time>2017-9-19T2:25:26Z</time></trkpt>
<trkpt lat="48.421953" lon="2.67824"><ele></ele><time>2017-9-19T2:25:29Z</time></trkpt>
<trkpt lat="48.422028" lon="2.678217"><ele></ele><time>2017-9-19T2:25:32Z</time></trkpt>
<trkpt lat="48.422093" lon="2.678193"><ele></ele><time>2017-9-19T2:25:35Z</time></trkpt>
<trkpt lat="48.422175" lon="2.678178"><ele></ele><time>2017-9-19T2:25:38Z</time></trkpt>
<trkpt lat="48.42225" lon="2.678157"><ele></ele><time>2017-9-19T2:25:41Z</time></trkpt>
<trkpt lat="48.422323" lon="2.678133"><ele></ele><time>2017-9-19T2:25:44Z</time></trkpt>
<trkpt lat="48.422388" lon="2.678117"><ele></ele><time>2017-9-19T2:25:47Z</time></trkpt>
<trkpt lat="48.422463" lon="2.678094"><ele></ele><time>2017-9-19T2:25:50Z</time></trkpt>
<trkpt lat="48.422545" lon="2.67806"><ele></ele><time>2017-9-19T2:25:53Z</time></trkpt>
<trkpt lat="48.422633" lon="2.678047"><ele></ele><time>2017-9-19T2:25:56Z</time></trkpt>
<trkpt lat="48.422678" lon="2.678037"><ele></ele><time>2017-9-19T2:25:59Z</time></trkpt>
<trkpt lat="48.42276" lon="2.678022"><ele></ele><time>2017-9-19T2:26:2Z</time></trkpt>
<trkpt lat="48.422843" lon="2.678005"><ele></ele><time>2017-9-19T2:26:5Z</time></trkpt>
<trkpt lat="48.422928" lon="2.67798"><ele></ele><time>2017-9-19T2:26:8Z</time></trkpt>
<trkpt lat="48.423007" lon="2.677952"><ele></ele><time>2017-9-19T2:26:11Z</time></trkpt>
<trkpt lat="48.423087" lon="2.677928"><ele></ele><time>2017-9-19T2:26:14Z</time></trkpt>
<trkpt lat="48.423158" lon="2.677913"><ele></ele><time>2017-9-19T2:26:17Z</time></trkpt>
<trkpt lat="48.423228" lon="2.677898"><ele></ele><time>2017-9-19T2:26:20Z</time></trkpt>
<trkpt lat="48.423308" lon="2.677873"><ele></ele><time>2017-9-19T2:26:23Z</time></trkpt>
<trkpt lat="48.42338" lon="2.67785"><ele></ele><time>2017-9-19T2:26:26Z</time></trkpt>
<trkpt lat="48.423417" lon="2.67784"><ele></ele><time>2017-9-19T2:26:29Z</time></trkpt>
<trkpt lat="48.423492" lon="2.677817"><ele></ele><time>2017-9-19T2:26:32Z</time></trkpt>
<trkpt lat="48.423567" lon="2.6778"><ele></ele><time>2017-9-19T2:26:35Z</time></trkpt>
<trkpt lat="48.42364" lon="2.677777"><ele></ele><time>2017-9-19T2:26:38Z</time></trkpt>
<trkpt lat="48.423713" lon="2.677752"><ele></ele><time>2017-9-19T2:26:41Z</time></trkpt>
<trkpt lat="48.423795" lon="2.677732"><ele></ele><time>2017-9-19T2:26:44Z</time></trkpt>
<trkpt lat="48.423868" lon="2.677708"><ele></ele><time>2017-9-19T2:26:47Z</time></trkpt>
<trkpt lat="48.423945" lon="2.67768"><ele></ele><time>2017-9-19T2:26:50Z</time></trkpt>
<trkpt lat="48.42399" lon="2.677663"><ele></ele><time>2017-9-19T2:26:53Z</time></trkpt>
<trkpt lat="48.424033" lon="2.677648"><ele></ele><time>2017-9-19T2:26:56Z</time></trkpt>
<trkpt lat="48.424078" lon="2.677637"><ele></ele><time>2017-9-19T2:26:59Z</time></trkpt>
<trkpt lat="48.424125" lon="2.677625"><ele></ele><time>2017-9-19T2:27:2Z</time></trkpt>
<trkpt lat="48.424172" lon="2.677623"><ele></ele><time>2017-9-19T2:27:5Z</time></trkpt>
<trkpt lat="48.424255" lon="2.67761"><ele></ele><time>2017-9-19T2:27:8Z</time></trkpt>
<trkpt lat="48.424342" lon="2.67759"><ele></ele><time>2017-9-19T2:27:11Z</time></trkpt>
<trkpt lat="48.424427" lon="2.67757"><ele></ele><time>2017-9-19T2:27:14Z</time></trkpt>
<trkpt lat="48.424515" lon="2.677548"><ele></ele><time>2017-9-19T2:27:17Z</time></trkpt>
<trkpt lat="48.424563" lon="2.677535"><ele></ele><time>2017-9-19T2:27:20Z</time></trkpt>
<trkpt lat="48.42465" lon="2.677502"><ele></ele><time>2017-9-19T2:27:23Z</time></trkpt>
<trkpt lat="48.424697" lon="2.677485"><ele></ele><time>2017-9-19T2:27:26Z</time></trkpt>
<trkpt lat="48.42474" lon="2.677467"><ele></ele><time>2017-9-19T2:27:29Z</time></trkpt>
<trkpt lat="48.424825" lon="2.677437"><ele></ele><time>2017-9-19T2:27:32Z</time></trkpt>
<trkpt lat="48.424893" lon="2.677408"><ele></ele><time>2017-9-19T2:27:35Z</time></trkpt>
<trkpt lat="48.424973" lon="2.677388"><ele></ele><time>2017-9-19T2:27:38Z</time></trkpt>
<trkpt lat="48.425053" lon="2.677362"><ele></ele><time>2017-9-19T2:27:41Z</time></trkpt>
<trkpt lat="48.425142" lon="2.67734"><ele></ele><time>2017-9-19T2:27:44Z</time></trkpt>
<trkpt lat="48.425232" lon="2.677318"><ele></ele><time>2017-9-19T2:27:47Z</time></trkpt>
<trkpt lat="48.425275" lon="2.677307"><ele></ele><time>2017-9-19T2:27:50Z</time></trkpt>
<trkpt lat="48.425322" lon="2.677297"><ele></ele><time>2017-9-19T2:27:53Z</time></trkpt>
<trkpt lat="48.425373" lon="2.677283"><ele></ele><time>2017-9-19T2:27:56Z</time></trkpt>
<trkpt lat="48.42542" lon="2.677268"><ele></ele><time>2017-9-19T2:27:59Z</time></trkpt>
<trkpt lat="48.42547" lon="2.677253"><ele></ele><time>2017-9-19T2:28:2Z</time></trkpt>
<trkpt lat="48.425522" lon="2.67724"><ele></ele><time>2017-9-19T2:28:5Z</time></trkpt>
<trkpt lat="48.42557" lon="2.677227"><ele></ele><time>2017-9-19T2:28:8Z</time></trkpt>
<trkpt lat="48.425617" lon="2.677217"><ele></ele><time>2017-9-19T2:28:11Z</time></trkpt>
<trkpt lat="48.425668" lon="2.677207"><ele></ele><time>2017-9-19T2:28:14Z</time></trkpt>
<trkpt lat="48.425715" lon="2.677197"><ele></ele><time>2017-9-19T2:28:17Z</time></trkpt>
<trkpt lat="48.425762" lon="2.677185"><ele></ele><time>2017-9-19T2:28:20Z</time></trkpt>
<trkpt lat="48.425807" lon="2.677177"><ele></ele><time>2017-9-19T2:28:23Z</time></trkpt>
<trkpt lat="48.425853" lon="2.67717"><ele></ele><time>2017-9-19T2:28:26Z</time></trkpt>
<trkpt lat="48.425902" lon="2.67716"><ele></ele><time>2017-9-19T2:28:29Z</time></trkpt>
<trkpt lat="48.425952" lon="2.677152"><ele></ele><time>2017-9-19T2:28:32Z</time></trkpt>
<trkpt lat="48.426002" lon="2.677145"><ele></ele><time>2017-9-19T2:28:35Z</time></trkpt>
<trkpt lat="48.42605" lon="2.677133"><ele></ele><time>2017-9-19T2:28:38Z</time></trkpt>
<trkpt lat="48.426098" lon="2.677122"><ele></ele><time>2017-9-19T2:28:41Z</time></trkpt>
<trkpt lat="48.426147" lon="2.67711"><ele></ele><time>2017-9-19T2:28:44Z</time></trkpt>
<trkpt lat="48.426197" lon="2.677103"><ele></ele><time>2017-9-19T2:28:47Z</time></trkpt>
<trkpt lat="48.426247" lon="2.677103"><ele></ele><time>2017-9-19T2:28:50Z</time></trkpt>
<trkpt lat="48.426303" lon="2.677112"><ele></ele><time>2017-9-19T2:28:53Z</time></trkpt>
<trkpt lat="48.426362" lon="2.677127"><ele></ele><time>2017-9-19T2:28:56Z</time></trkpt>
<trkpt lat="48.426418" lon="2.677152"><ele></ele><time>2017-9-19T2:28:59Z</time></trkpt>
<trkpt lat="48.42647" lon="2.677185"><ele></ele><time>2017-9-19T2:29:2Z</time></trkpt>
<trkpt lat="48.426518" lon="2.677215"><ele></ele><time>2017-9-19T2:29:5Z</time></trkpt>
<trkpt lat="48.426563" lon="2.677245"><ele></ele><time>2017-9-19T2:29:8Z</time></trkpt>
<trkpt lat="48.426638" lon="2.677302"><ele></ele><time>2017-9-19T2:29:11Z</time></trkpt>
<trkpt lat="48.426697" lon="2.677357"><ele></ele><time>2017-9-19T2:29:14Z</time></trkpt>
<trkpt lat="48.42676" lon="2.677447"><ele></ele><time>2017-9-19T2:29:17Z</time></trkpt>
<trkpt lat="48.426723" lon="2.677363"><ele></ele><time>2017-9-19T2:29:20Z</time></trkpt>
<trkpt lat="48.426665" lon="2.677313"><ele></ele><time>2017-9-19T2:29:23Z</time></trkpt>
<trkpt lat="48.426593" lon="2.67726"><ele></ele><time>2017-9-19T2:29:26Z</time></trkpt>
<trkpt lat="48.42652" lon="2.677207"><ele></ele><time>2017-9-19T2:29:29Z</time></trkpt>
<trkpt lat="48.426447" lon="2.677158"><ele></ele><time>2017-9-19T2:29:32Z</time></trkpt>
<trkpt lat="48.426413" lon="2.677135"><ele></ele><time>2017-9-19T2:29:35Z</time></trkpt>
<trkpt lat="48.426343" lon="2.677082"><ele></ele><time>2017-9-19T2:29:38Z</time></trkpt>
<trkpt lat="48.426275" lon="2.677013"><ele></ele><time>2017-9-19T2:29:41Z</time></trkpt>
<trkpt lat="48.426225" lon="2.676915"><ele></ele><time>2017-9-19T2:29:44Z</time></trkpt>
<trkpt lat="48.426187" lon="2.676797"><ele></ele><time>2017-9-19T2:29:47Z</time></trkpt>
<trkpt lat="48.426168" lon="2.676668"><ele></ele><time>2017-9-19T2:29:50Z</time></trkpt>
<trkpt lat="48.426163" lon="2.676598"><ele></ele><time>2017-9-19T2:29:53Z</time></trkpt>
<trkpt lat="48.426163" lon="2.676528"><ele></ele><time>2017-9-19T2:29:56Z</time></trkpt>
<trkpt lat="48.426155" lon="2.676452"><ele></ele><time>2017-9-19T2:29:59Z</time></trkpt>
<trkpt lat="48.426155" lon="2.676377"><ele></ele><time>2017-9-19T2:30:2Z</time></trkpt>
<trkpt lat="48.426157" lon="2.676302"><ele></ele><time>2017-9-19T2:30:5Z</time></trkpt>
<trkpt lat="48.426157" lon="2.676228"><ele></ele><time>2017-9-19T2:30:8Z</time></trkpt>
<trkpt lat="48.426157" lon="2.676158"><ele></ele><time>2017-9-19T2:30:11Z</time></trkpt>
<trkpt lat="48.42616" lon="2.676087"><ele></ele><time>2017-9-19T2:30:14Z</time></trkpt>
<trkpt lat="48.426163" lon="2.676018"><ele></ele><time>2017-9-19T2:30:17Z</time></trkpt>
<trkpt lat="48.426167" lon="2.675948"><ele></ele><time>2017-9-19T2:30:20Z</time></trkpt>
<trkpt lat="48.426168" lon="2.675875"><ele></ele><time>2017-9-19T2:30:23Z</time></trkpt>
<trkpt lat="48.426168" lon="2.6758"><ele></ele><time>2017-9-19T2:30:26Z</time></trkpt>
<trkpt lat="48.426173" lon="2.675727"><ele></ele><time>2017-9-19T2:30:29Z</time></trkpt>
<trkpt lat="48.426182" lon="2.675648"><ele></ele><time>2017-9-19T2:30:32Z</time></trkpt>
<trkpt lat="48.426197" lon="2.67558"><ele></ele><time>2017-9-19T2:30:35Z</time></trkpt>
<trkpt lat="48.426207" lon="2.675505"><ele></ele><time>2017-9-19T2:30:38Z</time></trkpt>
<trkpt lat="48.426273" lon="2.675245"><ele></ele><time>2017-9-19T2:30:41Z</time></trkpt>
<trkpt lat="48.426285" lon="2.675163"><ele></ele><time>2017-9-19T2:30:44Z</time></trkpt>
<trkpt lat="48.426295" lon="2.675088"><ele></ele><time>2017-9-19T2:30:47Z</time></trkpt>
<trkpt lat="48.426302" lon="2.675018"><ele></ele><time>2017-9-19T2:30:50Z</time></trkpt>
<trkpt lat="48.426312" lon="2.67495"><ele></ele><time>2017-9-19T2:30:53Z</time></trkpt>
<trkpt lat="48.426318" lon="2.674875"><ele></ele><time>2017-9-19T2:30:56Z</time></trkpt>
<trkpt lat="48.42636" lon="2.67476"><ele></ele><time>2017-9-19T2:30:59Z</time></trkpt>
<trkpt lat="48.426402" lon="2.674647"><ele></ele><time>2017-9-19T2:31:2Z</time></trkpt>
<trkpt lat="48.426437" lon="2.674517"><ele></ele><time>2017-9-19T2:31:5Z</time></trkpt>
<trkpt lat="48.426488" lon="2.674392"><ele></ele><time>2017-9-19T2:31:8Z</time></trkpt>
<trkpt lat="48.426533" lon="2.67427"><ele></ele><time>2017-9-19T2:31:11Z</time></trkpt>
<trkpt lat="48.426565" lon="2.67416"><ele></ele><time>2017-9-19T2:31:14Z</time></trkpt>
<trkpt lat="48.426598" lon="2.674053"><ele></ele><time>2017-9-19T2:31:17Z</time></trkpt>
<trkpt lat="48.426627" lon="2.673948"><ele></ele><time>2017-9-19T2:31:20Z</time></trkpt>
<trkpt lat="48.426648" lon="2.67384"><ele></ele><time>2017-9-19T2:31:23Z</time></trkpt>
<trkpt lat="48.426662" lon="2.673725"><ele></ele><time>2017-9-19T2:31:26Z</time></trkpt>
<trkpt lat="48.426673" lon="2.67362"><ele></ele><time>2017-9-19T2:31:29Z</time></trkpt>
<trkpt lat="48.426678" lon="2.673507"><ele></ele><time>2017-9-19T2:31:32Z</time></trkpt>
<trkpt lat="48.426692" lon="2.673387"><ele></ele><time>2017-9-19T2:31:35Z</time></trkpt>
<trkpt lat="48.426702" lon="2.673267"><ele></ele><time>2017-9-19T2:31:38Z</time></trkpt>
<trkpt lat="48.426703" lon="2.673147"><ele></ele><time>2017-9-19T2:31:41Z</time></trkpt>
<trkpt lat="48.426707" lon="2.67303"><ele></ele><time>2017-9-19T2:31:44Z</time></trkpt>
<trkpt lat="48.426713" lon="2.672913"><ele></ele><time>2017-9-19T2:31:47Z</time></trkpt>
<trkpt lat="48.426725" lon="2.672792"><ele></ele><time>2017-9-19T2:31:50Z</time></trkpt>
<trkpt lat="48.42674" lon="2.67267"><ele></ele><time>2017-9-19T2:31:53Z</time></trkpt>
<trkpt lat="48.426758" lon="2.67255"><ele></ele><time>2017-9-19T2:31:56Z</time></trkpt>
<trkpt lat="48.426787" lon="2.672428"><ele></ele><time>2017-9-19T2:31:59Z</time></trkpt>
<trkpt lat="48.426797" lon="2.672358"><ele></ele><time>2017-9-19T2:32:2Z</time></trkpt>
<trkpt lat="48.426807" lon="2.67229"><ele></ele><time>2017-9-19T2:32:5Z</time></trkpt>
<trkpt lat="48.426815" lon="2.672222"><ele></ele><time>2017-9-19T2:32:8Z</time></trkpt>
<trkpt lat="48.426838" lon="2.672097"><ele></ele><time>2017-9-19T2:32:11Z</time></trkpt>
<trkpt lat="48.426862" lon="2.67197"><ele></ele><time>2017-9-19T2:32:14Z</time></trkpt>
<trkpt lat="48.426885" lon="2.671848"><ele></ele><time>2017-9-19T2:32:17Z</time></trkpt>
<trkpt lat="48.426945" lon="2.671545"><ele></ele><time>2017-9-19T2:32:20Z</time></trkpt>
<trkpt lat="48.426957" lon="2.67149"><ele></ele><time>2017-9-19T2:32:23Z</time></trkpt>
<trkpt lat="48.426987" lon="2.671377"><ele></ele><time>2017-9-19T2:32:26Z</time></trkpt>
<trkpt lat="48.427008" lon="2.671262"><ele></ele><time>2017-9-19T2:32:29Z</time></trkpt>
<trkpt lat="48.427022" lon="2.671152"><ele></ele><time>2017-9-19T2:32:32Z</time></trkpt>
<trkpt lat="48.427043" lon="2.671035"><ele></ele><time>2017-9-19T2:32:35Z</time></trkpt>
<trkpt lat="48.427073" lon="2.670927"><ele></ele><time>2017-9-19T2:32:38Z</time></trkpt>
<trkpt lat="48.427088" lon="2.670813"><ele></ele><time>2017-9-19T2:32:41Z</time></trkpt>
<trkpt lat="48.427095" lon="2.67068"><ele></ele><time>2017-9-19T2:32:44Z</time></trkpt>
<trkpt lat="48.427097" lon="2.67061"><ele></ele><time>2017-9-19T2:32:47Z</time></trkpt>
<trkpt lat="48.427107" lon="2.67054"><ele></ele><time>2017-9-19T2:32:50Z</time></trkpt>
<trkpt lat="48.42712" lon="2.670468"><ele></ele><time>2017-9-19T2:32:53Z</time></trkpt>
<trkpt lat="48.427137" lon="2.670398"><ele></ele><time>2017-9-19T2:32:56Z</time></trkpt>
<trkpt lat="48.427153" lon="2.67033"><ele></ele><time>2017-9-19T2:32:59Z</time></trkpt>
<trkpt lat="48.42717" lon="2.670262"><ele></ele><time>2017-9-19T2:33:2Z</time></trkpt>
<trkpt lat="48.427185" lon="2.67019"><ele></ele><time>2017-9-19T2:33:5Z</time></trkpt>
<trkpt lat="48.427198" lon="2.670115"><ele></ele><time>2017-9-19T2:33:8Z</time></trkpt>
<trkpt lat="48.427215" lon="2.670037"><ele></ele><time>2017-9-19T2:33:11Z</time></trkpt>
<trkpt lat="48.427232" lon="2.669958"><ele></ele><time>2017-9-19T2:33:14Z</time></trkpt>
<trkpt lat="48.427248" lon="2.669882"><ele></ele><time>2017-9-19T2:33:17Z</time></trkpt>
<trkpt lat="48.427263" lon="2.669803"><ele></ele><time>2017-9-19T2:33:20Z</time></trkpt>
<trkpt lat="48.427278" lon="2.669723"><ele></ele><time>2017-9-19T2:33:23Z</time></trkpt>
<trkpt lat="48.427288" lon="2.669645"><ele></ele><time>2017-9-19T2:33:26Z</time></trkpt>
<trkpt lat="48.427305" lon="2.66957"><ele></ele><time>2017-9-19T2:33:29Z</time></trkpt>
<trkpt lat="48.427322" lon="2.669495"><ele></ele><time>2017-9-19T2:33:32Z</time></trkpt>
<trkpt lat="48.42733" lon="2.669413"><ele></ele><time>2017-9-19T2:33:35Z</time></trkpt>
<trkpt lat="48.42734" lon="2.669337"><ele></ele><time>2017-9-19T2:33:38Z</time></trkpt>
<trkpt lat="48.427352" lon="2.669264"><ele></ele><time>2017-9-19T2:33:41Z</time></trkpt>
<trkpt lat="48.42737" lon="2.669193"><ele></ele><time>2017-9-19T2:33:44Z</time></trkpt>
<trkpt lat="48.427385" lon="2.669123"><ele></ele><time>2017-9-19T2:33:47Z</time></trkpt>
<trkpt lat="48.427397" lon="2.669052"><ele></ele><time>2017-9-19T2:33:50Z</time></trkpt>
<trkpt lat="48.42741" lon="2.668982"><ele></ele><time>2017-9-19T2:33:53Z</time></trkpt>
<trkpt lat="48.427423" lon="2.668913"><ele></ele><time>2017-9-19T2:33:56Z</time></trkpt>
<trkpt lat="48.427437" lon="2.668838"><ele></ele><time>2017-9-19T2:33:59Z</time></trkpt>
<trkpt lat="48.427455" lon="2.668772"><ele></ele><time>2017-9-19T2:34:2Z</time></trkpt>
<trkpt lat="48.427475" lon="2.668707"><ele></ele><time>2017-9-19T2:34:5Z</time></trkpt>
<trkpt lat="48.427493" lon="2.668642"><ele></ele><time>2017-9-19T2:34:8Z</time></trkpt>
<trkpt lat="48.427508" lon="2.668573"><ele></ele><time>2017-9-19T2:34:11Z</time></trkpt>
<trkpt lat="48.427532" lon="2.66844"><ele></ele><time>2017-9-19T2:34:14Z</time></trkpt>
<trkpt lat="48.42755" lon="2.668305"><ele></ele><time>2017-9-19T2:34:17Z</time></trkpt>
<trkpt lat="48.427573" lon="2.668167"><ele></ele><time>2017-9-19T2:34:20Z</time></trkpt>
<trkpt lat="48.427617" lon="2.668025"><ele></ele><time>2017-9-19T2:34:23Z</time></trkpt>
<trkpt lat="48.427668" lon="2.667872"><ele></ele><time>2017-9-19T2:34:26Z</time></trkpt>
<trkpt lat="48.427688" lon="2.667798"><ele></ele><time>2017-9-19T2:34:29Z</time></trkpt>
<trkpt lat="48.42771" lon="2.667725"><ele></ele><time>2017-9-19T2:34:32Z</time></trkpt>
<trkpt lat="48.427732" lon="2.667648"><ele></ele><time>2017-9-19T2:34:35Z</time></trkpt>
<trkpt lat="48.427753" lon="2.667578"><ele></ele><time>2017-9-19T2:34:38Z</time></trkpt>
<trkpt lat="48.427775" lon="2.667505"><ele></ele><time>2017-9-19T2:34:41Z</time></trkpt>
<trkpt lat="48.427793" lon="2.66743"><ele></ele><time>2017-9-19T2:34:44Z</time></trkpt>
<trkpt lat="48.427838" lon="2.667282"><ele></ele><time>2017-9-19T2:34:47Z</time></trkpt>
<trkpt lat="48.427863" lon="2.66721"><ele></ele><time>2017-9-19T2:34:50Z</time></trkpt>
<trkpt lat="48.427883" lon="2.66714"><ele></ele><time>2017-9-19T2:34:53Z</time></trkpt>
<trkpt lat="48.427905" lon="2.667075"><ele></ele><time>2017-9-19T2:34:56Z</time></trkpt>
<trkpt lat="48.427923" lon="2.667008"><ele></ele><time>2017-9-19T2:34:59Z</time></trkpt>
<trkpt lat="48.427943" lon="2.666943"><ele></ele><time>2017-9-19T2:35:2Z</time></trkpt>
<trkpt lat="48.427962" lon="2.666877"><ele></ele><time>2017-9-19T2:35:5Z</time></trkpt>
<trkpt lat="48.427978" lon="2.66681"><ele></ele><time>2017-9-19T2:35:8Z</time></trkpt>
<trkpt lat="48.427995" lon="2.666743"><ele></ele><time>2017-9-19T2:35:11Z</time></trkpt>
<trkpt lat="48.428033" lon="2.666622"><ele></ele><time>2017-9-19T2:35:14Z</time></trkpt>
<trkpt lat="48.428058" lon="2.666563"><ele></ele><time>2017-9-19T2:35:17Z</time></trkpt>
<trkpt lat="48.428093" lon="2.66651"><ele></ele><time>2017-9-19T2:35:20Z</time></trkpt>
<trkpt lat="48.428133" lon="2.666465"><ele></ele><time>2017-9-19T2:35:23Z</time></trkpt>
<trkpt lat="48.42818" lon="2.666432"><ele></ele><time>2017-9-19T2:35:26Z</time></trkpt>
<trkpt lat="48.428227" lon="2.666402"><ele></ele><time>2017-9-19T2:35:29Z</time></trkpt>
<trkpt lat="48.428273" lon="2.666373"><ele></ele><time>2017-9-19T2:35:32Z</time></trkpt>
<trkpt lat="48.428318" lon="2.666348"><ele></ele><time>2017-9-19T2:35:35Z</time></trkpt>
<trkpt lat="48.428365" lon="2.666323"><ele></ele><time>2017-9-19T2:35:38Z</time></trkpt>
<trkpt lat="48.428408" lon="2.666297"><ele></ele><time>2017-9-19T2:35:41Z</time></trkpt>
<trkpt lat="48.428453" lon="2.666272"><ele></ele><time>2017-9-19T2:35:44Z</time></trkpt>
<trkpt lat="48.428495" lon="2.666243"><ele></ele><time>2017-9-19T2:35:47Z</time></trkpt>
<trkpt lat="48.428538" lon="2.666217"><ele></ele><time>2017-9-19T2:35:50Z</time></trkpt>
<trkpt lat="48.428582" lon="2.666192"><ele></ele><time>2017-9-19T2:35:53Z</time></trkpt>
<trkpt lat="48.428627" lon="2.666165"><ele></ele><time>2017-9-19T2:35:56Z</time></trkpt>
<trkpt lat="48.42867" lon="2.666138"><ele></ele><time>2017-9-19T2:35:59Z</time></trkpt>
<trkpt lat="48.428715" lon="2.666112"><ele></ele><time>2017-9-19T2:36:2Z</time></trkpt>
<trkpt lat="48.42876" lon="2.666085"><ele></ele><time>2017-9-19T2:36:5Z</time></trkpt>
<trkpt lat="48.428842" lon="2.66603"><ele></ele><time>2017-9-19T2:36:8Z</time></trkpt>
<trkpt lat="48.428925" lon="2.665983"><ele></ele><time>2017-9-19T2:36:11Z</time></trkpt>
<trkpt lat="48.428993" lon="2.665938"><ele></ele><time>2017-9-19T2:36:14Z</time></trkpt>
<trkpt lat="48.429057" lon="2.665897"><ele></ele><time>2017-9-19T2:36:17Z</time></trkpt>
<trkpt lat="48.429118" lon="2.665857"><ele></ele><time>2017-9-19T2:36:20Z</time></trkpt>
<trkpt lat="48.429185" lon="2.665812"><ele></ele><time>2017-9-19T2:36:23Z</time></trkpt>
<trkpt lat="48.429257" lon="2.665763"><ele></ele><time>2017-9-19T2:36:26Z</time></trkpt>
<trkpt lat="48.429292" lon="2.665737"><ele></ele><time>2017-9-19T2:36:29Z</time></trkpt>
<trkpt lat="48.429362" lon="2.665687"><ele></ele><time>2017-9-19T2:36:32Z</time></trkpt>
<trkpt lat="48.429433" lon="2.665643"><ele></ele><time>2017-9-19T2:36:35Z</time></trkpt>
<trkpt lat="48.4295" lon="2.665598"><ele></ele><time>2017-9-19T2:36:38Z</time></trkpt>
<trkpt lat="48.429572" lon="2.66555"><ele></ele><time>2017-9-19T2:36:41Z</time></trkpt>
<trkpt lat="48.429645" lon="2.665497"><ele></ele><time>2017-9-19T2:36:44Z</time></trkpt>
<trkpt lat="48.429715" lon="2.665452"><ele></ele><time>2017-9-19T2:36:47Z</time></trkpt>
<trkpt lat="48.429783" lon="2.665408"><ele></ele><time>2017-9-19T2:36:50Z</time></trkpt>
<trkpt lat="48.42985" lon="2.665363"><ele></ele><time>2017-9-19T2:36:53Z</time></trkpt>
<trkpt lat="48.429917" lon="2.66532"><ele></ele><time>2017-9-19T2:36:56Z</time></trkpt>
<trkpt lat="48.42995" lon="2.6653"><ele></ele><time>2017-9-19T2:36:59Z</time></trkpt>
<trkpt lat="48.430055" lon="2.665238"><ele></ele><time>2017-9-19T2:37:2Z</time></trkpt>
<trkpt lat="48.430093" lon="2.665217"><ele></ele><time>2017-9-19T2:37:5Z</time></trkpt>
<trkpt lat="48.430165" lon="2.665177"><ele></ele><time>2017-9-19T2:37:8Z</time></trkpt>
<trkpt lat="48.430228" lon="2.665135"><ele></ele><time>2017-9-19T2:37:11Z</time></trkpt>
<trkpt lat="48.430288" lon="2.6651"><ele></ele><time>2017-9-19T2:37:14Z</time></trkpt>
<trkpt lat="48.430352" lon="2.66506"><ele></ele><time>2017-9-19T2:37:17Z</time></trkpt>
<trkpt lat="48.43043" lon="2.665023"><ele></ele><time>2017-9-19T2:37:20Z</time></trkpt>
<trkpt lat="48.430512" lon="2.665008"><ele></ele><time>2017-9-19T2:37:23Z</time></trkpt>
<trkpt lat="48.43059" lon="2.665012"><ele></ele><time>2017-9-19T2:37:26Z</time></trkpt>
<trkpt lat="48.430668" lon="2.665023"><ele></ele><time>2017-9-19T2:37:29Z</time></trkpt>
<trkpt lat="48.430745" lon="2.66504"><ele></ele><time>2017-9-19T2:37:32Z</time></trkpt>
<trkpt lat="48.43082" lon="2.66506"><ele></ele><time>2017-9-19T2:37:35Z</time></trkpt>
<trkpt lat="48.430898" lon="2.665077"><ele></ele><time>2017-9-19T2:37:38Z</time></trkpt>
<trkpt lat="48.430973" lon="2.665095"><ele></ele><time>2017-9-19T2:37:41Z</time></trkpt>
<trkpt lat="48.431053" lon="2.665113"><ele></ele><time>2017-9-19T2:37:44Z</time></trkpt>
<trkpt lat="48.431132" lon="2.665135"><ele></ele><time>2017-9-19T2:37:47Z</time></trkpt>
<trkpt lat="48.43117" lon="2.665147"><ele></ele><time>2017-9-19T2:37:50Z</time></trkpt>
<trkpt lat="48.431253" lon="2.66516"><ele></ele><time>2017-9-19T2:37:53Z</time></trkpt>
<trkpt lat="48.431323" lon="2.665178"><ele></ele><time>2017-9-19T2:37:56Z</time></trkpt>
<trkpt lat="48.431397" lon="2.665197"><ele></ele><time>2017-9-19T2:37:59Z</time></trkpt>
<trkpt lat="48.431473" lon="2.665212"><ele></ele><time>2017-9-19T2:38:2Z</time></trkpt>
<trkpt lat="48.431553" lon="2.665225"><ele></ele><time>2017-9-19T2:38:5Z</time></trkpt>
<trkpt lat="48.431632" lon="2.665243"><ele></ele><time>2017-9-19T2:38:8Z</time></trkpt>
<trkpt lat="48.431718" lon="2.66526"><ele></ele><time>2017-9-19T2:38:11Z</time></trkpt>
<trkpt lat="48.431807" lon="2.665278"><ele></ele><time>2017-9-19T2:38:14Z</time></trkpt>
<trkpt lat="48.431852" lon="2.665288"><ele></ele><time>2017-9-19T2:38:17Z</time></trkpt>
<trkpt lat="48.431898" lon="2.665297"><ele></ele><time>2017-9-19T2:38:20Z</time></trkpt>
<trkpt lat="48.431943" lon="2.665305"><ele></ele><time>2017-9-19T2:38:23Z</time></trkpt>
<trkpt lat="48.431988" lon="2.665313"><ele></ele><time>2017-9-19T2:38:26Z</time></trkpt>
<trkpt lat="48.432035" lon="2.665322"><ele></ele><time>2017-9-19T2:38:29Z</time></trkpt>
<trkpt lat="48.432133" lon="2.665348"><ele></ele><time>2017-9-19T2:38:32Z</time></trkpt>
<trkpt lat="48.432188" lon="2.665357"><ele></ele><time>2017-9-19T2:38:35Z</time></trkpt>
<trkpt lat="48.43224" lon="2.665365"><ele></ele><time>2017-9-19T2:38:38Z</time></trkpt>
<trkpt lat="48.432287" lon="2.665373"><ele></ele><time>2017-9-19T2:38:41Z</time></trkpt>
<trkpt lat="48.432372" lon="2.665393"><ele></ele><time>2017-9-19T2:38:44Z</time></trkpt>
<trkpt lat="48.432413" lon="2.6654"><ele></ele><time>2017-9-19T2:38:47Z</time></trkpt>
<trkpt lat="48.432545" lon="2.665437"><ele></ele><time>2017-9-19T2:38:50Z</time></trkpt>
<trkpt lat="48.432617" lon="2.665457"><ele></ele><time>2017-9-19T2:38:53Z</time></trkpt>
<trkpt lat="48.432692" lon="2.665475"><ele></ele><time>2017-9-19T2:38:56Z</time></trkpt>
<trkpt lat="48.43276" lon="2.665493"><ele></ele><time>2017-9-19T2:38:59Z</time></trkpt>
<trkpt lat="48.432827" lon="2.66549"><ele></ele><time>2017-9-19T2:39:2Z</time></trkpt>
<trkpt lat="48.432902" lon="2.665463"><ele></ele><time>2017-9-19T2:39:5Z</time></trkpt>
<trkpt lat="48.432945" lon="2.665518"><ele></ele><time>2017-9-19T2:39:8Z</time></trkpt>
<trkpt lat="48.432988" lon="2.665545"><ele></ele><time>2017-9-19T2:39:11Z</time></trkpt>
<trkpt lat="48.433043" lon="2.665557"><ele></ele><time>2017-9-19T2:39:14Z</time></trkpt>
<trkpt lat="48.433105" lon="2.665573"><ele></ele><time>2017-9-19T2:39:17Z</time></trkpt>
<trkpt lat="48.433173" lon="2.665593"><ele></ele><time>2017-9-19T2:39:20Z</time></trkpt>
<trkpt lat="48.433235" lon="2.665605"><ele></ele><time>2017-9-19T2:39:23Z</time></trkpt>
<trkpt lat="48.433308" lon="2.665625"><ele></ele><time>2017-9-19T2:39:26Z</time></trkpt>
<trkpt lat="48.433387" lon="2.66564"><ele></ele><time>2017-9-19T2:39:29Z</time></trkpt>
<trkpt lat="48.433467" lon="2.665658"><ele></ele><time>2017-9-19T2:39:32Z</time></trkpt>
<trkpt lat="48.43355" lon="2.665677"><ele></ele><time>2017-9-19T2:39:35Z</time></trkpt>
<trkpt lat="48.433592" lon="2.665687"><ele></ele><time>2017-9-19T2:39:38Z</time></trkpt>
<trkpt lat="48.433673" lon="2.665707"><ele></ele><time>2017-9-19T2:39:41Z</time></trkpt>
<trkpt lat="48.433755" lon="2.665723"><ele></ele><time>2017-9-19T2:39:44Z</time></trkpt>
<trkpt lat="48.43384" lon="2.66575"><ele></ele><time>2017-9-19T2:39:47Z</time></trkpt>
<trkpt lat="48.433928" lon="2.665773"><ele></ele><time>2017-9-19T2:39:50Z</time></trkpt>
<trkpt lat="48.433973" lon="2.665785"><ele></ele><time>2017-9-19T2:39:53Z</time></trkpt>
<trkpt lat="48.43402" lon="2.665802"><ele></ele><time>2017-9-19T2:39:56Z</time></trkpt>
<trkpt lat="48.434067" lon="2.665812"><ele></ele><time>2017-9-19T2:39:59Z</time></trkpt>
<trkpt lat="48.434115" lon="2.665822"><ele></ele><time>2017-9-19T2:40:2Z</time></trkpt>
<trkpt lat="48.434162" lon="2.665835"><ele></ele><time>2017-9-19T2:40:5Z</time></trkpt>
<trkpt lat="48.43421" lon="2.665848"><ele></ele><time>2017-9-19T2:40:8Z</time></trkpt>
<trkpt lat="48.434255" lon="2.665863"><ele></ele><time>2017-9-19T2:40:11Z</time></trkpt>
<trkpt lat="48.4343" lon="2.665875"><ele></ele><time>2017-9-19T2:40:14Z</time></trkpt>
<trkpt lat="48.434347" lon="2.665887"><ele></ele><time>2017-9-19T2:40:17Z</time></trkpt>
<trkpt lat="48.434395" lon="2.665898"><ele></ele><time>2017-9-19T2:40:20Z</time></trkpt>
<trkpt lat="48.434442" lon="2.665915"><ele></ele><time>2017-9-19T2:40:23Z</time></trkpt>
<trkpt lat="48.43449" lon="2.665928"><ele></ele><time>2017-9-19T2:40:26Z</time></trkpt>
<trkpt lat="48.434538" lon="2.665938"><ele></ele><time>2017-9-19T2:40:29Z</time></trkpt>
<trkpt lat="48.434588" lon="2.665948"><ele></ele><time>2017-9-19T2:40:32Z</time></trkpt>
<trkpt lat="48.43464" lon="2.665962"><ele></ele><time>2017-9-19T2:40:35Z</time></trkpt>
<trkpt lat="48.434692" lon="2.665975"><ele></ele><time>2017-9-19T2:40:38Z</time></trkpt>
<trkpt lat="48.434742" lon="2.665988"><ele></ele><time>2017-9-19T2:40:41Z</time></trkpt>
<trkpt lat="48.434842" lon="2.66602"><ele></ele><time>2017-9-19T2:40:44Z</time></trkpt>
<trkpt lat="48.434943" lon="2.666047"><ele></ele><time>2017-9-19T2:40:47Z</time></trkpt>
<trkpt lat="48.435042" lon="2.666075"><ele></ele><time>2017-9-19T2:40:50Z</time></trkpt>
<trkpt lat="48.435138" lon="2.666098"><ele></ele><time>2017-9-19T2:40:53Z</time></trkpt>
<trkpt lat="48.435183" lon="2.666113"><ele></ele><time>2017-9-19T2:40:56Z</time></trkpt>
<trkpt lat="48.435272" lon="2.666132"><ele></ele><time>2017-9-19T2:40:59Z</time></trkpt>
<trkpt lat="48.435317" lon="2.66614"><ele></ele><time>2017-9-19T2:41:2Z</time></trkpt>
<trkpt lat="48.435365" lon="2.66615"><ele></ele><time>2017-9-19T2:41:5Z</time></trkpt>
<trkpt lat="48.435413" lon="2.666163"><ele></ele><time>2017-9-19T2:41:8Z</time></trkpt>
<trkpt lat="48.43546" lon="2.666177"><ele></ele><time>2017-9-19T2:41:11Z</time></trkpt>
<trkpt lat="48.435508" lon="2.66619"><ele></ele><time>2017-9-19T2:41:14Z</time></trkpt>
<trkpt lat="48.435558" lon="2.666207"><ele></ele><time>2017-9-19T2:41:17Z</time></trkpt>
<trkpt lat="48.435603" lon="2.666222"><ele></ele><time>2017-9-19T2:41:20Z</time></trkpt>
<trkpt lat="48.43565" lon="2.666237"><ele></ele><time>2017-9-19T2:41:23Z</time></trkpt>
<trkpt lat="48.435698" lon="2.66625"><ele></ele><time>2017-9-19T2:41:26Z</time></trkpt>
<trkpt lat="48.435748" lon="2.666263"><ele></ele><time>2017-9-19T2:41:29Z</time></trkpt>
<trkpt lat="48.435798" lon="2.666275"><ele></ele><time>2017-9-19T2:41:32Z</time></trkpt>
<trkpt lat="48.435847" lon="2.666288"><ele></ele><time>2017-9-19T2:41:35Z</time></trkpt>
<trkpt lat="48.435897" lon="2.666302"><ele></ele><time>2017-9-19T2:41:38Z</time></trkpt>
<trkpt lat="48.435943" lon="2.666315"><ele></ele><time>2017-9-19T2:41:41Z</time></trkpt>
<trkpt lat="48.435988" lon="2.66633"><ele></ele><time>2017-9-19T2:41:44Z</time></trkpt>
<trkpt lat="48.436033" lon="2.666343"><ele></ele><time>2017-9-19T2:41:47Z</time></trkpt>
<trkpt lat="48.436133" lon="2.66636"><ele></ele><time>2017-9-19T2:41:50Z</time></trkpt>
<trkpt lat="48.436182" lon="2.66637"><ele></ele><time>2017-9-19T2:41:53Z</time></trkpt>
<trkpt lat="48.436233" lon="2.66638"><ele></ele><time>2017-9-19T2:41:56Z</time></trkpt>
<trkpt lat="48.436282" lon="2.666392"><ele></ele><time>2017-9-19T2:41:59Z</time></trkpt>
<trkpt lat="48.43633" lon="2.666402"><ele></ele><time>2017-9-19T2:42:2Z</time></trkpt>
<trkpt lat="48.43638" lon="2.666412"><ele></ele><time>2017-9-19T2:42:5Z</time></trkpt>
<trkpt lat="48.43643" lon="2.666422"><ele></ele><time>2017-9-19T2:42:8Z</time></trkpt>
<trkpt lat="48.436478" lon="2.666437"><ele></ele><time>2017-9-19T2:42:11Z</time></trkpt>
<trkpt lat="48.436527" lon="2.666452"><ele></ele><time>2017-9-19T2:42:14Z</time></trkpt>
<trkpt lat="48.43662" lon="2.666482"><ele></ele><time>2017-9-19T2:42:17Z</time></trkpt>
<trkpt lat="48.436717" lon="2.66651"><ele></ele><time>2017-9-19T2:42:20Z</time></trkpt>
<trkpt lat="48.43681" lon="2.666545"><ele></ele><time>2017-9-19T2:42:23Z</time></trkpt>
<trkpt lat="48.436903" lon="2.666583"><ele></ele><time>2017-9-19T2:42:26Z</time></trkpt>
<trkpt lat="48.436993" lon="2.666623"><ele></ele><time>2017-9-19T2:42:29Z</time></trkpt>
<trkpt lat="48.437038" lon="2.666642"><ele></ele><time>2017-9-19T2:42:32Z</time></trkpt>
<trkpt lat="48.437087" lon="2.66666"><ele></ele><time>2017-9-19T2:42:35Z</time></trkpt>
<trkpt lat="48.437132" lon="2.66668"><ele></ele><time>2017-9-19T2:42:38Z</time></trkpt>
<trkpt lat="48.437178" lon="2.6667"><ele></ele><time>2017-9-19T2:42:41Z</time></trkpt>
<trkpt lat="48.437225" lon="2.666718"><ele></ele><time>2017-9-19T2:42:44Z</time></trkpt>
<trkpt lat="48.437273" lon="2.666737"><ele></ele><time>2017-9-19T2:42:47Z</time></trkpt>
<trkpt lat="48.437322" lon="2.666755"><ele></ele><time>2017-9-19T2:42:50Z</time></trkpt>
<trkpt lat="48.437373" lon="2.666772"><ele></ele><time>2017-9-19T2:42:53Z</time></trkpt>
<trkpt lat="48.437418" lon="2.66679"><ele></ele><time>2017-9-19T2:42:56Z</time></trkpt>
<trkpt lat="48.437462" lon="2.666812"><ele></ele><time>2017-9-19T2:42:59Z</time></trkpt>
<trkpt lat="48.437505" lon="2.666832"><ele></ele><time>2017-9-19T2:43:2Z</time></trkpt>
<trkpt lat="48.43755" lon="2.666853"><ele></ele><time>2017-9-19T2:43:5Z</time></trkpt>
<trkpt lat="48.437595" lon="2.666875"><ele></ele><time>2017-9-19T2:43:8Z</time></trkpt>
<trkpt lat="48.437637" lon="2.666897"><ele></ele><time>2017-9-19T2:43:11Z</time></trkpt>
<trkpt lat="48.437723" lon="2.666947"><ele></ele><time>2017-9-19T2:43:14Z</time></trkpt>
<trkpt lat="48.437768" lon="2.666967"><ele></ele><time>2017-9-19T2:43:17Z</time></trkpt>
<trkpt lat="48.437815" lon="2.666985"><ele></ele><time>2017-9-19T2:43:20Z</time></trkpt>
<trkpt lat="48.437902" lon="2.667018"><ele></ele><time>2017-9-19T2:43:23Z</time></trkpt>
<trkpt lat="48.437982" lon="2.667058"><ele></ele><time>2017-9-19T2:43:26Z</time></trkpt>
<trkpt lat="48.438023" lon="2.667082"><ele></ele><time>2017-9-19T2:43:29Z</time></trkpt>
<trkpt lat="48.438067" lon="2.66711"><ele></ele><time>2017-9-19T2:43:32Z</time></trkpt>
<trkpt lat="48.438113" lon="2.667127"><ele></ele><time>2017-9-19T2:43:35Z</time></trkpt>
<trkpt lat="48.43816" lon="2.667148"><ele></ele><time>2017-9-19T2:43:38Z</time></trkpt>
<trkpt lat="48.438205" lon="2.667167"><ele></ele><time>2017-9-19T2:43:41Z</time></trkpt>
<trkpt lat="48.43825" lon="2.667182"><ele></ele><time>2017-9-19T2:43:44Z</time></trkpt>
<trkpt lat="48.438295" lon="2.667203"><ele></ele><time>2017-9-19T2:43:47Z</time></trkpt>
<trkpt lat="48.43834" lon="2.667223"><ele></ele><time>2017-9-19T2:43:50Z</time></trkpt>
<trkpt lat="48.438387" lon="2.667243"><ele></ele><time>2017-9-19T2:43:53Z</time></trkpt>
<trkpt lat="48.438432" lon="2.667262"><ele></ele><time>2017-9-19T2:43:56Z</time></trkpt>
<trkpt lat="48.438478" lon="2.667277"><ele></ele><time>2017-9-19T2:43:59Z</time></trkpt>
<trkpt lat="48.438523" lon="2.667295"><ele></ele><time>2017-9-19T2:44:2Z</time></trkpt>
<trkpt lat="48.438567" lon="2.667315"><ele></ele><time>2017-9-19T2:44:5Z</time></trkpt>
<trkpt lat="48.438612" lon="2.667335"><ele></ele><time>2017-9-19T2:44:8Z</time></trkpt>
<trkpt lat="48.438697" lon="2.667378"><ele></ele><time>2017-9-19T2:44:11Z</time></trkpt>
<trkpt lat="48.438777" lon="2.667423"><ele></ele><time>2017-9-19T2:44:14Z</time></trkpt>
<trkpt lat="48.438815" lon="2.667445"><ele></ele><time>2017-9-19T2:44:17Z</time></trkpt>
<trkpt lat="48.4389" lon="2.667485"><ele></ele><time>2017-9-19T2:44:20Z</time></trkpt>
<trkpt lat="48.438982" lon="2.66753"><ele></ele><time>2017-9-19T2:44:23Z</time></trkpt>
<trkpt lat="48.439063" lon="2.667582"><ele></ele><time>2017-9-19T2:44:26Z</time></trkpt>
<trkpt lat="48.439148" lon="2.66763"><ele></ele><time>2017-9-19T2:44:29Z</time></trkpt>
<trkpt lat="48.439228" lon="2.667678"><ele></ele><time>2017-9-19T2:44:32Z</time></trkpt>
<trkpt lat="48.439307" lon="2.667723"><ele></ele><time>2017-9-19T2:44:35Z</time></trkpt>
<trkpt lat="48.439388" lon="2.667772"><ele></ele><time>2017-9-19T2:44:38Z</time></trkpt>
<trkpt lat="48.43946" lon="2.667815"><ele></ele><time>2017-9-19T2:44:41Z</time></trkpt>
<trkpt lat="48.439538" lon="2.667853"><ele></ele><time>2017-9-19T2:44:44Z</time></trkpt>
<trkpt lat="48.439615" lon="2.667893"><ele></ele><time>2017-9-19T2:44:47Z</time></trkpt>
<trkpt lat="48.439687" lon="2.66794"><ele></ele><time>2017-9-19T2:44:50Z</time></trkpt>
<trkpt lat="48.439767" lon="2.667983"><ele></ele><time>2017-9-19T2:44:53Z</time></trkpt>
<trkpt lat="48.439837" lon="2.668023"><ele></ele><time>2017-9-19T2:44:56Z</time></trkpt>
<trkpt lat="48.439905" lon="2.668062"><ele></ele><time>2017-9-19T2:44:59Z</time></trkpt>
<trkpt lat="48.439973" lon="2.6681"><ele></ele><time>2017-9-19T2:45:2Z</time></trkpt>
<trkpt lat="48.440045" lon="2.668133"><ele></ele><time>2017-9-19T2:45:5Z</time></trkpt>
<trkpt lat="48.440112" lon="2.66817"><ele></ele><time>2017-9-19T2:45:8Z</time></trkpt>
<trkpt lat="48.440145" lon="2.668188"><ele></ele><time>2017-9-19T2:45:11Z</time></trkpt>
<trkpt lat="48.440252" lon="2.668235"><ele></ele><time>2017-9-19T2:45:14Z</time></trkpt>
<trkpt lat="48.440328" lon="2.668265"><ele></ele><time>2017-9-19T2:45:17Z</time></trkpt>
<trkpt lat="48.4404" lon="2.6683"><ele></ele><time>2017-9-19T2:45:20Z</time></trkpt>
<trkpt lat="48.44047" lon="2.668338"><ele></ele><time>2017-9-19T2:45:23Z</time></trkpt>
<trkpt lat="48.440542" lon="2.668377"><ele></ele><time>2017-9-19T2:45:26Z</time></trkpt>
<trkpt lat="48.440613" lon="2.668415"><ele></ele><time>2017-9-19T2:45:29Z</time></trkpt>
<trkpt lat="48.440685" lon="2.66845"><ele></ele><time>2017-9-19T2:45:32Z</time></trkpt>
<trkpt lat="48.440748" lon="2.668483"><ele></ele><time>2017-9-19T2:45:35Z</time></trkpt>
<trkpt lat="48.440783" lon="2.668502"><ele></ele><time>2017-9-19T2:45:38Z</time></trkpt>
<trkpt lat="48.44085" lon="2.668538"><ele></ele><time>2017-9-19T2:45:41Z</time></trkpt>
<trkpt lat="48.440912" lon="2.668575"><ele></ele><time>2017-9-19T2:45:44Z</time></trkpt>
<trkpt lat="48.440975" lon="2.668612"><ele></ele><time>2017-9-19T2:45:47Z</time></trkpt>
<trkpt lat="48.441043" lon="2.668648"><ele></ele><time>2017-9-19T2:45:50Z</time></trkpt>
<trkpt lat="48.44111" lon="2.668685"><ele></ele><time>2017-9-19T2:45:53Z</time></trkpt>
<trkpt lat="48.441175" lon="2.66872"><ele></ele><time>2017-9-19T2:45:56Z</time></trkpt>
<trkpt lat="48.44124" lon="2.668767"><ele></ele><time>2017-9-19T2:45:59Z</time></trkpt>
<trkpt lat="48.441315" lon="2.66882"><ele></ele><time>2017-9-19T2:46:2Z</time></trkpt>
<trkpt lat="48.441388" lon="2.66887"><ele></ele><time>2017-9-19T2:46:5Z</time></trkpt>
<trkpt lat="48.441463" lon="2.668915"><ele></ele><time>2017-9-19T2:46:8Z</time></trkpt>
<trkpt lat="48.44154" lon="2.668957"><ele></ele><time>2017-9-19T2:46:11Z</time></trkpt>
<trkpt lat="48.441623" lon="2.668997"><ele></ele><time>2017-9-19T2:46:14Z</time></trkpt>
<trkpt lat="48.441703" lon="2.669045"><ele></ele><time>2017-9-19T2:46:17Z</time></trkpt>
<trkpt lat="48.441782" lon="2.669097"><ele></ele><time>2017-9-19T2:46:20Z</time></trkpt>
<trkpt lat="48.441843" lon="2.669148"><ele></ele><time>2017-9-19T2:46:23Z</time></trkpt>
<trkpt lat="48.441892" lon="2.669217"><ele></ele><time>2017-9-19T2:46:26Z</time></trkpt>
<trkpt lat="48.441957" lon="2.669283"><ele></ele><time>2017-9-19T2:46:29Z</time></trkpt>
<trkpt lat="48.442037" lon="2.669308"><ele></ele><time>2017-9-19T2:46:32Z</time></trkpt>
<trkpt lat="48.44209" lon="2.669325"><ele></ele><time>2017-9-19T2:46:35Z</time></trkpt>
<trkpt lat="48.442128" lon="2.669315"><ele></ele><time>2017-9-19T2:46:38Z</time></trkpt>
<trkpt lat="48.442237" lon="2.669365"><ele></ele><time>2017-9-19T2:46:41Z</time></trkpt>
<trkpt lat="48.442297" lon="2.669408"><ele></ele><time>2017-9-19T2:46:44Z</time></trkpt>
<trkpt lat="48.442378" lon="2.66943"><ele></ele><time>2017-9-19T2:46:47Z</time></trkpt>
<trkpt lat="48.44246" lon="2.669463"><ele></ele><time>2017-9-19T2:46:50Z</time></trkpt>
<trkpt lat="48.442532" lon="2.669458"><ele></ele><time>2017-9-19T2:46:53Z</time></trkpt>
<trkpt lat="48.442612" lon="2.669465"><ele></ele><time>2017-9-19T2:46:56Z</time></trkpt>
<trkpt lat="48.442683" lon="2.669452"><ele></ele><time>2017-9-19T2:46:59Z</time></trkpt>
<trkpt lat="48.442762" lon="2.669417"><ele></ele><time>2017-9-19T2:47:2Z</time></trkpt>
<trkpt lat="48.442803" lon="2.669393"><ele></ele><time>2017-9-19T2:47:5Z</time></trkpt>
<trkpt lat="48.442855" lon="2.669358"><ele></ele><time>2017-9-19T2:47:8Z</time></trkpt>
<trkpt lat="48.442905" lon="2.669388"><ele></ele><time>2017-9-19T2:47:11Z</time></trkpt>
<trkpt lat="48.442992" lon="2.669418"><ele></ele><time>2017-9-19T2:47:14Z</time></trkpt>
<trkpt lat="48.443033" lon="2.669473"><ele></ele><time>2017-9-19T2:47:17Z</time></trkpt>
<trkpt lat="48.443103" lon="2.669523"><ele></ele><time>2017-9-19T2:47:20Z</time></trkpt>
<trkpt lat="48.443188" lon="2.669552"><ele></ele><time>2017-9-19T2:47:23Z</time></trkpt>
<trkpt lat="48.443275" lon="2.669575"><ele></ele><time>2017-9-19T2:47:26Z</time></trkpt>
<trkpt lat="48.443357" lon="2.669598"><ele></ele><time>2017-9-19T2:47:29Z</time></trkpt>
<trkpt lat="48.443428" lon="2.669605"><ele></ele><time>2017-9-19T2:47:32Z</time></trkpt>
<trkpt lat="48.443458" lon="2.669607"><ele></ele><time>2017-9-19T2:47:35Z</time></trkpt>
<trkpt lat="48.443533" lon="2.6697"><ele></ele><time>2017-9-19T2:47:38Z</time></trkpt>
<trkpt lat="48.443592" lon="2.669795"><ele></ele><time>2017-9-19T2:47:41Z</time></trkpt>
<trkpt lat="48.443673" lon="2.669798"><ele></ele><time>2017-9-19T2:47:44Z</time></trkpt>
<trkpt lat="48.443697" lon="2.669722"><ele></ele><time>2017-9-19T2:47:47Z</time></trkpt>
<trkpt lat="48.4437" lon="2.669587"><ele></ele><time>2017-9-19T2:47:50Z</time></trkpt>
<trkpt lat="48.443687" lon="2.669478"><ele></ele><time>2017-9-19T2:47:53Z</time></trkpt>
<trkpt lat="48.443695" lon="2.669353"><ele></ele><time>2017-9-19T2:47:56Z</time></trkpt>
<trkpt lat="48.443748" lon="2.66928"><ele></ele><time>2017-9-19T2:47:59Z</time></trkpt>
<trkpt lat="48.443797" lon="2.669242"><ele></ele><time>2017-9-19T2:48:2Z</time></trkpt>
<trkpt lat="48.443845" lon="2.669197"><ele></ele><time>2017-9-19T2:48:5Z</time></trkpt>
<trkpt lat="48.443903" lon="2.669105"><ele></ele><time>2017-9-19T2:48:8Z</time></trkpt>
<trkpt lat="48.443973" lon="2.669055"><ele></ele><time>2017-9-19T2:48:11Z</time></trkpt>
<trkpt lat="48.444023" lon="2.668992"><ele></ele><time>2017-9-19T2:48:14Z</time></trkpt>
<trkpt lat="48.444072" lon="2.668925"><ele></ele><time>2017-9-19T2:48:17Z</time></trkpt>
<trkpt lat="48.444125" lon="2.66886"><ele></ele><time>2017-9-19T2:48:20Z</time></trkpt>
<trkpt lat="48.444177" lon="2.668795"><ele></ele><time>2017-9-19T2:48:23Z</time></trkpt>
<trkpt lat="48.444205" lon="2.66876"><ele></ele><time>2017-9-19T2:48:26Z</time></trkpt>
<trkpt lat="48.444298" lon="2.668653"><ele></ele><time>2017-9-19T2:48:29Z</time></trkpt>
<trkpt lat="48.444362" lon="2.668585"><ele></ele><time>2017-9-19T2:48:32Z</time></trkpt>
<trkpt lat="48.444425" lon="2.668517"><ele></ele><time>2017-9-19T2:48:35Z</time></trkpt>
<trkpt lat="48.444485" lon="2.66845"><ele></ele><time>2017-9-19T2:48:38Z</time></trkpt>
<trkpt lat="48.444548" lon="2.668377"><ele></ele><time>2017-9-19T2:48:41Z</time></trkpt>
<trkpt lat="48.444613" lon="2.668298"><ele></ele><time>2017-9-19T2:48:44Z</time></trkpt>
<trkpt lat="48.444673" lon="2.668217"><ele></ele><time>2017-9-19T2:48:47Z</time></trkpt>
<trkpt lat="48.444738" lon="2.668153"><ele></ele><time>2017-9-19T2:48:50Z</time></trkpt>
<trkpt lat="48.444802" lon="2.668083"><ele></ele><time>2017-9-19T2:48:53Z</time></trkpt>
<trkpt lat="48.444863" lon="2.668005"><ele></ele><time>2017-9-19T2:48:56Z</time></trkpt>
<trkpt lat="48.444923" lon="2.667925"><ele></ele><time>2017-9-19T2:48:59Z</time></trkpt>
<trkpt lat="48.444985" lon="2.667852"><ele></ele><time>2017-9-19T2:49:2Z</time></trkpt>
<trkpt lat="48.445047" lon="2.66778"><ele></ele><time>2017-9-19T2:49:5Z</time></trkpt>
<trkpt lat="48.44511" lon="2.667708"><ele></ele><time>2017-9-19T2:49:8Z</time></trkpt>
<trkpt lat="48.445168" lon="2.667632"><ele></ele><time>2017-9-19T2:49:11Z</time></trkpt>
<trkpt lat="48.44523" lon="2.667558"><ele></ele><time>2017-9-19T2:49:14Z</time></trkpt>
<trkpt lat="48.445262" lon="2.667523"><ele></ele><time>2017-9-19T2:49:17Z</time></trkpt>
<trkpt lat="48.44532" lon="2.667452"><ele></ele><time>2017-9-19T2:49:20Z</time></trkpt>
<trkpt lat="48.445385" lon="2.667378"><ele></ele><time>2017-9-19T2:49:23Z</time></trkpt>
<trkpt lat="48.445448" lon="2.667303"><ele></ele><time>2017-9-19T2:49:26Z</time></trkpt>
<trkpt lat="48.445503" lon="2.667228"><ele></ele><time>2017-9-19T2:49:29Z</time></trkpt>
<trkpt lat="48.445562" lon="2.66715"><ele></ele><time>2017-9-19T2:49:32Z</time></trkpt>
<trkpt lat="48.445623" lon="2.667078"><ele></ele><time>2017-9-19T2:49:35Z</time></trkpt>
<trkpt lat="48.445682" lon="2.667015"><ele></ele><time>2017-9-19T2:49:38Z</time></trkpt>
<trkpt lat="48.445738" lon="2.666947"><ele></ele><time>2017-9-19T2:49:41Z</time></trkpt>
<trkpt lat="48.445798" lon="2.666877"><ele></ele><time>2017-9-19T2:49:44Z</time></trkpt>
<trkpt lat="48.445857" lon="2.666803"><ele></ele><time>2017-9-19T2:49:47Z</time></trkpt>
<trkpt lat="48.445915" lon="2.666725"><ele></ele><time>2017-9-19T2:49:50Z</time></trkpt>
<trkpt lat="48.445975" lon="2.666652"><ele></ele><time>2017-9-19T2:49:53Z</time></trkpt>
<trkpt lat="48.446038" lon="2.666578"><ele></ele><time>2017-9-19T2:49:56Z</time></trkpt>
<trkpt lat="48.44607" lon="2.66654"><ele></ele><time>2017-9-19T2:49:59Z</time></trkpt>
<trkpt lat="48.446153" lon="2.666423"><ele></ele><time>2017-9-19T2:50:2Z</time></trkpt>
<trkpt lat="48.446218" lon="2.66636"><ele></ele><time>2017-9-19T2:50:5Z</time></trkpt>
<trkpt lat="48.446277" lon="2.666292"><ele></ele><time>2017-9-19T2:50:8Z</time></trkpt>
<trkpt lat="48.446307" lon="2.666257"><ele></ele><time>2017-9-19T2:50:11Z</time></trkpt>
<trkpt lat="48.446478" lon="2.666053"><ele></ele><time>2017-9-19T2:50:14Z</time></trkpt>
<trkpt lat="48.446537" lon="2.665987"><ele></ele><time>2017-9-19T2:50:17Z</time></trkpt>
<trkpt lat="48.446598" lon="2.66592"><ele></ele><time>2017-9-19T2:50:20Z</time></trkpt>
<trkpt lat="48.446658" lon="2.665852"><ele></ele><time>2017-9-19T2:50:23Z</time></trkpt>
<trkpt lat="48.44672" lon="2.665783"><ele></ele><time>2017-9-19T2:50:26Z</time></trkpt>
<trkpt lat="48.446782" lon="2.665712"><ele></ele><time>2017-9-19T2:50:29Z</time></trkpt>
<trkpt lat="48.446843" lon="2.66564"><ele></ele><time>2017-9-19T2:50:32Z</time></trkpt>
<trkpt lat="48.446902" lon="2.665568"><ele></ele><time>2017-9-19T2:50:35Z</time></trkpt>
<trkpt lat="48.446958" lon="2.665493"><ele></ele><time>2017-9-19T2:50:38Z</time></trkpt>
<trkpt lat="48.447017" lon="2.665413"><ele></ele><time>2017-9-19T2:50:41Z</time></trkpt>
<trkpt lat="48.447102" lon="2.665297"><ele></ele><time>2017-9-19T2:50:44Z</time></trkpt>
<trkpt lat="48.447162" lon="2.665227"><ele></ele><time>2017-9-19T2:50:47Z</time></trkpt>
<trkpt lat="48.447188" lon="2.66519"><ele></ele><time>2017-9-19T2:50:50Z</time></trkpt>
<trkpt lat="48.447245" lon="2.665117"><ele></ele><time>2017-9-19T2:50:53Z</time></trkpt>
<trkpt lat="48.4473" lon="2.665043"><ele></ele><time>2017-9-19T2:50:56Z</time></trkpt>
<trkpt lat="48.447358" lon="2.664973"><ele></ele><time>2017-9-19T2:50:59Z</time></trkpt>
<trkpt lat="48.44742" lon="2.664903"><ele></ele><time>2017-9-19T2:51:2Z</time></trkpt>
<trkpt lat="48.447478" lon="2.664832"><ele></ele><time>2017-9-19T2:51:5Z</time></trkpt>
<trkpt lat="48.447538" lon="2.664758"><ele></ele><time>2017-9-19T2:51:8Z</time></trkpt>
<trkpt lat="48.447597" lon="2.664683"><ele></ele><time>2017-9-19T2:51:11Z</time></trkpt>
<trkpt lat="48.447662" lon="2.664613"><ele></ele><time>2017-9-19T2:51:14Z</time></trkpt>
<trkpt lat="48.447722" lon="2.664535"><ele></ele><time>2017-9-19T2:51:17Z</time></trkpt>
<trkpt lat="48.44775" lon="2.6645"><ele></ele><time>2017-9-19T2:51:20Z</time></trkpt>
<trkpt lat="48.447883" lon="2.664265"><ele></ele><time>2017-9-19T2:51:23Z</time></trkpt>
<trkpt lat="48.447927" lon="2.664178"><ele></ele><time>2017-9-19T2:51:26Z</time></trkpt>
<trkpt lat="48.447968" lon="2.66407"><ele></ele><time>2017-9-19T2:51:29Z</time></trkpt>
<trkpt lat="48.448002" lon="2.66396"><ele></ele><time>2017-9-19T2:51:32Z</time></trkpt>
<trkpt lat="48.448035" lon="2.663855"><ele></ele><time>2017-9-19T2:51:35Z</time></trkpt>
<trkpt lat="48.448063" lon="2.663748"><ele></ele><time>2017-9-19T2:51:38Z</time></trkpt>
<trkpt lat="48.448095" lon="2.66364"><ele></ele><time>2017-9-19T2:51:41Z</time></trkpt>
<trkpt lat="48.448128" lon="2.663543"><ele></ele><time>2017-9-19T2:51:44Z</time></trkpt>
<trkpt lat="48.448167" lon="2.663448"><ele></ele><time>2017-9-19T2:51:47Z</time></trkpt>
<trkpt lat="48.448202" lon="2.663337"><ele></ele><time>2017-9-19T2:51:50Z</time></trkpt>
<trkpt lat="48.448235" lon="2.66323"><ele></ele><time>2017-9-19T2:51:53Z</time></trkpt>
<trkpt lat="48.44827" lon="2.663125"><ele></ele><time>2017-9-19T2:51:56Z</time></trkpt>
<trkpt lat="48.448287" lon="2.663018"><ele></ele><time>2017-9-19T2:51:59Z</time></trkpt>
<trkpt lat="48.448298" lon="2.662967"><ele></ele><time>2017-9-19T2:52:2Z</time></trkpt>
<trkpt lat="48.448332" lon="2.66287"><ele></ele><time>2017-9-19T2:52:5Z</time></trkpt>
<trkpt lat="48.448353" lon="2.662768"><ele></ele><time>2017-9-19T2:52:8Z</time></trkpt>
<trkpt lat="48.448393" lon="2.66266"><ele></ele><time>2017-9-19T2:52:11Z</time></trkpt>
<trkpt lat="48.448437" lon="2.662545"><ele></ele><time>2017-9-19T2:52:14Z</time></trkpt>
<trkpt lat="48.448567" lon="2.662168"><ele></ele><time>2017-9-19T2:52:17Z</time></trkpt>
<trkpt lat="48.448582" lon="2.66212"><ele></ele><time>2017-9-19T2:52:20Z</time></trkpt>
<trkpt lat="48.448613" lon="2.662012"><ele></ele><time>2017-9-19T2:52:23Z</time></trkpt>
<trkpt lat="48.448637" lon="2.661918"><ele></ele><time>2017-9-19T2:52:26Z</time></trkpt>
<trkpt lat="48.448662" lon="2.661817"><ele></ele><time>2017-9-19T2:52:29Z</time></trkpt>
<trkpt lat="48.448687" lon="2.66172"><ele></ele><time>2017-9-19T2:52:32Z</time></trkpt>
<trkpt lat="48.448715" lon="2.661625"><ele></ele><time>2017-9-19T2:52:35Z</time></trkpt>
<trkpt lat="48.448747" lon="2.661525"><ele></ele><time>2017-9-19T2:52:38Z</time></trkpt>
<trkpt lat="48.448773" lon="2.66142"><ele></ele><time>2017-9-19T2:52:41Z</time></trkpt>
<trkpt lat="48.448812" lon="2.661313"><ele></ele><time>2017-9-19T2:52:44Z</time></trkpt>
<trkpt lat="48.448853" lon="2.66121"><ele></ele><time>2017-9-19T2:52:47Z</time></trkpt>
<trkpt lat="48.448887" lon="2.661108"><ele></ele><time>2017-9-19T2:52:50Z</time></trkpt>
<trkpt lat="48.448908" lon="2.661063"><ele></ele><time>2017-9-19T2:52:53Z</time></trkpt>
<trkpt lat="48.448945" lon="2.660965"><ele></ele><time>2017-9-19T2:52:56Z</time></trkpt>
<trkpt lat="48.448977" lon="2.660875"><ele></ele><time>2017-9-19T2:52:59Z</time></trkpt>
<trkpt lat="48.449078" lon="2.660517"><ele></ele><time>2017-9-19T2:53:2Z</time></trkpt>
<trkpt lat="48.449133" lon="2.660425"><ele></ele><time>2017-9-19T2:53:5Z</time></trkpt>
<trkpt lat="48.449208" lon="2.660378"><ele></ele><time>2017-9-19T2:53:8Z</time></trkpt>
<trkpt lat="48.449292" lon="2.660428"><ele></ele><time>2017-9-19T2:53:11Z</time></trkpt>
<trkpt lat="48.449378" lon="2.660448"><ele></ele><time>2017-9-19T2:53:14Z</time></trkpt>
<trkpt lat="48.449393" lon="2.660578"><ele></ele><time>2017-9-19T2:53:17Z</time></trkpt>
<trkpt lat="48.449388" lon="2.660583"><ele></ele><time>2017-9-19T2:53:20Z</time></trkpt>
<trkpt lat="48.449467" lon="2.660367"><ele></ele><time>2017-9-19T2:53:23Z</time></trkpt>
<trkpt lat="48.449467" lon="2.660325"><ele></ele><time>2017-9-19T2:53:26Z</time></trkpt>
<trkpt lat="48.449402" lon="2.660148"><ele></ele><time>2017-9-19T2:53:29Z</time></trkpt>
<trkpt lat="48.449382" lon="2.660108"><ele></ele><time>2017-9-19T2:53:32Z</time></trkpt>
<trkpt lat="48.449348" lon="2.659988"><ele></ele><time>2017-9-19T2:53:35Z</time></trkpt>
<trkpt lat="48.44939" lon="2.659892"><ele></ele><time>2017-9-19T2:53:38Z</time></trkpt>
<trkpt lat="48.449418" lon="2.659802"><ele></ele><time>2017-9-19T2:53:41Z</time></trkpt>
<trkpt lat="48.44944" lon="2.659695"><ele></ele><time>2017-9-19T2:53:44Z</time></trkpt>
<trkpt lat="48.44945" lon="2.659658"><ele></ele><time>2017-9-19T2:53:47Z</time></trkpt>
<trkpt lat="48.44949" lon="2.65951"><ele></ele><time>2017-9-19T2:53:50Z</time></trkpt>
<trkpt lat="48.449522" lon="2.659393"><ele></ele><time>2017-9-19T2:53:53Z</time></trkpt>
<trkpt lat="48.449545" lon="2.659315"><ele></ele><time>2017-9-19T2:53:56Z</time></trkpt>
<trkpt lat="48.449572" lon="2.659202"><ele></ele><time>2017-9-19T2:53:59Z</time></trkpt>
<trkpt lat="48.449628" lon="2.659097"><ele></ele><time>2017-9-19T2:54:2Z</time></trkpt>
<trkpt lat="48.4497" lon="2.659082"><ele></ele><time>2017-9-19T2:54:5Z</time></trkpt>
<trkpt lat="48.449763" lon="2.659085"><ele></ele><time>2017-9-19T2:54:8Z</time></trkpt>
<trkpt lat="48.449835" lon="2.659093"><ele></ele><time>2017-9-19T2:54:11Z</time></trkpt>
<trkpt lat="48.44992" lon="2.659097"><ele></ele><time>2017-9-19T2:54:14Z</time></trkpt>
<trkpt lat="48.449983" lon="2.659108"><ele></ele><time>2017-9-19T2:54:17Z</time></trkpt>
<trkpt lat="48.450018" lon="2.659117"><ele></ele><time>2017-9-19T2:54:20Z</time></trkpt>
<trkpt lat="48.450083" lon="2.659133"><ele></ele><time>2017-9-19T2:54:23Z</time></trkpt>
<trkpt lat="48.45015" lon="2.659145"><ele></ele><time>2017-9-19T2:54:26Z</time></trkpt>
<trkpt lat="48.45022" lon="2.65916"><ele></ele><time>2017-9-19T2:54:29Z</time></trkpt>
<trkpt lat="48.45029" lon="2.659173"><ele></ele><time>2017-9-19T2:54:32Z</time></trkpt>
<trkpt lat="48.450358" lon="2.659193"><ele></ele><time>2017-9-19T2:54:35Z</time></trkpt>
<trkpt lat="48.450437" lon="2.659205"><ele></ele><time>2017-9-19T2:54:38Z</time></trkpt>
<trkpt lat="48.450518" lon="2.659212"><ele></ele><time>2017-9-19T2:54:41Z</time></trkpt>
<trkpt lat="48.4506" lon="2.65923"><ele></ele><time>2017-9-19T2:54:44Z</time></trkpt>
<trkpt lat="48.450675" lon="2.659245"><ele></ele><time>2017-9-19T2:54:47Z</time></trkpt>
<trkpt lat="48.450703" lon="2.65925"><ele></ele><time>2017-9-19T2:54:50Z</time></trkpt>
<trkpt lat="48.450772" lon="2.659258"><ele></ele><time>2017-9-19T2:54:53Z</time></trkpt>
<trkpt lat="48.450853" lon="2.65927"><ele></ele><time>2017-9-19T2:54:56Z</time></trkpt>
<trkpt lat="48.45093" lon="2.659287"><ele></ele><time>2017-9-19T2:54:59Z</time></trkpt>
<trkpt lat="48.451018" lon="2.659307"><ele></ele><time>2017-9-19T2:55:2Z</time></trkpt>
<trkpt lat="48.451068" lon="2.659318"><ele></ele><time>2017-9-19T2:55:5Z</time></trkpt>
<trkpt lat="48.451122" lon="2.659328"><ele></ele><time>2017-9-19T2:55:8Z</time></trkpt>
<trkpt lat="48.451175" lon="2.659337"><ele></ele><time>2017-9-19T2:55:11Z</time></trkpt>
<trkpt lat="48.451228" lon="2.659343"><ele></ele><time>2017-9-19T2:55:14Z</time></trkpt>
<trkpt lat="48.45128" lon="2.659348"><ele></ele><time>2017-9-19T2:55:17Z</time></trkpt>
<trkpt lat="48.45133" lon="2.659353"><ele></ele><time>2017-9-19T2:55:20Z</time></trkpt>
<trkpt lat="48.451378" lon="2.659362"><ele></ele><time>2017-9-19T2:55:23Z</time></trkpt>
<trkpt lat="48.451427" lon="2.659373"><ele></ele><time>2017-9-19T2:55:26Z</time></trkpt>
<trkpt lat="48.451477" lon="2.659382"><ele></ele><time>2017-9-19T2:55:29Z</time></trkpt>
<trkpt lat="48.451563" lon="2.659395"><ele></ele><time>2017-9-19T2:55:32Z</time></trkpt>
<trkpt lat="48.45164" lon="2.659418"><ele></ele><time>2017-9-19T2:55:35Z</time></trkpt>
<trkpt lat="48.451687" lon="2.659427"><ele></ele><time>2017-9-19T2:55:38Z</time></trkpt>
<trkpt lat="48.45173" lon="2.659435"><ele></ele><time>2017-9-19T2:55:41Z</time></trkpt>
<trkpt lat="48.45178" lon="2.65944"><ele></ele><time>2017-9-19T2:55:44Z</time></trkpt>
<trkpt lat="48.451837" lon="2.659443"><ele></ele><time>2017-9-19T2:55:47Z</time></trkpt>
<trkpt lat="48.45189" lon="2.659445"><ele></ele><time>2017-9-19T2:55:50Z</time></trkpt>
<trkpt lat="48.451942" lon="2.659445"><ele></ele><time>2017-9-19T2:55:53Z</time></trkpt>
<trkpt lat="48.451995" lon="2.659452"><ele></ele><time>2017-9-19T2:55:56Z</time></trkpt>
<trkpt lat="48.452048" lon="2.659462"><ele></ele><time>2017-9-19T2:55:59Z</time></trkpt>
<trkpt lat="48.452102" lon="2.659472"><ele></ele><time>2017-9-19T2:56:2Z</time></trkpt>
<trkpt lat="48.452158" lon="2.659478"><ele></ele><time>2017-9-19T2:56:5Z</time></trkpt>
<trkpt lat="48.45221" lon="2.659487"><ele></ele><time>2017-9-19T2:56:8Z</time></trkpt>
<trkpt lat="48.452262" lon="2.659495"><ele></ele><time>2017-9-19T2:56:11Z</time></trkpt>
<trkpt lat="48.452315" lon="2.659502"><ele></ele><time>2017-9-19T2:56:14Z</time></trkpt>
<trkpt lat="48.452367" lon="2.659507"><ele></ele><time>2017-9-19T2:56:17Z</time></trkpt>
<trkpt lat="48.452415" lon="2.659515"><ele></ele><time>2017-9-19T2:56:20Z</time></trkpt>
<trkpt lat="48.452463" lon="2.659527"><ele></ele><time>2017-9-19T2:56:23Z</time></trkpt>
<trkpt lat="48.452512" lon="2.659535"><ele></ele><time>2017-9-19T2:56:26Z</time></trkpt>
<trkpt lat="48.45256" lon="2.659543"><ele></ele><time>2017-9-19T2:56:29Z</time></trkpt>
<trkpt lat="48.45261" lon="2.659547"><ele></ele><time>2017-9-19T2:56:32Z</time></trkpt>
<trkpt lat="48.45266" lon="2.659553"><ele></ele><time>2017-9-19T2:56:35Z</time></trkpt>
<trkpt lat="48.452708" lon="2.659563"><ele></ele><time>2017-9-19T2:56:38Z</time></trkpt>
<trkpt lat="48.452755" lon="2.659572"><ele></ele><time>2017-9-19T2:56:41Z</time></trkpt>
<trkpt lat="48.452803" lon="2.659575"><ele></ele><time>2017-9-19T2:56:44Z</time></trkpt>
<trkpt lat="48.452852" lon="2.659582"><ele></ele><time>2017-9-19T2:56:47Z</time></trkpt>
<trkpt lat="48.4529" lon="2.65959"><ele></ele><time>2017-9-19T2:56:50Z</time></trkpt>
<trkpt lat="48.452993" lon="2.65961"><ele></ele><time>2017-9-19T2:56:53Z</time></trkpt>
<trkpt lat="48.453087" lon="2.65963"><ele></ele><time>2017-9-19T2:56:56Z</time></trkpt>
<trkpt lat="48.45318" lon="2.659647"><ele></ele><time>2017-9-19T2:56:59Z</time></trkpt>
<trkpt lat="48.453228" lon="2.659653"><ele></ele><time>2017-9-19T2:57:2Z</time></trkpt>
<trkpt lat="48.453277" lon="2.659662"><ele></ele><time>2017-9-19T2:57:5Z</time></trkpt>
<trkpt lat="48.453322" lon="2.659672"><ele></ele><time>2017-9-19T2:57:8Z</time></trkpt>
<trkpt lat="48.453367" lon="2.659682"><ele></ele><time>2017-9-19T2:57:11Z</time></trkpt>
<trkpt lat="48.453415" lon="2.65969"><ele></ele><time>2017-9-19T2:57:14Z</time></trkpt>
<trkpt lat="48.453463" lon="2.659697"><ele></ele><time>2017-9-19T2:57:17Z</time></trkpt>
<trkpt lat="48.453508" lon="2.659705"><ele></ele><time>2017-9-19T2:57:20Z</time></trkpt>
<trkpt lat="48.453553" lon="2.659712"><ele></ele><time>2017-9-19T2:57:23Z</time></trkpt>
<trkpt lat="48.453602" lon="2.659718"><ele></ele><time>2017-9-19T2:57:26Z</time></trkpt>
<trkpt lat="48.45365" lon="2.659725"><ele></ele><time>2017-9-19T2:57:29Z</time></trkpt>
<trkpt lat="48.4537" lon="2.659732"><ele></ele><time>2017-9-19T2:57:32Z</time></trkpt>
<trkpt lat="48.45375" lon="2.659738"><ele></ele><time>2017-9-19T2:57:35Z</time></trkpt>
<trkpt lat="48.453798" lon="2.659745"><ele></ele><time>2017-9-19T2:57:38Z</time></trkpt>
<trkpt lat="48.453847" lon="2.659753"><ele></ele><time>2017-9-19T2:57:41Z</time></trkpt>
<trkpt lat="48.453927" lon="2.659773"><ele></ele><time>2017-9-19T2:57:44Z</time></trkpt>
<trkpt lat="48.453975" lon="2.659783"><ele></ele><time>2017-9-19T2:57:47Z</time></trkpt>
<trkpt lat="48.454068" lon="2.659797"><ele></ele><time>2017-9-19T2:57:50Z</time></trkpt>
<trkpt lat="48.454118" lon="2.659802"><ele></ele><time>2017-9-19T2:57:53Z</time></trkpt>
<trkpt lat="48.454168" lon="2.659807"><ele></ele><time>2017-9-19T2:57:56Z</time></trkpt>
<trkpt lat="48.454215" lon="2.659815"><ele></ele><time>2017-9-19T2:57:59Z</time></trkpt>
<trkpt lat="48.454262" lon="2.659823"><ele></ele><time>2017-9-19T2:58:2Z</time></trkpt>
<trkpt lat="48.454308" lon="2.659832"><ele></ele><time>2017-9-19T2:58:5Z</time></trkpt>
<trkpt lat="48.454357" lon="2.659838"><ele></ele><time>2017-9-19T2:58:8Z</time></trkpt>
<trkpt lat="48.454403" lon="2.659847"><ele></ele><time>2017-9-19T2:58:11Z</time></trkpt>
<trkpt lat="48.454492" lon="2.659872"><ele></ele><time>2017-9-19T2:58:14Z</time></trkpt>
<trkpt lat="48.454535" lon="2.659887"><ele></ele><time>2017-9-19T2:58:17Z</time></trkpt>
<trkpt lat="48.454585" lon="2.659898"><ele></ele><time>2017-9-19T2:58:20Z</time></trkpt>
<trkpt lat="48.454635" lon="2.659908"><ele></ele><time>2017-9-19T2:58:23Z</time></trkpt>
<trkpt lat="48.454685" lon="2.659917"><ele></ele><time>2017-9-19T2:58:26Z</time></trkpt>
<trkpt lat="48.454737" lon="2.659927"><ele></ele><time>2017-9-19T2:58:29Z</time></trkpt>
<trkpt lat="48.454788" lon="2.659938"><ele></ele><time>2017-9-19T2:58:32Z</time></trkpt>
<trkpt lat="48.454832" lon="2.659947"><ele></ele><time>2017-9-19T2:58:35Z</time></trkpt>
<trkpt lat="48.454878" lon="2.659953"><ele></ele><time>2017-9-19T2:58:38Z</time></trkpt>
<trkpt lat="48.454925" lon="2.65996"><ele></ele><time>2017-9-19T2:58:41Z</time></trkpt>
<trkpt lat="48.45497" lon="2.659967"><ele></ele><time>2017-9-19T2:58:44Z</time></trkpt>
<trkpt lat="48.45502" lon="2.659978"><ele></ele><time>2017-9-19T2:58:47Z</time></trkpt>
<trkpt lat="48.455068" lon="2.65999"><ele></ele><time>2017-9-19T2:58:50Z</time></trkpt>
<trkpt lat="48.455117" lon="2.659997"><ele></ele><time>2017-9-19T2:58:53Z</time></trkpt>
<trkpt lat="48.455165" lon="2.660007"><ele></ele><time>2017-9-19T2:58:56Z</time></trkpt>
<trkpt lat="48.455213" lon="2.660015"><ele></ele><time>2017-9-19T2:58:59Z</time></trkpt>
<trkpt lat="48.455258" lon="2.660028"><ele></ele><time>2017-9-19T2:59:2Z</time></trkpt>
<trkpt lat="48.45536" lon="2.660048"><ele></ele><time>2017-9-19T2:59:5Z</time></trkpt>
<trkpt lat="48.45541" lon="2.660057"><ele></ele><time>2017-9-19T2:59:8Z</time></trkpt>
<trkpt lat="48.455457" lon="2.660063"><ele></ele><time>2017-9-19T2:59:11Z</time></trkpt>
<trkpt lat="48.455507" lon="2.66007"><ele></ele><time>2017-9-19T2:59:14Z</time></trkpt>
<trkpt lat="48.455558" lon="2.660075"><ele></ele><time>2017-9-19T2:59:17Z</time></trkpt>
<trkpt lat="48.455608" lon="2.66008"><ele></ele><time>2017-9-19T2:59:20Z</time></trkpt>
<trkpt lat="48.455658" lon="2.660083"><ele></ele><time>2017-9-19T2:59:23Z</time></trkpt>
<trkpt lat="48.455708" lon="2.660088"><ele></ele><time>2017-9-19T2:59:26Z</time></trkpt>
<trkpt lat="48.455758" lon="2.660092"><ele></ele><time>2017-9-19T2:59:29Z</time></trkpt>
<trkpt lat="48.455812" lon="2.660098"><ele></ele><time>2017-9-19T2:59:32Z</time></trkpt>
<trkpt lat="48.455865" lon="2.660108"><ele></ele><time>2017-9-19T2:59:35Z</time></trkpt>
<trkpt lat="48.45592" lon="2.660117"><ele></ele><time>2017-9-19T2:59:38Z</time></trkpt>
<trkpt lat="48.455975" lon="2.660125"><ele></ele><time>2017-9-19T2:59:41Z</time></trkpt>
<trkpt lat="48.456032" lon="2.660135"><ele></ele><time>2017-9-19T2:59:44Z</time></trkpt>
<trkpt lat="48.456088" lon="2.660145"><ele></ele><time>2017-9-19T2:59:47Z</time></trkpt>
<trkpt lat="48.456147" lon="2.660155"><ele></ele><time>2017-9-19T2:59:50Z</time></trkpt>
<trkpt lat="48.4562" lon="2.660165"><ele></ele><time>2017-9-19T2:59:53Z</time></trkpt>
<trkpt lat="48.456255" lon="2.660173"><ele></ele><time>2017-9-19T2:59:56Z</time></trkpt>
<trkpt lat="48.456312" lon="2.660183"><ele></ele><time>2017-9-19T2:59:59Z</time></trkpt>
<trkpt lat="48.45637" lon="2.660198"><ele></ele><time>2017-9-19T3:0:2Z</time></trkpt>
<trkpt lat="48.456427" lon="2.660213"><ele></ele><time>2017-9-19T3:0:5Z</time></trkpt>
<trkpt lat="48.456478" lon="2.66023"><ele></ele><time>2017-9-19T3:0:8Z</time></trkpt>
<trkpt lat="48.456525" lon="2.660242"><ele></ele><time>2017-9-19T3:0:11Z</time></trkpt>
<trkpt lat="48.456605" lon="2.660275"><ele></ele><time>2017-9-19T3:0:14Z</time></trkpt>
<trkpt lat="48.456678" lon="2.660328"><ele></ele><time>2017-9-19T3:0:17Z</time></trkpt>
<trkpt lat="48.456752" lon="2.660322"><ele></ele><time>2017-9-19T3:0:20Z</time></trkpt>
<trkpt lat="48.456837" lon="2.660337"><ele></ele><time>2017-9-19T3:0:23Z</time></trkpt>
<trkpt lat="48.456915" lon="2.660342"><ele></ele><time>2017-9-19T3:0:26Z</time></trkpt>
<trkpt lat="48.45694" lon="2.660347"><ele></ele><time>2017-9-19T3:0:29Z</time></trkpt>
<trkpt lat="48.457087" lon="2.660355"><ele></ele><time>2017-9-19T3:0:32Z</time></trkpt>
<trkpt lat="48.45713" lon="2.66036"><ele></ele><time>2017-9-19T3:0:35Z</time></trkpt>
<trkpt lat="48.457222" lon="2.660388"><ele></ele><time>2017-9-19T3:0:38Z</time></trkpt>
<trkpt lat="48.457333" lon="2.660433"><ele></ele><time>2017-9-19T3:0:41Z</time></trkpt>
<trkpt lat="48.4574" lon="2.660458"><ele></ele><time>2017-9-19T3:0:44Z</time></trkpt>
<trkpt lat="48.457465" lon="2.660478"><ele></ele><time>2017-9-19T3:0:47Z</time></trkpt>
<trkpt lat="48.457527" lon="2.660502"><ele></ele><time>2017-9-19T3:0:50Z</time></trkpt>
<trkpt lat="48.457592" lon="2.660523"><ele></ele><time>2017-9-19T3:0:53Z</time></trkpt>
<trkpt lat="48.457663" lon="2.660545"><ele></ele><time>2017-9-19T3:0:56Z</time></trkpt>
<trkpt lat="48.457728" lon="2.66057"><ele></ele><time>2017-9-19T3:0:59Z</time></trkpt>
<trkpt lat="48.457808" lon="2.660592"><ele></ele><time>2017-9-19T3:1:2Z</time></trkpt>
<trkpt lat="48.457915" lon="2.66059"><ele></ele><time>2017-9-19T3:1:5Z</time></trkpt>
<trkpt lat="48.458013" lon="2.660588"><ele></ele><time>2017-9-19T3:1:8Z</time></trkpt>
<trkpt lat="48.458092" lon="2.6606"><ele></ele><time>2017-9-19T3:1:11Z</time></trkpt>
<trkpt lat="48.458158" lon="2.66061"><ele></ele><time>2017-9-19T3:1:14Z</time></trkpt>
<trkpt lat="48.458228" lon="2.66063"><ele></ele><time>2017-9-19T3:1:17Z</time></trkpt>
<trkpt lat="48.458293" lon="2.660642"><ele></ele><time>2017-9-19T3:1:20Z</time></trkpt>
<trkpt lat="48.458353" lon="2.660652"><ele></ele><time>2017-9-19T3:1:23Z</time></trkpt>
<trkpt lat="48.458407" lon="2.660664"><ele></ele><time>2017-9-19T3:1:26Z</time></trkpt>
<trkpt lat="48.458465" lon="2.660678"><ele></ele><time>2017-9-19T3:1:29Z</time></trkpt>
<trkpt lat="48.458525" lon="2.660698"><ele></ele><time>2017-9-19T3:1:32Z</time></trkpt>
<trkpt lat="48.458587" lon="2.660722"><ele></ele><time>2017-9-19T3:1:35Z</time></trkpt>
<trkpt lat="48.458648" lon="2.660745"><ele></ele><time>2017-9-19T3:1:38Z</time></trkpt>
<trkpt lat="48.458792" lon="2.66081"><ele></ele><time>2017-9-19T3:1:41Z</time></trkpt>
<trkpt lat="48.458912" lon="2.660878"><ele></ele><time>2017-9-19T3:1:44Z</time></trkpt>
<trkpt lat="48.459028" lon="2.66098"><ele></ele><time>2017-9-19T3:1:47Z</time></trkpt>
<trkpt lat="48.459078" lon="2.661018"><ele></ele><time>2017-9-19T3:1:50Z</time></trkpt>
<trkpt lat="48.459127" lon="2.661053"><ele></ele><time>2017-9-19T3:1:53Z</time></trkpt>
<trkpt lat="48.459228" lon="2.661128"><ele></ele><time>2017-9-19T3:1:56Z</time></trkpt>
<trkpt lat="48.45933" lon="2.661195"><ele></ele><time>2017-9-19T3:1:59Z</time></trkpt>
<trkpt lat="48.45937" lon="2.661227"><ele></ele><time>2017-9-19T3:2:2Z</time></trkpt>
<trkpt lat="48.459442" lon="2.661292"><ele></ele><time>2017-9-19T3:2:5Z</time></trkpt>
<trkpt lat="48.45948" lon="2.661318"><ele></ele><time>2017-9-19T3:2:8Z</time></trkpt>
<trkpt lat="48.459565" lon="2.661358"><ele></ele><time>2017-9-19T3:2:11Z</time></trkpt>
<trkpt lat="48.459652" lon="2.661398"><ele></ele><time>2017-9-19T3:2:14Z</time></trkpt>
<trkpt lat="48.459735" lon="2.66143"><ele></ele><time>2017-9-19T3:2:17Z</time></trkpt>
<trkpt lat="48.459812" lon="2.661475"><ele></ele><time>2017-9-19T3:2:20Z</time></trkpt>
<trkpt lat="48.459893" lon="2.661475"><ele></ele><time>2017-9-19T3:2:23Z</time></trkpt>
<trkpt lat="48.459975" lon="2.661428"><ele></ele><time>2017-9-19T3:2:26Z</time></trkpt>
<trkpt lat="48.459998" lon="2.661412"><ele></ele><time>2017-9-19T3:2:29Z</time></trkpt>
<trkpt lat="48.460107" lon="2.661353"><ele></ele><time>2017-9-19T3:2:32Z</time></trkpt>
<trkpt lat="48.460175" lon="2.66133"><ele></ele><time>2017-9-19T3:2:35Z</time></trkpt>
<trkpt lat="48.460262" lon="2.661305"><ele></ele><time>2017-9-19T3:2:38Z</time></trkpt>
<trkpt lat="48.460342" lon="2.661282"><ele></ele><time>2017-9-19T3:2:41Z</time></trkpt>
<trkpt lat="48.46042" lon="2.661218"><ele></ele><time>2017-9-19T3:2:44Z</time></trkpt>
<trkpt lat="48.460443" lon="2.661188"><ele></ele><time>2017-9-19T3:2:47Z</time></trkpt>
<trkpt lat="48.460488" lon="2.661122"><ele></ele><time>2017-9-19T3:2:50Z</time></trkpt>
<trkpt lat="48.460517" lon="2.66105"><ele></ele><time>2017-9-19T3:2:53Z</time></trkpt>
<trkpt lat="48.46054" lon="2.66098"><ele></ele><time>2017-9-19T3:2:56Z</time></trkpt>
<trkpt lat="48.460597" lon="2.660875"><ele></ele><time>2017-9-19T3:2:59Z</time></trkpt>
<trkpt lat="48.460662" lon="2.660783"><ele></ele><time>2017-9-19T3:3:2Z</time></trkpt>
<trkpt lat="48.460723" lon="2.660715"><ele></ele><time>2017-9-19T3:3:5Z</time></trkpt>
<trkpt lat="48.460773" lon="2.660628"><ele></ele><time>2017-9-19T3:3:8Z</time></trkpt>
<trkpt lat="48.460857" lon="2.660583"><ele></ele><time>2017-9-19T3:3:11Z</time></trkpt>
<trkpt lat="48.460933" lon="2.66055"><ele></ele><time>2017-9-19T3:3:14Z</time></trkpt>
<trkpt lat="48.460998" lon="2.66049"><ele></ele><time>2017-9-19T3:3:17Z</time></trkpt>
<trkpt lat="48.461078" lon="2.660433"><ele></ele><time>2017-9-19T3:3:20Z</time></trkpt>
<trkpt lat="48.46116" lon="2.660442"><ele></ele><time>2017-9-19T3:3:23Z</time></trkpt>
<trkpt lat="48.461207" lon="2.660455"><ele></ele><time>2017-9-19T3:3:26Z</time></trkpt>
<trkpt lat="48.46129" lon="2.660488"><ele></ele><time>2017-9-19T3:3:29Z</time></trkpt>
<trkpt lat="48.461362" lon="2.66052"><ele></ele><time>2017-9-19T3:3:32Z</time></trkpt>
<trkpt lat="48.461403" lon="2.660525"><ele></ele><time>2017-9-19T3:3:35Z</time></trkpt>
<trkpt lat="48.461515" lon="2.660535"><ele></ele><time>2017-9-19T3:3:38Z</time></trkpt>
<trkpt lat="48.46156" lon="2.66053"><ele></ele><time>2017-9-19T3:3:41Z</time></trkpt>
<trkpt lat="48.461615" lon="2.660525"><ele></ele><time>2017-9-19T3:3:44Z</time></trkpt>
<trkpt lat="48.461673" lon="2.660515"><ele></ele><time>2017-9-19T3:3:47Z</time></trkpt>
<trkpt lat="48.461782" lon="2.660502"><ele></ele><time>2017-9-19T3:3:50Z</time></trkpt>
<trkpt lat="48.461897" lon="2.660457"><ele></ele><time>2017-9-19T3:3:53Z</time></trkpt>
<trkpt lat="48.462017" lon="2.660425"><ele></ele><time>2017-9-19T3:3:56Z</time></trkpt>
<trkpt lat="48.462118" lon="2.660408"><ele></ele><time>2017-9-19T3:3:59Z</time></trkpt>
<trkpt lat="48.462212" lon="2.660348"><ele></ele><time>2017-9-19T3:4:2Z</time></trkpt>
<trkpt lat="48.462253" lon="2.6603"><ele></ele><time>2017-9-19T3:4:5Z</time></trkpt>
<trkpt lat="48.462298" lon="2.660248"><ele></ele><time>2017-9-19T3:4:8Z</time></trkpt>
<trkpt lat="48.462343" lon="2.660207"><ele></ele><time>2017-9-19T3:4:11Z</time></trkpt>
<trkpt lat="48.46238" lon="2.66017"><ele></ele><time>2017-9-19T3:4:14Z</time></trkpt>
<trkpt lat="48.462428" lon="2.660133"><ele></ele><time>2017-9-19T3:4:17Z</time></trkpt>
<trkpt lat="48.462478" lon="2.660098"><ele></ele><time>2017-9-19T3:4:20Z</time></trkpt>
<trkpt lat="48.462525" lon="2.660067"><ele></ele><time>2017-9-19T3:4:23Z</time></trkpt>
<trkpt lat="48.462567" lon="2.660033"><ele></ele><time>2017-9-19T3:4:26Z</time></trkpt>
<trkpt lat="48.462608" lon="2.659995"><ele></ele><time>2017-9-19T3:4:29Z</time></trkpt>
<trkpt lat="48.462682" lon="2.659918"><ele></ele><time>2017-9-19T3:4:32Z</time></trkpt>
<trkpt lat="48.46272" lon="2.659883"><ele></ele><time>2017-9-19T3:4:35Z</time></trkpt>
<trkpt lat="48.46276" lon="2.65985"><ele></ele><time>2017-9-19T3:4:38Z</time></trkpt>
<trkpt lat="48.462805" lon="2.659817"><ele></ele><time>2017-9-19T3:4:41Z</time></trkpt>
<trkpt lat="48.462845" lon="2.659783"><ele></ele><time>2017-9-19T3:4:44Z</time></trkpt>
<trkpt lat="48.462885" lon="2.659748"><ele></ele><time>2017-9-19T3:4:47Z</time></trkpt>
<trkpt lat="48.462923" lon="2.659708"><ele></ele><time>2017-9-19T3:4:50Z</time></trkpt>
<trkpt lat="48.462967" lon="2.659673"><ele></ele><time>2017-9-19T3:4:53Z</time></trkpt>
<trkpt lat="48.463013" lon="2.65964"><ele></ele><time>2017-9-19T3:4:56Z</time></trkpt>
<trkpt lat="48.463093" lon="2.659585"><ele></ele><time>2017-9-19T3:4:59Z</time></trkpt>
<trkpt lat="48.463163" lon="2.659515"><ele></ele><time>2017-9-19T3:5:2Z</time></trkpt>
<trkpt lat="48.463203" lon="2.659485"><ele></ele><time>2017-9-19T3:5:5Z</time></trkpt>
<trkpt lat="48.463247" lon="2.659453"><ele></ele><time>2017-9-19T3:5:8Z</time></trkpt>
<trkpt lat="48.46329" lon="2.65942"><ele></ele><time>2017-9-19T3:5:11Z</time></trkpt>
<trkpt lat="48.463333" lon="2.659382"><ele></ele><time>2017-9-19T3:5:14Z</time></trkpt>
<trkpt lat="48.463383" lon="2.659347"><ele></ele><time>2017-9-19T3:5:17Z</time></trkpt>
<trkpt lat="48.463463" lon="2.659287"><ele></ele><time>2017-9-19T3:5:20Z</time></trkpt>
<trkpt lat="48.463505" lon="2.659253"><ele></ele><time>2017-9-19T3:5:23Z</time></trkpt>
<trkpt lat="48.463543" lon="2.659223"><ele></ele><time>2017-9-19T3:5:26Z</time></trkpt>
<trkpt lat="48.463587" lon="2.659193"><ele></ele><time>2017-9-19T3:5:29Z</time></trkpt>
<trkpt lat="48.463635" lon="2.65916"><ele></ele><time>2017-9-19T3:5:32Z</time></trkpt>
<trkpt lat="48.46368" lon="2.659125"><ele></ele><time>2017-9-19T3:5:35Z</time></trkpt>
<trkpt lat="48.463723" lon="2.659083"><ele></ele><time>2017-9-19T3:5:38Z</time></trkpt>
<trkpt lat="48.463767" lon="2.659043"><ele></ele><time>2017-9-19T3:5:41Z</time></trkpt>
<trkpt lat="48.463852" lon="2.658968"><ele></ele><time>2017-9-19T3:5:44Z</time></trkpt>
<trkpt lat="48.463927" lon="2.658917"><ele></ele><time>2017-9-19T3:5:47Z</time></trkpt>
<trkpt lat="48.464013" lon="2.658858"><ele></ele><time>2017-9-19T3:5:50Z</time></trkpt>
<trkpt lat="48.464093" lon="2.658803"><ele></ele><time>2017-9-19T3:5:53Z</time></trkpt>
<trkpt lat="48.464163" lon="2.65875"><ele></ele><time>2017-9-19T3:5:56Z</time></trkpt>
<trkpt lat="48.464235" lon="2.658687"><ele></ele><time>2017-9-19T3:5:59Z</time></trkpt>
<trkpt lat="48.464303" lon="2.658615"><ele></ele><time>2017-9-19T3:6:2Z</time></trkpt>
<trkpt lat="48.464375" lon="2.658565"><ele></ele><time>2017-9-19T3:6:5Z</time></trkpt>
<trkpt lat="48.464455" lon="2.65854"><ele></ele><time>2017-9-19T3:6:8Z</time></trkpt>
<trkpt lat="48.464545" lon="2.658535"><ele></ele><time>2017-9-19T3:6:11Z</time></trkpt>
<trkpt lat="48.464623" lon="2.658553"><ele></ele><time>2017-9-19T3:6:14Z</time></trkpt>
<trkpt lat="48.464708" lon="2.658577"><ele></ele><time>2017-9-19T3:6:17Z</time></trkpt>
<trkpt lat="48.464793" lon="2.658567"><ele></ele><time>2017-9-19T3:6:20Z</time></trkpt>
<trkpt lat="48.464877" lon="2.658537"><ele></ele><time>2017-9-19T3:6:23Z</time></trkpt>
<trkpt lat="48.464962" lon="2.658515"><ele></ele><time>2017-9-19T3:6:26Z</time></trkpt>
<trkpt lat="48.465007" lon="2.658507"><ele></ele><time>2017-9-19T3:6:29Z</time></trkpt>
<trkpt lat="48.46506" lon="2.658495"><ele></ele><time>2017-9-19T3:6:32Z</time></trkpt>
<trkpt lat="48.465115" lon="2.658485"><ele></ele><time>2017-9-19T3:6:35Z</time></trkpt>
<trkpt lat="48.465172" lon="2.658475"><ele></ele><time>2017-9-19T3:6:38Z</time></trkpt>
<trkpt lat="48.46523" lon="2.65846"><ele></ele><time>2017-9-19T3:6:41Z</time></trkpt>
<trkpt lat="48.465317" lon="2.658433"><ele></ele><time>2017-9-19T3:6:44Z</time></trkpt>
<trkpt lat="48.465413" lon="2.658438"><ele></ele><time>2017-9-19T3:6:47Z</time></trkpt>
<trkpt lat="48.465483" lon="2.658497"><ele></ele><time>2017-9-19T3:6:50Z</time></trkpt>
<trkpt lat="48.46556" lon="2.65855"><ele></ele><time>2017-9-19T3:6:53Z</time></trkpt>
<trkpt lat="48.465645" lon="2.658528"><ele></ele><time>2017-9-19T3:6:56Z</time></trkpt>
<trkpt lat="48.465735" lon="2.658472"><ele></ele><time>2017-9-19T3:6:59Z</time></trkpt>
<trkpt lat="48.465815" lon="2.65843"><ele></ele><time>2017-9-19T3:7:2Z</time></trkpt>
<trkpt lat="48.465895" lon="2.658403"><ele></ele><time>2017-9-19T3:7:5Z</time></trkpt>
<trkpt lat="48.465988" lon="2.658373"><ele></ele><time>2017-9-19T3:7:8Z</time></trkpt>
<trkpt lat="48.466073" lon="2.65836"><ele></ele><time>2017-9-19T3:7:11Z</time></trkpt>
<trkpt lat="48.46616" lon="2.65837"><ele></ele><time>2017-9-19T3:7:14Z</time></trkpt>
<trkpt lat="48.466262" lon="2.658388"><ele></ele><time>2017-9-19T3:7:17Z</time></trkpt>
<trkpt lat="48.466307" lon="2.658397"><ele></ele><time>2017-9-19T3:7:20Z</time></trkpt>
<trkpt lat="48.466355" lon="2.658403"><ele></ele><time>2017-9-19T3:7:23Z</time></trkpt>
<trkpt lat="48.466402" lon="2.658407"><ele></ele><time>2017-9-19T3:7:26Z</time></trkpt>
<trkpt lat="48.466453" lon="2.65841"><ele></ele><time>2017-9-19T3:7:29Z</time></trkpt>
<trkpt lat="48.466537" lon="2.658428"><ele></ele><time>2017-9-19T3:7:32Z</time></trkpt>
<trkpt lat="48.466618" lon="2.658452"><ele></ele><time>2017-9-19T3:7:35Z</time></trkpt>
<trkpt lat="48.466692" lon="2.65847"><ele></ele><time>2017-9-19T3:7:38Z</time></trkpt>
<trkpt lat="48.466733" lon="2.658468"><ele></ele><time>2017-9-19T3:7:41Z</time></trkpt>
</trkseg></trk></gpx>